<?xml version='1.0' encoding='UTF-8'?><gpx version="1.1" creator="JPX - https://github.com/jenetics/jpx" xmlns="http://www.topografix.com/GPX/1/1"><trk><trkseg><trkpt lat="43.946830922654115" lon="4.541787916107654"><ele>47.0</ele><time>2026-04-06T15:14:13Z</time></trkpt><trkpt lat="43.94676182148115" lon="4.541788074385537"><ele>47.0</ele><time>2026-04-06T15:14:15Z</time></trkpt><trkpt lat="43.946682186965724" lon="4.541776010691849"><ele>47.0</ele><time>2026-04-06T15:14:17Z</time></trkpt><trkpt lat="43.946600012740255" lon="4.541742617724387"><ele>47.0</ele><time>2026-04-06T15:14:19Z</time></trkpt><trkpt lat="43.94652218737919" lon="4.54170234974223"><ele>47.0</ele><time>2026-04-06T15:14:21Z</time></trkpt><trkpt lat="43.94644196262063" lon="4.541658511094065"><ele>47.0</ele><time>2026-04-06T15:14:23Z</time></trkpt><trkpt lat="43.94637395671852" lon="4.541611711220838"><ele>47.857142857142854</ele><time>2026-04-06T15:14:25Z</time></trkpt><trkpt lat="43.94631436857896" lon="4.541562173744125"><ele>48.71428571428571</ele><time>2026-04-06T15:14:27Z</time></trkpt><trkpt lat="43.946279338255" lon="4.5414661130016025"><ele>49.57142857142857</ele><time>2026-04-06T15:14:29Z</time></trkpt><trkpt lat="43.94623879417124" lon="4.541398888691565"><ele>50.42857142857143</ele><time>2026-04-06T15:14:32.001Z</time></trkpt><trkpt lat="43.9461867490861" lon="4.541343591616483"><ele>51.285714285714285</ele><time>2026-04-06T15:14:37.001Z</time></trkpt><trkpt lat="43.9461118634235" lon="4.54131172080401"><ele>52.142857142857146</ele><time>2026-04-06T15:14:49.001Z</time></trkpt><trkpt lat="43.94602747760741" lon="4.541273486545649"><ele>53.0</ele><time>2026-04-06T15:14:51.001Z</time></trkpt><trkpt lat="43.9459594724172" lon="4.541247061279583"><ele>53.0</ele><time>2026-04-06T15:14:53.001Z</time></trkpt><trkpt lat="43.945897265534846" lon="4.5412245639317685"><ele>53.0</ele><time>2026-04-06T15:14:55.001Z</time></trkpt><trkpt lat="43.945831363343764" lon="4.5412096529254455"><ele>53.0</ele><time>2026-04-06T15:14:57.001Z</time></trkpt><trkpt lat="43.94577166784153" lon="4.541170269626248"><ele>53.0</ele><time>2026-04-06T15:15:00.001Z</time></trkpt><trkpt lat="43.94570337606085" lon="4.541127336901028"><ele>53.0</ele><time>2026-04-06T15:15:03.001Z</time></trkpt><trkpt lat="43.94564121427306" lon="4.5410795930593615"><ele>53.0</ele><time>2026-04-06T15:15:06.001Z</time></trkpt><trkpt lat="43.94557736019348" lon="4.54101061691266"><ele>53.0</ele><time>2026-04-06T15:15:08.001Z</time></trkpt><trkpt lat="43.94549973177283" lon="4.540977780763303"><ele>54.66666666666667</ele><time>2026-04-06T15:15:11.001Z</time></trkpt><trkpt lat="43.94540539109977" lon="4.540992563851224"><ele>56.333333333333336</ele><time>2026-04-06T15:15:15.001Z</time></trkpt><trkpt lat="43.94537606298058" lon="4.540902158630256"><ele>58.0</ele><time>2026-04-06T15:15:18.001Z</time></trkpt><trkpt lat="43.945310635388516" lon="4.540854357627053"><ele>59.66666666666667</ele><time>2026-04-06T15:15:21.001Z</time></trkpt><trkpt lat="43.9452396504649" lon="4.5408035741039265"><ele>61.333333333333336</ele><time>2026-04-06T15:15:23.001Z</time></trkpt><trkpt lat="43.94513316875497" lon="4.540769646997568"><ele>63.0</ele><time>2026-04-06T15:15:26.001Z</time></trkpt><trkpt lat="43.9450422722299" lon="4.540738206888841"><ele>63.166666666666664</ele><time>2026-04-06T15:15:28.001Z</time></trkpt><trkpt lat="43.944965565518665" lon="4.540704566279969"><ele>63.33333333333333</ele><time>2026-04-06T15:15:30.001Z</time></trkpt><trkpt lat="43.94487574619367" lon="4.540649123339729"><ele>63.5</ele><time>2026-04-06T15:15:33.001Z</time></trkpt><trkpt lat="43.94481394080684" lon="4.540614485159424"><ele>63.666666666666664</ele><time>2026-04-06T15:15:35.001Z</time></trkpt><trkpt lat="43.944747438452914" lon="4.540592744501445"><ele>63.83333333333333</ele><time>2026-04-06T15:15:38.001Z</time></trkpt><trkpt lat="43.94468248388429" lon="4.540586662983115"><ele>64.0</ele><time>2026-04-06T15:15:40.001Z</time></trkpt><trkpt lat="43.94460681675972" lon="4.540600599575236"><ele>63.99999999999999</ele><time>2026-04-06T15:15:43.001Z</time></trkpt><trkpt lat="43.94453735842458" lon="4.540543318352545"><ele>64.0</ele><time>2026-04-06T15:15:48Z</time></trkpt><trkpt lat="43.944478243090366" lon="4.5404734703120635"><ele>64.0</ele><time>2026-04-06T15:15:51Z</time></trkpt><trkpt lat="43.944434519507375" lon="4.540409925258781"><ele>64.0</ele><time>2026-04-06T15:15:54Z</time></trkpt><trkpt lat="43.94437139641973" lon="4.5403329749238885"><ele>63.99999999999999</ele><time>2026-04-06T15:15:57Z</time></trkpt><trkpt lat="43.94431105425067" lon="4.540245734734815"><ele>64.0</ele><time>2026-04-06T15:16:00Z</time></trkpt><trkpt lat="43.94423095777443" lon="4.540219184166852"><ele>65.14285714285714</ele><time>2026-04-06T15:16:02Z</time></trkpt><trkpt lat="43.94416602705745" lon="4.540163231420459"><ele>66.28571428571428</ele><time>2026-04-06T15:16:05Z</time></trkpt><trkpt lat="43.94410139501579" lon="4.540133951728036"><ele>67.42857142857143</ele><time>2026-04-06T15:16:11Z</time></trkpt><trkpt lat="43.94404042116726" lon="4.540090839466294"><ele>68.57142857142857</ele><time>2026-04-06T15:16:16Z</time></trkpt><trkpt lat="43.94397386423255" lon="4.540070613444912"><ele>69.71428571428572</ele><time>2026-04-06T15:16:21Z</time></trkpt><trkpt lat="43.943901202384005" lon="4.5400276449268056"><ele>70.85714285714286</ele><time>2026-04-06T15:16:25Z</time></trkpt><trkpt lat="43.943839510984645" lon="4.53998344417174"><ele>72.0</ele><time>2026-04-06T15:16:34Z</time></trkpt><trkpt lat="43.94377363744821" lon="4.539931657776919"><ele>72.00000000000001</ele><time>2026-04-06T15:16:41Z</time></trkpt><trkpt lat="43.94372867171599" lon="4.539866410468509"><ele>72.0</ele><time>2026-04-06T15:16:48Z</time></trkpt><trkpt lat="43.943685710324786" lon="4.539801931725236"><ele>72.0</ele><time>2026-04-06T15:16:57Z</time></trkpt><trkpt lat="43.94363547320763" lon="4.53974599831606"><ele>72.0</ele><time>2026-04-06T15:17:05Z</time></trkpt><trkpt lat="43.94358072108037" lon="4.539697312349793"><ele>72.0</ele><time>2026-04-06T15:17:14.001Z</time></trkpt><trkpt lat="43.94348122728555" lon="4.539693178936119"><ele>72.00000000000001</ele><time>2026-04-06T15:17:20.001Z</time></trkpt><trkpt lat="43.943401297328876" lon="4.539696731932633"><ele>72.0</ele><time>2026-04-06T15:17:23.001Z</time></trkpt><trkpt lat="43.943326497593105" lon="4.539685009660154"><ele>73.16666666666667</ele><time>2026-04-06T15:17:26.001Z</time></trkpt><trkpt lat="43.943256007903834" lon="4.539674055668557"><ele>74.33333333333333</ele><time>2026-04-06T15:17:30.001Z</time></trkpt><trkpt lat="43.94317134468719" lon="4.539644238715965"><ele>75.5</ele><time>2026-04-06T15:17:33.001Z</time></trkpt><trkpt lat="43.94309023070715" lon="4.539597248198626"><ele>76.66666666666666</ele><time>2026-04-06T15:17:35.001Z</time></trkpt><trkpt lat="43.943007028650385" lon="4.539565108175172"><ele>77.83333333333333</ele><time>2026-04-06T15:17:38.001Z</time></trkpt><trkpt lat="43.942931980285614" lon="4.539548567571123"><ele>79.0</ele><time>2026-04-06T15:17:40.001Z</time></trkpt><trkpt lat="43.942840043132556" lon="4.539580633920088"><ele>79.0</ele><time>2026-04-06T15:17:42.001Z</time></trkpt><trkpt lat="43.9427721628059" lon="4.539595079942416"><ele>79.0</ele><time>2026-04-06T15:17:45.001Z</time></trkpt><trkpt lat="43.94269377639843" lon="4.5396233179398005"><ele>79.0</ele><time>2026-04-06T15:17:49Z</time></trkpt><trkpt lat="43.94261942827619" lon="4.539675946137576"><ele>79.0</ele><time>2026-04-06T15:17:52Z</time></trkpt><trkpt lat="43.94254205659252" lon="4.539726357050351"><ele>79.0</ele><time>2026-04-06T15:18:01Z</time></trkpt><trkpt lat="43.94247877790151" lon="4.539815403753868"><ele>79.0</ele><time>2026-04-06T15:18:04Z</time></trkpt><trkpt lat="43.94238222011246" lon="4.539930230775505"><ele>79.4</ele><time>2026-04-06T15:18:06Z</time></trkpt><trkpt lat="43.94228303765731" lon="4.539985706218784"><ele>79.80000000000001</ele><time>2026-04-06T15:18:08Z</time></trkpt><trkpt lat="43.94221227914817" lon="4.54005399809059"><ele>80.19999999999999</ele><time>2026-04-06T15:18:10Z</time></trkpt><trkpt lat="43.942126514212134" lon="4.540133194377242"><ele>80.6</ele><time>2026-04-06T15:18:12Z</time></trkpt><trkpt lat="43.942035266897115" lon="4.540187872119602"><ele>81.0</ele><time>2026-04-06T15:18:14Z</time></trkpt><trkpt lat="43.94196147312031" lon="4.540196536658642"><ele>81.0</ele><time>2026-04-06T15:18:17Z</time></trkpt><trkpt lat="43.94188814760481" lon="4.540172466325702"><ele>81.0</ele><time>2026-04-06T15:18:22Z</time></trkpt><trkpt lat="43.94180253504902" lon="4.540133284290042"><ele>81.0</ele><time>2026-04-06T15:18:24Z</time></trkpt><trkpt lat="43.941744647853014" lon="4.540041421265136"><ele>81.0</ele><time>2026-04-06T15:18:26Z</time></trkpt><trkpt lat="43.941705253744935" lon="4.539972132990349"><ele>81.0</ele><time>2026-04-06T15:18:28Z</time></trkpt><trkpt lat="43.94163510721772" lon="4.539908567549915"><ele>81.0</ele><time>2026-04-06T15:18:31Z</time></trkpt><trkpt lat="43.9415574173838" lon="4.539911861653697"><ele>81.4</ele><time>2026-04-06T15:18:33Z</time></trkpt><trkpt lat="43.94147006861118" lon="4.539987610179359"><ele>81.8</ele><time>2026-04-06T15:18:35Z</time></trkpt><trkpt lat="43.94138348213052" lon="4.540061856980692"><ele>82.2</ele><time>2026-04-06T15:18:37Z</time></trkpt><trkpt lat="43.94127746095428" lon="4.540091541869279"><ele>82.60000000000001</ele><time>2026-04-06T15:18:39Z</time></trkpt><trkpt lat="43.94120573910126" lon="4.54009328138307"><ele>83.0</ele><time>2026-04-06T15:18:41Z</time></trkpt><trkpt lat="43.94111385024125" lon="4.540047621311874"><ele>83.0</ele><time>2026-04-06T15:18:44Z</time></trkpt><trkpt lat="43.94105274874006" lon="4.54000474312345"><ele>83.0</ele><time>2026-04-06T15:18:47Z</time></trkpt><trkpt lat="43.94097814507172" lon="4.539974523873284"><ele>83.0</ele><time>2026-04-06T15:18:52Z</time></trkpt><trkpt lat="43.94090645207334" lon="4.539941951543997"><ele>83.0</ele><time>2026-04-06T15:18:57Z</time></trkpt><trkpt lat="43.940847575904215" lon="4.539891327075654"><ele>83.0</ele><time>2026-04-06T15:19:01Z</time></trkpt><trkpt lat="43.94078850158455" lon="4.539826361601225"><ele>83.0</ele><time>2026-04-06T15:19:04Z</time></trkpt><trkpt lat="43.940734675960776" lon="4.539727140840518"><ele>83.5</ele><time>2026-04-06T15:19:06Z</time></trkpt><trkpt lat="43.940668652544005" lon="4.53962985809419"><ele>84.0</ele><time>2026-04-06T15:19:08Z</time></trkpt><trkpt lat="43.94060737137372" lon="4.539580892640442"><ele>84.5</ele><time>2026-04-06T15:19:09Z</time></trkpt><trkpt lat="43.940545107522034" lon="4.5394857774238115"><ele>85.0</ele><time>2026-04-06T15:19:11Z</time></trkpt><trkpt lat="43.940483646678686" lon="4.539406813526241"><ele>85.5</ele><time>2026-04-06T15:19:13Z</time></trkpt><trkpt lat="43.940392762471426" lon="4.539334691556504"><ele>86.0</ele><time>2026-04-06T15:19:15Z</time></trkpt><trkpt lat="43.940319653802405" lon="4.539276726929331"><ele>87.5</ele><time>2026-04-06T15:19:17Z</time></trkpt><trkpt lat="43.940273870064416" lon="4.539205637792597"><ele>89.0</ele><time>2026-04-06T15:19:21Z</time></trkpt><trkpt lat="43.940240750497104" lon="4.539112477273016"><ele>90.5</ele><time>2026-04-06T15:19:24Z</time></trkpt><trkpt lat="43.940242621884614" lon="4.539010124983996"><ele>92.0</ele><time>2026-04-06T15:19:26Z</time></trkpt><trkpt lat="43.940188593760624" lon="4.538899913105018"><ele>93.5</ele><time>2026-04-06T15:19:29Z</time></trkpt><trkpt lat="43.9401340802625" lon="4.5388346345090484"><ele>95.0</ele><time>2026-04-06T15:19:31Z</time></trkpt><trkpt lat="43.94007983771915" lon="4.5387393970750916"><ele>94.57142857142857</ele><time>2026-04-06T15:19:34Z</time></trkpt><trkpt lat="43.94006638461271" lon="4.538636479347324"><ele>94.14285714285714</ele><time>2026-04-06T15:19:36Z</time></trkpt><trkpt lat="43.940065636534314" lon="4.53853202437164"><ele>93.71428571428572</ele><time>2026-04-06T15:19:38Z</time></trkpt><trkpt lat="43.94003690287673" lon="4.53845112313988"><ele>93.28571428571428</ele><time>2026-04-06T15:19:41Z</time></trkpt><trkpt lat="43.94000772656344" lon="4.53836306434952"><ele>92.85714285714285</ele><time>2026-04-06T15:19:43Z</time></trkpt><trkpt lat="43.939952886301434" lon="4.538314424581817"><ele>92.42857142857143</ele><time>2026-04-06T15:19:45Z</time></trkpt><trkpt lat="43.93990710024961" lon="4.53822422030834"><ele>92.0</ele><time>2026-04-06T15:19:49Z</time></trkpt><trkpt lat="43.93988752324254" lon="4.53810297564142"><ele>92.0</ele><time>2026-04-06T15:19:52Z</time></trkpt><trkpt lat="43.9399015828187" lon="4.537993681427245"><ele>92.0</ele><time>2026-04-06T15:19:55Z</time></trkpt><trkpt lat="43.93993450783961" lon="4.537899560961011"><ele>92.0</ele><time>2026-04-06T15:19:58Z</time></trkpt><trkpt lat="43.93994513086542" lon="4.537776496507956"><ele>92.0</ele><time>2026-04-06T15:20:01Z</time></trkpt><trkpt lat="43.939935958501614" lon="4.537648929154958"><ele>92.0</ele><time>2026-04-06T15:20:04Z</time></trkpt><trkpt lat="43.93990449928848" lon="4.537548192639412"><ele>92.0</ele><time>2026-04-06T15:20:07Z</time></trkpt><trkpt lat="43.939855178629756" lon="4.537486931800509"><ele>93.0</ele><time>2026-04-06T15:20:09Z</time></trkpt><trkpt lat="43.93979585009895" lon="4.537434023522071"><ele>94.0</ele><time>2026-04-06T15:20:13Z</time></trkpt><trkpt lat="43.9396957772782" lon="4.537397520604096"><ele>95.0</ele><time>2026-04-06T15:20:16Z</time></trkpt><trkpt lat="43.93959457372896" lon="4.537359810976992"><ele>96.0</ele><time>2026-04-06T15:20:18Z</time></trkpt><trkpt lat="43.939522999364485" lon="4.53735216376536"><ele>97.0</ele><time>2026-04-06T15:20:20Z</time></trkpt><trkpt lat="43.93941870648389" lon="4.537309333701198"><ele>97.00000000000001</ele><time>2026-04-06T15:20:23Z</time></trkpt><trkpt lat="43.93935059354686" lon="4.537277742117534"><ele>97.0</ele><time>2026-04-06T15:20:25Z</time></trkpt><trkpt lat="43.939265983506544" lon="4.537224643783315"><ele>97.0</ele><time>2026-04-06T15:20:28Z</time></trkpt><trkpt lat="43.939221905880096" lon="4.537143043092885"><ele>97.0</ele><time>2026-04-06T15:20:31Z</time></trkpt><trkpt lat="43.93917314448341" lon="4.537046654246825"><ele>97.00000000000001</ele><time>2026-04-06T15:20:33Z</time></trkpt><trkpt lat="43.93915001107381" lon="4.536954282160169"><ele>97.0</ele><time>2026-04-06T15:20:35Z</time></trkpt><trkpt lat="43.93912736265859" lon="4.53686129768803"><ele>97.83333333333334</ele><time>2026-04-06T15:20:38Z</time></trkpt><trkpt lat="43.939097686445656" lon="4.536764771710808"><ele>98.66666666666667</ele><time>2026-04-06T15:20:40Z</time></trkpt><trkpt lat="43.939077886379614" lon="4.5366717416142786"><ele>99.5</ele><time>2026-04-06T15:20:43Z</time></trkpt><trkpt lat="43.93903235182168" lon="4.5365708937517955"><ele>100.33333333333334</ele><time>2026-04-06T15:20:46Z</time></trkpt><trkpt lat="43.93894157375108" lon="4.536520649384569"><ele>101.16666666666667</ele><time>2026-04-06T15:20:49Z</time></trkpt><trkpt lat="43.93886747259844" lon="4.53647487015623"><ele>102.0</ele><time>2026-04-06T15:20:51Z</time></trkpt><trkpt lat="43.93878373592835" lon="4.53651999342127"><ele>102.0</ele><time>2026-04-06T15:20:53Z</time></trkpt><trkpt lat="43.938709581352406" lon="4.5365379003747766"><ele>102.0</ele><time>2026-04-06T15:20:56Z</time></trkpt><trkpt lat="43.93862458069812" lon="4.53650332043846"><ele>102.0</ele><time>2026-04-06T15:20:59Z</time></trkpt><trkpt lat="43.93855380315079" lon="4.536458674130334"><ele>102.0</ele><time>2026-04-06T15:21:01Z</time></trkpt><trkpt lat="43.93852414706581" lon="4.53638129298617"><ele>102.0</ele><time>2026-04-06T15:21:03Z</time></trkpt><trkpt lat="43.938491950493045" lon="4.536295448656925"><ele>102.0</ele><time>2026-04-06T15:21:05Z</time></trkpt><trkpt lat="43.938453644633825" lon="4.536225717713647"><ele>102.0</ele><time>2026-04-06T15:21:07Z</time></trkpt><trkpt lat="43.938355772815655" lon="4.536188207197782"><ele>102.5</ele><time>2026-04-06T15:21:10Z</time></trkpt><trkpt lat="43.9382819020413" lon="4.5361888037271525"><ele>103.0</ele><time>2026-04-06T15:21:12Z</time></trkpt><trkpt lat="43.93821345969544" lon="4.536167056279187"><ele>103.5</ele><time>2026-04-06T15:21:14Z</time></trkpt><trkpt lat="43.938117436164475" lon="4.5361325247179805"><ele>104.0</ele><time>2026-04-06T15:21:16Z</time></trkpt><trkpt lat="43.93804338963179" lon="4.536123449104928"><ele>104.5</ele><time>2026-04-06T15:21:19Z</time></trkpt><trkpt lat="43.93797060855299" lon="4.536189115517027"><ele>105.0</ele><time>2026-04-06T15:21:21Z</time></trkpt><trkpt lat="43.93789756099728" lon="4.536236308058951"><ele>105.0</ele><time>2026-04-06T15:21:24Z</time></trkpt><trkpt lat="43.937833647550086" lon="4.536267659661343"><ele>105.0</ele><time>2026-04-06T15:21:26Z</time></trkpt><trkpt lat="43.93773868570427" lon="4.536281395483923"><ele>105.0</ele><time>2026-04-06T15:21:28Z</time></trkpt><trkpt lat="43.93763170795992" lon="4.536294983134289"><ele>105.0</ele><time>2026-04-06T15:21:30Z</time></trkpt><trkpt lat="43.937559535489" lon="4.536302059710356"><ele>105.0</ele><time>2026-04-06T15:21:31Z</time></trkpt><trkpt lat="43.937490611096614" lon="4.536324766268391"><ele>105.0</ele><time>2026-04-06T15:21:32Z</time></trkpt><trkpt lat="43.93742090444545" lon="4.536333745110403"><ele>106.5</ele><time>2026-04-06T15:21:33Z</time></trkpt><trkpt lat="43.93735719534507" lon="4.53634383266695"><ele>108.0</ele><time>2026-04-06T15:21:34Z</time></trkpt><trkpt lat="43.93727567859419" lon="4.536353082343024"><ele>109.5</ele><time>2026-04-06T15:21:36Z</time></trkpt><trkpt lat="43.93716930204788" lon="4.536342048335067"><ele>111.0</ele><time>2026-04-06T15:21:38Z</time></trkpt><trkpt lat="43.937090355561885" lon="4.536309877648038"><ele>112.5</ele><time>2026-04-06T15:21:39Z</time></trkpt><trkpt lat="43.937013650630455" lon="4.536278830576422"><ele>114.0</ele><time>2026-04-06T15:21:40Z</time></trkpt><trkpt lat="43.93693402955531" lon="4.5362436229535"><ele>114.0</ele><time>2026-04-06T15:21:41Z</time></trkpt><trkpt lat="43.93686804786196" lon="4.536236738629405"><ele>114.0</ele><time>2026-04-06T15:21:42Z</time></trkpt><trkpt lat="43.93676323946025" lon="4.536199922260064"><ele>114.0</ele><time>2026-04-06T15:21:44Z</time></trkpt><trkpt lat="43.93670255815865" lon="4.536156454426466"><ele>114.0</ele><time>2026-04-06T15:21:45Z</time></trkpt><trkpt lat="43.93661998174415" lon="4.536108092610303"><ele>114.0</ele><time>2026-04-06T15:21:47Z</time></trkpt><trkpt lat="43.93653572724871" lon="4.536041436933448"><ele>114.0</ele><time>2026-04-06T15:21:50Z</time></trkpt><trkpt lat="43.93646257484934" lon="4.536045985629982"><ele>114.16666666666667</ele><time>2026-04-06T15:21:52Z</time></trkpt><trkpt lat="43.93639934701347" lon="4.536083327819392"><ele>114.33333333333334</ele><time>2026-04-06T15:21:56Z</time></trkpt><trkpt lat="43.936318668738345" lon="4.536124080393696"><ele>114.5</ele><time>2026-04-06T15:21:59Z</time></trkpt><trkpt lat="43.93623825320368" lon="4.536193281713337"><ele>114.66666666666667</ele><time>2026-04-06T15:22:02Z</time></trkpt><trkpt lat="43.93615340071202" lon="4.536268871274561"><ele>114.83333333333334</ele><time>2026-04-06T15:22:04Z</time></trkpt><trkpt lat="43.93607137725138" lon="4.536271144856039"><ele>115.0</ele><time>2026-04-06T15:22:06Z</time></trkpt><trkpt lat="43.93596119775395" lon="4.536233923403173"><ele>115.66666666666667</ele><time>2026-04-06T15:22:08Z</time></trkpt><trkpt lat="43.935886070738825" lon="4.5362244682647095"><ele>116.33333333333334</ele><time>2026-04-06T15:22:10Z</time></trkpt><trkpt lat="43.935797831552314" lon="4.536274132436887"><ele>117.0</ele><time>2026-04-06T15:22:12Z</time></trkpt><trkpt lat="43.935739007707284" lon="4.536310520764887"><ele>117.66666666666666</ele><time>2026-04-06T15:22:13Z</time></trkpt><trkpt lat="43.93566987975256" lon="4.536345045815516"><ele>118.33333333333333</ele><time>2026-04-06T15:22:14Z</time></trkpt><trkpt lat="43.93560705313897" lon="4.5363691728499544"><ele>119.0</ele><time>2026-04-06T15:22:15Z</time></trkpt><trkpt lat="43.93552433055485" lon="4.536437904700083"><ele>118.99999999999999</ele><time>2026-04-06T15:22:17Z</time></trkpt><trkpt lat="43.93542936961554" lon="4.536455935046669"><ele>119.0</ele><time>2026-04-06T15:22:20Z</time></trkpt><trkpt lat="43.935358834728966" lon="4.536458103646807"><ele>119.0</ele><time>2026-04-06T15:22:22Z</time></trkpt><trkpt lat="43.93528014262494" lon="4.536472341829305"><ele>119.0</ele><time>2026-04-06T15:22:24Z</time></trkpt><trkpt lat="43.93520660134141" lon="4.536444059561069"><ele>118.99999999999999</ele><time>2026-04-06T15:22:29Z</time></trkpt><trkpt lat="43.93512190764374" lon="4.536455210767232"><ele>119.0</ele><time>2026-04-06T15:22:32Z</time></trkpt><trkpt lat="43.93504473065691" lon="4.536435795932115"><ele>119.66666666666666</ele><time>2026-04-06T15:22:34Z</time></trkpt><trkpt lat="43.934968615617244" lon="4.5364160606047665"><ele>120.33333333333333</ele><time>2026-04-06T15:22:36Z</time></trkpt><trkpt lat="43.934905811776375" lon="4.5363670946968595"><ele>121.0</ele><time>2026-04-06T15:22:38Z</time></trkpt><trkpt lat="43.93482107687584" lon="4.536304925408458"><ele>121.66666666666666</ele><time>2026-04-06T15:22:41Z</time></trkpt><trkpt lat="43.93474790102678" lon="4.536239233579943"><ele>122.33333333333333</ele><time>2026-04-06T15:22:45Z</time></trkpt><trkpt lat="43.93467355083026" lon="4.536198650470985"><ele>123.0</ele><time>2026-04-06T15:22:48Z</time></trkpt><trkpt lat="43.93461030105762" lon="4.5361245543875635"><ele>123.0</ele><time>2026-04-06T15:22:50Z</time></trkpt><trkpt lat="43.93453283588576" lon="4.536126006834913"><ele>123.0</ele><time>2026-04-06T15:22:52Z</time></trkpt><trkpt lat="43.93449012872697" lon="4.536019175849351"><ele>123.0</ele><time>2026-04-06T15:23:13Z</time></trkpt><trkpt lat="43.934541735794596" lon="4.535863405450018"><ele>123.0</ele><time>2026-04-06T15:23:15Z</time></trkpt><trkpt lat="43.93456919288299" lon="4.535782097331991"><ele>123.0</ele><time>2026-04-06T15:23:16Z</time></trkpt><trkpt lat="43.9345818931037" lon="4.535674026662887"><ele>123.0</ele><time>2026-04-06T15:23:17Z</time></trkpt><trkpt lat="43.93459220277305" lon="4.535569571859474"><ele>123.0</ele><time>2026-04-06T15:23:18Z</time></trkpt><trkpt lat="43.934592560000866" lon="4.5354622585826165"><ele>123.0</ele><time>2026-04-06T15:23:19Z</time></trkpt><trkpt lat="43.934592989045" lon="4.535352453376494"><ele>123.0</ele><time>2026-04-06T15:23:20Z</time></trkpt><trkpt lat="43.934595231432496" lon="4.53523852749058"><ele>123.0</ele><time>2026-04-06T15:23:21Z</time></trkpt><trkpt lat="43.93460324670879" lon="4.535114344842459"><ele>123.0</ele><time>2026-04-06T15:23:22Z</time></trkpt><trkpt lat="43.9346246657384" lon="4.535006158673305"><ele>123.0</ele><time>2026-04-06T15:23:23Z</time></trkpt><trkpt lat="43.934647399598646" lon="4.534911044369792"><ele>123.66666666666667</ele><time>2026-04-06T15:23:24Z</time></trkpt><trkpt lat="43.93465894907712" lon="4.534808878976267"><ele>124.33333333333334</ele><time>2026-04-06T15:23:25Z</time></trkpt><trkpt lat="43.93465594693258" lon="4.534695945865012"><ele>125.0</ele><time>2026-04-06T15:23:26Z</time></trkpt><trkpt lat="43.9346406471847" lon="4.5345788009663055"><ele>125.66666666666667</ele><time>2026-04-06T15:23:27Z</time></trkpt><trkpt lat="43.934624315240825" lon="4.534467326369625"><ele>126.33333333333334</ele><time>2026-04-06T15:23:28Z</time></trkpt><trkpt lat="43.9346112488353" lon="4.534360945903934"><ele>127.0</ele><time>2026-04-06T15:23:29Z</time></trkpt><trkpt lat="43.934611695997646" lon="4.534261304219306"><ele>127.83333333333334</ele><time>2026-04-06T15:23:30Z</time></trkpt><trkpt lat="43.93462638419465" lon="4.534163776160227"><ele>128.66666666666669</ele><time>2026-04-06T15:23:31Z</time></trkpt><trkpt lat="43.934649774644306" lon="4.534061171550419"><ele>129.5</ele><time>2026-04-06T15:23:32Z</time></trkpt><trkpt lat="43.93467474847099" lon="4.533949250541578"><ele>130.33333333333334</ele><time>2026-04-06T15:23:33Z</time></trkpt><trkpt lat="43.93470510273216" lon="4.533843281120995"><ele>131.16666666666666</ele><time>2026-04-06T15:23:34Z</time></trkpt><trkpt lat="43.93472821545608" lon="4.533749645194044"><ele>132.0</ele><time>2026-04-06T15:23:35Z</time></trkpt><trkpt lat="43.934756981230365" lon="4.533650387286846"><ele>133.2</ele><time>2026-04-06T15:23:36Z</time></trkpt><trkpt lat="43.93478663298854" lon="4.533541757339985"><ele>134.39999999999998</ele><time>2026-04-06T15:23:37Z</time></trkpt><trkpt lat="43.93480708874208" lon="4.533416174135086"><ele>135.60000000000002</ele><time>2026-04-06T15:23:38Z</time></trkpt><trkpt lat="43.934814982433764" lon="4.533277059344288"><ele>136.8</ele><time>2026-04-06T15:23:39Z</time></trkpt><trkpt lat="43.934807549490934" lon="4.533135057643761"><ele>138.0</ele><time>2026-04-06T15:23:40Z</time></trkpt><trkpt lat="43.93479144544211" lon="4.532996626441458"><ele>138.8</ele><time>2026-04-06T15:23:41Z</time></trkpt><trkpt lat="43.934770383201254" lon="4.532846598774778"><ele>139.60000000000002</ele><time>2026-04-06T15:23:42Z</time></trkpt><trkpt lat="43.93475529046599" lon="4.532697711685181"><ele>140.39999999999998</ele><time>2026-04-06T15:23:43Z</time></trkpt><trkpt lat="43.93474887815816" lon="4.532552602223541"><ele>141.2</ele><time>2026-04-06T15:23:44Z</time></trkpt><trkpt lat="43.93474713529576" lon="4.532421617208909"><ele>142.0</ele><time>2026-04-06T15:23:45Z</time></trkpt><trkpt lat="43.934750019327524" lon="4.532315395172948"><ele>142.0</ele><time>2026-04-06T15:23:46Z</time></trkpt><trkpt lat="43.93476318447461" lon="4.532217904063633"><ele>142.0</ele><time>2026-04-06T15:23:47Z</time></trkpt><trkpt lat="43.934777209790454" lon="4.532120673254583"><ele>142.0</ele><time>2026-04-06T15:23:48Z</time></trkpt><trkpt lat="43.93480035679534" lon="4.532024862096771"><ele>142.0</ele><time>2026-04-06T15:23:49Z</time></trkpt><trkpt lat="43.93481975791226" lon="4.531936483106794"><ele>142.0</ele><time>2026-04-06T15:23:50Z</time></trkpt><trkpt lat="43.934863792089835" lon="4.5317597425970195"><ele>142.0</ele><time>2026-04-06T15:23:52Z</time></trkpt><trkpt lat="43.93487221780411" lon="4.531634488687523"><ele>142.6</ele><time>2026-04-06T15:23:53Z</time></trkpt><trkpt lat="43.93486678081191" lon="4.531488819239012"><ele>143.2</ele><time>2026-04-06T15:23:54Z</time></trkpt><trkpt lat="43.93484632779006" lon="4.531341385593323"><ele>143.8</ele><time>2026-04-06T15:23:55Z</time></trkpt><trkpt lat="43.93482180621758" lon="4.531206949651458"><ele>144.4</ele><time>2026-04-06T15:23:56Z</time></trkpt><trkpt lat="43.93480552249333" lon="4.531084201856671"><ele>145.0</ele><time>2026-04-06T15:23:57Z</time></trkpt><trkpt lat="43.93479789254785" lon="4.530962763500203"><ele>145.0</ele><time>2026-04-06T15:23:58Z</time></trkpt><trkpt lat="43.93480632692884" lon="4.5308438603452"><ele>145.0</ele><time>2026-04-06T15:23:59Z</time></trkpt><trkpt lat="43.934822516995744" lon="4.530740636239399"><ele>145.0</ele><time>2026-04-06T15:24:00Z</time></trkpt><trkpt lat="43.934836785564784" lon="4.5306444570930795"><ele>145.0</ele><time>2026-04-06T15:24:01Z</time></trkpt><trkpt lat="43.93484303398392" lon="4.530553055872464"><ele>145.0</ele><time>2026-04-06T15:24:02Z</time></trkpt><trkpt lat="43.934830468732834" lon="4.530458794290683"><ele>145.0</ele><time>2026-04-06T15:24:03Z</time></trkpt><trkpt lat="43.93481556893363" lon="4.530362731484647"><ele>145.0</ele><time>2026-04-06T15:24:04Z</time></trkpt><trkpt lat="43.93476020240119" lon="4.5302504028143735"><ele>144.8</ele><time>2026-04-06T15:24:05Z</time></trkpt><trkpt lat="43.93466337146102" lon="4.530190783229699"><ele>144.6</ele><time>2026-04-06T15:24:06Z</time></trkpt><trkpt lat="43.93456131576343" lon="4.53016802873702"><ele>144.4</ele><time>2026-04-06T15:24:07Z</time></trkpt><trkpt lat="43.9344590477941" lon="4.53012741580419"><ele>144.2</ele><time>2026-04-06T15:24:08Z</time></trkpt><trkpt lat="43.93435796564965" lon="4.530108811891469"><ele>144.0</ele><time>2026-04-06T15:24:09Z</time></trkpt><trkpt lat="43.9342461334122" lon="4.530108430378527"><ele>144.75</ele><time>2026-04-06T15:24:10Z</time></trkpt><trkpt lat="43.9341366352626" lon="4.530116234594457"><ele>145.5</ele><time>2026-04-06T15:24:11Z</time></trkpt><trkpt lat="43.93401723738038" lon="4.530101163608906"><ele>146.25</ele><time>2026-04-06T15:24:12Z</time></trkpt><trkpt lat="43.93389750495774" lon="4.530097196831539"><ele>147.0</ele><time>2026-04-06T15:24:13Z</time></trkpt><trkpt lat="43.933774507910094" lon="4.530078807664803"><ele>147.0</ele><time>2026-04-06T15:24:14Z</time></trkpt><trkpt lat="43.933653398303576" lon="4.530066707531297"><ele>147.0</ele><time>2026-04-06T15:24:15Z</time></trkpt><trkpt lat="43.93354709896081" lon="4.530035265278824"><ele>147.0</ele><time>2026-04-06T15:24:16Z</time></trkpt><trkpt lat="43.93344633056427" lon="4.529976855470327"><ele>147.0</ele><time>2026-04-06T15:24:17Z</time></trkpt><trkpt lat="43.93334420384481" lon="4.5299383033183"><ele>147.0</ele><time>2026-04-06T15:24:18Z</time></trkpt><trkpt lat="43.93324303514091" lon="4.529913770927412"><ele>147.0</ele><time>2026-04-06T15:24:19Z</time></trkpt><trkpt lat="43.93315328989022" lon="4.52982263006883"><ele>147.0</ele><time>2026-04-06T15:24:20Z</time></trkpt><trkpt lat="43.933052757258686" lon="4.529743039224042"><ele>147.0</ele><time>2026-04-06T15:24:21Z</time></trkpt><trkpt lat="43.932968149995226" lon="4.52969849239497"><ele>147.0</ele><time>2026-04-06T15:24:22Z</time></trkpt><trkpt lat="43.932899293482414" lon="4.529632623533941"><ele>147.0</ele><time>2026-04-06T15:24:23Z</time></trkpt><trkpt lat="43.93282065354482" lon="4.5295779461653565"><ele>146.16666666666666</ele><time>2026-04-06T15:24:24Z</time></trkpt><trkpt lat="43.93273945155624" lon="4.529515639368757"><ele>145.33333333333334</ele><time>2026-04-06T15:24:25Z</time></trkpt><trkpt lat="43.93266924699962" lon="4.529445490335322"><ele>144.5</ele><time>2026-04-06T15:24:26Z</time></trkpt><trkpt lat="43.93261417187037" lon="4.5293674718265455"><ele>143.66666666666669</ele><time>2026-04-06T15:24:27Z</time></trkpt><trkpt lat="43.9325802573736" lon="4.529257854649805"><ele>142.83333333333334</ele><time>2026-04-06T15:24:28Z</time></trkpt><trkpt lat="43.9325362499669" lon="4.529136519814382"><ele>142.0</ele><time>2026-04-06T15:24:29Z</time></trkpt><trkpt lat="43.93248238278478" lon="4.529013972098783"><ele>141.5</ele><time>2026-04-06T15:24:30Z</time></trkpt><trkpt lat="43.9324071153238" lon="4.528889163768317"><ele>141.0</ele><time>2026-04-06T15:24:31Z</time></trkpt><trkpt lat="43.93231703852666" lon="4.528761828648938"><ele>140.5</ele><time>2026-04-06T15:24:32Z</time></trkpt><trkpt lat="43.93222801909953" lon="4.528650913577094"><ele>140.0</ele><time>2026-04-06T15:24:33Z</time></trkpt><trkpt lat="43.93213823822636" lon="4.528565009250547"><ele>139.2</ele><time>2026-04-06T15:24:34Z</time></trkpt><trkpt lat="43.93207492411247" lon="4.528448264834872"><ele>138.4</ele><time>2026-04-06T15:24:35Z</time></trkpt><trkpt lat="43.93202765580092" lon="4.528320917435909"><ele>137.6</ele><time>2026-04-06T15:24:36Z</time></trkpt><trkpt lat="43.93200319939044" lon="4.528194452745289"><ele>136.8</ele><time>2026-04-06T15:24:37Z</time></trkpt><trkpt lat="43.93200554552938" lon="4.528064708742977"><ele>136.0</ele><time>2026-04-06T15:24:38Z</time></trkpt><trkpt lat="43.93202186321607" lon="4.52792510935665"><ele>135.75</ele><time>2026-04-06T15:24:39Z</time></trkpt><trkpt lat="43.93205113996645" lon="4.527778637143979"><ele>135.5</ele><time>2026-04-06T15:24:40Z</time></trkpt><trkpt lat="43.932098859890694" lon="4.527616593031123"><ele>135.25</ele><time>2026-04-06T15:24:41Z</time></trkpt><trkpt lat="43.932146883369896" lon="4.5274659533433645"><ele>135.0</ele><time>2026-04-06T15:24:42Z</time></trkpt><trkpt lat="43.932191207866076" lon="4.527318945369785"><ele>135.0</ele><time>2026-04-06T15:24:43Z</time></trkpt><trkpt lat="43.93223714454842" lon="4.5271747051414115"><ele>135.0</ele><time>2026-04-06T15:24:44Z</time></trkpt><trkpt lat="43.9322853210107" lon="4.5270572437103604"><ele>135.0</ele><time>2026-04-06T15:24:45Z</time></trkpt><trkpt lat="43.93234524536521" lon="4.526952203013162"><ele>135.0</ele><time>2026-04-06T15:24:46Z</time></trkpt><trkpt lat="43.9324165166217" lon="4.526855339211757"><ele>135.0</ele><time>2026-04-06T15:24:47Z</time></trkpt><trkpt lat="43.93251284245907" lon="4.526760109630143"><ele>136.25</ele><time>2026-04-06T15:24:48Z</time></trkpt><trkpt lat="43.9325874633306" lon="4.526639009734852"><ele>137.5</ele><time>2026-04-06T15:24:49Z</time></trkpt><trkpt lat="43.93266950348142" lon="4.52651734544857"><ele>138.75</ele><time>2026-04-06T15:24:50Z</time></trkpt><trkpt lat="43.93275774357039" lon="4.5264023538417195"><ele>140.0</ele><time>2026-04-06T15:24:51Z</time></trkpt><trkpt lat="43.93284453640651" lon="4.526320117000084"><ele>140.8</ele><time>2026-04-06T15:24:52Z</time></trkpt><trkpt lat="43.93291824778876" lon="4.5262237015367415"><ele>141.6</ele><time>2026-04-06T15:24:53Z</time></trkpt><trkpt lat="43.93297761389851" lon="4.526125735077616"><ele>142.4</ele><time>2026-04-06T15:24:54Z</time></trkpt><trkpt lat="43.93302056194868" lon="4.526020055818956"><ele>143.2</ele><time>2026-04-06T15:24:55Z</time></trkpt><trkpt lat="43.93303921192208" lon="4.525896520998069"><ele>144.0</ele><time>2026-04-06T15:24:56Z</time></trkpt><trkpt lat="43.9330410496387" lon="4.525765985671064"><ele>144.0</ele><time>2026-04-06T15:24:57Z</time></trkpt><trkpt lat="43.933026006846156" lon="4.5256318649485205"><ele>144.0</ele><time>2026-04-06T15:24:58Z</time></trkpt><trkpt lat="43.93298568340898" lon="4.525507610337902"><ele>144.0</ele><time>2026-04-06T15:24:59Z</time></trkpt><trkpt lat="43.9329159487541" lon="4.525401549118974"><ele>144.0</ele><time>2026-04-06T15:25:00Z</time></trkpt><trkpt lat="43.93286563372352" lon="4.52528029389578"><ele>144.0</ele><time>2026-04-06T15:25:01Z</time></trkpt><trkpt lat="43.93278764455621" lon="4.525175208046249"><ele>144.6</ele><time>2026-04-06T15:25:02Z</time></trkpt><trkpt lat="43.93270959037608" lon="4.525076182531914"><ele>145.2</ele><time>2026-04-06T15:25:03Z</time></trkpt><trkpt lat="43.9326315332111" lon="4.524973880652214"><ele>145.79999999999998</ele><time>2026-04-06T15:25:04Z</time></trkpt><trkpt lat="43.932552656060864" lon="4.524865365929978"><ele>146.4</ele><time>2026-04-06T15:25:05Z</time></trkpt><trkpt lat="43.93246774083965" lon="4.52478123369128"><ele>147.0</ele><time>2026-04-06T15:25:06Z</time></trkpt><trkpt lat="43.93237445543979" lon="4.524690714875273"><ele>147.6</ele><time>2026-04-06T15:25:07Z</time></trkpt><trkpt lat="43.932284814807105" lon="4.524603761866151"><ele>148.2</ele><time>2026-04-06T15:25:08Z</time></trkpt><trkpt lat="43.93219274122578" lon="4.524512287268345"><ele>148.8</ele><time>2026-04-06T15:25:09Z</time></trkpt><trkpt lat="43.932102716014114" lon="4.524419706861124"><ele>149.4</ele><time>2026-04-06T15:25:10Z</time></trkpt><trkpt lat="43.9320235029897" lon="4.524325505583177"><ele>150.0</ele><time>2026-04-06T15:25:11Z</time></trkpt><trkpt lat="43.93192367383401" lon="4.524252498524102"><ele>151.0</ele><time>2026-04-06T15:25:12Z</time></trkpt><trkpt lat="43.931840504988486" lon="4.524174230810284"><ele>152.0</ele><time>2026-04-06T15:25:13Z</time></trkpt><trkpt lat="43.93174952470123" lon="4.524087996566638"><ele>153.0</ele><time>2026-04-06T15:25:14Z</time></trkpt><trkpt lat="43.93166376330525" lon="4.52399197320948"><ele>154.0</ele><time>2026-04-06T15:25:15Z</time></trkpt><trkpt lat="43.93158642510546" lon="4.523906424032437"><ele>155.0</ele><time>2026-04-06T15:25:16Z</time></trkpt><trkpt lat="43.931513705110646" lon="4.523830204745918"><ele>155.2</ele><time>2026-04-06T15:25:17Z</time></trkpt><trkpt lat="43.93143485325913" lon="4.5237472906995455"><ele>155.4</ele><time>2026-04-06T15:25:18Z</time></trkpt><trkpt lat="43.931338748361085" lon="4.523693146882984"><ele>155.6</ele><time>2026-04-06T15:25:19Z</time></trkpt><trkpt lat="43.93122193536356" lon="4.523657543437096"><ele>155.8</ele><time>2026-04-06T15:25:20Z</time></trkpt><trkpt lat="43.93111015661393" lon="4.523623658956165"><ele>156.0</ele><time>2026-04-06T15:25:21Z</time></trkpt><trkpt lat="43.93099062971544" lon="4.523611117000586"><ele>157.25</ele><time>2026-04-06T15:25:22Z</time></trkpt><trkpt lat="43.93088237008689" lon="4.523534711959083"><ele>158.5</ele><time>2026-04-06T15:25:23Z</time></trkpt><trkpt lat="43.93076963241071" lon="4.523469113860675"><ele>159.75</ele><time>2026-04-06T15:25:24Z</time></trkpt><trkpt lat="43.93064863858673" lon="4.523398733865927"><ele>161.0</ele><time>2026-04-06T15:25:25Z</time></trkpt><trkpt lat="43.930537098846635" lon="4.5233426983998095"><ele>161.0</ele><time>2026-04-06T15:25:26Z</time></trkpt><trkpt lat="43.93040215055283" lon="4.523320869284407"><ele>161.0</ele><time>2026-04-06T15:25:27Z</time></trkpt><trkpt lat="43.9302957285854" lon="4.523308825011072"><ele>161.0</ele><time>2026-04-06T15:25:28Z</time></trkpt><trkpt lat="43.93017376893707" lon="4.523288285517337"><ele>161.0</ele><time>2026-04-06T15:25:29Z</time></trkpt><trkpt lat="43.930059037028805" lon="4.523245914942503"><ele>161.25</ele><time>2026-04-06T15:25:30Z</time></trkpt><trkpt lat="43.92994599674517" lon="4.52318676772194"><ele>161.5</ele><time>2026-04-06T15:25:31Z</time></trkpt><trkpt lat="43.92983324064407" lon="4.523117635331728"><ele>161.75</ele><time>2026-04-06T15:25:32Z</time></trkpt><trkpt lat="43.92972540471912" lon="4.523032892621732"><ele>162.0</ele><time>2026-04-06T15:25:33Z</time></trkpt><trkpt lat="43.92961882531869" lon="4.522958796677967"><ele>162.0</ele><time>2026-04-06T15:25:34Z</time></trkpt><trkpt lat="43.9294937522284" lon="4.522887239867289"><ele>162.0</ele><time>2026-04-06T15:25:35Z</time></trkpt><trkpt lat="43.92938626577278" lon="4.52284840588042"><ele>162.0</ele><time>2026-04-06T15:25:36Z</time></trkpt><trkpt lat="43.929264336541486" lon="4.52279704372735"><ele>162.0</ele><time>2026-04-06T15:25:37Z</time></trkpt><trkpt lat="43.9291457194142" lon="4.522766670298327"><ele>162.75</ele><time>2026-04-06T15:25:38Z</time></trkpt><trkpt lat="43.929030034063175" lon="4.522694712209976"><ele>163.5</ele><time>2026-04-06T15:25:39Z</time></trkpt><trkpt lat="43.9289074927116" lon="4.522656453120085"><ele>164.25</ele><time>2026-04-06T15:25:40Z</time></trkpt><trkpt lat="43.92879423447394" lon="4.522598651300211"><ele>165.0</ele><time>2026-04-06T15:25:41Z</time></trkpt><trkpt lat="43.92868418711945" lon="4.522545451169484"><ele>165.0</ele><time>2026-04-06T15:25:42Z</time></trkpt><trkpt lat="43.9285809870677" lon="4.522495941127816"><ele>165.0</ele><time>2026-04-06T15:25:43Z</time></trkpt><trkpt lat="43.92847251395323" lon="4.522455701091903"><ele>165.0</ele><time>2026-04-06T15:25:44Z</time></trkpt><trkpt lat="43.92837483081322" lon="4.522400269163968"><ele>165.0</ele><time>2026-04-06T15:25:45Z</time></trkpt><trkpt lat="43.92827323453285" lon="4.522389221519784"><ele>165.0</ele><time>2026-04-06T15:25:46Z</time></trkpt><trkpt lat="43.92817677266653" lon="4.522363423303497"><ele>164.2</ele><time>2026-04-06T15:25:47Z</time></trkpt><trkpt lat="43.928072876370734" lon="4.522344638578354"><ele>163.4</ele><time>2026-04-06T15:25:48Z</time></trkpt><trkpt lat="43.92797115688521" lon="4.522336109070386"><ele>162.60000000000002</ele><time>2026-04-06T15:25:49Z</time></trkpt><trkpt lat="43.92787125129984" lon="4.522307574113474"><ele>161.8</ele><time>2026-04-06T15:25:50Z</time></trkpt><trkpt lat="43.92777622206608" lon="4.522314551923668"><ele>161.0</ele><time>2026-04-06T15:25:51Z</time></trkpt><trkpt lat="43.92768232186016" lon="4.522296555360927"><ele>161.0</ele><time>2026-04-06T15:25:52Z</time></trkpt><trkpt lat="43.92759725754218" lon="4.5222612980106485"><ele>161.0</ele><time>2026-04-06T15:25:53Z</time></trkpt><trkpt lat="43.92752460822551" lon="4.522216635812799"><ele>161.0</ele><time>2026-04-06T15:25:54Z</time></trkpt><trkpt lat="43.927465769926705" lon="4.522164342285044"><ele>161.0</ele><time>2026-04-06T15:25:55Z</time></trkpt><trkpt lat="43.92738630674178" lon="4.522057123963315"><ele>161.0</ele><time>2026-04-06T15:25:57Z</time></trkpt><trkpt lat="43.92733608214737" lon="4.521954873962882"><ele>161.0</ele><time>2026-04-06T15:25:59Z</time></trkpt><trkpt lat="43.9272855460225" lon="4.521842509145183"><ele>160.83333333333331</ele><time>2026-04-06T15:26:01Z</time></trkpt><trkpt lat="43.92727470891965" lon="4.52174669357752"><ele>160.66666666666666</ele><time>2026-04-06T15:26:03Z</time></trkpt><trkpt lat="43.927291336396294" lon="4.521634580718203"><ele>160.5</ele><time>2026-04-06T15:26:05Z</time></trkpt><trkpt lat="43.92736287360985" lon="4.521535918142956"><ele>160.33333333333334</ele><time>2026-04-06T15:26:07Z</time></trkpt><trkpt lat="43.92741595576194" lon="4.521473552920523"><ele>160.16666666666669</ele><time>2026-04-06T15:26:08Z</time></trkpt><trkpt lat="43.92748992634575" lon="4.521406427698396"><ele>160.0</ele><time>2026-04-06T15:26:09Z</time></trkpt><trkpt lat="43.927569062393474" lon="4.5213292078482885"><ele>159.4</ele><time>2026-04-06T15:26:10Z</time></trkpt><trkpt lat="43.92764648727788" lon="4.521211840411957"><ele>158.8</ele><time>2026-04-06T15:26:11Z</time></trkpt><trkpt lat="43.927706876552584" lon="4.521088424938762"><ele>158.2</ele><time>2026-04-06T15:26:12Z</time></trkpt><trkpt lat="43.92774935445275" lon="4.520974272500193"><ele>157.6</ele><time>2026-04-06T15:26:13Z</time></trkpt><trkpt lat="43.92780170660502" lon="4.520855647063663"><ele>157.0</ele><time>2026-04-06T15:26:14Z</time></trkpt><trkpt lat="43.927847376619326" lon="4.52077623361512"><ele>157.0</ele><time>2026-04-06T15:26:15Z</time></trkpt><trkpt lat="43.92789812565235" lon="4.520707264917428"><ele>157.0</ele><time>2026-04-06T15:26:16Z</time></trkpt><trkpt lat="43.92796114176795" lon="4.520622913073102"><ele>157.0</ele><time>2026-04-06T15:26:17Z</time></trkpt><trkpt lat="43.92803650906632" lon="4.520530001926471"><ele>157.0</ele><time>2026-04-06T15:26:18Z</time></trkpt><trkpt lat="43.92811781315961" lon="4.520429662713617"><ele>157.0</ele><time>2026-04-06T15:26:19Z</time></trkpt><trkpt lat="43.92819805461886" lon="4.520334140814038"><ele>156.0</ele><time>2026-04-06T15:26:20Z</time></trkpt><trkpt lat="43.92827969489914" lon="4.520249421022574"><ele>155.0</ele><time>2026-04-06T15:26:21Z</time></trkpt><trkpt lat="43.92836555275905" lon="4.520175712055589"><ele>154.0</ele><time>2026-04-06T15:26:22Z</time></trkpt><trkpt lat="43.928454294117394" lon="4.520113771266823"><ele>153.0</ele><time>2026-04-06T15:26:23Z</time></trkpt><trkpt lat="43.92855542865068" lon="4.520047757822223"><ele>152.0</ele><time>2026-04-06T15:26:24Z</time></trkpt><trkpt lat="43.92866369267508" lon="4.519979593214325"><ele>152.0</ele><time>2026-04-06T15:26:25Z</time></trkpt><trkpt lat="43.92876716238524" lon="4.5199025199188405"><ele>152.0</ele><time>2026-04-06T15:26:26Z</time></trkpt><trkpt lat="43.92887006399182" lon="4.5198180055178"><ele>152.0</ele><time>2026-04-06T15:26:27Z</time></trkpt><trkpt lat="43.928969864881026" lon="4.519738110215378"><ele>152.0</ele><time>2026-04-06T15:26:28Z</time></trkpt><trkpt lat="43.929074259816254" lon="4.519666318861417"><ele>152.0</ele><time>2026-04-06T15:26:29Z</time></trkpt><trkpt lat="43.92919481005381" lon="4.519605791882618"><ele>152.0</ele><time>2026-04-06T15:26:30Z</time></trkpt><trkpt lat="43.92930578430464" lon="4.519553034919097"><ele>152.0</ele><time>2026-04-06T15:26:31Z</time></trkpt><trkpt lat="43.92941904387723" lon="4.519497373923574"><ele>152.0</ele><time>2026-04-06T15:26:32Z</time></trkpt><trkpt lat="43.92954264191412" lon="4.519439628833527"><ele>150.0</ele><time>2026-04-06T15:26:33Z</time></trkpt><trkpt lat="43.92966304084229" lon="4.5193886297606"><ele>148.0</ele><time>2026-04-06T15:26:34Z</time></trkpt><trkpt lat="43.929782385625955" lon="4.519332906689286"><ele>146.0</ele><time>2026-04-06T15:26:35Z</time></trkpt><trkpt lat="43.92989379334525" lon="4.5192841556576955"><ele>144.0</ele><time>2026-04-06T15:26:36Z</time></trkpt><trkpt lat="43.930006032724634" lon="4.519227319707304"><ele>144.25</ele><time>2026-04-06T15:26:37Z</time></trkpt><trkpt lat="43.93011956466297" lon="4.519174240252742"><ele>144.5</ele><time>2026-04-06T15:26:38Z</time></trkpt><trkpt lat="43.93022861585853" lon="4.519122930170214"><ele>144.75</ele><time>2026-04-06T15:26:39Z</time></trkpt><trkpt lat="43.93033567519237" lon="4.519078306685485"><ele>145.0</ele><time>2026-04-06T15:26:40Z</time></trkpt><trkpt lat="43.93044011752409" lon="4.519032248645977"><ele>145.0</ele><time>2026-04-06T15:26:41Z</time></trkpt><trkpt lat="43.93052461615844" lon="4.518990930748855"><ele>145.0</ele><time>2026-04-06T15:26:42Z</time></trkpt><trkpt lat="43.930603495759485" lon="4.518953547102391"><ele>145.0</ele><time>2026-04-06T15:26:43Z</time></trkpt><trkpt lat="43.93068270841505" lon="4.518916930975446"><ele>145.0</ele><time>2026-04-06T15:26:44Z</time></trkpt><trkpt lat="43.93077941638184" lon="4.518902235557324"><ele>145.0</ele><time>2026-04-06T15:26:45Z</time></trkpt><trkpt lat="43.93089205291074" lon="4.518871238121604"><ele>144.25</ele><time>2026-04-06T15:26:46Z</time></trkpt><trkpt lat="43.931028546738276" lon="4.5188467299119806"><ele>143.5</ele><time>2026-04-06T15:26:47Z</time></trkpt><trkpt lat="43.93116941933844" lon="4.518858978550846"><ele>142.75</ele><time>2026-04-06T15:26:48Z</time></trkpt><trkpt lat="43.931293935020314" lon="4.518835948746445"><ele>142.0</ele><time>2026-04-06T15:26:49Z</time></trkpt><trkpt lat="43.931422667011105" lon="4.5188232965469854"><ele>142.0</ele><time>2026-04-06T15:26:50Z</time></trkpt><trkpt lat="43.93154843445854" lon="4.518807483831378"><ele>142.0</ele><time>2026-04-06T15:26:51Z</time></trkpt><trkpt lat="43.93167997744636" lon="4.518783885151023"><ele>142.0</ele><time>2026-04-06T15:26:52Z</time></trkpt><trkpt lat="43.93180364878114" lon="4.518744194924714"><ele>142.0</ele><time>2026-04-06T15:26:53Z</time></trkpt><trkpt lat="43.93193145150374" lon="4.518708508430365"><ele>139.5</ele><time>2026-04-06T15:26:54Z</time></trkpt><trkpt lat="43.932056545493985" lon="4.518691034238867"><ele>137.0</ele><time>2026-04-06T15:26:55Z</time></trkpt><trkpt lat="43.932180532451035" lon="4.518678577396039"><ele>134.5</ele><time>2026-04-06T15:26:56Z</time></trkpt><trkpt lat="43.93229785667111" lon="4.518650434617359"><ele>132.0</ele><time>2026-04-06T15:26:57Z</time></trkpt><trkpt lat="43.932419901272645" lon="4.518619356381404"><ele>132.0</ele><time>2026-04-06T15:26:58Z</time></trkpt><trkpt lat="43.932539414988184" lon="4.518579644758205"><ele>132.0</ele><time>2026-04-06T15:26:59Z</time></trkpt><trkpt lat="43.93266528606833" lon="4.518537010363769"><ele>132.0</ele><time>2026-04-06T15:27:00Z</time></trkpt><trkpt lat="43.93278568235377" lon="4.51849361729123"><ele>132.0</ele><time>2026-04-06T15:27:01Z</time></trkpt><trkpt lat="43.93289011168394" lon="4.51845951442258"><ele>132.16666666666666</ele><time>2026-04-06T15:27:02Z</time></trkpt><trkpt lat="43.932985914303615" lon="4.518401752716932"><ele>132.33333333333334</ele><time>2026-04-06T15:27:03Z</time></trkpt><trkpt lat="43.93307580905419" lon="4.5183575559461175"><ele>132.5</ele><time>2026-04-06T15:27:04Z</time></trkpt><trkpt lat="43.93316043846028" lon="4.518362463935436"><ele>132.66666666666669</ele><time>2026-04-06T15:27:05Z</time></trkpt><trkpt lat="43.9332387869262" lon="4.518348315026722"><ele>132.83333333333334</ele><time>2026-04-06T15:27:06Z</time></trkpt><trkpt lat="43.93331784077816" lon="4.518320902650281"><ele>133.0</ele><time>2026-04-06T15:27:07Z</time></trkpt><trkpt lat="43.933393072312064" lon="4.5182809820348995"><ele>133.0</ele><time>2026-04-06T15:27:08Z</time></trkpt><trkpt lat="43.93345861746421" lon="4.518227728797656"><ele>133.0</ele><time>2026-04-06T15:27:09Z</time></trkpt><trkpt lat="43.93351521930245" lon="4.5181609653531725"><ele>133.0</ele><time>2026-04-06T15:27:10Z</time></trkpt><trkpt lat="43.93359076016168" lon="4.518104102763082"><ele>133.0</ele><time>2026-04-06T15:27:12Z</time></trkpt><trkpt lat="43.933669629911535" lon="4.5181695430854925"><ele>133.0</ele><time>2026-04-06T15:27:15Z</time></trkpt><trkpt lat="43.93369243151166" lon="4.518287423463647"><ele>133.0</ele><time>2026-04-06T15:27:17Z</time></trkpt><trkpt lat="43.93373337585987" lon="4.518369679034814"><ele>133.0</ele><time>2026-04-06T15:27:19Z</time></trkpt><trkpt lat="43.93383944262127" lon="4.518423007546468"><ele>133.0</ele><time>2026-04-06T15:27:21Z</time></trkpt><trkpt lat="43.933905097473875" lon="4.518451685957683"><ele>133.0</ele><time>2026-04-06T15:27:22Z</time></trkpt><trkpt lat="43.93397392992881" lon="4.5184764346924995"><ele>133.0</ele><time>2026-04-06T15:27:23Z</time></trkpt><trkpt lat="43.93405081209562" lon="4.518495442670455"><ele>133.0</ele><time>2026-04-06T15:27:24Z</time></trkpt><trkpt lat="43.9341294206537" lon="4.51851022684496"><ele>133.0</ele><time>2026-04-06T15:27:25Z</time></trkpt><trkpt lat="43.934205088398095" lon="4.518527339345767"><ele>135.0</ele><time>2026-04-06T15:27:26Z</time></trkpt><trkpt lat="43.934285492024834" lon="4.51854801027372"><ele>137.0</ele><time>2026-04-06T15:27:27Z</time></trkpt><trkpt lat="43.93437337793132" lon="4.518571693555256"><ele>139.0</ele><time>2026-04-06T15:27:28Z</time></trkpt><trkpt lat="43.93446172147503" lon="4.518596774578549"><ele>141.0</ele><time>2026-04-06T15:27:29Z</time></trkpt><trkpt lat="43.93454022402429" lon="4.518630512437784"><ele>143.0</ele><time>2026-04-06T15:27:30Z</time></trkpt><trkpt lat="43.93461377906233" lon="4.518660408684357"><ele>145.0</ele><time>2026-04-06T15:27:31Z</time></trkpt><trkpt lat="43.93468793535745" lon="4.518685304744941"><ele>145.0</ele><time>2026-04-06T15:27:32Z</time></trkpt><trkpt lat="43.93476757275534" lon="4.518706483400156"><ele>145.0</ele><time>2026-04-06T15:27:33Z</time></trkpt><trkpt lat="43.934853128570005" lon="4.518736230839773"><ele>145.0</ele><time>2026-04-06T15:27:34Z</time></trkpt><trkpt lat="43.93492380416987" lon="4.518770283673395"><ele>145.0</ele><time>2026-04-06T15:27:35Z</time></trkpt><trkpt lat="43.93498466822459" lon="4.518802235894285"><ele>145.0</ele><time>2026-04-06T15:27:36Z</time></trkpt><trkpt lat="43.935076125801594" lon="4.518823578795944"><ele>145.0</ele><time>2026-04-06T15:27:38Z</time></trkpt><trkpt lat="43.93509646677501" lon="4.518709062455078"><ele>145.0</ele><time>2026-04-06T15:27:41Z</time></trkpt><trkpt lat="43.93504086587386" lon="4.518616664034535"><ele>145.0</ele><time>2026-04-06T15:27:43Z</time></trkpt><trkpt lat="43.93491834980382" lon="4.5185396867482215"><ele>145.0</ele><time>2026-04-06T15:27:45Z</time></trkpt><trkpt lat="43.93484900564627" lon="4.518479024560182"><ele>145.0</ele><time>2026-04-06T15:27:46Z</time></trkpt><trkpt lat="43.934778515109656" lon="4.518401463904468"><ele>145.0</ele><time>2026-04-06T15:27:47Z</time></trkpt><trkpt lat="43.934712103529186" lon="4.518310886543308"><ele>145.0</ele><time>2026-04-06T15:27:48Z</time></trkpt><trkpt lat="43.93466090705278" lon="4.518226421086788"><ele>145.0</ele><time>2026-04-06T15:27:49Z</time></trkpt><trkpt lat="43.934615837878795" lon="4.518107562904126"><ele>145.0</ele><time>2026-04-06T15:27:51Z</time></trkpt><trkpt lat="43.93465087580188" lon="4.5180323511839005"><ele>145.0</ele><time>2026-04-06T15:27:53Z</time></trkpt><trkpt lat="43.934736937293756" lon="4.518017163735462"><ele>145.0</ele><time>2026-04-06T15:27:55Z</time></trkpt><trkpt lat="43.93485123052365" lon="4.5180574306520915"><ele>145.0</ele><time>2026-04-06T15:27:57Z</time></trkpt><trkpt lat="43.93492544275412" lon="4.518077533202422"><ele>145.0</ele><time>2026-04-06T15:27:58Z</time></trkpt><trkpt lat="43.93500749728799" lon="4.518089326195221"><ele>145.0</ele><time>2026-04-06T15:27:59Z</time></trkpt><trkpt lat="43.93509194608462" lon="4.518091912360667"><ele>145.0</ele><time>2026-04-06T15:28:00Z</time></trkpt><trkpt lat="43.93518348873047" lon="4.5181003324670765"><ele>145.0</ele><time>2026-04-06T15:28:01Z</time></trkpt><trkpt lat="43.9352786756782" lon="4.518100969333457"><ele>145.0</ele><time>2026-04-06T15:28:02Z</time></trkpt><trkpt lat="43.93538102176815" lon="4.518096906689252"><ele>146.8</ele><time>2026-04-06T15:28:03Z</time></trkpt><trkpt lat="43.93547853647678" lon="4.518101174229252"><ele>148.6</ele><time>2026-04-06T15:28:04Z</time></trkpt><trkpt lat="43.9355821362686" lon="4.5181239687826995"><ele>150.4</ele><time>2026-04-06T15:28:05Z</time></trkpt><trkpt lat="43.93568551826707" lon="4.518162939140851"><ele>152.2</ele><time>2026-04-06T15:28:06Z</time></trkpt><trkpt lat="43.935796169418296" lon="4.518207119190035"><ele>154.0</ele><time>2026-04-06T15:28:07Z</time></trkpt><trkpt lat="43.93591306162122" lon="4.518255371748017"><ele>154.0</ele><time>2026-04-06T15:28:08Z</time></trkpt><trkpt lat="43.93602555249964" lon="4.518304516015915"><ele>154.0</ele><time>2026-04-06T15:28:09Z</time></trkpt><trkpt lat="43.93611496675343" lon="4.5183466425333485"><ele>154.0</ele><time>2026-04-06T15:28:10Z</time></trkpt><trkpt lat="43.93618306821662" lon="4.518376768143073"><ele>154.0</ele><time>2026-04-06T15:28:11Z</time></trkpt><trkpt lat="43.93629954103379" lon="4.518394355988369"><ele>154.0</ele><time>2026-04-06T15:28:13Z</time></trkpt><trkpt lat="43.936363428551005" lon="4.518381531827008"><ele>154.0</ele><time>2026-04-06T15:28:14Z</time></trkpt><trkpt lat="43.936427462599966" lon="4.518349322684012"><ele>154.0</ele><time>2026-04-06T15:28:15Z</time></trkpt><trkpt lat="43.93650495699045" lon="4.518244754095927"><ele>154.0</ele><time>2026-04-06T15:28:17Z</time></trkpt><trkpt lat="43.936523148492384" lon="4.518125576210716"><ele>154.0</ele><time>2026-04-06T15:28:19Z</time></trkpt><trkpt lat="43.9365752496105" lon="4.518066560995703"><ele>154.0</ele><time>2026-04-06T15:28:20Z</time></trkpt><trkpt lat="43.936526937161034" lon="4.517999422220377"><ele>154.0</ele><time>2026-04-06T15:28:21Z</time></trkpt><trkpt lat="43.936495663617464" lon="4.517813468690413"><ele>154.66666666666669</ele><time>2026-04-06T15:28:23Z</time></trkpt><trkpt lat="43.93647840678095" lon="4.517694169350437"><ele>155.33333333333334</ele><time>2026-04-06T15:28:24Z</time></trkpt><trkpt lat="43.93645849612473" lon="4.517568399706764"><ele>156.0</ele><time>2026-04-06T15:28:25Z</time></trkpt><trkpt lat="43.93642196221568" lon="4.51744685621906"><ele>156.66666666666666</ele><time>2026-04-06T15:28:26Z</time></trkpt><trkpt lat="43.93641042378913" lon="4.517327003470991"><ele>157.33333333333331</ele><time>2026-04-06T15:28:27Z</time></trkpt><trkpt lat="43.93640954596378" lon="4.517224161405428"><ele>158.0</ele><time>2026-04-06T15:28:28Z</time></trkpt><trkpt lat="43.936436868756" lon="4.517140878595641"><ele>159.0</ele><time>2026-04-06T15:28:29Z</time></trkpt><trkpt lat="43.93649079369296" lon="4.517057711848001"><ele>160.0</ele><time>2026-04-06T15:28:30Z</time></trkpt><trkpt lat="43.9365605768609" lon="4.516976569867055"><ele>161.0</ele><time>2026-04-06T15:28:31Z</time></trkpt><trkpt lat="43.93663973266559" lon="4.516898817384107"><ele>162.0</ele><time>2026-04-06T15:28:32Z</time></trkpt><trkpt lat="43.936705649721986" lon="4.516829420651436"><ele>163.0</ele><time>2026-04-06T15:28:33Z</time></trkpt><trkpt lat="43.936754101763654" lon="4.516744008903241"><ele>164.0</ele><time>2026-04-06T15:28:34Z</time></trkpt><trkpt lat="43.93677337971991" lon="4.516642465465878"><ele>164.0</ele><time>2026-04-06T15:28:35Z</time></trkpt><trkpt lat="43.93679483561967" lon="4.516541769242173"><ele>164.0</ele><time>2026-04-06T15:28:36Z</time></trkpt><trkpt lat="43.93677833609167" lon="4.516449913542216"><ele>164.0</ele><time>2026-04-06T15:28:37Z</time></trkpt><trkpt lat="43.93673239202274" lon="4.51635173207721"><ele>164.0</ele><time>2026-04-06T15:28:38Z</time></trkpt><trkpt lat="43.936665964559985" lon="4.516253722354012"><ele>164.0</ele><time>2026-04-06T15:28:39Z</time></trkpt><trkpt lat="43.93658814511501" lon="4.516163503983227"><ele>164.0</ele><time>2026-04-06T15:28:40Z</time></trkpt><trkpt lat="43.93649627985791" lon="4.516076543984249"><ele>163.79999999999998</ele><time>2026-04-06T15:28:41Z</time></trkpt><trkpt lat="43.936379232056545" lon="4.516038438971633"><ele>163.6</ele><time>2026-04-06T15:28:42Z</time></trkpt><trkpt lat="43.936267360555796" lon="4.515966595750271"><ele>163.4</ele><time>2026-04-06T15:28:43Z</time></trkpt><trkpt lat="43.93616804905149" lon="4.515925760856309"><ele>163.2</ele><time>2026-04-06T15:28:44Z</time></trkpt><trkpt lat="43.93607123473895" lon="4.515885952755152"><ele>163.0</ele><time>2026-04-06T15:28:45Z</time></trkpt><trkpt lat="43.935976392726005" lon="4.515833748582114"><ele>163.5</ele><time>2026-04-06T15:28:46Z</time></trkpt><trkpt lat="43.935879732641204" lon="4.515746593655615"><ele>164.0</ele><time>2026-04-06T15:28:47Z</time></trkpt><trkpt lat="43.93577898708924" lon="4.515648748056259"><ele>164.5</ele><time>2026-04-06T15:28:48Z</time></trkpt><trkpt lat="43.93567384261782" lon="4.515562683779015"><ele>165.0</ele><time>2026-04-06T15:28:49Z</time></trkpt><trkpt lat="43.93557046034414" lon="4.515479804113001"><ele>164.25</ele><time>2026-04-06T15:28:50Z</time></trkpt><trkpt lat="43.93546615293871" lon="4.515392368399186"><ele>163.5</ele><time>2026-04-06T15:28:51Z</time></trkpt><trkpt lat="43.9353674431404" lon="4.515295894796559"><ele>162.75</ele><time>2026-04-06T15:28:52Z</time></trkpt><trkpt lat="43.93526610780201" lon="4.515205315340971"><ele>162.0</ele><time>2026-04-06T15:28:53Z</time></trkpt><trkpt lat="43.93516531666162" lon="4.515107381236204"><ele>162.39999999999998</ele><time>2026-04-06T15:28:54Z</time></trkpt><trkpt lat="43.93504987721907" lon="4.515045816292423"><ele>162.79999999999998</ele><time>2026-04-06T15:28:55Z</time></trkpt><trkpt lat="43.93493690323143" lon="4.515013324191865"><ele>163.2</ele><time>2026-04-06T15:28:56Z</time></trkpt><trkpt lat="43.934833882868006" lon="4.5150033353418255"><ele>163.6</ele><time>2026-04-06T15:28:57Z</time></trkpt><trkpt lat="43.934732725249106" lon="4.5150039578706735"><ele>164.0</ele><time>2026-04-06T15:28:58Z</time></trkpt><trkpt lat="43.93463817038319" lon="4.514999881105257"><ele>164.0</ele><time>2026-04-06T15:28:59Z</time></trkpt><trkpt lat="43.9345466480171" lon="4.514993570354665"><ele>164.0</ele><time>2026-04-06T15:29:00Z</time></trkpt><trkpt lat="43.93445438735378" lon="4.514943199859376"><ele>164.0</ele><time>2026-04-06T15:29:01Z</time></trkpt><trkpt lat="43.93438060470401" lon="4.514843132335865"><ele>164.0</ele><time>2026-04-06T15:29:02Z</time></trkpt><trkpt lat="43.93429493738844" lon="4.514761755321227"><ele>164.0</ele><time>2026-04-06T15:29:03Z</time></trkpt><trkpt lat="43.93420642801335" lon="4.514676708349064"><ele>164.2</ele><time>2026-04-06T15:29:04Z</time></trkpt><trkpt lat="43.93411700194472" lon="4.514589597290722"><ele>164.39999999999998</ele><time>2026-04-06T15:29:05Z</time></trkpt><trkpt lat="43.93402922250069" lon="4.514504090344589"><ele>164.6</ele><time>2026-04-06T15:29:06Z</time></trkpt><trkpt lat="43.9339375543352" lon="4.514414795115338"><ele>164.8</ele><time>2026-04-06T15:29:07Z</time></trkpt><trkpt lat="43.9338454101353" lon="4.51432503639062"><ele>165.0</ele><time>2026-04-06T15:29:08Z</time></trkpt><trkpt lat="43.933744038531444" lon="4.514244998550053"><ele>164.5</ele><time>2026-04-06T15:29:09Z</time></trkpt><trkpt lat="43.93366493983352" lon="4.5141119142092885"><ele>164.0</ele><time>2026-04-06T15:29:10Z</time></trkpt><trkpt lat="43.93357412788956" lon="4.513997411261854"><ele>163.5</ele><time>2026-04-06T15:29:11Z</time></trkpt><trkpt lat="43.93348434314454" lon="4.513879376814185"><ele>163.0</ele><time>2026-04-06T15:29:12Z</time></trkpt><trkpt lat="43.933386665416755" lon="4.513773752745282"><ele>161.75</ele><time>2026-04-06T15:29:13Z</time></trkpt><trkpt lat="43.93329653819285" lon="4.513667289460176"><ele>160.5</ele><time>2026-04-06T15:29:14Z</time></trkpt><trkpt lat="43.93320254373407" lon="4.51354879621429"><ele>159.25</ele><time>2026-04-06T15:29:15Z</time></trkpt><trkpt lat="43.933134513741024" lon="4.513418894073854"><ele>158.0</ele><time>2026-04-06T15:29:16Z</time></trkpt><trkpt lat="43.93306529606519" lon="4.51329432396117"><ele>158.0</ele><time>2026-04-06T15:29:17Z</time></trkpt><trkpt lat="43.93298626581662" lon="4.513170600905931"><ele>158.0</ele><time>2026-04-06T15:29:18Z</time></trkpt><trkpt lat="43.932929134346054" lon="4.513039924196618"><ele>158.0</ele><time>2026-04-06T15:29:19Z</time></trkpt><trkpt lat="43.93288284350761" lon="4.512887735993621"><ele>158.0</ele><time>2026-04-06T15:29:20Z</time></trkpt><trkpt lat="43.93283164420645" lon="4.5127425488654245"><ele>158.0</ele><time>2026-04-06T15:29:21Z</time></trkpt><trkpt lat="43.93278356098545" lon="4.512593757618634"><ele>158.0</ele><time>2026-04-06T15:29:22Z</time></trkpt><trkpt lat="43.93273612168847" lon="4.512446185048236"><ele>158.0</ele><time>2026-04-06T15:29:23Z</time></trkpt><trkpt lat="43.93267036191174" lon="4.512298898476816"><ele>158.0</ele><time>2026-04-06T15:29:24Z</time></trkpt><trkpt lat="43.932619459871916" lon="4.512156066799909"><ele>159.0</ele><time>2026-04-06T15:29:25Z</time></trkpt><trkpt lat="43.932585171206206" lon="4.511998614475013"><ele>160.0</ele><time>2026-04-06T15:29:26Z</time></trkpt><trkpt lat="43.932545863397735" lon="4.5118476109149475"><ele>161.0</ele><time>2026-04-06T15:29:27Z</time></trkpt><trkpt lat="43.93253488900588" lon="4.511697135658293"><ele>162.0</ele><time>2026-04-06T15:29:28Z</time></trkpt><trkpt lat="43.932538070640724" lon="4.511552593923435"><ele>163.0</ele><time>2026-04-06T15:29:29Z</time></trkpt><trkpt lat="43.93253421921176" lon="4.511422443165582"><ele>163.0</ele><time>2026-04-06T15:29:30Z</time></trkpt><trkpt lat="43.93256598628382" lon="4.51130670638664"><ele>163.0</ele><time>2026-04-06T15:29:31Z</time></trkpt><trkpt lat="43.9325871153467" lon="4.511198883673652"><ele>163.0</ele><time>2026-04-06T15:29:32Z</time></trkpt><trkpt lat="43.93260435027156" lon="4.511096458626195"><ele>163.0</ele><time>2026-04-06T15:29:33Z</time></trkpt><trkpt lat="43.932592527543854" lon="4.510979744847587"><ele>163.0</ele><time>2026-04-06T15:29:34Z</time></trkpt><trkpt lat="43.93255337717177" lon="4.510876248485793"><ele>163.0</ele><time>2026-04-06T15:29:35Z</time></trkpt><trkpt lat="43.9324906130444" lon="4.510800342352099"><ele>163.66666666666669</ele><time>2026-04-06T15:29:36Z</time></trkpt><trkpt lat="43.93241563651877" lon="4.510752088824814"><ele>164.33333333333334</ele><time>2026-04-06T15:29:37Z</time></trkpt><trkpt lat="43.93234515838999" lon="4.510703315393349"><ele>165.0</ele><time>2026-04-06T15:29:38Z</time></trkpt><trkpt lat="43.932285668769865" lon="4.510662761954156"><ele>165.66666666666666</ele><time>2026-04-06T15:29:39Z</time></trkpt><trkpt lat="43.93221597107437" lon="4.510601469914144"><ele>166.33333333333331</ele><time>2026-04-06T15:29:41Z</time></trkpt><trkpt lat="43.93215800415008" lon="4.510531755160692"><ele>167.0</ele><time>2026-04-06T15:29:43Z</time></trkpt><trkpt lat="43.932079702761285" lon="4.510395810720264"><ele>167.66666666666666</ele><time>2026-04-06T15:29:45Z</time></trkpt><trkpt lat="43.932045317953495" lon="4.510306630378922"><ele>168.33333333333331</ele><time>2026-04-06T15:29:46Z</time></trkpt><trkpt lat="43.93203142265137" lon="4.5102123796500075"><ele>169.0</ele><time>2026-04-06T15:29:47Z</time></trkpt><trkpt lat="43.93201199216348" lon="4.5101143843719464"><ele>169.66666666666666</ele><time>2026-04-06T15:29:48Z</time></trkpt><trkpt lat="43.931977249967844" lon="4.510014572839531"><ele>170.33333333333334</ele><time>2026-04-06T15:29:49Z</time></trkpt><trkpt lat="43.931958238204864" lon="4.509909146076428"><ele>171.0</ele><time>2026-04-06T15:29:50Z</time></trkpt><trkpt lat="43.931932175761595" lon="4.509792741000791"><ele>171.0</ele><time>2026-04-06T15:29:51Z</time></trkpt><trkpt lat="43.931904102904106" lon="4.50968118023496"><ele>171.0</ele><time>2026-04-06T15:29:52Z</time></trkpt><trkpt lat="43.931876162146764" lon="4.509579019886888"><ele>171.0</ele><time>2026-04-06T15:29:53Z</time></trkpt><trkpt lat="43.9318494462468" lon="4.509491791426124"><ele>171.0</ele><time>2026-04-06T15:29:54Z</time></trkpt><trkpt lat="43.93182725673509" lon="4.5093966115215816"><ele>171.0</ele><time>2026-04-06T15:29:55Z</time></trkpt><trkpt lat="43.93181087266673" lon="4.509279765420982"><ele>171.0</ele><time>2026-04-06T15:29:56Z</time></trkpt><trkpt lat="43.93179837847287" lon="4.509149427175903"><ele>171.20000000000002</ele><time>2026-04-06T15:29:57Z</time></trkpt><trkpt lat="43.93178960837353" lon="4.509002467446274"><ele>171.4</ele><time>2026-04-06T15:29:58Z</time></trkpt><trkpt lat="43.93179504956992" lon="4.508843184154762"><ele>171.6</ele><time>2026-04-06T15:29:59Z</time></trkpt><trkpt lat="43.93178437828919" lon="4.508692268772632"><ele>171.8</ele><time>2026-04-06T15:30:00Z</time></trkpt><trkpt lat="43.9317794454821" lon="4.508539290796924"><ele>172.0</ele><time>2026-04-06T15:30:01Z</time></trkpt><trkpt lat="43.93177421086557" lon="4.508376050431892"><ele>173.0</ele><time>2026-04-06T15:30:02Z</time></trkpt><trkpt lat="43.9317604951781" lon="4.508211994655013"><ele>174.0</ele><time>2026-04-06T15:30:03Z</time></trkpt><trkpt lat="43.93174954947796" lon="4.5080536557606585"><ele>175.0</ele><time>2026-04-06T15:30:04Z</time></trkpt><trkpt lat="43.931734993154706" lon="4.50789296243937"><ele>176.0</ele><time>2026-04-06T15:30:05Z</time></trkpt><trkpt lat="43.931720291501456" lon="4.507728715927082"><ele>176.0</ele><time>2026-04-06T15:30:06Z</time></trkpt><trkpt lat="43.93170097238156" lon="4.507564661781546"><ele>176.0</ele><time>2026-04-06T15:30:07Z</time></trkpt><trkpt lat="43.93169402420153" lon="4.5073993676511055"><ele>176.0</ele><time>2026-04-06T15:30:08Z</time></trkpt><trkpt lat="43.93171259507417" lon="4.507231140622739"><ele>176.0</ele><time>2026-04-06T15:30:09Z</time></trkpt><trkpt lat="43.931705046575274" lon="4.507066216765489"><ele>176.5</ele><time>2026-04-06T15:30:10Z</time></trkpt><trkpt lat="43.93170925668824" lon="4.506889201059805"><ele>177.0</ele><time>2026-04-06T15:30:11Z</time></trkpt><trkpt lat="43.931712439165835" lon="4.506713377277034"><ele>177.5</ele><time>2026-04-06T15:30:12Z</time></trkpt><trkpt lat="43.93170810775533" lon="4.506552709467414"><ele>178.0</ele><time>2026-04-06T15:30:13Z</time></trkpt><trkpt lat="43.931698214527174" lon="4.506385162818002"><ele>178.75</ele><time>2026-04-06T15:30:14Z</time></trkpt><trkpt lat="43.93168616928027" lon="4.506214714660195"><ele>179.5</ele><time>2026-04-06T15:30:15Z</time></trkpt><trkpt lat="43.93167271351831" lon="4.506047698468859"><ele>180.25</ele><time>2026-04-06T15:30:16Z</time></trkpt><trkpt lat="43.9316580629265" lon="4.505889128752601"><ele>181.0</ele><time>2026-04-06T15:30:17Z</time></trkpt><trkpt lat="43.93162874653064" lon="4.505725780275645"><ele>181.0</ele><time>2026-04-06T15:30:18Z</time></trkpt><trkpt lat="43.93159407842467" lon="4.505557604578211"><ele>181.0</ele><time>2026-04-06T15:30:19Z</time></trkpt><trkpt lat="43.93155779474758" lon="4.505390147450805"><ele>181.0</ele><time>2026-04-06T15:30:20Z</time></trkpt><trkpt lat="43.931529589778684" lon="4.50522546496792"><ele>181.0</ele><time>2026-04-06T15:30:21Z</time></trkpt><trkpt lat="43.93149299763042" lon="4.505065048024376"><ele>181.5</ele><time>2026-04-06T15:30:22Z</time></trkpt><trkpt lat="43.931486070156126" lon="4.50488955880808"><ele>182.0</ele><time>2026-04-06T15:30:23Z</time></trkpt><trkpt lat="43.93146934327577" lon="4.5047187127439265"><ele>182.5</ele><time>2026-04-06T15:30:24Z</time></trkpt><trkpt lat="43.93143919633809" lon="4.504559828298745"><ele>183.0</ele><time>2026-04-06T15:30:25Z</time></trkpt><trkpt lat="43.93141134106412" lon="4.504401227414748"><ele>184.25</ele><time>2026-04-06T15:30:26Z</time></trkpt><trkpt lat="43.93139166842851" lon="4.504242055055875"><ele>185.5</ele><time>2026-04-06T15:30:27Z</time></trkpt><trkpt lat="43.931344101125475" lon="4.504099705190428"><ele>186.75</ele><time>2026-04-06T15:30:28Z</time></trkpt><trkpt lat="43.9312620984189" lon="4.503965654772718"><ele>188.0</ele><time>2026-04-06T15:30:29Z</time></trkpt><trkpt lat="43.9311686692608" lon="4.503841176024399"><ele>189.0</ele><time>2026-04-06T15:30:30Z</time></trkpt><trkpt lat="43.93107372494413" lon="4.5037300775742874"><ele>190.0</ele><time>2026-04-06T15:30:31Z</time></trkpt><trkpt lat="43.93097968919794" lon="4.503631228757362"><ele>191.0</ele><time>2026-04-06T15:30:32Z</time></trkpt><trkpt lat="43.93087146798682" lon="4.503538591211417"><ele>192.0</ele><time>2026-04-06T15:30:33Z</time></trkpt><trkpt lat="43.93075750030387" lon="4.503460858754552"><ele>192.0</ele><time>2026-04-06T15:30:34Z</time></trkpt><trkpt lat="43.93064754435878" lon="4.503397656438548"><ele>192.0</ele><time>2026-04-06T15:30:35Z</time></trkpt><trkpt lat="43.930531662976385" lon="4.503340327109178"><ele>192.0</ele><time>2026-04-06T15:30:36Z</time></trkpt><trkpt lat="43.9304148385715" lon="4.503292664658718"><ele>192.0</ele><time>2026-04-06T15:30:37Z</time></trkpt><trkpt lat="43.93029497548892" lon="4.503251058193608"><ele>192.0</ele><time>2026-04-06T15:30:38Z</time></trkpt><trkpt lat="43.930171396873064" lon="4.5032156206754745"><ele>192.0</ele><time>2026-04-06T15:30:39Z</time></trkpt><trkpt lat="43.93005612698742" lon="4.503207262114443"><ele>192.0</ele><time>2026-04-06T15:30:40Z</time></trkpt><trkpt lat="43.92993756149636" lon="4.503234605615183"><ele>192.0</ele><time>2026-04-06T15:30:41Z</time></trkpt><trkpt lat="43.92982667787434" lon="4.503210420600042"><ele>192.2</ele><time>2026-04-06T15:30:42Z</time></trkpt><trkpt lat="43.929722633757486" lon="4.503184072730573"><ele>192.39999999999998</ele><time>2026-04-06T15:30:43Z</time></trkpt><trkpt lat="43.929615219944786" lon="4.5031568567328"><ele>192.60000000000002</ele><time>2026-04-06T15:30:44Z</time></trkpt><trkpt lat="43.9295077412841" lon="4.50315201144167"><ele>192.8</ele><time>2026-04-06T15:30:45Z</time></trkpt><trkpt lat="43.929409243821844" lon="4.50318156716269"><ele>193.0</ele><time>2026-04-06T15:30:46Z</time></trkpt><trkpt lat="43.92932252224357" lon="4.503231412587395"><ele>192.99999999999997</ele><time>2026-04-06T15:30:47Z</time></trkpt><trkpt lat="43.92923339244576" lon="4.503246855468262"><ele>193.0</ele><time>2026-04-06T15:30:48Z</time></trkpt><trkpt lat="43.92914555937222" lon="4.503242271450243"><ele>193.0</ele><time>2026-04-06T15:30:49Z</time></trkpt><trkpt lat="43.92908099477212" lon="4.503212453449744"><ele>193.0</ele><time>2026-04-06T15:30:50Z</time></trkpt><trkpt lat="43.92902333899096" lon="4.50314963690781"><ele>192.99999999999997</ele><time>2026-04-06T15:30:51Z</time></trkpt><trkpt lat="43.928978244639076" lon="4.50308237712085"><ele>193.0</ele><time>2026-04-06T15:30:52Z</time></trkpt><trkpt lat="43.92893455145808" lon="4.503010474291712"><ele>193.99999999999997</ele><time>2026-04-06T15:30:53Z</time></trkpt><trkpt lat="43.92890780118695" lon="4.502908094971202"><ele>195.0</ele><time>2026-04-06T15:30:54Z</time></trkpt><trkpt lat="43.92887967164134" lon="4.502808418766157"><ele>196.0</ele><time>2026-04-06T15:30:55Z</time></trkpt><trkpt lat="43.92884361063847" lon="4.502710258419703"><ele>197.0</ele><time>2026-04-06T15:30:56Z</time></trkpt><trkpt lat="43.92880554405453" lon="4.502611228463481"><ele>197.99999999999997</ele><time>2026-04-06T15:30:57Z</time></trkpt><trkpt lat="43.928740318492316" lon="4.502515344074485"><ele>199.0</ele><time>2026-04-06T15:30:58Z</time></trkpt><trkpt lat="43.928651022987054" lon="4.502427537163958"><ele>199.0</ele><time>2026-04-06T15:30:59Z</time></trkpt><trkpt lat="43.928557960410885" lon="4.502360511594241"><ele>199.0</ele><time>2026-04-06T15:31:00Z</time></trkpt><trkpt lat="43.92845185338984" lon="4.502300222796693"><ele>199.0</ele><time>2026-04-06T15:31:01Z</time></trkpt><trkpt lat="43.92835888419107" lon="4.50220525070675"><ele>199.0</ele><time>2026-04-06T15:31:02Z</time></trkpt><trkpt lat="43.92826086350874" lon="4.502126602258842"><ele>199.0</ele><time>2026-04-06T15:31:03Z</time></trkpt><trkpt lat="43.92816652528428" lon="4.5020487774591675"><ele>199.6</ele><time>2026-04-06T15:31:04Z</time></trkpt><trkpt lat="43.92807515333284" lon="4.501970556070278"><ele>200.2</ele><time>2026-04-06T15:31:05Z</time></trkpt><trkpt lat="43.927993005160225" lon="4.501891675203415"><ele>200.79999999999998</ele><time>2026-04-06T15:31:06Z</time></trkpt><trkpt lat="43.927915485725755" lon="4.501808078581857"><ele>201.39999999999998</ele><time>2026-04-06T15:31:07Z</time></trkpt><trkpt lat="43.927843788905506" lon="4.501725653951325"><ele>202.0</ele><time>2026-04-06T15:31:08Z</time></trkpt><trkpt lat="43.92776624183945" lon="4.501649952123879"><ele>202.0</ele><time>2026-04-06T15:31:09Z</time></trkpt><trkpt lat="43.927701368467986" lon="4.501565183992863"><ele>202.0</ele><time>2026-04-06T15:31:10Z</time></trkpt><trkpt lat="43.92762708562023" lon="4.501504622049072"><ele>202.0</ele><time>2026-04-06T15:31:11Z</time></trkpt><trkpt lat="43.927547972378115" lon="4.501424492846377"><ele>202.0</ele><time>2026-04-06T15:31:12Z</time></trkpt><trkpt lat="43.92747167700176" lon="4.501342421518451"><ele>202.0</ele><time>2026-04-06T15:31:13Z</time></trkpt><trkpt lat="43.92738474153691" lon="4.501261406033356"><ele>201.8</ele><time>2026-04-06T15:31:14Z</time></trkpt><trkpt lat="43.92730755769459" lon="4.5011713170882475"><ele>201.6</ele><time>2026-04-06T15:31:15Z</time></trkpt><trkpt lat="43.92721749431495" lon="4.501087742701692"><ele>201.4</ele><time>2026-04-06T15:31:16Z</time></trkpt><trkpt lat="43.92712317669566" lon="4.500994247061529"><ele>201.20000000000002</ele><time>2026-04-06T15:31:17Z</time></trkpt><trkpt lat="43.927026011665376" lon="4.5008967660128745"><ele>201.0</ele><time>2026-04-06T15:31:18Z</time></trkpt><trkpt lat="43.92692356616183" lon="4.500811379940355"><ele>201.0</ele><time>2026-04-06T15:31:19Z</time></trkpt><trkpt lat="43.9268235513569" lon="4.500714955086528"><ele>201.0</ele><time>2026-04-06T15:31:20Z</time></trkpt><trkpt lat="43.92672862097846" lon="4.500618423324621"><ele>201.0</ele><time>2026-04-06T15:31:21Z</time></trkpt><trkpt lat="43.92662408421573" lon="4.500524055013319"><ele>201.0</ele><time>2026-04-06T15:31:22Z</time></trkpt><trkpt lat="43.92651812996136" lon="4.500432540554419"><ele>200.75</ele><time>2026-04-06T15:31:23Z</time></trkpt><trkpt lat="43.92640388398176" lon="4.500359867967738"><ele>200.5</ele><time>2026-04-06T15:31:24Z</time></trkpt><trkpt lat="43.92628585195323" lon="4.500300081971519"><ele>200.25</ele><time>2026-04-06T15:31:25Z</time></trkpt><trkpt lat="43.92616502507281" lon="4.500230700028402"><ele>200.0</ele><time>2026-04-06T15:31:26Z</time></trkpt><trkpt lat="43.926052081919806" lon="4.500167806694599"><ele>200.0</ele><time>2026-04-06T15:31:27Z</time></trkpt><trkpt lat="43.92594216348134" lon="4.500079913215766"><ele>200.0</ele><time>2026-04-06T15:31:28Z</time></trkpt><trkpt lat="43.925824957557175" lon="4.5000062027150545"><ele>200.0</ele><time>2026-04-06T15:31:29Z</time></trkpt><trkpt lat="43.925713597733846" lon="4.499932402484384"><ele>200.0</ele><time>2026-04-06T15:31:30Z</time></trkpt><trkpt lat="43.92560584113185" lon="4.499859603007117"><ele>200.0</ele><time>2026-04-06T15:31:31Z</time></trkpt><trkpt lat="43.92550465891567" lon="4.499786540117177"><ele>200.0</ele><time>2026-04-06T15:31:32Z</time></trkpt><trkpt lat="43.92539420776221" lon="4.49969926454761"><ele>200.0</ele><time>2026-04-06T15:31:33Z</time></trkpt><trkpt lat="43.92530312775029" lon="4.499625310728528"><ele>200.0</ele><time>2026-04-06T15:31:34Z</time></trkpt><trkpt lat="43.92523489263483" lon="4.4995833844254225"><ele>200.0</ele><time>2026-04-06T15:31:35Z</time></trkpt><trkpt lat="43.92518087872227" lon="4.499499003039649"><ele>200.00000000000003</ele><time>2026-04-06T15:31:36Z</time></trkpt><trkpt lat="43.92514683006198" lon="4.499417976002408"><ele>200.0</ele><time>2026-04-06T15:31:37Z</time></trkpt><trkpt lat="43.925116476510524" lon="4.499331832785177"><ele>200.0</ele><time>2026-04-06T15:31:38Z</time></trkpt><trkpt lat="43.92508046939985" lon="4.4992399004427925"><ele>200.0</ele><time>2026-04-06T15:31:39Z</time></trkpt><trkpt lat="43.92502186490363" lon="4.49915845466984"><ele>200.00000000000003</ele><time>2026-04-06T15:31:40Z</time></trkpt><trkpt lat="43.92495208036974" lon="4.499092071293272"><ele>200.0</ele><time>2026-04-06T15:31:41Z</time></trkpt><trkpt lat="43.92485979045633" lon="4.499036999102686"><ele>200.2</ele><time>2026-04-06T15:31:42Z</time></trkpt><trkpt lat="43.9247734542631" lon="4.4989865636015525"><ele>200.4</ele><time>2026-04-06T15:31:43Z</time></trkpt><trkpt lat="43.92468598286421" lon="4.4989315375069365"><ele>200.60000000000002</ele><time>2026-04-06T15:31:44Z</time></trkpt><trkpt lat="43.92459334984761" lon="4.498875282550317"><ele>200.8</ele><time>2026-04-06T15:31:45Z</time></trkpt><trkpt lat="43.92450314252416" lon="4.498814839168639"><ele>201.0</ele><time>2026-04-06T15:31:46Z</time></trkpt><trkpt lat="43.924403470664245" lon="4.4987501676891215"><ele>201.0</ele><time>2026-04-06T15:31:47Z</time></trkpt><trkpt lat="43.92432471865743" lon="4.498672228443098"><ele>201.0</ele><time>2026-04-06T15:31:48Z</time></trkpt><trkpt lat="43.92424208033889" lon="4.498641615834201"><ele>201.0</ele><time>2026-04-06T15:31:49Z</time></trkpt><trkpt lat="43.9241795773438" lon="4.498598087245709"><ele>201.0</ele><time>2026-04-06T15:31:50Z</time></trkpt><trkpt lat="43.924125176204605" lon="4.49855283998284"><ele>201.0</ele><time>2026-04-06T15:31:51Z</time></trkpt><trkpt lat="43.92404069071171" lon="4.498485863606635"><ele>201.0</ele><time>2026-04-06T15:31:53Z</time></trkpt><trkpt lat="43.92398011069157" lon="4.4984380425219594"><ele>201.0</ele><time>2026-04-06T15:31:56Z</time></trkpt><trkpt lat="43.924056653936546" lon="4.49829060774615"><ele>201.0</ele><time>2026-04-06T15:32:00Z</time></trkpt><trkpt lat="43.924115416961904" lon="4.49825316536822"><ele>201.0</ele><time>2026-04-06T15:32:01Z</time></trkpt><trkpt lat="43.92423070682732" lon="4.4981720286172955"><ele>201.0</ele><time>2026-04-06T15:32:03Z</time></trkpt><trkpt lat="43.9242845795519" lon="4.498118824529942"><ele>201.0</ele><time>2026-04-06T15:32:04Z</time></trkpt><trkpt lat="43.92434092246358" lon="4.498065956719531"><ele>201.0</ele><time>2026-04-06T15:32:05Z</time></trkpt><trkpt lat="43.92438544506222" lon="4.49799163091779"><ele>201.0</ele><time>2026-04-06T15:32:06Z</time></trkpt><trkpt lat="43.92442782217669" lon="4.497919792020255"><ele>201.0</ele><time>2026-04-06T15:32:07Z</time></trkpt><trkpt lat="43.924478265099125" lon="4.497859461169297"><ele>201.0</ele><time>2026-04-06T15:32:08Z</time></trkpt><trkpt lat="43.92453338400537" lon="4.497799587183371"><ele>201.0</ele><time>2026-04-06T15:32:09Z</time></trkpt><trkpt lat="43.924592640956625" lon="4.497734880234793"><ele>201.0</ele><time>2026-04-06T15:32:10Z</time></trkpt><trkpt lat="43.92466134017873" lon="4.497671674755457"><ele>201.0</ele><time>2026-04-06T15:32:11Z</time></trkpt><trkpt lat="43.924726878559675" lon="4.4976064847947805"><ele>201.0</ele><time>2026-04-06T15:32:12Z</time></trkpt><trkpt lat="43.92479169071103" lon="4.497534158875759"><ele>201.0</ele><time>2026-04-06T15:32:13Z</time></trkpt><trkpt lat="43.92486176301682" lon="4.497460693358465"><ele>201.0</ele><time>2026-04-06T15:32:14Z</time></trkpt><trkpt lat="43.92493782847362" lon="4.497393775122039"><ele>201.0</ele><time>2026-04-06T15:32:15Z</time></trkpt><trkpt lat="43.92501609425567" lon="4.497331099585124"><ele>201.0</ele><time>2026-04-06T15:32:16Z</time></trkpt><trkpt lat="43.925082705814766" lon="4.4972581933617235"><ele>201.0</ele><time>2026-04-06T15:32:17Z</time></trkpt><trkpt lat="43.92514270095026" lon="4.497178951560287"><ele>200.83333333333334</ele><time>2026-04-06T15:32:18Z</time></trkpt><trkpt lat="43.92519995533588" lon="4.497115609323579"><ele>200.66666666666669</ele><time>2026-04-06T15:32:19Z</time></trkpt><trkpt lat="43.92526102882217" lon="4.497060118087225"><ele>200.5</ele><time>2026-04-06T15:32:20Z</time></trkpt><trkpt lat="43.92532108379495" lon="4.497001518859911"><ele>200.33333333333334</ele><time>2026-04-06T15:32:21Z</time></trkpt><trkpt lat="43.92536568349867" lon="4.496917757342332"><ele>200.16666666666669</ele><time>2026-04-06T15:32:22Z</time></trkpt><trkpt lat="43.92540928028893" lon="4.496810965383538"><ele>200.0</ele><time>2026-04-06T15:32:23Z</time></trkpt><trkpt lat="43.925452174710365" lon="4.496704999954537"><ele>200.0</ele><time>2026-04-06T15:32:24Z</time></trkpt><trkpt lat="43.92548812776246" lon="4.4965869451174685"><ele>200.0</ele><time>2026-04-06T15:32:25Z</time></trkpt><trkpt lat="43.92552538269186" lon="4.496463779112447"><ele>200.0</ele><time>2026-04-06T15:32:26Z</time></trkpt><trkpt lat="43.925562686347774" lon="4.496339177395045"><ele>200.0</ele><time>2026-04-06T15:32:27Z</time></trkpt><trkpt lat="43.925588029351076" lon="4.496215440054133"><ele>200.0</ele><time>2026-04-06T15:32:28Z</time></trkpt><trkpt lat="43.92560449303831" lon="4.4961070069342455"><ele>200.16666666666669</ele><time>2026-04-06T15:32:29Z</time></trkpt><trkpt lat="43.92561069305069" lon="4.495992708422687"><ele>200.33333333333334</ele><time>2026-04-06T15:32:30Z</time></trkpt><trkpt lat="43.92562456867108" lon="4.495882131655064"><ele>200.5</ele><time>2026-04-06T15:32:31Z</time></trkpt><trkpt lat="43.92566575343789" lon="4.495792845347435"><ele>200.66666666666669</ele><time>2026-04-06T15:32:32Z</time></trkpt><trkpt lat="43.925709248655835" lon="4.495696241401772"><ele>200.83333333333334</ele><time>2026-04-06T15:32:33Z</time></trkpt><trkpt lat="43.92575739805456" lon="4.495591917612934"><ele>201.0</ele><time>2026-04-06T15:32:34Z</time></trkpt><trkpt lat="43.92582068810506" lon="4.495500780652903"><ele>201.8</ele><time>2026-04-06T15:32:35Z</time></trkpt><trkpt lat="43.92587960676978" lon="4.495407892954494"><ele>202.60000000000002</ele><time>2026-04-06T15:32:36Z</time></trkpt><trkpt lat="43.925944871500896" lon="4.495314727973342"><ele>203.4</ele><time>2026-04-06T15:32:37Z</time></trkpt><trkpt lat="43.92601620899053" lon="4.495234653106498"><ele>204.2</ele><time>2026-04-06T15:32:38Z</time></trkpt><trkpt lat="43.926099246138406" lon="4.495169155208954"><ele>205.0</ele><time>2026-04-06T15:32:39Z</time></trkpt><trkpt lat="43.9261743937085" lon="4.49511159804032"><ele>204.99999999999997</ele><time>2026-04-06T15:32:40Z</time></trkpt><trkpt lat="43.92624364040823" lon="4.49503759410761"><ele>205.0</ele><time>2026-04-06T15:32:41Z</time></trkpt><trkpt lat="43.92629240936675" lon="4.494932781034005"><ele>205.0</ele><time>2026-04-06T15:32:42Z</time></trkpt><trkpt lat="43.926343190395585" lon="4.494824330439081"><ele>205.0</ele><time>2026-04-06T15:32:43Z</time></trkpt><trkpt lat="43.92639838985713" lon="4.494729080336475"><ele>204.99999999999997</ele><time>2026-04-06T15:32:44Z</time></trkpt><trkpt lat="43.92645901709064" lon="4.494654432921175"><ele>205.0</ele><time>2026-04-06T15:32:45Z</time></trkpt><trkpt lat="43.9265084164899" lon="4.494582230222658"><ele>204.99999999999997</ele><time>2026-04-06T15:32:46Z</time></trkpt><trkpt lat="43.926559385196356" lon="4.494515291544636"><ele>205.0</ele><time>2026-04-06T15:32:47Z</time></trkpt><trkpt lat="43.92661120938415" lon="4.494433953323132"><ele>205.0</ele><time>2026-04-06T15:32:48Z</time></trkpt><trkpt lat="43.92666081220902" lon="4.4943389715485775"><ele>205.0</ele><time>2026-04-06T15:32:49Z</time></trkpt><trkpt lat="43.92670927708914" lon="4.494233084734059"><ele>204.99999999999997</ele><time>2026-04-06T15:32:50Z</time></trkpt><trkpt lat="43.92674894894745" lon="4.494113240695868"><ele>205.0</ele><time>2026-04-06T15:32:51Z</time></trkpt><trkpt lat="43.9267750001213" lon="4.493993236133484"><ele>204.99999999999997</ele><time>2026-04-06T15:32:52Z</time></trkpt><trkpt lat="43.92679366821101" lon="4.493906021841301"><ele>205.0</ele><time>2026-04-06T15:32:53Z</time></trkpt><trkpt lat="43.92683548955777" lon="4.493801589424794"><ele>205.0</ele><time>2026-04-06T15:32:55Z</time></trkpt><trkpt lat="43.92687372932667" lon="4.493681809714632"><ele>205.0</ele><time>2026-04-06T15:32:57Z</time></trkpt><trkpt lat="43.92689922641483" lon="4.493574873011295"><ele>204.99999999999997</ele><time>2026-04-06T15:32:59Z</time></trkpt><trkpt lat="43.92697216626372" lon="4.493479856409984"><ele>205.0</ele><time>2026-04-06T15:33:01Z</time></trkpt><trkpt lat="43.92706205722091" lon="4.493373137169236"><ele>204.66666666666666</ele><time>2026-04-06T15:33:03Z</time></trkpt><trkpt lat="43.92710835630761" lon="4.493296806296308"><ele>204.33333333333331</ele><time>2026-04-06T15:33:04Z</time></trkpt><trkpt lat="43.927188058442" lon="4.493185057256593"><ele>204.0</ele><time>2026-04-06T15:33:06Z</time></trkpt><trkpt lat="43.92724836574127" lon="4.49308916599571"><ele>203.66666666666669</ele><time>2026-04-06T15:33:08Z</time></trkpt><trkpt lat="43.92730708271459" lon="4.493013166157685"><ele>203.33333333333334</ele><time>2026-04-06T15:33:10Z</time></trkpt><trkpt lat="43.927384339158536" lon="4.492954316917148"><ele>203.0</ele><time>2026-04-06T15:33:13Z</time></trkpt><trkpt lat="43.927449599803296" lon="4.492903104316962"><ele>201.50000000000003</ele><time>2026-04-06T15:33:36Z</time></trkpt><trkpt lat="43.92750620930298" lon="4.492841908321243"><ele>200.0</ele><time>2026-04-06T15:33:40Z</time></trkpt><trkpt lat="43.927563105657526" lon="4.492767390495826"><ele>198.5</ele><time>2026-04-06T15:33:44Z</time></trkpt><trkpt lat="43.927592591421046" lon="4.492661142367588"><ele>197.0</ele><time>2026-04-06T15:33:47Z</time></trkpt><trkpt lat="43.92766012279325" lon="4.492613462971039"><ele>195.50000000000003</ele><time>2026-04-06T15:33:49Z</time></trkpt><trkpt lat="43.927676353899" lon="4.492525235243791"><ele>194.0</ele><time>2026-04-06T15:33:54Z</time></trkpt><trkpt lat="43.927714883095575" lon="4.492427099651919"><ele>192.7142857142857</ele><time>2026-04-06T15:33:57Z</time></trkpt><trkpt lat="43.927757716813154" lon="4.492361582318205"><ele>191.42857142857144</ele><time>2026-04-06T15:34:00Z</time></trkpt><trkpt lat="43.92782151593296" lon="4.492368384174425"><ele>190.14285714285714</ele><time>2026-04-06T15:34:03Z</time></trkpt><trkpt lat="43.92788117656887" lon="4.4922990445715385"><ele>188.85714285714283</ele><time>2026-04-06T15:34:07Z</time></trkpt><trkpt lat="43.927868453470595" lon="4.492213265953027"><ele>187.57142857142856</ele><time>2026-04-06T15:34:10Z</time></trkpt><trkpt lat="43.92786851136266" lon="4.492107361570527"><ele>186.28571428571428</ele><time>2026-04-06T15:34:15Z</time></trkpt><trkpt lat="43.927846134461404" lon="4.491990055989491"><ele>185.0</ele><time>2026-04-06T15:34:18Z</time></trkpt><trkpt lat="43.927814002769374" lon="4.49188494095492"><ele>184.0</ele><time>2026-04-06T15:34:20Z</time></trkpt><trkpt lat="43.92778599704747" lon="4.491774354068318"><ele>183.0</ele><time>2026-04-06T15:34:22Z</time></trkpt><trkpt lat="43.92774090933878" lon="4.491671754322476"><ele>182.0</ele><time>2026-04-06T15:34:25.001Z</time></trkpt><trkpt lat="43.927722760875795" lon="4.491559263735629"><ele>181.0</ele><time>2026-04-06T15:34:27.001Z</time></trkpt><trkpt lat="43.927714097329726" lon="4.491471331795605"><ele>180.0</ele><time>2026-04-06T15:34:28.001Z</time></trkpt><trkpt lat="43.92768260154968" lon="4.491319548639844"><ele>179.0</ele><time>2026-04-06T15:34:30.001Z</time></trkpt><trkpt lat="43.92766415089272" lon="4.491229912778827"><ele>179.0</ele><time>2026-04-06T15:34:32.001Z</time></trkpt><trkpt lat="43.927666613739795" lon="4.4911001562486135"><ele>179.0</ele><time>2026-04-06T15:34:36.001Z</time></trkpt><trkpt lat="43.92762368864734" lon="4.490997750806148"><ele>179.0</ele><time>2026-04-06T15:34:38.001Z</time></trkpt><trkpt lat="43.92751429823019" lon="4.490927601569645"><ele>179.0</ele><time>2026-04-06T15:34:40.001Z</time></trkpt><trkpt lat="43.92745044760117" lon="4.49088041332489"><ele>179.0</ele><time>2026-04-06T15:34:41.001Z</time></trkpt><trkpt lat="43.92734562747217" lon="4.490832978790642"><ele>179.2</ele><time>2026-04-06T15:34:43Z</time></trkpt><trkpt lat="43.92726516691166" lon="4.490746046676373"><ele>179.39999999999998</ele><time>2026-04-06T15:34:45Z</time></trkpt><trkpt lat="43.92721728199349" lon="4.490624796753125"><ele>179.6</ele><time>2026-04-06T15:34:48Z</time></trkpt><trkpt lat="43.927182521934" lon="4.490510462073847"><ele>179.8</ele><time>2026-04-06T15:34:50Z</time></trkpt><trkpt lat="43.92708669060977" lon="4.490409976285979"><ele>180.0</ele><time>2026-04-06T15:34:52Z</time></trkpt><trkpt lat="43.92699119155923" lon="4.490359922183702"><ele>180.0</ele><time>2026-04-06T15:34:54Z</time></trkpt><trkpt lat="43.92686851972411" lon="4.490332211856492"><ele>180.0</ele><time>2026-04-06T15:34:56Z</time></trkpt><trkpt lat="43.926795400360646" lon="4.490321779858295"><ele>180.0</ele><time>2026-04-06T15:34:57Z</time></trkpt><trkpt lat="43.92672911686561" lon="4.490298675693972"><ele>180.0</ele><time>2026-04-06T15:34:58Z</time></trkpt><trkpt lat="43.92661585592931" lon="4.4902617793721955"><ele>180.0</ele><time>2026-04-06T15:35:00Z</time></trkpt><trkpt lat="43.92650373974658" lon="4.49024358029085"><ele>180.0</ele><time>2026-04-06T15:35:02Z</time></trkpt><trkpt lat="43.92646519011799" lon="4.490128783788844"><ele>180.0</ele><time>2026-04-06T15:35:04Z</time></trkpt><trkpt lat="43.9265113866468" lon="4.490029377780143"><ele>180.0</ele><time>2026-04-06T15:35:06Z</time></trkpt><trkpt lat="43.92655253000572" lon="4.489911494012926"><ele>180.0</ele><time>2026-04-06T15:35:08Z</time></trkpt><trkpt lat="43.926495404942436" lon="4.489795137959085"><ele>180.0</ele><time>2026-04-06T15:35:10Z</time></trkpt><trkpt lat="43.92649421670341" lon="4.489687799415266"><ele>180.0</ele><time>2026-04-06T15:35:13Z</time></trkpt><trkpt lat="43.926476004295445" lon="4.489589081454996"><ele>180.8</ele><time>2026-04-06T15:35:15Z</time></trkpt><trkpt lat="43.926394466289324" lon="4.48949730977174"><ele>181.6</ele><time>2026-04-06T15:35:17Z</time></trkpt><trkpt lat="43.92633000578291" lon="4.489377501124714"><ele>182.39999999999998</ele><time>2026-04-06T15:35:19Z</time></trkpt><trkpt lat="43.926224110025984" lon="4.489356735567828"><ele>183.2</ele><time>2026-04-06T15:35:21Z</time></trkpt><trkpt lat="43.926148805569895" lon="4.489309440594634"><ele>184.0</ele><time>2026-04-06T15:35:23Z</time></trkpt><trkpt lat="43.92618389892875" lon="4.489223730801918"><ele>184.0</ele><time>2026-04-06T15:35:25Z</time></trkpt><trkpt lat="43.926108522296666" lon="4.489147312833117"><ele>184.0</ele><time>2026-04-06T15:36:18Z</time></trkpt><trkpt lat="43.9260468853657" lon="4.48912515365191"><ele>184.0</ele><time>2026-04-06T15:36:20Z</time></trkpt><trkpt lat="43.92599672274111" lon="4.48902112012387"><ele>184.0</ele><time>2026-04-06T15:36:24Z</time></trkpt><trkpt lat="43.92592627921226" lon="4.489014447067916"><ele>184.0</ele><time>2026-04-06T15:36:26Z</time></trkpt><trkpt lat="43.925859078399405" lon="4.48904162700218"><ele>184.0</ele><time>2026-04-06T15:36:28Z</time></trkpt><trkpt lat="43.92574356273421" lon="4.489031358755459"><ele>184.39999999999998</ele><time>2026-04-06T15:36:30.001Z</time></trkpt><trkpt lat="43.92563515656077" lon="4.489004983295558"><ele>184.8</ele><time>2026-04-06T15:36:32.001Z</time></trkpt><trkpt lat="43.925559252154194" lon="4.488975647808967"><ele>185.2</ele><time>2026-04-06T15:36:34.001Z</time></trkpt><trkpt lat="43.92548820988808" lon="4.489001808070889"><ele>185.60000000000002</ele><time>2026-04-06T15:36:36.001Z</time></trkpt><trkpt lat="43.9254268425443" lon="4.489147104511517"><ele>186.0</ele><time>2026-04-06T15:36:38.001Z</time></trkpt><trkpt lat="43.925348694803546" lon="4.489224308388871"><ele>186.0</ele><time>2026-04-06T15:36:40.001Z</time></trkpt><trkpt lat="43.925243777258565" lon="4.489206519029324"><ele>186.0</ele><time>2026-04-06T15:36:42.001Z</time></trkpt><trkpt lat="43.925109572913186" lon="4.489230205066793"><ele>186.0</ele><time>2026-04-06T15:36:44.001Z</time></trkpt><trkpt lat="43.92503578454417" lon="4.489241440038568"><ele>186.0</ele><time>2026-04-06T15:36:45.001Z</time></trkpt><trkpt lat="43.92495538215792" lon="4.489237827200364"><ele>186.0</ele><time>2026-04-06T15:36:46.001Z</time></trkpt><trkpt lat="43.92487613814133" lon="4.489244613523219"><ele>185.83333333333334</ele><time>2026-04-06T15:36:47.001Z</time></trkpt><trkpt lat="43.92480005228588" lon="4.48925558420067"><ele>185.66666666666666</ele><time>2026-04-06T15:36:48.001Z</time></trkpt><trkpt lat="43.92473141250148" lon="4.4892646706293995"><ele>185.5</ele><time>2026-04-06T15:36:49Z</time></trkpt><trkpt lat="43.92465321025511" lon="4.489299258517927"><ele>185.33333333333331</ele><time>2026-04-06T15:36:51Z</time></trkpt><trkpt lat="43.92464635187039" lon="4.489447662961004"><ele>185.16666666666666</ele><time>2026-04-06T15:36:54Z</time></trkpt><trkpt lat="43.92461642768302" lon="4.489591790876872"><ele>185.0</ele><time>2026-04-06T15:36:56Z</time></trkpt><trkpt lat="43.92455438185781" lon="4.489703394016875"><ele>185.0</ele><time>2026-04-06T15:36:58Z</time></trkpt><trkpt lat="43.924484108854585" lon="4.489752990451227"><ele>185.0</ele><time>2026-04-06T15:36:59Z</time></trkpt><trkpt lat="43.92441571919948" lon="4.4898067510657516"><ele>185.0</ele><time>2026-04-06T15:37:00Z</time></trkpt><trkpt lat="43.92433959900295" lon="4.489859970797181"><ele>185.0</ele><time>2026-04-06T15:37:01Z</time></trkpt><trkpt lat="43.924266642535166" lon="4.489894039101477"><ele>185.0</ele><time>2026-04-06T15:37:02Z</time></trkpt><trkpt lat="43.92420384676526" lon="4.489961069510503"><ele>185.0</ele><time>2026-04-06T15:37:03Z</time></trkpt><trkpt lat="43.92415289045282" lon="4.490022735080578"><ele>185.5</ele><time>2026-04-06T15:37:04Z</time></trkpt><trkpt lat="43.92408217717189" lon="4.490059118660833"><ele>186.0</ele><time>2026-04-06T15:37:05Z</time></trkpt><trkpt lat="43.92400325249006" lon="4.490075043494057"><ele>186.5</ele><time>2026-04-06T15:37:06Z</time></trkpt><trkpt lat="43.92391752222883" lon="4.490088174776445"><ele>187.0</ele><time>2026-04-06T15:37:07Z</time></trkpt><trkpt lat="43.92383003491994" lon="4.490087422187975"><ele>187.5</ele><time>2026-04-06T15:37:08Z</time></trkpt><trkpt lat="43.92374208342942" lon="4.490079214302086"><ele>188.0</ele><time>2026-04-06T15:37:09Z</time></trkpt><trkpt lat="43.923660157526875" lon="4.490056020682717"><ele>188.0</ele><time>2026-04-06T15:37:10Z</time></trkpt><trkpt lat="43.923582475385366" lon="4.490040795666623"><ele>188.0</ele><time>2026-04-06T15:37:11Z</time></trkpt><trkpt lat="43.92351857908729" lon="4.490018421696707"><ele>188.0</ele><time>2026-04-06T15:37:12Z</time></trkpt><trkpt lat="43.92345292701006" lon="4.489998539682827"><ele>188.0</ele><time>2026-04-06T15:37:13Z</time></trkpt><trkpt lat="43.92338937304354" lon="4.489969561793955"><ele>188.0</ele><time>2026-04-06T15:37:14Z</time></trkpt><trkpt lat="43.923333056853224" lon="4.489926896926046"><ele>188.0</ele><time>2026-04-06T15:37:15Z</time></trkpt><trkpt lat="43.92325322179758" lon="4.489843639164988"><ele>188.0</ele><time>2026-04-06T15:37:17Z</time></trkpt><trkpt lat="43.92316115760712" lon="4.489840932353166"><ele>188.5</ele><time>2026-04-06T15:37:19Z</time></trkpt><trkpt lat="43.9230344892804" lon="4.489876239534235"><ele>189.0</ele><time>2026-04-06T15:37:21Z</time></trkpt><trkpt lat="43.92296359278341" lon="4.489881237183563"><ele>189.5</ele><time>2026-04-06T15:37:22Z</time></trkpt><trkpt lat="43.92288841854338" lon="4.4898815962998"><ele>190.0</ele><time>2026-04-06T15:37:23Z</time></trkpt><trkpt lat="43.92281150878383" lon="4.489868486760062"><ele>190.5</ele><time>2026-04-06T15:37:24Z</time></trkpt><trkpt lat="43.922737818833994" lon="4.489839713187907"><ele>191.0</ele><time>2026-04-06T15:37:25Z</time></trkpt><trkpt lat="43.92265461806386" lon="4.489813690147169"><ele>191.0</ele><time>2026-04-06T15:37:26Z</time></trkpt><trkpt lat="43.92258266049715" lon="4.489801715745596"><ele>191.0</ele><time>2026-04-06T15:37:27Z</time></trkpt><trkpt lat="43.9225075822973" lon="4.489789863873431"><ele>191.0</ele><time>2026-04-06T15:37:28Z</time></trkpt><trkpt lat="43.922432640203844" lon="4.489774344359682"><ele>191.0</ele><time>2026-04-06T15:37:29Z</time></trkpt><trkpt lat="43.92235704119201" lon="4.4897720450513114"><ele>191.0</ele><time>2026-04-06T15:37:30Z</time></trkpt><trkpt lat="43.92228197816094" lon="4.489782113901216"><ele>191.0</ele><time>2026-04-06T15:37:31Z</time></trkpt><trkpt lat="43.92219922058659" lon="4.4898059610129355"><ele>191.60000000000002</ele><time>2026-04-06T15:37:32Z</time></trkpt><trkpt lat="43.92211467381454" lon="4.489834535793366"><ele>192.2</ele><time>2026-04-06T15:37:33Z</time></trkpt><trkpt lat="43.922029049597676" lon="4.489867089542024"><ele>192.8</ele><time>2026-04-06T15:37:34Z</time></trkpt><trkpt lat="43.92193795141627" lon="4.489900320626935"><ele>193.39999999999998</ele><time>2026-04-06T15:37:35Z</time></trkpt><trkpt lat="43.92184714361132" lon="4.489939009766998"><ele>194.0</ele><time>2026-04-06T15:37:36Z</time></trkpt><trkpt lat="43.92175648520189" lon="4.489954550400403"><ele>194.79999999999998</ele><time>2026-04-06T15:37:37Z</time></trkpt><trkpt lat="43.921667802698195" lon="4.489991964024626"><ele>195.6</ele><time>2026-04-06T15:37:38Z</time></trkpt><trkpt lat="43.92156950888313" lon="4.4900205483437015"><ele>196.4</ele><time>2026-04-06T15:37:39Z</time></trkpt><trkpt lat="43.921478730508966" lon="4.490039243415836"><ele>197.2</ele><time>2026-04-06T15:37:40Z</time></trkpt><trkpt lat="43.92137981950193" lon="4.490059694929557"><ele>198.0</ele><time>2026-04-06T15:37:41Z</time></trkpt><trkpt lat="43.92129894164047" lon="4.490060666579069"><ele>198.0</ele><time>2026-04-06T15:37:42Z</time></trkpt><trkpt lat="43.92121165277588" lon="4.490058389598008"><ele>198.0</ele><time>2026-04-06T15:37:43Z</time></trkpt><trkpt lat="43.92112119942171" lon="4.4900875073195206"><ele>198.0</ele><time>2026-04-06T15:37:44Z</time></trkpt><trkpt lat="43.92102691155617" lon="4.4901366083087"><ele>198.0</ele><time>2026-04-06T15:37:45Z</time></trkpt><trkpt lat="43.92093802110458" lon="4.490188335516436"><ele>198.0</ele><time>2026-04-06T15:37:46Z</time></trkpt><trkpt lat="43.92084634738842" lon="4.490241955446655"><ele>197.66666666666666</ele><time>2026-04-06T15:37:47Z</time></trkpt><trkpt lat="43.920766502591896" lon="4.490289725433131"><ele>197.33333333333331</ele><time>2026-04-06T15:37:48Z</time></trkpt><trkpt lat="43.920711460124224" lon="4.490332544147585"><ele>197.0</ele><time>2026-04-06T15:37:49Z</time></trkpt><trkpt lat="43.92062254205487" lon="4.490407526706029"><ele>196.66666666666666</ele><time>2026-04-06T15:37:51Z</time></trkpt><trkpt lat="43.920557521485094" lon="4.490448763235062"><ele>196.33333333333331</ele><time>2026-04-06T15:37:53Z</time></trkpt><trkpt lat="43.92049256709633" lon="4.49047301481865"><ele>196.0</ele><time>2026-04-06T15:37:55Z</time></trkpt><trkpt lat="43.92040965419665" lon="4.490555547789151"><ele>195.99999999999997</ele><time>2026-04-06T15:37:58Z</time></trkpt><trkpt lat="43.92034321356531" lon="4.490683911265577"><ele>196.0</ele><time>2026-04-06T15:38:00Z</time></trkpt><trkpt lat="43.92032705159121" lon="4.490781867141433"><ele>196.0</ele><time>2026-04-06T15:38:01Z</time></trkpt><trkpt lat="43.92032736745321" lon="4.490880836471364"><ele>196.0</ele><time>2026-04-06T15:38:02Z</time></trkpt><trkpt lat="43.92034008908553" lon="4.490992430474592"><ele>195.99999999999997</ele><time>2026-04-06T15:38:03Z</time></trkpt><trkpt lat="43.92034456948574" lon="4.491119027308322"><ele>196.0</ele><time>2026-04-06T15:38:04Z</time></trkpt><trkpt lat="43.92034386946637" lon="4.49126609983269"><ele>195.75</ele><time>2026-04-06T15:38:05Z</time></trkpt><trkpt lat="43.92033721906715" lon="4.491418023359775"><ele>195.5</ele><time>2026-04-06T15:38:06Z</time></trkpt><trkpt lat="43.92033194612632" lon="4.49157336099113"><ele>195.25</ele><time>2026-04-06T15:38:07Z</time></trkpt><trkpt lat="43.92032592984352" lon="4.4917359054254264"><ele>195.0</ele><time>2026-04-06T15:38:08Z</time></trkpt><trkpt lat="43.92032241020145" lon="4.491897157989024"><ele>195.0</ele><time>2026-04-06T15:38:09Z</time></trkpt><trkpt lat="43.92031779857318" lon="4.492030451891141"><ele>195.0</ele><time>2026-04-06T15:38:10Z</time></trkpt><trkpt lat="43.92031542787271" lon="4.492160164728024"><ele>195.0</ele><time>2026-04-06T15:38:11Z</time></trkpt><trkpt lat="43.920294493134676" lon="4.492286170225871"><ele>195.0</ele><time>2026-04-06T15:38:12Z</time></trkpt><trkpt lat="43.920287160498184" lon="4.4924129554136325"><ele>195.0</ele><time>2026-04-06T15:38:13Z</time></trkpt><trkpt lat="43.920275327097414" lon="4.4925259161267865"><ele>195.66666666666666</ele><time>2026-04-06T15:38:14Z</time></trkpt><trkpt lat="43.92027736826274" lon="4.492643235831126"><ele>196.33333333333331</ele><time>2026-04-06T15:38:15Z</time></trkpt><trkpt lat="43.92026352113649" lon="4.492752498468141"><ele>197.0</ele><time>2026-04-06T15:38:16Z</time></trkpt><trkpt lat="43.92025068927625" lon="4.492853653384242"><ele>197.66666666666666</ele><time>2026-04-06T15:38:17Z</time></trkpt><trkpt lat="43.92023447469749" lon="4.492961631991954"><ele>198.33333333333331</ele><time>2026-04-06T15:38:18Z</time></trkpt><trkpt lat="43.920220030567386" lon="4.493080172072154"><ele>199.0</ele><time>2026-04-06T15:38:19Z</time></trkpt><trkpt lat="43.9202276789117" lon="4.493211287190241"><ele>200.79999999999998</ele><time>2026-04-06T15:38:20Z</time></trkpt><trkpt lat="43.92022968959537" lon="4.49334065457872"><ele>202.6</ele><time>2026-04-06T15:38:21Z</time></trkpt><trkpt lat="43.92023784477711" lon="4.493480389051628"><ele>204.4</ele><time>2026-04-06T15:38:22Z</time></trkpt><trkpt lat="43.920237825882495" lon="4.493619354677521"><ele>206.2</ele><time>2026-04-06T15:38:23Z</time></trkpt><trkpt lat="43.92024136356119" lon="4.493763983961842"><ele>208.0</ele><time>2026-04-06T15:38:24Z</time></trkpt><trkpt lat="43.92025328087991" lon="4.493898024197021"><ele>208.49999999999997</ele><time>2026-04-06T15:38:25Z</time></trkpt><trkpt lat="43.92024375048627" lon="4.4940447966975094"><ele>209.0</ele><time>2026-04-06T15:38:26Z</time></trkpt><trkpt lat="43.92024287952553" lon="4.494151716653858"><ele>209.5</ele><time>2026-04-06T15:38:27Z</time></trkpt><trkpt lat="43.920238697620164" lon="4.494244646884889"><ele>210.0</ele><time>2026-04-06T15:38:28Z</time></trkpt><trkpt lat="43.920230431821366" lon="4.4943389150465105"><ele>210.49999999999997</ele><time>2026-04-06T15:38:29Z</time></trkpt><trkpt lat="43.920217136835305" lon="4.494495704185169"><ele>211.0</ele><time>2026-04-06T15:38:31Z</time></trkpt><trkpt lat="43.920205107190256" lon="4.494612745930146"><ele>211.0</ele><time>2026-04-06T15:38:33Z</time></trkpt><trkpt lat="43.92056773350265" lon="4.494558418203528"><ele>211.0</ele><time>2026-04-06T15:39:39Z</time></trkpt><trkpt lat="43.92064912721902" lon="4.494558544502048"><ele>211.0</ele><time>2026-04-06T15:39:42Z</time></trkpt><trkpt lat="43.92072757923409" lon="4.494587335550827"><ele>210.99999999999997</ele><time>2026-04-06T15:39:44Z</time></trkpt><trkpt lat="43.92079307335677" lon="4.494622444011063"><ele>211.0</ele><time>2026-04-06T15:39:46Z</time></trkpt><trkpt lat="43.920884204982436" lon="4.494612436381913"><ele>211.0</ele><time>2026-04-06T15:39:49Z</time></trkpt><trkpt lat="43.9209420779156" lon="4.494561518967077"><ele>211.0</ele><time>2026-04-06T15:39:52Z</time></trkpt><trkpt lat="43.92095138468798" lon="4.494663183495804"><ele>210.99999999999997</ele><time>2026-04-06T15:40:42Z</time></trkpt><trkpt lat="43.920883678021504" lon="4.4946217800385675"><ele>211.0</ele><time>2026-04-06T15:40:44Z</time></trkpt><trkpt lat="43.92077726088726" lon="4.4946007183577965"><ele>211.0</ele><time>2026-04-06T15:40:46Z</time></trkpt><trkpt lat="43.920676689560615" lon="4.494580716810677"><ele>211.0</ele><time>2026-04-06T15:40:48Z</time></trkpt><trkpt lat="43.920580373742226" lon="4.494563559346791"><ele>211.0</ele><time>2026-04-06T15:40:50Z</time></trkpt><trkpt lat="43.92046621250855" lon="4.494552769612028"><ele>211.0</ele><time>2026-04-06T15:40:52Z</time></trkpt><trkpt lat="43.92039764615589" lon="4.494539783353596"><ele>211.0</ele><time>2026-04-06T15:40:53Z</time></trkpt><trkpt lat="43.920302150133985" lon="4.494559953863768"><ele>210.99999999999997</ele><time>2026-04-06T15:40:55Z</time></trkpt><trkpt lat="43.92025071542004" lon="4.49463379979843"><ele>211.0</ele><time>2026-04-06T15:40:57Z</time></trkpt><trkpt lat="43.92020902242458" lon="4.494559058479554"><ele>211.0</ele><time>2026-04-06T15:41:09Z</time></trkpt><trkpt lat="43.92013828015655" lon="4.494533473156857"><ele>211.0</ele><time>2026-04-06T15:41:11Z</time></trkpt><trkpt lat="43.9200629431771" lon="4.494546143441291"><ele>210.99999999999997</ele><time>2026-04-06T15:41:13Z</time></trkpt><trkpt lat="43.91999715487554" lon="4.494550818073006"><ele>211.0</ele><time>2026-04-06T15:41:15Z</time></trkpt><trkpt lat="43.91988925981465" lon="4.4945888742818125"><ele>210.8</ele><time>2026-04-06T15:41:17Z</time></trkpt><trkpt lat="43.91977444463172" lon="4.494588324712634"><ele>210.60000000000002</ele><time>2026-04-06T15:41:19Z</time></trkpt><trkpt lat="43.91970939815189" lon="4.4945652474718525"><ele>210.4</ele><time>2026-04-06T15:41:20Z</time></trkpt><trkpt lat="43.919635027187766" lon="4.494473248276986"><ele>210.2</ele><time>2026-04-06T15:41:22Z</time></trkpt><trkpt lat="43.91955725922754" lon="4.494388366722582"><ele>210.0</ele><time>2026-04-06T15:41:24Z</time></trkpt><trkpt lat="43.91945668777606" lon="4.494318202581619"><ele>209.6</ele><time>2026-04-06T15:41:26Z</time></trkpt><trkpt lat="43.91933782102073" lon="4.494276120847586"><ele>209.2</ele><time>2026-04-06T15:41:28Z</time></trkpt><trkpt lat="43.91926965575289" lon="4.49427491260514"><ele>208.8</ele><time>2026-04-06T15:41:29Z</time></trkpt><trkpt lat="43.91916003177198" lon="4.494295146113588"><ele>208.4</ele><time>2026-04-06T15:41:31Z</time></trkpt><trkpt lat="43.919097337632785" lon="4.494421412025722"><ele>208.0</ele><time>2026-04-06T15:41:33Z</time></trkpt><trkpt lat="43.91907446039371" lon="4.4945160651465565"><ele>207.83333333333331</ele><time>2026-04-06T15:41:34Z</time></trkpt><trkpt lat="43.91904743216656" lon="4.494608197227135"><ele>207.66666666666666</ele><time>2026-04-06T15:41:35Z</time></trkpt><trkpt lat="43.91900482364014" lon="4.49471483298221"><ele>207.5</ele><time>2026-04-06T15:41:37Z</time></trkpt><trkpt lat="43.918944669517956" lon="4.494764039348784"><ele>207.33333333333331</ele><time>2026-04-06T15:41:40Z</time></trkpt><trkpt lat="43.91889054862111" lon="4.4946947761480756"><ele>207.16666666666666</ele><time>2026-04-06T15:41:45Z</time></trkpt><trkpt lat="43.91888068192523" lon="4.494596657462582"><ele>207.0</ele><time>2026-04-06T15:41:47Z</time></trkpt><trkpt lat="43.9188825441006" lon="4.494421728428343"><ele>206.8</ele><time>2026-04-06T15:41:49Z</time></trkpt><trkpt lat="43.91887382701219" lon="4.49432961569964"><ele>206.6</ele><time>2026-04-06T15:41:50Z</time></trkpt><trkpt lat="43.91887374538673" lon="4.494171170364455"><ele>206.4</ele><time>2026-04-06T15:41:51Z</time></trkpt><trkpt lat="43.91888618912976" lon="4.494012482372603"><ele>206.20000000000002</ele><time>2026-04-06T15:41:52Z</time></trkpt><trkpt lat="43.91888460512473" lon="4.493850919097553"><ele>206.0</ele><time>2026-04-06T15:41:53Z</time></trkpt><trkpt lat="43.91888665545405" lon="4.493692539330881"><ele>205.8</ele><time>2026-04-06T15:41:54Z</time></trkpt><trkpt lat="43.918884212169765" lon="4.493544478013872"><ele>205.60000000000002</ele><time>2026-04-06T15:41:55Z</time></trkpt><trkpt lat="43.91888552515426" lon="4.493395722499498"><ele>205.4</ele><time>2026-04-06T15:41:56Z</time></trkpt><trkpt lat="43.918892263926615" lon="4.493248319247922"><ele>205.2</ele><time>2026-04-06T15:41:57Z</time></trkpt><trkpt lat="43.9188827322743" lon="4.493120237378351"><ele>205.0</ele><time>2026-04-06T15:41:58Z</time></trkpt><trkpt lat="43.918874035805665" lon="4.492993640291036"><ele>204.66666666666666</ele><time>2026-04-06T15:41:59Z</time></trkpt><trkpt lat="43.9188622092682" lon="4.492865015554967"><ele>204.33333333333331</ele><time>2026-04-06T15:42:00Z</time></trkpt><trkpt lat="43.918861337459425" lon="4.492747295668382"><ele>204.0</ele><time>2026-04-06T15:42:01Z</time></trkpt><trkpt lat="43.91886136372051" lon="4.4926350445193775"><ele>203.66666666666669</ele><time>2026-04-06T15:42:02Z</time></trkpt><trkpt lat="43.91886407557747" lon="4.4925281341394605"><ele>203.33333333333334</ele><time>2026-04-06T15:42:03Z</time></trkpt><trkpt lat="43.91885696627095" lon="4.492429387952539"><ele>203.0</ele><time>2026-04-06T15:42:04Z</time></trkpt><trkpt lat="43.918845907222035" lon="4.492331254690699"><ele>203.00000000000003</ele><time>2026-04-06T15:42:05Z</time></trkpt><trkpt lat="43.91882776922282" lon="4.492246539877266"><ele>203.0</ele><time>2026-04-06T15:42:06Z</time></trkpt><trkpt lat="43.918794996120994" lon="4.492155679772126"><ele>203.0</ele><time>2026-04-06T15:42:07Z</time></trkpt><trkpt lat="43.91875248674164" lon="4.492074876137578"><ele>203.0</ele><time>2026-04-06T15:42:08Z</time></trkpt><trkpt lat="43.91868983954868" lon="4.491987378859702"><ele>203.00000000000003</ele><time>2026-04-06T15:42:09Z</time></trkpt><trkpt lat="43.91861727099495" lon="4.491895046270161"><ele>203.0</ele><time>2026-04-06T15:42:10Z</time></trkpt><trkpt lat="43.91854775601262" lon="4.491810935207687"><ele>202.66666666666669</ele><time>2026-04-06T15:42:11Z</time></trkpt><trkpt lat="43.91849829501244" lon="4.491712484336764"><ele>202.33333333333334</ele><time>2026-04-06T15:42:12Z</time></trkpt><trkpt lat="43.91843479414887" lon="4.491657363698993"><ele>202.0</ele><time>2026-04-06T15:42:13Z</time></trkpt><trkpt lat="43.9183634515792" lon="4.491565923675204"><ele>201.66666666666669</ele><time>2026-04-06T15:42:15Z</time></trkpt><trkpt lat="43.918318389156155" lon="4.491499616992738"><ele>201.33333333333334</ele><time>2026-04-06T15:42:19Z</time></trkpt><trkpt lat="43.91824429374563" lon="4.491410085492957"><ele>201.0</ele><time>2026-04-06T15:42:45Z</time></trkpt><trkpt lat="43.91818925712685" lon="4.491323105714568"><ele>200.60000000000002</ele><time>2026-04-06T15:42:47Z</time></trkpt><trkpt lat="43.91813467673227" lon="4.491230408016849"><ele>200.2</ele><time>2026-04-06T15:42:49Z</time></trkpt><trkpt lat="43.91808899354289" lon="4.491138608379805"><ele>199.8</ele><time>2026-04-06T15:42:51Z</time></trkpt><trkpt lat="43.91803843043969" lon="4.491031493076091"><ele>199.39999999999998</ele><time>2026-04-06T15:42:53Z</time></trkpt><trkpt lat="43.91798457576068" lon="4.490917404742627"><ele>199.0</ele><time>2026-04-06T15:42:55Z</time></trkpt><trkpt lat="43.91792876268435" lon="4.490795762823751"><ele>199.0</ele><time>2026-04-06T15:42:57Z</time></trkpt><trkpt lat="43.917877591653436" lon="4.490685067799362"><ele>199.0</ele><time>2026-04-06T15:42:59Z</time></trkpt><trkpt lat="43.91782065430481" lon="4.490539541430672"><ele>199.0</ele><time>2026-04-06T15:43:01Z</time></trkpt><trkpt lat="43.91773497812496" lon="4.490414441483061"><ele>199.0</ele><time>2026-04-06T15:43:03Z</time></trkpt><trkpt lat="43.91766080022055" lon="4.490285529145049"><ele>199.83333333333331</ele><time>2026-04-06T15:43:05Z</time></trkpt><trkpt lat="43.91763538298994" lon="4.490178844608894"><ele>200.66666666666666</ele><time>2026-04-06T15:43:08Z</time></trkpt><trkpt lat="43.917695474546825" lon="4.490256376734898"><ele>201.5</ele><time>2026-04-06T15:43:13Z</time></trkpt><trkpt lat="43.917834908015365" lon="4.4901998473180935"><ele>202.33333333333331</ele><time>2026-04-06T15:43:14Z</time></trkpt><trkpt lat="43.9179030789018" lon="4.4901926579309235"><ele>203.16666666666666</ele><time>2026-04-06T15:43:15Z</time></trkpt><trkpt lat="43.917972602573776" lon="4.490183265838086"><ele>204.0</ele><time>2026-04-06T15:43:16Z</time></trkpt><trkpt lat="43.91804563016007" lon="4.490176652580862"><ele>204.0</ele><time>2026-04-06T15:43:17Z</time></trkpt><trkpt lat="43.918126098737034" lon="4.490166369681952"><ele>204.0</ele><time>2026-04-06T15:43:18Z</time></trkpt><trkpt lat="43.91821299027878" lon="4.490148978567188"><ele>204.0</ele><time>2026-04-06T15:43:19Z</time></trkpt><trkpt lat="43.91830479684323" lon="4.490127644556712"><ele>204.0</ele><time>2026-04-06T15:43:20Z</time></trkpt><trkpt lat="43.91839179549535" lon="4.490100875229537"><ele>204.0</ele><time>2026-04-06T15:43:21Z</time></trkpt><trkpt lat="43.91847340810634" lon="4.490084110480456"><ele>204.0</ele><time>2026-04-06T15:43:22Z</time></trkpt><trkpt lat="43.91854544437265" lon="4.490058628385617"><ele>203.66666666666666</ele><time>2026-04-06T15:43:23Z</time></trkpt><trkpt lat="43.91861675495804" lon="4.490055298262902"><ele>203.33333333333331</ele><time>2026-04-06T15:43:24Z</time></trkpt><trkpt lat="43.918689494443846" lon="4.4900636114845875"><ele>203.0</ele><time>2026-04-06T15:43:25Z</time></trkpt><trkpt lat="43.91875319087494" lon="4.490083019392347"><ele>202.66666666666666</ele><time>2026-04-06T15:43:26Z</time></trkpt><trkpt lat="43.91888905790059" lon="4.490055152787595"><ele>202.33333333333331</ele><time>2026-04-06T15:43:28Z</time></trkpt><trkpt lat="43.91897312711163" lon="4.4900383963223724"><ele>202.0</ele><time>2026-04-06T15:43:29Z</time></trkpt><trkpt lat="43.91906481232378" lon="4.490031024429755"><ele>202.0</ele><time>2026-04-06T15:43:30Z</time></trkpt><trkpt lat="43.91913908177907" lon="4.490022335545959"><ele>202.0</ele><time>2026-04-06T15:43:31Z</time></trkpt><trkpt lat="43.919216927321834" lon="4.490006105726333"><ele>202.0</ele><time>2026-04-06T15:43:32Z</time></trkpt><trkpt lat="43.91929011242589" lon="4.490015666894588"><ele>202.0</ele><time>2026-04-06T15:43:33Z</time></trkpt><trkpt lat="43.91938577285369" lon="4.49008202951549"><ele>202.0</ele><time>2026-04-06T15:43:35Z</time></trkpt><trkpt lat="43.91949460404488" lon="4.490156869539959"><ele>201.66666666666666</ele><time>2026-04-06T15:43:37Z</time></trkpt><trkpt lat="43.919560533981326" lon="4.4901811087832675"><ele>201.33333333333331</ele><time>2026-04-06T15:43:38Z</time></trkpt><trkpt lat="43.91963361580111" lon="4.49018456406449"><ele>201.0</ele><time>2026-04-06T15:43:39Z</time></trkpt><trkpt lat="43.91971981462231" lon="4.4901806872592305"><ele>200.66666666666669</ele><time>2026-04-06T15:43:40Z</time></trkpt><trkpt lat="43.919799386652734" lon="4.4901543353205655"><ele>200.33333333333334</ele><time>2026-04-06T15:43:41Z</time></trkpt><trkpt lat="43.91986251501233" lon="4.490133641480954"><ele>200.0</ele><time>2026-04-06T15:43:42Z</time></trkpt><trkpt lat="43.91997206254036" lon="4.490172608500098"><ele>200.00000000000003</ele><time>2026-04-06T15:43:44Z</time></trkpt><trkpt lat="43.92002854358915" lon="4.490211825830715"><ele>200.0</ele><time>2026-04-06T15:43:45Z</time></trkpt><trkpt lat="43.920094359073026" lon="4.490233190782796"><ele>200.0</ele><time>2026-04-06T15:43:46Z</time></trkpt><trkpt lat="43.920164817962394" lon="4.4902529218307965"><ele>200.0</ele><time>2026-04-06T15:43:47Z</time></trkpt><trkpt lat="43.9202358460328" lon="4.4902823473335065"><ele>200.00000000000003</ele><time>2026-04-06T15:43:48Z</time></trkpt><trkpt lat="43.920342990679444" lon="4.490343847737689"><ele>200.0</ele><time>2026-04-06T15:43:50Z</time></trkpt><trkpt lat="43.92043770319292" lon="4.49038815759685"><ele>200.16666666666669</ele><time>2026-04-06T15:43:52Z</time></trkpt><trkpt lat="43.920510870692425" lon="4.490423929819157"><ele>200.33333333333334</ele><time>2026-04-06T15:43:55Z</time></trkpt><trkpt lat="43.92057941051565" lon="4.490423422937615"><ele>200.5</ele><time>2026-04-06T15:43:57Z</time></trkpt><trkpt lat="43.92068638562936" lon="4.490363816942009"><ele>200.66666666666669</ele><time>2026-04-06T15:43:59Z</time></trkpt><trkpt lat="43.92074550211388" lon="4.4903154426463106"><ele>200.83333333333334</ele><time>2026-04-06T15:44:00Z</time></trkpt><trkpt lat="43.920812473982444" lon="4.490279232832321"><ele>201.0</ele><time>2026-04-06T15:44:01Z</time></trkpt><trkpt lat="43.92088305399785" lon="4.490236233826269"><ele>200.5</ele><time>2026-04-06T15:44:02Z</time></trkpt><trkpt lat="43.920955203676115" lon="4.490190879000777"><ele>200.0</ele><time>2026-04-06T15:44:03Z</time></trkpt><trkpt lat="43.92102592896709" lon="4.490149253012914"><ele>199.5</ele><time>2026-04-06T15:44:04Z</time></trkpt><trkpt lat="43.921111231775" lon="4.490113410737715"><ele>199.0</ele><time>2026-04-06T15:44:05Z</time></trkpt><trkpt lat="43.92120021645208" lon="4.49007899687044"><ele>198.5</ele><time>2026-04-06T15:44:06Z</time></trkpt><trkpt lat="43.92130033998273" lon="4.490065974794173"><ele>198.0</ele><time>2026-04-06T15:44:07Z</time></trkpt><trkpt lat="43.92139428403721" lon="4.490067210369517"><ele>198.0</ele><time>2026-04-06T15:44:08Z</time></trkpt><trkpt lat="43.921498595529776" lon="4.490054191448936"><ele>198.0</ele><time>2026-04-06T15:44:09Z</time></trkpt><trkpt lat="43.92160145659106" lon="4.490025407597959"><ele>198.0</ele><time>2026-04-06T15:44:10Z</time></trkpt><trkpt lat="43.921707864624594" lon="4.490002518122989"><ele>198.0</ele><time>2026-04-06T15:44:11Z</time></trkpt><trkpt lat="43.92181542413302" lon="4.48996568676867"><ele>198.0</ele><time>2026-04-06T15:44:12Z</time></trkpt><trkpt lat="43.921917700270264" lon="4.489917871258541"><ele>197.2</ele><time>2026-04-06T15:44:13Z</time></trkpt><trkpt lat="43.92201436105271" lon="4.489872237376772"><ele>196.4</ele><time>2026-04-06T15:44:14Z</time></trkpt><trkpt lat="43.92211087153647" lon="4.489855965293449"><ele>195.6</ele><time>2026-04-06T15:44:15Z</time></trkpt><trkpt lat="43.922188395311146" lon="4.489806713173873"><ele>194.79999999999998</ele><time>2026-04-06T15:44:16Z</time></trkpt><trkpt lat="43.92227685231109" lon="4.489782447426138"><ele>194.0</ele><time>2026-04-06T15:44:17Z</time></trkpt><trkpt lat="43.92236855688582" lon="4.4897695162701"><ele>194.0</ele><time>2026-04-06T15:44:18Z</time></trkpt><trkpt lat="43.922457082797635" lon="4.489767200447584"><ele>194.0</ele><time>2026-04-06T15:44:19Z</time></trkpt><trkpt lat="43.922527742975454" lon="4.489781966494176"><ele>194.0</ele><time>2026-04-06T15:44:20Z</time></trkpt><trkpt lat="43.92265058985625" lon="4.489808590042773"><ele>194.0</ele><time>2026-04-06T15:44:22Z</time></trkpt><trkpt lat="43.92276821327713" lon="4.489845480298526"><ele>194.0</ele><time>2026-04-06T15:44:24Z</time></trkpt><trkpt lat="43.922829445913585" lon="4.489866971799319"><ele>193.39999999999998</ele><time>2026-04-06T15:44:25Z</time></trkpt><trkpt lat="43.922897207449374" lon="4.489874919746805"><ele>192.8</ele><time>2026-04-06T15:44:26Z</time></trkpt><trkpt lat="43.92302138293712" lon="4.489867824629302"><ele>192.2</ele><time>2026-04-06T15:44:28Z</time></trkpt><trkpt lat="43.92313925436082" lon="4.4898531925258895"><ele>191.60000000000002</ele><time>2026-04-06T15:44:30Z</time></trkpt><trkpt lat="43.92324311325027" lon="4.489857529077142"><ele>191.0</ele><time>2026-04-06T15:44:32Z</time></trkpt><trkpt lat="43.92331741660338" lon="4.489900079102545"><ele>190.5</ele><time>2026-04-06T15:44:34Z</time></trkpt><trkpt lat="43.92339810894545" lon="4.489961932123284"><ele>190.0</ele><time>2026-04-06T15:44:36Z</time></trkpt><trkpt lat="43.92346408669193" lon="4.490000050785053"><ele>189.5</ele><time>2026-04-06T15:44:37Z</time></trkpt><trkpt lat="43.923541042976176" lon="4.490032418506234"><ele>189.0</ele><time>2026-04-06T15:44:38Z</time></trkpt><trkpt lat="43.92362711219493" lon="4.490059636856112"><ele>188.5</ele><time>2026-04-06T15:44:39Z</time></trkpt><trkpt lat="43.92371719213064" lon="4.490073534088705"><ele>188.0</ele><time>2026-04-06T15:44:40Z</time></trkpt><trkpt lat="43.9238124749286" lon="4.490084800878062"><ele>188.0</ele><time>2026-04-06T15:44:41Z</time></trkpt><trkpt lat="43.92391384537977" lon="4.490091052737101"><ele>188.0</ele><time>2026-04-06T15:44:42Z</time></trkpt><trkpt lat="43.92402280988082" lon="4.490068730520521"><ele>188.0</ele><time>2026-04-06T15:44:43Z</time></trkpt><trkpt lat="43.924120491119105" lon="4.490042500989281"><ele>188.0</ele><time>2026-04-06T15:44:44Z</time></trkpt><trkpt lat="43.92419334827336" lon="4.490004153194883"><ele>188.0</ele><time>2026-04-06T15:44:45Z</time></trkpt><trkpt lat="43.92428732011864" lon="4.489889344181559"><ele>188.16666666666666</ele><time>2026-04-06T15:44:47Z</time></trkpt><trkpt lat="43.924348783517914" lon="4.489831978291121"><ele>188.33333333333331</ele><time>2026-04-06T15:44:48Z</time></trkpt><trkpt lat="43.92442843275582" lon="4.489782680362681"><ele>188.5</ele><time>2026-04-06T15:44:49Z</time></trkpt><trkpt lat="43.92450299650698" lon="4.489721746147984"><ele>188.66666666666666</ele><time>2026-04-06T15:44:50Z</time></trkpt><trkpt lat="43.924564926753256" lon="4.489663093297818"><ele>188.83333333333334</ele><time>2026-04-06T15:44:51Z</time></trkpt><trkpt lat="43.924622171156216" lon="4.489571034684329"><ele>189.0</ele><time>2026-04-06T15:44:53Z</time></trkpt><trkpt lat="43.92464362649657" lon="4.489438666924691"><ele>189.0</ele><time>2026-04-06T15:44:55Z</time></trkpt><trkpt lat="43.92464607213775" lon="4.489349431266589"><ele>189.0</ele><time>2026-04-06T15:44:56.001Z</time></trkpt><trkpt lat="43.92469218097753" lon="4.489224166909736"><ele>189.0</ele><time>2026-04-06T15:44:58Z</time></trkpt><trkpt lat="43.92481818998967" lon="4.489232008146554"><ele>189.0</ele><time>2026-04-06T15:45:00Z</time></trkpt><trkpt lat="43.92489247340989" lon="4.489229672367667"><ele>189.0</ele><time>2026-04-06T15:45:01Z</time></trkpt><trkpt lat="43.924976175344284" lon="4.489223489656346"><ele>188.5</ele><time>2026-04-06T15:45:02Z</time></trkpt><trkpt lat="43.92506734855735" lon="4.489207487400343"><ele>188.0</ele><time>2026-04-06T15:45:03Z</time></trkpt><trkpt lat="43.92516053378713" lon="4.48921054048734"><ele>187.5</ele><time>2026-04-06T15:45:04Z</time></trkpt><trkpt lat="43.92524722025579" lon="4.489196798281569"><ele>187.0</ele><time>2026-04-06T15:45:05Z</time></trkpt><trkpt lat="43.92532316805188" lon="4.489186168634753"><ele>186.5</ele><time>2026-04-06T15:45:06Z</time></trkpt><trkpt lat="43.925411362178174" lon="4.489177852975802"><ele>186.0</ele><time>2026-04-06T15:45:08Z</time></trkpt><trkpt lat="43.92546794427688" lon="4.489072434790267"><ele>186.0</ele><time>2026-04-06T15:45:11Z</time></trkpt><trkpt lat="43.92550290847955" lon="4.48899517433439"><ele>186.0</ele><time>2026-04-06T15:45:13Z</time></trkpt><trkpt lat="43.925602481510424" lon="4.488958488901138"><ele>186.0</ele><time>2026-04-06T15:45:15Z</time></trkpt><trkpt lat="43.92566111502165" lon="4.489003612497547"><ele>186.0</ele><time>2026-04-06T15:45:16Z</time></trkpt><trkpt lat="43.925729488416266" lon="4.48902068982225"><ele>186.0</ele><time>2026-04-06T15:45:17Z</time></trkpt><trkpt lat="43.92580478786247" lon="4.489027126740129"><ele>186.0</ele><time>2026-04-06T15:45:18Z</time></trkpt><trkpt lat="43.925873248699794" lon="4.4890375180120925"><ele>185.71428571428572</ele><time>2026-04-06T15:45:19Z</time></trkpt><trkpt lat="43.92593966014379" lon="4.489030813951173"><ele>185.42857142857144</ele><time>2026-04-06T15:45:20Z</time></trkpt><trkpt lat="43.926011970542284" lon="4.489033177070951"><ele>185.14285714285717</ele><time>2026-04-06T15:45:23Z</time></trkpt><trkpt lat="43.92605720913817" lon="4.489132943678809"><ele>184.85714285714286</ele><time>2026-04-06T15:45:26Z</time></trkpt><trkpt lat="43.926131037559344" lon="4.4891537639342385"><ele>184.57142857142856</ele><time>2026-04-06T15:45:28Z</time></trkpt><trkpt lat="43.926176646281576" lon="4.489229851474144"><ele>184.2857142857143</ele><time>2026-04-06T15:45:31Z</time></trkpt><trkpt lat="43.926153704324086" lon="4.489312603410975"><ele>184.0</ele><time>2026-04-06T15:45:33Z</time></trkpt><trkpt lat="43.92620988867784" lon="4.489368541767764"><ele>184.0</ele><time>2026-04-06T15:45:35Z</time></trkpt><trkpt lat="43.926327973249656" lon="4.489362300505229"><ele>184.0</ele><time>2026-04-06T15:45:37Z</time></trkpt><trkpt lat="43.92638661537409" lon="4.489477529797933"><ele>184.0</ele><time>2026-04-06T15:45:39Z</time></trkpt><trkpt lat="43.92641512766436" lon="4.489572035594943"><ele>184.0</ele><time>2026-04-06T15:45:41Z</time></trkpt><trkpt lat="43.92647668377428" lon="4.48964257336587"><ele>184.0</ele><time>2026-04-06T15:45:43Z</time></trkpt><trkpt lat="43.926459807719716" lon="4.489774143258363"><ele>183.33333333333334</ele><time>2026-04-06T15:45:45Z</time></trkpt><trkpt lat="43.926511251562665" lon="4.48990359074871"><ele>182.66666666666669</ele><time>2026-04-06T15:45:48Z</time></trkpt><trkpt lat="43.926487715152916" lon="4.49004213216928"><ele>182.0</ele><time>2026-04-06T15:45:50Z</time></trkpt><trkpt lat="43.92645883403208" lon="4.4901482515197495"><ele>181.33333333333334</ele><time>2026-04-06T15:45:52Z</time></trkpt><trkpt lat="43.92651022384615" lon="4.490224632930997"><ele>180.66666666666666</ele><time>2026-04-06T15:45:54Z</time></trkpt><trkpt lat="43.92657017661067" lon="4.490253313983037"><ele>180.0</ele><time>2026-04-06T15:45:55Z</time></trkpt><trkpt lat="43.926649344023595" lon="4.490260223363863"><ele>180.0</ele><time>2026-04-06T15:45:56Z</time></trkpt><trkpt lat="43.926725892298606" lon="4.490260937290097"><ele>180.0</ele><time>2026-04-06T15:45:57Z</time></trkpt><trkpt lat="43.92679932602614" lon="4.490281680691982"><ele>180.0</ele><time>2026-04-06T15:45:58Z</time></trkpt><trkpt lat="43.9268709277886" lon="4.490292663138387"><ele>180.0</ele><time>2026-04-06T15:45:59Z</time></trkpt><trkpt lat="43.92694190731153" lon="4.490319005850459"><ele>180.0</ele><time>2026-04-06T15:46:00Z</time></trkpt><trkpt lat="43.92701140458124" lon="4.490338113904643"><ele>180.0</ele><time>2026-04-06T15:46:01Z</time></trkpt><trkpt lat="43.92707400639022" lon="4.490362040188771"><ele>180.0</ele><time>2026-04-06T15:46:02Z</time></trkpt><trkpt lat="43.92713178136641" lon="4.490405946957452"><ele>180.0</ele><time>2026-04-06T15:46:03Z</time></trkpt><trkpt lat="43.927181528690646" lon="4.490470127463244"><ele>180.0</ele><time>2026-04-06T15:46:04Z</time></trkpt><trkpt lat="43.92720972444601" lon="4.4905855396034875"><ele>180.0</ele><time>2026-04-06T15:46:06Z</time></trkpt><trkpt lat="43.927264815129135" lon="4.490700891571034"><ele>180.0</ele><time>2026-04-06T15:46:09Z</time></trkpt><trkpt lat="43.92735628310629" lon="4.490794612420993"><ele>180.0</ele><time>2026-04-06T15:46:11Z</time></trkpt><trkpt lat="43.92743179766728" lon="4.4908429920881945"><ele>180.0</ele><time>2026-04-06T15:46:12Z</time></trkpt><trkpt lat="43.92750023189241" lon="4.490899798382172"><ele>180.0</ele><time>2026-04-06T15:46:13Z</time></trkpt><trkpt lat="43.92758407245153" lon="4.490934887190483"><ele>180.0</ele><time>2026-04-06T15:46:14Z</time></trkpt><trkpt lat="43.92766058257907" lon="4.491018425387028"><ele>180.0</ele><time>2026-04-06T15:46:16Z</time></trkpt><trkpt lat="43.927657392497906" lon="4.49114618088965"><ele>180.0</ele><time>2026-04-06T15:46:18Z</time></trkpt><trkpt lat="43.927650725596784" lon="4.4912381355534325"><ele>180.0</ele><time>2026-04-06T15:46:20Z</time></trkpt><trkpt lat="43.92767605446117" lon="4.4913226252719225"><ele>179.8</ele><time>2026-04-06T15:46:22Z</time></trkpt><trkpt lat="43.927717864915635" lon="4.491473130093415"><ele>179.6</ele><time>2026-04-06T15:46:24Z</time></trkpt><trkpt lat="43.92773623988177" lon="4.491568368811593"><ele>179.39999999999998</ele><time>2026-04-06T15:46:25Z</time></trkpt><trkpt lat="43.92776430288075" lon="4.491699181217782"><ele>179.2</ele><time>2026-04-06T15:46:27Z</time></trkpt><trkpt lat="43.927795725404984" lon="4.4917786112044435"><ele>179.0</ele><time>2026-04-06T15:46:29Z</time></trkpt><trkpt lat="43.92783487474504" lon="4.491918588603377"><ele>179.0</ele><time>2026-04-06T15:46:32Z</time></trkpt><trkpt lat="43.92790062690997" lon="4.491928503249613"><ele>179.0</ele><time>2026-04-06T15:46:54.999Z</time></trkpt><trkpt lat="43.92790801761434" lon="4.491831026697882"><ele>179.0</ele><time>2026-04-06T15:47:02Z</time></trkpt><trkpt lat="43.92794710735493" lon="4.491737677375466"><ele>179.0</ele><time>2026-04-06T15:47:11Z</time></trkpt><trkpt lat="43.927972017736906" lon="4.491645388146039"><ele>179.0</ele><time>2026-04-06T15:47:15Z</time></trkpt><trkpt lat="43.92801092810831" lon="4.491551964076667"><ele>179.0</ele><time>2026-04-06T15:47:18Z</time></trkpt><trkpt lat="43.928036754730584" lon="4.491435172500093"><ele>179.00000000000003</ele><time>2026-04-06T15:47:39Z</time></trkpt><trkpt lat="43.92805442975708" lon="4.491349223060683"><ele>179.0</ele><time>2026-04-06T15:48:02Z</time></trkpt><trkpt lat="43.92804853870379" lon="4.491259066860764"><ele>179.0</ele><time>2026-04-06T15:48:05Z</time></trkpt><trkpt lat="43.928093578190904" lon="4.491157025454416"><ele>179.0</ele><time>2026-04-06T15:48:08Z</time></trkpt><trkpt lat="43.92813958841913" lon="4.491092417680901"><ele>179.0</ele><time>2026-04-06T15:48:11Z</time></trkpt><trkpt lat="43.92814313731382" lon="4.491000188075833"><ele>179.00000000000003</ele><time>2026-04-06T15:48:13Z</time></trkpt><trkpt lat="43.92821020843264" lon="4.4909189422407465"><ele>179.0</ele><time>2026-04-06T15:48:16Z</time></trkpt><trkpt lat="43.92829399488034" lon="4.490812675004444"><ele>179.00000000000003</ele><time>2026-04-06T15:48:19Z</time></trkpt><trkpt lat="43.92834583187551" lon="4.490726036490864"><ele>179.0</ele><time>2026-04-06T15:48:21Z</time></trkpt><trkpt lat="43.92840761001007" lon="4.490697204502949"><ele>179.0</ele><time>2026-04-06T15:48:26Z</time></trkpt><trkpt lat="43.928470256214794" lon="4.490649691825644"><ele>179.0</ele><time>2026-04-06T15:48:30Z</time></trkpt><trkpt lat="43.928543529145195" lon="4.490664056190616"><ele>179.0</ele><time>2026-04-06T15:48:32.999Z</time></trkpt><trkpt lat="43.92860617908241" lon="4.490649593167525"><ele>179.00000000000003</ele><time>2026-04-06T15:48:35.999Z</time></trkpt><trkpt lat="43.92867534034863" lon="4.490645450616806"><ele>179.0</ele><time>2026-04-06T15:48:37.999Z</time></trkpt><trkpt lat="43.92874916079867" lon="4.490586083960514"><ele>179.5</ele><time>2026-04-06T15:48:40.999Z</time></trkpt><trkpt lat="43.92877819681045" lon="4.490503404197269"><ele>180.0</ele><time>2026-04-06T15:48:42.999Z</time></trkpt><trkpt lat="43.92879784911003" lon="4.490419062963639"><ele>180.5</ele><time>2026-04-06T15:48:44.999Z</time></trkpt><trkpt lat="43.92878117144127" lon="4.49027730896599"><ele>181.0</ele><time>2026-04-06T15:48:47.999Z</time></trkpt><trkpt lat="43.92878186592231" lon="4.4901306478945635"><ele>181.5</ele><time>2026-04-06T15:48:49.999Z</time></trkpt><trkpt lat="43.92880771470079" lon="4.489989214288334"><ele>182.0</ele><time>2026-04-06T15:48:51.999Z</time></trkpt><trkpt lat="43.92883471376407" lon="4.489883063199383"><ele>182.83333333333331</ele><time>2026-04-06T15:48:53.999Z</time></trkpt><trkpt lat="43.92884833597812" lon="4.48977715551059"><ele>183.66666666666666</ele><time>2026-04-06T15:49:17Z</time></trkpt><trkpt lat="43.928896504274746" lon="4.489701912205928"><ele>184.5</ele><time>2026-04-06T15:49:22Z</time></trkpt><trkpt lat="43.92899076051559" lon="4.4897294141555495"><ele>185.33333333333334</ele><time>2026-04-06T15:49:25Z</time></trkpt><trkpt lat="43.92907078766037" lon="4.489752181092196"><ele>186.16666666666669</ele><time>2026-04-06T15:49:27Z</time></trkpt><trkpt lat="43.92917979859012" lon="4.489787983383952"><ele>187.0</ele><time>2026-04-06T15:49:29Z</time></trkpt><trkpt lat="43.9292431984797" lon="4.489810154746093"><ele>187.33333333333334</ele><time>2026-04-06T15:49:30Z</time></trkpt><trkpt lat="43.92930983017398" lon="4.48984185674677"><ele>187.66666666666669</ele><time>2026-04-06T15:49:31Z</time></trkpt><trkpt lat="43.92937848621569" lon="4.489872354383349"><ele>188.0</ele><time>2026-04-06T15:49:32Z</time></trkpt><trkpt lat="43.92945121201307" lon="4.489899848252397"><ele>188.33333333333334</ele><time>2026-04-06T15:49:33Z</time></trkpt><trkpt lat="43.929527326067905" lon="4.489925797174369"><ele>188.66666666666666</ele><time>2026-04-06T15:49:34Z</time></trkpt><trkpt lat="43.92959778430892" lon="4.489948164609683"><ele>189.0</ele><time>2026-04-06T15:49:35Z</time></trkpt><trkpt lat="43.92968257528614" lon="4.489961187141494"><ele>189.0</ele><time>2026-04-06T15:49:37Z</time></trkpt><trkpt lat="43.929760653208675" lon="4.489966363728115"><ele>189.0</ele><time>2026-04-06T15:49:39Z</time></trkpt><trkpt lat="43.929877474717415" lon="4.490001462175195"><ele>189.0</ele><time>2026-04-06T15:49:41Z</time></trkpt><trkpt lat="43.92994188964238" lon="4.4900121606218235"><ele>189.0</ele><time>2026-04-06T15:49:42Z</time></trkpt><trkpt lat="43.93001201858606" lon="4.490012235065705"><ele>189.0</ele><time>2026-04-06T15:49:43Z</time></trkpt><trkpt lat="43.93008639891709" lon="4.4900094668871455"><ele>189.0</ele><time>2026-04-06T15:49:44Z</time></trkpt><trkpt lat="43.93016442747673" lon="4.490008919514463"><ele>189.5</ele><time>2026-04-06T15:49:45Z</time></trkpt><trkpt lat="43.93023583317358" lon="4.490014776556823"><ele>190.0</ele><time>2026-04-06T15:49:46Z</time></trkpt><trkpt lat="43.930335199513486" lon="4.490046116473016"><ele>190.5</ele><time>2026-04-06T15:49:48Z</time></trkpt><trkpt lat="43.93040499450185" lon="4.490057486289075"><ele>191.0</ele><time>2026-04-06T15:49:50Z</time></trkpt><trkpt lat="43.93050161838481" lon="4.490086920155305"><ele>191.5</ele><time>2026-04-06T15:49:53Z</time></trkpt><trkpt lat="43.93058133981713" lon="4.490130037656434"><ele>192.0</ele><time>2026-04-06T15:49:56Z</time></trkpt><trkpt lat="43.93065478715123" lon="4.490121900432055"><ele>192.0</ele><time>2026-04-06T15:49:59Z</time></trkpt><trkpt lat="43.93069849846173" lon="4.490032213458889"><ele>192.0</ele><time>2026-04-06T15:50:03Z</time></trkpt><trkpt lat="43.93069888519448" lon="4.489915638663123"><ele>192.0</ele><time>2026-04-06T15:50:06Z</time></trkpt><trkpt lat="43.930703496535386" lon="4.489824467660894"><ele>192.0</ele><time>2026-04-06T15:50:08Z</time></trkpt><trkpt lat="43.93071415386821" lon="4.489709300897154"><ele>192.0</ele><time>2026-04-06T15:50:10Z</time></trkpt><trkpt lat="43.930704558743095" lon="4.489614675985027"><ele>192.0</ele><time>2026-04-06T15:50:12Z</time></trkpt><trkpt lat="43.93064621027916" lon="4.4895563411178845"><ele>193.0</ele><time>2026-04-06T15:50:14Z</time></trkpt><trkpt lat="43.930541205987595" lon="4.489546158864312"><ele>194.0</ele><time>2026-04-06T15:50:15.999Z</time></trkpt><trkpt lat="43.93041794978795" lon="4.48953596538409"><ele>195.0</ele><time>2026-04-06T15:50:17.999Z</time></trkpt><trkpt lat="43.930312833136206" lon="4.489511382373249"><ele>196.0</ele><time>2026-04-06T15:50:19.999Z</time></trkpt><trkpt lat="43.93021251258741" lon="4.489482282131508"><ele>197.0</ele><time>2026-04-06T15:50:21.999Z</time></trkpt><trkpt lat="43.93010040708997" lon="4.489474841719485"><ele>196.66666666666669</ele><time>2026-04-06T15:50:23.999Z</time></trkpt><trkpt lat="43.93003622803527" lon="4.489460555175383"><ele>196.33333333333334</ele><time>2026-04-06T15:50:24.999Z</time></trkpt><trkpt lat="43.92991493440213" lon="4.489449259744708"><ele>196.0</ele><time>2026-04-06T15:50:26.999Z</time></trkpt><trkpt lat="43.92981761115524" lon="4.489444380938666"><ele>195.66666666666669</ele><time>2026-04-06T15:50:28.999Z</time></trkpt><trkpt lat="43.929749055277036" lon="4.489499802466238"><ele>195.33333333333334</ele><time>2026-04-06T15:50:30.999Z</time></trkpt><trkpt lat="43.92969354300245" lon="4.489590550478397"><ele>195.0</ele><time>2026-04-06T15:50:32.999Z</time></trkpt><trkpt lat="43.92967195771085" lon="4.489687852700332"><ele>194.0</ele><time>2026-04-06T15:50:34.999Z</time></trkpt><trkpt lat="43.92966662150534" lon="4.489804679479099"><ele>193.0</ele><time>2026-04-06T15:50:36.999Z</time></trkpt><trkpt lat="43.92963579211318" lon="4.4898854203010865"><ele>192.0</ele><time>2026-04-06T15:50:38.999Z</time></trkpt><trkpt lat="43.92957557760393" lon="4.489938893518554"><ele>191.0</ele><time>2026-04-06T15:50:43.999Z</time></trkpt><trkpt lat="43.9294645513785" lon="4.489901541910946"><ele>190.0</ele><time>2026-04-06T15:50:45.999Z</time></trkpt><trkpt lat="43.92940188528327" lon="4.489878773655952"><ele>189.0</ele><time>2026-04-06T15:50:46.999Z</time></trkpt><trkpt lat="43.92933383913511" lon="4.489850905444419"><ele>189.0</ele><time>2026-04-06T15:50:47.999Z</time></trkpt><trkpt lat="43.92925989708917" lon="4.489820777474959"><ele>189.0</ele><time>2026-04-06T15:50:48.999Z</time></trkpt><trkpt lat="43.929189082241145" lon="4.489787639201698"><ele>189.0</ele><time>2026-04-06T15:50:49.999Z</time></trkpt><trkpt lat="43.9291283652816" lon="4.489763272997752"><ele>189.0</ele><time>2026-04-06T15:50:50.999Z</time></trkpt><trkpt lat="43.9290629115743" lon="4.489748978800671"><ele>189.0</ele><time>2026-04-06T15:50:51.999Z</time></trkpt><trkpt lat="43.928995122979906" lon="4.4897337689138315"><ele>189.0</ele><time>2026-04-06T15:50:52.999Z</time></trkpt><trkpt lat="43.92892579763937" lon="4.489721890458366"><ele>189.0</ele><time>2026-04-06T15:50:53.999Z</time></trkpt><trkpt lat="43.92885834712992" lon="4.489709210728832"><ele>188.66666666666666</ele><time>2026-04-06T15:50:54.999Z</time></trkpt><trkpt lat="43.92882018329334" lon="4.489604587633223"><ele>188.33333333333334</ele><time>2026-04-06T15:50:57.999Z</time></trkpt><trkpt lat="43.92879180360664" lon="4.489498060166316"><ele>188.0</ele><time>2026-04-06T15:50:59.999Z</time></trkpt><trkpt lat="43.92873942279035" lon="4.48938260391418"><ele>187.66666666666669</ele><time>2026-04-06T15:51:01.999Z</time></trkpt><trkpt lat="43.92865049627271" lon="4.489282978446888"><ele>187.33333333333334</ele><time>2026-04-06T15:51:03.999Z</time></trkpt><trkpt lat="43.92859499177482" lon="4.489231368406537"><ele>187.0</ele><time>2026-04-06T15:51:04.999Z</time></trkpt><trkpt lat="43.92853913739138" lon="4.489168060045458"><ele>188.39999999999998</ele><time>2026-04-06T15:51:05.999Z</time></trkpt><trkpt lat="43.92848703342089" lon="4.489093556949123"><ele>189.79999999999998</ele><time>2026-04-06T15:51:06.999Z</time></trkpt><trkpt lat="43.928447777955846" lon="4.489012285345433"><ele>191.2</ele><time>2026-04-06T15:51:07.999Z</time></trkpt><trkpt lat="43.92839937653947" lon="4.488877144455859"><ele>192.6</ele><time>2026-04-06T15:51:09.999Z</time></trkpt><trkpt lat="43.92835214234057" lon="4.4887168160065665"><ele>194.0</ele><time>2026-04-06T15:51:12Z</time></trkpt><trkpt lat="43.928306289939414" lon="4.488625616725582"><ele>194.00000000000003</ele><time>2026-04-06T15:51:14Z</time></trkpt><trkpt lat="43.92828086709804" lon="4.488529695214099"><ele>194.0</ele><time>2026-04-06T15:51:16Z</time></trkpt><trkpt lat="43.928342207246644" lon="4.48850993327743"><ele>194.0</ele><time>2026-04-06T15:51:20Z</time></trkpt><trkpt lat="43.92841552816927" lon="4.488508571497792"><ele>194.0</ele><time>2026-04-06T15:51:47Z</time></trkpt><trkpt lat="43.92850508419866" lon="4.488521000777283"><ele>194.00000000000003</ele><time>2026-04-06T15:51:49Z</time></trkpt><trkpt lat="43.92857742735902" lon="4.48851803435251"><ele>194.0</ele><time>2026-04-06T15:51:57Z</time></trkpt><trkpt lat="43.928696236535856" lon="4.488529161035091"><ele>194.33333333333334</ele><time>2026-04-06T15:51:59Z</time></trkpt><trkpt lat="43.928778156160675" lon="4.488543886383605"><ele>194.66666666666669</ele><time>2026-04-06T15:52:00Z</time></trkpt><trkpt lat="43.92886222524104" lon="4.48856322051313"><ele>195.0</ele><time>2026-04-06T15:52:01Z</time></trkpt><trkpt lat="43.928948690808085" lon="4.488589924588548"><ele>195.33333333333331</ele><time>2026-04-06T15:52:02Z</time></trkpt><trkpt lat="43.92902096019926" lon="4.488617563887644"><ele>195.66666666666666</ele><time>2026-04-06T15:52:03Z</time></trkpt><trkpt lat="43.92908840445178" lon="4.488641248368153"><ele>196.0</ele><time>2026-04-06T15:52:04Z</time></trkpt><trkpt lat="43.92916969243341" lon="4.488640199965783"><ele>196.16666666666666</ele><time>2026-04-06T15:52:06Z</time></trkpt><trkpt lat="43.9292504598826" lon="4.4886086684296576"><ele>196.33333333333331</ele><time>2026-04-06T15:52:09Z</time></trkpt><trkpt lat="43.92929467417795" lon="4.488539800623801"><ele>196.5</ele><time>2026-04-06T15:52:11Z</time></trkpt><trkpt lat="43.929386761575266" lon="4.488481964890567"><ele>196.66666666666669</ele><time>2026-04-06T15:52:13Z</time></trkpt><trkpt lat="43.92948286981526" lon="4.488424343299066"><ele>196.83333333333334</ele><time>2026-04-06T15:52:15Z</time></trkpt><trkpt lat="43.92954940347191" lon="4.488379324461951"><ele>197.0</ele><time>2026-04-06T15:52:16Z</time></trkpt><trkpt lat="43.92960563976531" lon="4.488338914757571"><ele>197.0</ele><time>2026-04-06T15:52:17Z</time></trkpt><trkpt lat="43.929711185513824" lon="4.488275547870573"><ele>197.0</ele><time>2026-04-06T15:52:19Z</time></trkpt><trkpt lat="43.92979715071524" lon="4.488204694267635"><ele>197.0</ele><time>2026-04-06T15:52:21Z</time></trkpt><trkpt lat="43.929903511510815" lon="4.4881611613738635"><ele>197.0</ele><time>2026-04-06T15:52:23Z</time></trkpt><trkpt lat="43.929998676646406" lon="4.488171701224483"><ele>197.0</ele><time>2026-04-06T15:52:25Z</time></trkpt><trkpt lat="43.93007598131041" lon="4.488192192352914"><ele>196.8</ele><time>2026-04-06T15:52:26.999Z</time></trkpt><trkpt lat="43.93014846542435" lon="4.488172247246906"><ele>196.6</ele><time>2026-04-06T15:52:27.999Z</time></trkpt><trkpt lat="43.93027671040036" lon="4.488233137325121"><ele>196.4</ele><time>2026-04-06T15:52:29.999Z</time></trkpt><trkpt lat="43.930343999222785" lon="4.48828549035749"><ele>196.20000000000002</ele><time>2026-04-06T15:52:30.999Z</time></trkpt><trkpt lat="43.930400348136146" lon="4.488345227143092"><ele>196.0</ele><time>2026-04-06T15:52:31.999Z</time></trkpt><trkpt lat="43.93048580499343" lon="4.488422409956918"><ele>196.0</ele><time>2026-04-06T15:52:33.999Z</time></trkpt><trkpt lat="43.93059899859294" lon="4.48848935224752"><ele>196.0</ele><time>2026-04-06T15:52:35.999Z</time></trkpt><trkpt lat="43.93071148768721" lon="4.488544672314252"><ele>196.0</ele><time>2026-04-06T15:52:37.999Z</time></trkpt><trkpt lat="43.9308239849321" lon="4.4885893951901785"><ele>196.0</ele><time>2026-04-06T15:52:39.999Z</time></trkpt><trkpt lat="43.930938012268726" lon="4.488569992578852"><ele>196.20000000000002</ele><time>2026-04-06T15:52:41.999Z</time></trkpt><trkpt lat="43.9310068834542" lon="4.488592791775961"><ele>196.4</ele><time>2026-04-06T15:52:42.999Z</time></trkpt><trkpt lat="43.93106486872796" lon="4.488657024292065"><ele>196.6</ele><time>2026-04-06T15:52:43.999Z</time></trkpt><trkpt lat="43.93110234339145" lon="4.488734611446513"><ele>196.8</ele><time>2026-04-06T15:52:44.999Z</time></trkpt><trkpt lat="43.93117894766092" lon="4.488874827079828"><ele>197.0</ele><time>2026-04-06T15:52:46.999Z</time></trkpt><trkpt lat="43.93130510791331" lon="4.4889280131956495"><ele>197.00000000000003</ele><time>2026-04-06T15:52:48.999Z</time></trkpt><trkpt lat="43.93137544962179" lon="4.488962924987007"><ele>197.0</ele><time>2026-04-06T15:52:49.999Z</time></trkpt><trkpt lat="43.93144823838444" lon="4.489000104272307"><ele>197.0</ele><time>2026-04-06T15:52:50.999Z</time></trkpt><trkpt lat="43.931508549632" lon="4.489035195267263"><ele>197.0</ele><time>2026-04-06T15:52:51.999Z</time></trkpt><trkpt lat="43.931599088046376" lon="4.489103748807049"><ele>197.00000000000003</ele><time>2026-04-06T15:52:53.999Z</time></trkpt><trkpt lat="43.93166469567898" lon="4.489192616096507"><ele>197.0</ele><time>2026-04-06T15:52:55.999Z</time></trkpt><trkpt lat="43.93170922615027" lon="4.489270047089955"><ele>196.83333333333334</ele><time>2026-04-06T15:52:56.999Z</time></trkpt><trkpt lat="43.93175853003081" lon="4.489349407634708"><ele>196.66666666666669</ele><time>2026-04-06T15:52:57.999Z</time></trkpt><trkpt lat="43.93181533866251" lon="4.4894207561437405"><ele>196.5</ele><time>2026-04-06T15:52:58.999Z</time></trkpt><trkpt lat="43.931921483719485" lon="4.489512417299162"><ele>196.33333333333331</ele><time>2026-04-06T15:53:00.999Z</time></trkpt><trkpt lat="43.93198665009137" lon="4.489557171670941"><ele>196.16666666666666</ele><time>2026-04-06T15:53:01.999Z</time></trkpt><trkpt lat="43.93205446306672" lon="4.489606433370549"><ele>196.0</ele><time>2026-04-06T15:53:02.999Z</time></trkpt><trkpt lat="43.93212177307569" lon="4.489658268795351"><ele>195.49999999999997</ele><time>2026-04-06T15:53:03.999Z</time></trkpt><trkpt lat="43.93219429156179" lon="4.489709256161748"><ele>195.0</ele><time>2026-04-06T15:53:04.999Z</time></trkpt><trkpt lat="43.932294265690466" lon="4.489754090188887"><ele>194.5</ele><time>2026-04-06T15:53:05.999Z</time></trkpt><trkpt lat="43.93234764090701" lon="4.4898241023854455"><ele>194.0</ele><time>2026-04-06T15:53:06.999Z</time></trkpt><trkpt lat="43.93243690721789" lon="4.489869045651613"><ele>193.49999999999997</ele><time>2026-04-06T15:53:08.999Z</time></trkpt><trkpt lat="43.932498784589946" lon="4.4898960946658555"><ele>193.0</ele><time>2026-04-06T15:53:09.999Z</time></trkpt><trkpt lat="43.93262607024211" lon="4.489921446002038"><ele>192.2</ele><time>2026-04-06T15:53:11.999Z</time></trkpt><trkpt lat="43.932735604117" lon="4.489955711726607"><ele>191.4</ele><time>2026-04-06T15:53:13.999Z</time></trkpt><trkpt lat="43.93279906588625" lon="4.489983670352332"><ele>190.6</ele><time>2026-04-06T15:53:14.999Z</time></trkpt><trkpt lat="43.93289851640706" lon="4.490060523446793"><ele>189.79999999999998</ele><time>2026-04-06T15:53:17Z</time></trkpt><trkpt lat="43.932993486506454" lon="4.4901941130934295"><ele>189.0</ele><time>2026-04-06T15:53:19Z</time></trkpt><trkpt lat="43.93308009175839" lon="4.490320064564748"><ele>189.0</ele><time>2026-04-06T15:53:21Z</time></trkpt><trkpt lat="43.93316964848679" lon="4.490405720956877"><ele>189.0</ele><time>2026-04-06T15:53:23Z</time></trkpt><trkpt lat="43.93327470469194" lon="4.490515944319196"><ele>189.0</ele><time>2026-04-06T15:53:25Z</time></trkpt><trkpt lat="43.9333456104649" lon="4.490575928021803"><ele>189.0</ele><time>2026-04-06T15:53:26Z</time></trkpt><trkpt lat="43.93340857136141" lon="4.490638419513892"><ele>189.0</ele><time>2026-04-06T15:53:27Z</time></trkpt><trkpt lat="43.93346605925959" lon="4.490678735232012"><ele>188.66666666666666</ele><time>2026-04-06T15:53:28Z</time></trkpt><trkpt lat="43.93355344733223" lon="4.490747927686524"><ele>188.33333333333334</ele><time>2026-04-06T15:53:30Z</time></trkpt><trkpt lat="43.93362738548508" lon="4.490835603659493"><ele>188.0</ele><time>2026-04-06T15:53:32Z</time></trkpt><trkpt lat="43.933719531204886" lon="4.4908611600657835"><ele>187.66666666666669</ele><time>2026-04-06T15:53:34Z</time></trkpt><trkpt lat="43.933802706650106" lon="4.490869391011352"><ele>187.33333333333334</ele><time>2026-04-06T15:53:36Z</time></trkpt><trkpt lat="43.93387081204573" lon="4.490898409793554"><ele>187.0</ele><time>2026-04-06T15:53:38Z</time></trkpt><trkpt lat="43.933942108584404" lon="4.490933302454653"><ele>187.0</ele><time>2026-04-06T15:53:42Z</time></trkpt><trkpt lat="43.93400834804953" lon="4.490975257697708"><ele>187.0</ele><time>2026-04-06T15:53:44Z</time></trkpt><trkpt lat="43.93409244675119" lon="4.490946692390478"><ele>187.0</ele><time>2026-04-06T15:53:46Z</time></trkpt><trkpt lat="43.93419772199985" lon="4.490933290161628"><ele>187.0</ele><time>2026-04-06T15:53:48Z</time></trkpt><trkpt lat="43.93426916015742" lon="4.4909183600459155"><ele>187.0</ele><time>2026-04-06T15:53:49Z</time></trkpt><trkpt lat="43.934341587275796" lon="4.49090423023803"><ele>187.0</ele><time>2026-04-06T15:53:50Z</time></trkpt><trkpt lat="43.93441381400599" lon="4.490906947518893"><ele>187.33333333333334</ele><time>2026-04-06T15:53:51Z</time></trkpt><trkpt lat="43.93447513247346" lon="4.490929853312511"><ele>187.66666666666669</ele><time>2026-04-06T15:53:52Z</time></trkpt><trkpt lat="43.93454402741068" lon="4.490947599475647"><ele>188.0</ele><time>2026-04-06T15:53:53Z</time></trkpt><trkpt lat="43.934619228078894" lon="4.490961144212804"><ele>188.33333333333334</ele><time>2026-04-06T15:53:54Z</time></trkpt><trkpt lat="43.93468924034151" lon="4.490950584421694"><ele>188.66666666666666</ele><time>2026-04-06T15:53:55Z</time></trkpt><trkpt lat="43.93475247794926" lon="4.490912429945636"><ele>189.0</ele><time>2026-04-06T15:53:56Z</time></trkpt><trkpt lat="43.9348471423871" lon="4.490811250065907"><ele>189.0</ele><time>2026-04-06T15:53:58Z</time></trkpt><trkpt lat="43.93492611066632" lon="4.490783441063168"><ele>189.0</ele><time>2026-04-06T15:54:00Z</time></trkpt><trkpt lat="43.93502635228792" lon="4.490751083795784"><ele>189.0</ele><time>2026-04-06T15:54:02Z</time></trkpt><trkpt lat="43.93509842888928" lon="4.490728645688466"><ele>189.0</ele><time>2026-04-06T15:54:03Z</time></trkpt><trkpt lat="43.935177906150756" lon="4.490721024402826"><ele>189.0</ele><time>2026-04-06T15:54:04Z</time></trkpt><trkpt lat="43.9352540025364" lon="4.490716874362721"><ele>189.0</ele><time>2026-04-06T15:54:05Z</time></trkpt><trkpt lat="43.935324144055436" lon="4.490708555044165"><ele>188.6</ele><time>2026-04-06T15:54:06Z</time></trkpt><trkpt lat="43.9353932151596" lon="4.4906878989208865"><ele>188.2</ele><time>2026-04-06T15:54:07Z</time></trkpt><trkpt lat="43.93550988376434" lon="4.490663348957992"><ele>187.79999999999998</ele><time>2026-04-06T15:54:09Z</time></trkpt><trkpt lat="43.93561635251414" lon="4.490655923643828"><ele>187.39999999999998</ele><time>2026-04-06T15:54:11Z</time></trkpt><trkpt lat="43.93572078716596" lon="4.490611482275362"><ele>187.0</ele><time>2026-04-06T15:54:13Z</time></trkpt><trkpt lat="43.935824732901544" lon="4.490556764415082"><ele>186.6</ele><time>2026-04-06T15:54:15Z</time></trkpt><trkpt lat="43.93591965295747" lon="4.490564928862254"><ele>186.2</ele><time>2026-04-06T15:54:17Z</time></trkpt><trkpt lat="43.936046419802494" lon="4.490565053333931"><ele>185.8</ele><time>2026-04-06T15:54:19Z</time></trkpt><trkpt lat="43.9361442597213" lon="4.4905720079509575"><ele>185.4</ele><time>2026-04-06T15:54:21Z</time></trkpt><trkpt lat="43.93624711750529" lon="4.4905695019281415"><ele>185.0</ele><time>2026-04-06T15:54:22.999Z</time></trkpt><trkpt lat="43.93634895167425" lon="4.490531212260813"><ele>185.0</ele><time>2026-04-06T15:54:24.999Z</time></trkpt><trkpt lat="43.93644564749247" lon="4.490448663483813"><ele>185.0</ele><time>2026-04-06T15:54:26.999Z</time></trkpt><trkpt lat="43.936492979156654" lon="4.490384782725243"><ele>185.0</ele><time>2026-04-06T15:54:27.999Z</time></trkpt><trkpt lat="43.93653856294953" lon="4.490303788233117"><ele>185.0</ele><time>2026-04-06T15:54:28.999Z</time></trkpt><trkpt lat="43.93658621852888" lon="4.490221556235813"><ele>185.0</ele><time>2026-04-06T15:54:29.999Z</time></trkpt><trkpt lat="43.936653332167324" lon="4.490136420066826"><ele>185.0</ele><time>2026-04-06T15:54:31.999Z</time></trkpt><trkpt lat="43.93673460495189" lon="4.490102342195821"><ele>183.4</ele><time>2026-04-06T15:54:34.999Z</time></trkpt><trkpt lat="43.93678717230344" lon="4.490208874555674"><ele>181.8</ele><time>2026-04-06T15:54:37.999Z</time></trkpt><trkpt lat="43.93685225810049" lon="4.490368488677905"><ele>180.2</ele><time>2026-04-06T15:54:39.999Z</time></trkpt><trkpt lat="43.9368895103498" lon="4.490473942711566"><ele>178.6</ele><time>2026-04-06T15:54:40.999Z</time></trkpt><trkpt lat="43.936923749112395" lon="4.490588410722508"><ele>177.0</ele><time>2026-04-06T15:54:41.999Z</time></trkpt><trkpt lat="43.93695536555417" lon="4.490701858826534"><ele>177.0</ele><time>2026-04-06T15:54:42.999Z</time></trkpt><trkpt lat="43.93699838005836" lon="4.490838148293746"><ele>177.0</ele><time>2026-04-06T15:54:44.999Z</time></trkpt><trkpt lat="43.93704715977026" lon="4.490940435174255"><ele>177.0</ele><time>2026-04-06T15:54:46.999Z</time></trkpt><trkpt lat="43.93713109580056" lon="4.491009690051227"><ele>177.0</ele><time>2026-04-06T15:54:48.999Z</time></trkpt><trkpt lat="43.93719366525961" lon="4.491030181700935"><ele>177.0</ele><time>2026-04-06T15:54:49.999Z</time></trkpt><trkpt lat="43.9372635467359" lon="4.49103988926392"><ele>177.0</ele><time>2026-04-06T15:54:50.999Z</time></trkpt><trkpt lat="43.93734268854553" lon="4.491059549213609"><ele>177.0</ele><time>2026-04-06T15:54:51.999Z</time></trkpt><trkpt lat="43.93742265136901" lon="4.491100699620278"><ele>177.0</ele><time>2026-04-06T15:54:52.999Z</time></trkpt><trkpt lat="43.93750285008168" lon="4.491139384791464"><ele>177.0</ele><time>2026-04-06T15:54:53.999Z</time></trkpt><trkpt lat="43.937589826543615" lon="4.491173844986987"><ele>177.0</ele><time>2026-04-06T15:54:54.999Z</time></trkpt><trkpt lat="43.93767267682089" lon="4.491209405062531"><ele>177.0</ele><time>2026-04-06T15:54:55.999Z</time></trkpt><trkpt lat="43.937755503744526" lon="4.4912495320140255"><ele>177.0</ele><time>2026-04-06T15:54:56.999Z</time></trkpt><trkpt lat="43.93783538004614" lon="4.491292887696755"><ele>176.66666666666666</ele><time>2026-04-06T15:54:57.999Z</time></trkpt><trkpt lat="43.937920996007044" lon="4.491328955050591"><ele>176.33333333333334</ele><time>2026-04-06T15:54:58.999Z</time></trkpt><trkpt lat="43.937999754608306" lon="4.4913662717310086"><ele>176.0</ele><time>2026-04-06T15:54:59.999Z</time></trkpt><trkpt lat="43.93807439348593" lon="4.491403824830797"><ele>175.66666666666669</ele><time>2026-04-06T15:55:00.999Z</time></trkpt><trkpt lat="43.93815011724009" lon="4.4914481871567205"><ele>175.33333333333334</ele><time>2026-04-06T15:55:01.999Z</time></trkpt><trkpt lat="43.938219999132016" lon="4.491477652773836"><ele>175.0</ele><time>2026-04-06T15:55:02.999Z</time></trkpt><trkpt lat="43.93829825826484" lon="4.491499586624431"><ele>175.0</ele><time>2026-04-06T15:55:03.999Z</time></trkpt><trkpt lat="43.93836851602326" lon="4.49149600443227"><ele>175.0</ele><time>2026-04-06T15:55:04.999Z</time></trkpt><trkpt lat="43.938444223560296" lon="4.491483803330647"><ele>175.0</ele><time>2026-04-06T15:55:05.999Z</time></trkpt><trkpt lat="43.93851647341585" lon="4.491450462065361"><ele>175.0</ele><time>2026-04-06T15:55:06.999Z</time></trkpt><trkpt lat="43.93858127069286" lon="4.491422752621049"><ele>175.0</ele><time>2026-04-06T15:55:07.999Z</time></trkpt><trkpt lat="43.938682058656646" lon="4.49138758779405"><ele>175.0</ele><time>2026-04-06T15:55:09.999Z</time></trkpt><trkpt lat="43.93875535393804" lon="4.491368125243855"><ele>174.8</ele><time>2026-04-06T15:55:11.999Z</time></trkpt><trkpt lat="43.938855590698125" lon="4.491359149758565"><ele>174.6</ele><time>2026-04-06T15:55:19.999Z</time></trkpt><trkpt lat="43.93898255590055" lon="4.491348068380811"><ele>174.39999999999998</ele><time>2026-04-06T15:55:21.999Z</time></trkpt><trkpt lat="43.93905985445794" lon="4.491328228542262"><ele>174.2</ele><time>2026-04-06T15:55:23Z</time></trkpt><trkpt lat="43.93914353349266" lon="4.491323616212723"><ele>174.0</ele><time>2026-04-06T15:55:24Z</time></trkpt><trkpt lat="43.93923499411705" lon="4.491322679237899"><ele>173.2</ele><time>2026-04-06T15:55:25Z</time></trkpt><trkpt lat="43.93933215477839" lon="4.491319802710233"><ele>172.39999999999998</ele><time>2026-04-06T15:55:26Z</time></trkpt><trkpt lat="43.93942983527864" lon="4.491314855120841"><ele>171.6</ele><time>2026-04-06T15:55:27Z</time></trkpt><trkpt lat="43.939524792079084" lon="4.491308430987766"><ele>170.8</ele><time>2026-04-06T15:55:28Z</time></trkpt><trkpt lat="43.939615470631026" lon="4.491297359728335"><ele>170.0</ele><time>2026-04-06T15:55:29Z</time></trkpt><trkpt lat="43.93970602721145" lon="4.491285632266999"><ele>170.0</ele><time>2026-04-06T15:55:30Z</time></trkpt><trkpt lat="43.93978546934483" lon="4.491282007721862"><ele>170.0</ele><time>2026-04-06T15:55:31Z</time></trkpt><trkpt lat="43.93987027924001" lon="4.4912913886571"><ele>170.0</ele><time>2026-04-06T15:55:32Z</time></trkpt><trkpt lat="43.93998757785891" lon="4.491320605687"><ele>170.0</ele><time>2026-04-06T15:55:34Z</time></trkpt><trkpt lat="43.94009255469202" lon="4.491370512252614"><ele>170.0</ele><time>2026-04-06T15:55:36Z</time></trkpt><trkpt lat="43.940182979523584" lon="4.491436714183962"><ele>168.5</ele><time>2026-04-06T15:55:38Z</time></trkpt><trkpt lat="43.94027087663111" lon="4.4914987915150935"><ele>167.0</ele><time>2026-04-06T15:55:40Z</time></trkpt><trkpt lat="43.94033866852228" lon="4.4915212925912735"><ele>165.5</ele><time>2026-04-06T15:55:41Z</time></trkpt><trkpt lat="43.94040931372645" lon="4.49154148787672"><ele>164.0</ele><time>2026-04-06T15:55:42Z</time></trkpt><trkpt lat="43.94047634272156" lon="4.491565180421317"><ele>162.5</ele><time>2026-04-06T15:55:43Z</time></trkpt><trkpt lat="43.94056697185841" lon="4.491630669077341"><ele>161.0</ele><time>2026-04-06T15:55:45Z</time></trkpt><trkpt lat="43.9406424625003" lon="4.491710925028323"><ele>161.0</ele><time>2026-04-06T15:55:47Z</time></trkpt><trkpt lat="43.94069667934695" lon="4.491775745427921"><ele>161.0</ele><time>2026-04-06T15:55:49Z</time></trkpt><trkpt lat="43.94076162697979" lon="4.491836996259104"><ele>161.0</ele><time>2026-04-06T15:55:51Z</time></trkpt><trkpt lat="43.94083489270956" lon="4.491910003020464"><ele>161.0</ele><time>2026-04-06T15:55:53Z</time></trkpt><trkpt lat="43.94088575521064" lon="4.491985981785938"><ele>161.0</ele><time>2026-04-06T15:55:55Z</time></trkpt><trkpt lat="43.94095117009032" lon="4.492086293251609"><ele>161.0</ele><time>2026-04-06T15:55:58Z</time></trkpt><trkpt lat="43.94102469704044" lon="4.49216306907078"><ele>158.8</ele><time>2026-04-06T15:56:01Z</time></trkpt><trkpt lat="43.9410836771256" lon="4.492193774335924"><ele>156.60000000000002</ele><time>2026-04-06T15:56:02Z</time></trkpt><trkpt lat="43.94119757118279" lon="4.492247224279453"><ele>154.4</ele><time>2026-04-06T15:56:04Z</time></trkpt><trkpt lat="43.94128326568635" lon="4.492333613294009"><ele>152.2</ele><time>2026-04-06T15:56:06Z</time></trkpt><trkpt lat="43.94132434757071" lon="4.492448201008356"><ele>150.0</ele><time>2026-04-06T15:56:09Z</time></trkpt><trkpt lat="43.941370112314594" lon="4.492536165541227"><ele>150.0</ele><time>2026-04-06T15:56:12Z</time></trkpt><trkpt lat="43.94142563542595" lon="4.492605889265137"><ele>150.0</ele><time>2026-04-06T15:56:14Z</time></trkpt><trkpt lat="43.94150350511112" lon="4.4926840895588755"><ele>150.0</ele><time>2026-04-06T15:56:17Z</time></trkpt><trkpt lat="43.94157750846132" lon="4.492702977702782"><ele>150.0</ele><time>2026-04-06T15:56:20Z</time></trkpt><trkpt lat="43.94165272886209" lon="4.492770168043725"><ele>150.0</ele><time>2026-04-06T15:56:23Z</time></trkpt><trkpt lat="43.94167632876797" lon="4.4928692942239055"><ele>150.0</ele><time>2026-04-06T15:56:26Z</time></trkpt><trkpt lat="43.941717992678434" lon="4.492964521020632"><ele>147.16666666666666</ele><time>2026-04-06T15:56:30Z</time></trkpt><trkpt lat="43.941727854144204" lon="4.493056367771279"><ele>144.33333333333334</ele><time>2026-04-06T15:56:33Z</time></trkpt><trkpt lat="43.94175069046416" lon="4.493152729893605"><ele>141.5</ele><time>2026-04-06T15:56:35.999Z</time></trkpt><trkpt lat="43.94178824013957" lon="4.493258279778526"><ele>138.66666666666669</ele><time>2026-04-06T15:56:37.999Z</time></trkpt><trkpt lat="43.94183465284428" lon="4.493353290136931"><ele>135.83333333333334</ele><time>2026-04-06T15:56:40.999Z</time></trkpt><trkpt lat="43.941881570444174" lon="4.493444217089386"><ele>133.0</ele><time>2026-04-06T15:56:43.999Z</time></trkpt><trkpt lat="43.94193763471451" lon="4.493513819264573"><ele>133.0</ele><time>2026-04-06T15:56:47.999Z</time></trkpt><trkpt lat="43.94202544486975" lon="4.493588873183459"><ele>133.0</ele><time>2026-04-06T15:56:50.999Z</time></trkpt><trkpt lat="43.942096194777776" lon="4.49364003550435"><ele>133.0</ele><time>2026-04-06T15:56:54.999Z</time></trkpt><trkpt lat="43.94217299682337" lon="4.493695099431106"><ele>133.0</ele><time>2026-04-06T15:56:56.999Z</time></trkpt><trkpt lat="43.942230448233495" lon="4.493745481284827"><ele>133.0</ele><time>2026-04-06T15:56:57.999Z</time></trkpt><trkpt lat="43.9422842800563" lon="4.493813869439409"><ele>133.0</ele><time>2026-04-06T15:56:58.999Z</time></trkpt><trkpt lat="43.94233353801971" lon="4.493880964910787"><ele>134.57142857142858</ele><time>2026-04-06T15:56:59.999Z</time></trkpt><trkpt lat="43.94238862869561" lon="4.493937520187535"><ele>136.14285714285714</ele><time>2026-04-06T15:57:00.999Z</time></trkpt><trkpt lat="43.94244644194577" lon="4.493990596060899"><ele>137.71428571428572</ele><time>2026-04-06T15:57:01.999Z</time></trkpt><trkpt lat="43.94250549233206" lon="4.494062518504012"><ele>139.28571428571428</ele><time>2026-04-06T15:57:02.999Z</time></trkpt><trkpt lat="43.94256080768759" lon="4.494136935953547"><ele>140.85714285714286</ele><time>2026-04-06T15:57:03.999Z</time></trkpt><trkpt lat="43.94261775433212" lon="4.494213925332333"><ele>142.42857142857144</ele><time>2026-04-06T15:57:04.999Z</time></trkpt><trkpt lat="43.94266886104312" lon="4.494278289577314"><ele>144.0</ele><time>2026-04-06T15:57:05.999Z</time></trkpt><trkpt lat="43.94277382994669" lon="4.494355209750302"><ele>144.66666666666666</ele><time>2026-04-06T15:57:07.999Z</time></trkpt><trkpt lat="43.94285494555639" lon="4.4943962258675185"><ele>145.33333333333334</ele><time>2026-04-06T15:57:09.999Z</time></trkpt><trkpt lat="43.942918006896925" lon="4.4944005563906435"><ele>146.0</ele><time>2026-04-06T15:57:12.999Z</time></trkpt><trkpt lat="43.942988247514094" lon="4.494457605031088"><ele>146.66666666666669</ele><time>2026-04-06T15:57:14.999Z</time></trkpt><trkpt lat="43.9430793535824" lon="4.494534498120091"><ele>147.33333333333334</ele><time>2026-04-06T15:57:16.999Z</time></trkpt><trkpt lat="43.943136851632474" lon="4.49458137202267"><ele>148.0</ele><time>2026-04-06T15:57:17.999Z</time></trkpt><trkpt lat="43.94325264785055" lon="4.494656465645736"><ele>149.25</ele><time>2026-04-06T15:57:19.999Z</time></trkpt><trkpt lat="43.94337590904091" lon="4.494702118350013"><ele>150.5</ele><time>2026-04-06T15:57:21.999Z</time></trkpt><trkpt lat="43.943489557353345" lon="4.494707080226219"><ele>151.75</ele><time>2026-04-06T15:57:23.999Z</time></trkpt><trkpt lat="43.943614631075846" lon="4.4947103762196825"><ele>153.0</ele><time>2026-04-06T15:57:25.999Z</time></trkpt><trkpt lat="43.943722800514145" lon="4.494736721879589"><ele>154.60000000000002</ele><time>2026-04-06T15:57:27.999Z</time></trkpt><trkpt lat="43.94381903341194" lon="4.494799871245127"><ele>156.20000000000002</ele><time>2026-04-06T15:57:30Z</time></trkpt><trkpt lat="43.94389837107235" lon="4.494932028258187"><ele>157.8</ele><time>2026-04-06T15:57:32Z</time></trkpt><trkpt lat="43.943948133684984" lon="4.495008976809041"><ele>159.4</ele><time>2026-04-06T15:57:33Z</time></trkpt><trkpt lat="43.943990116215886" lon="4.495074436324984"><ele>161.0</ele><time>2026-04-06T15:57:34Z</time></trkpt><trkpt lat="43.944073943041396" lon="4.495181321789503"><ele>161.0</ele><time>2026-04-06T15:57:36Z</time></trkpt><trkpt lat="43.94417584709581" lon="4.495267860567626"><ele>161.0</ele><time>2026-04-06T15:57:38Z</time></trkpt><trkpt lat="43.94424126592835" lon="4.495316590293794"><ele>161.0</ele><time>2026-04-06T15:57:40Z</time></trkpt><trkpt lat="43.94429425437445" lon="4.495365708938016"><ele>161.0</ele><time>2026-04-06T15:57:43Z</time></trkpt><trkpt lat="43.94436090638159" lon="4.495445749642495"><ele>161.0</ele><time>2026-04-06T15:59:03.999Z</time></trkpt><trkpt lat="43.94439047622344" lon="4.495540066762485"><ele>161.0</ele><time>2026-04-06T15:59:06.999Z</time></trkpt><trkpt lat="43.94442974934207" lon="4.495639446441584"><ele>159.5</ele><time>2026-04-06T15:59:09.999Z</time></trkpt><trkpt lat="43.944460149560086" lon="4.495744545342752"><ele>158.0</ele><time>2026-04-06T15:59:12.999Z</time></trkpt><trkpt lat="43.94448038492697" lon="4.495832752784981"><ele>156.5</ele><time>2026-04-06T15:59:14.999Z</time></trkpt><trkpt lat="43.944459471552776" lon="4.495924547662064"><ele>155.0</ele><time>2026-04-06T15:59:16.999Z</time></trkpt><trkpt lat="43.94438372012444" lon="4.496038520371372"><ele>153.5</ele><time>2026-04-06T15:59:18.999Z</time></trkpt><trkpt lat="43.944338061890576" lon="4.496112005319003"><ele>152.0</ele><time>2026-04-06T15:59:19.999Z</time></trkpt><trkpt lat="43.94429326365877" lon="4.496189173960283"><ele>151.16666666666666</ele><time>2026-04-06T15:59:21.999Z</time></trkpt><trkpt lat="43.944258988961735" lon="4.49626520856787"><ele>150.33333333333331</ele><time>2026-04-06T15:59:24.999Z</time></trkpt><trkpt lat="43.944211061348305" lon="4.4963423693508275"><ele>149.5</ele><time>2026-04-06T15:59:26.999Z</time></trkpt><trkpt lat="43.944176868230585" lon="4.496447281565213"><ele>148.66666666666666</ele><time>2026-04-06T15:59:28.999Z</time></trkpt><trkpt lat="43.94416184284496" lon="4.496572097289979"><ele>147.83333333333334</ele><time>2026-04-06T15:59:30.999Z</time></trkpt><trkpt lat="43.94416907560082" lon="4.4966990314622945"><ele>147.0</ele><time>2026-04-06T15:59:32.999Z</time></trkpt><trkpt lat="43.94419067882889" lon="4.496801915309674"><ele>147.0</ele><time>2026-04-06T15:59:35Z</time></trkpt><trkpt lat="43.94420583336023" lon="4.496915413874534"><ele>147.0</ele><time>2026-04-06T15:59:41Z</time></trkpt><trkpt lat="43.94423050659224" lon="4.4970587871270045"><ele>147.0</ele><time>2026-04-06T15:59:43Z</time></trkpt><trkpt lat="43.944254288618055" lon="4.497220067538727"><ele>147.0</ele><time>2026-04-06T15:59:45Z</time></trkpt><trkpt lat="43.94426880879885" lon="4.497394555348974"><ele>147.0</ele><time>2026-04-06T15:59:47Z</time></trkpt><trkpt lat="43.944294417508246" lon="4.4975410815222"><ele>146.83333333333334</ele><time>2026-04-06T15:59:49Z</time></trkpt><trkpt lat="43.94435335823198" lon="4.497643905787136"><ele>146.66666666666666</ele><time>2026-04-06T15:59:51Z</time></trkpt><trkpt lat="43.94442425565102" lon="4.49768696054543"><ele>146.5</ele><time>2026-04-06T15:59:53Z</time></trkpt><trkpt lat="43.94449088898189" lon="4.497720570223398"><ele>146.33333333333331</ele><time>2026-04-06T15:59:55Z</time></trkpt><trkpt lat="43.94455669760918" lon="4.497775449948604"><ele>146.16666666666666</ele><time>2026-04-06T15:59:58Z</time></trkpt><trkpt lat="43.94462450597241" lon="4.497827697274948"><ele>146.0</ele><time>2026-04-06T16:00:01Z</time></trkpt><trkpt lat="43.94470082330047" lon="4.497861668169406"><ele>146.0</ele><time>2026-04-06T16:00:05Z</time></trkpt><trkpt lat="43.944775509370466" lon="4.497853830645151"><ele>146.0</ele><time>2026-04-06T16:00:08Z</time></trkpt><trkpt lat="43.94486078761955" lon="4.4978625958239205"><ele>146.0</ele><time>2026-04-06T16:00:12Z</time></trkpt><trkpt lat="43.94492476468225" lon="4.497879326587333"><ele>146.0</ele><time>2026-04-06T16:00:15Z</time></trkpt><trkpt lat="43.94498209941155" lon="4.497923307696666"><ele>146.0</ele><time>2026-04-06T16:00:18Z</time></trkpt><trkpt lat="43.945054183732566" lon="4.497974287656616"><ele>146.0</ele><time>2026-04-06T16:00:21Z</time></trkpt><trkpt lat="43.945126501532954" lon="4.498017459342906"><ele>143.16666666666666</ele><time>2026-04-06T16:00:24Z</time></trkpt><trkpt lat="43.945193745750494" lon="4.49804250181459"><ele>140.33333333333331</ele><time>2026-04-06T16:00:27Z</time></trkpt><trkpt lat="43.945282270996124" lon="4.498069479182598"><ele>137.5</ele><time>2026-04-06T16:00:30Z</time></trkpt><trkpt lat="43.94537434477912" lon="4.498105345102486"><ele>134.66666666666666</ele><time>2026-04-06T16:00:33Z</time></trkpt><trkpt lat="43.945441900898" lon="4.498124170914315"><ele>131.83333333333334</ele><time>2026-04-06T16:00:35Z</time></trkpt><trkpt lat="43.945520503122665" lon="4.498125961011586"><ele>129.0</ele><time>2026-04-06T16:00:38Z</time></trkpt><trkpt lat="43.94559057274259" lon="4.498135493714216"><ele>129.0</ele><time>2026-04-06T16:00:40Z</time></trkpt><trkpt lat="43.945670958033396" lon="4.4981800617921435"><ele>129.0</ele><time>2026-04-06T16:00:43Z</time></trkpt><trkpt lat="43.94574267341414" lon="4.498209786736003"><ele>129.0</ele><time>2026-04-06T16:00:46Z</time></trkpt><trkpt lat="43.945810054341344" lon="4.498254651749929"><ele>129.0</ele><time>2026-04-06T16:00:49.999Z</time></trkpt><trkpt lat="43.94587870268033" lon="4.498308698113269"><ele>129.0</ele><time>2026-04-06T16:00:52.999Z</time></trkpt><trkpt lat="43.94595234025259" lon="4.49836862226012"><ele>129.0</ele><time>2026-04-06T16:00:57.999Z</time></trkpt><trkpt lat="43.94601720814984" lon="4.498426328158775"><ele>126.66666666666667</ele><time>2026-04-06T16:01:01.999Z</time></trkpt><trkpt lat="43.946073262708545" lon="4.498475621324348"><ele>124.33333333333334</ele><time>2026-04-06T16:01:04.999Z</time></trkpt><trkpt lat="43.94614028459656" lon="4.49853232019055"><ele>122.0</ele><time>2026-04-06T16:01:08.999Z</time></trkpt><trkpt lat="43.94621135264727" lon="4.498570787189418"><ele>119.66666666666667</ele><time>2026-04-06T16:01:12.999Z</time></trkpt><trkpt lat="43.946264353345036" lon="4.498633488749258"><ele>117.33333333333334</ele><time>2026-04-06T16:01:15.999Z</time></trkpt><trkpt lat="43.9463267398956" lon="4.498722311681125"><ele>115.0</ele><time>2026-04-06T16:01:18.999Z</time></trkpt><trkpt lat="43.94638455387926" lon="4.498777881252234"><ele>114.33333333333334</ele><time>2026-04-06T16:01:20.999Z</time></trkpt><trkpt lat="43.946454214070776" lon="4.498834785119665"><ele>113.66666666666667</ele><time>2026-04-06T16:01:22.999Z</time></trkpt><trkpt lat="43.94650999035177" lon="4.498877080715962"><ele>113.0</ele><time>2026-04-06T16:01:24.999Z</time></trkpt><trkpt lat="43.94658694417263" lon="4.498919757735841"><ele>112.33333333333334</ele><time>2026-04-06T16:01:26.999Z</time></trkpt><trkpt lat="43.946650115633965" lon="4.498951503001974"><ele>111.66666666666667</ele><time>2026-04-06T16:01:29.999Z</time></trkpt><trkpt lat="43.94673095451742" lon="4.498979691135533"><ele>111.0</ele><time>2026-04-06T16:01:32.999Z</time></trkpt><trkpt lat="43.94680425983028" lon="4.499010594025063"><ele>109.0</ele><time>2026-04-06T16:01:36.999Z</time></trkpt><trkpt lat="43.946866626666555" lon="4.499029363690182"><ele>107.0</ele><time>2026-04-06T16:01:39.999Z</time></trkpt><trkpt lat="43.946948472921164" lon="4.499051000101295"><ele>105.0</ele><time>2026-04-06T16:01:43Z</time></trkpt><trkpt lat="43.94702173086973" lon="4.4990838263423925"><ele>103.0</ele><time>2026-04-06T16:01:45Z</time></trkpt><trkpt lat="43.947084954608016" lon="4.499111859660447"><ele>101.0</ele><time>2026-04-06T16:01:48Z</time></trkpt><trkpt lat="43.947161046279845" lon="4.499164082033309"><ele>99.0</ele><time>2026-04-06T16:01:50Z</time></trkpt><trkpt lat="43.947253013720676" lon="4.499213720437232"><ele>99.0</ele><time>2026-04-06T16:01:52Z</time></trkpt><trkpt lat="43.947330694610145" lon="4.499241186282887"><ele>99.0</ele><time>2026-04-06T16:01:54Z</time></trkpt><trkpt lat="43.947405053232586" lon="4.499277743642581"><ele>99.0</ele><time>2026-04-06T16:01:57Z</time></trkpt><trkpt lat="43.947474432137525" lon="4.499316210284584"><ele>99.0</ele><time>2026-04-06T16:01:59Z</time></trkpt><trkpt lat="43.947557441372176" lon="4.499387923977857"><ele>99.0</ele><time>2026-04-06T16:02:02Z</time></trkpt><trkpt lat="43.94763287016492" lon="4.49945389233555"><ele>99.0</ele><time>2026-04-06T16:02:04Z</time></trkpt><trkpt lat="43.94774606965338" lon="4.499537844502239"><ele>97.0</ele><time>2026-04-06T16:02:06Z</time></trkpt><trkpt lat="43.94780781461999" lon="4.499579002080995"><ele>95.0</ele><time>2026-04-06T16:02:07Z</time></trkpt><trkpt lat="43.94791147974812" lon="4.4996561362738605"><ele>93.0</ele><time>2026-04-06T16:02:09Z</time></trkpt><trkpt lat="43.94797304621136" lon="4.4996928850981694"><ele>91.0</ele><time>2026-04-06T16:02:11Z</time></trkpt><trkpt lat="43.948031474430714" lon="4.499743147802678"><ele>89.0</ele><time>2026-04-06T16:02:13Z</time></trkpt><trkpt lat="43.94812432063322" lon="4.499808540018209"><ele>87.0</ele><time>2026-04-06T16:02:16Z</time></trkpt><trkpt lat="43.94819777748442" lon="4.499841852787411"><ele>87.0</ele><time>2026-04-06T16:02:18Z</time></trkpt><trkpt lat="43.94827140391368" lon="4.499854833996966"><ele>87.0</ele><time>2026-04-06T16:02:22Z</time></trkpt><trkpt lat="43.94833209921418" lon="4.499884356999612"><ele>87.0</ele><time>2026-04-06T16:04:25Z</time></trkpt><trkpt lat="43.94839741049347" lon="4.499883090237375"><ele>87.0</ele><time>2026-04-06T16:04:33Z</time></trkpt><trkpt lat="43.9484605666402" lon="4.499895162977806"><ele>87.0</ele><time>2026-04-06T16:04:42Z</time></trkpt><trkpt lat="43.94854717170881" lon="4.499917367296076"><ele>87.0</ele><time>2026-04-06T16:05:18Z</time></trkpt><trkpt lat="43.948611882969246" lon="4.499903899668157"><ele>87.0</ele><time>2026-04-06T16:05:31.999Z</time></trkpt><trkpt lat="43.94867618338876" lon="4.499947102734425"><ele>84.42857142857143</ele><time>2026-04-06T16:05:39.999Z</time></trkpt><trkpt lat="43.94874249700001" lon="4.4999457538522565"><ele>81.85714285714286</ele><time>2026-04-06T16:05:48.999Z</time></trkpt><trkpt lat="43.948814452586106" lon="4.499973093414259"><ele>79.28571428571429</ele><time>2026-04-06T16:05:54Z</time></trkpt><trkpt lat="43.94888025619659" lon="4.499944852887163"><ele>76.71428571428572</ele><time>2026-04-06T16:06:00Z</time></trkpt><trkpt lat="43.94893309180651" lon="4.499895577592536"><ele>74.14285714285715</ele><time>2026-04-06T16:06:12Z</time></trkpt><trkpt lat="43.9490041671994" lon="4.499858616409726"><ele>71.57142857142857</ele><time>2026-04-06T16:06:20Z</time></trkpt><trkpt lat="43.94904638200046" lon="4.499768750051165"><ele>69.0</ele><time>2026-04-06T16:07:21.999Z</time></trkpt><trkpt lat="43.949099691118846" lon="4.499720185901717"><ele>69.0</ele><time>2026-04-06T16:07:41.999Z</time></trkpt><trkpt lat="43.949104062362146" lon="4.49961444967831"><ele>69.0</ele><time>2026-04-06T16:08:09Z</time></trkpt><trkpt lat="43.94914480615852" lon="4.499543823720839"><ele>69.0</ele><time>2026-04-06T16:08:33Z</time></trkpt><trkpt lat="43.94922575087294" lon="4.4995005783855"><ele>69.0</ele><time>2026-04-06T16:09:06Z</time></trkpt><trkpt lat="43.949291946068236" lon="4.499488518709909"><ele>69.0</ele><time>2026-04-06T16:09:10Z</time></trkpt><trkpt lat="43.94934559873204" lon="4.499432675385199"><ele>69.0</ele><time>2026-04-06T16:09:21Z</time></trkpt><trkpt lat="43.94935812764307" lon="4.499335341133495"><ele>69.0</ele><time>2026-04-06T16:09:35.999Z</time></trkpt><trkpt lat="43.949389559660695" lon="4.4992527831767095"><ele>65.33333333333333</ele><time>2026-04-06T16:09:42.999Z</time></trkpt><trkpt lat="43.94944606586819" lon="4.499210798877316"><ele>61.666666666666664</ele><time>2026-04-06T16:09:46.999Z</time></trkpt><trkpt lat="43.94955748282609" lon="4.499200850154677"><ele>58.0</ele><time>2026-04-06T16:10:13Z</time></trkpt><trkpt lat="43.94959471747027" lon="4.499271610983681"><ele>54.33333333333333</ele><time>2026-04-06T16:10:50Z</time></trkpt><trkpt lat="43.94962650887608" lon="4.499195145839196"><ele>50.666666666666664</ele><time>2026-04-06T16:11:04Z</time></trkpt><trkpt lat="43.94974949709153" lon="4.499174048337945"><ele>47.0</ele><time>2026-04-06T16:11:26Z</time></trkpt><trkpt lat="43.949882521894004" lon="4.499154256582054"><ele>47.0</ele><time>2026-04-06T16:12:08.999Z</time></trkpt><trkpt lat="43.949841481437275" lon="4.499221349953968"><ele>47.0</ele><time>2026-04-06T16:14:52Z</time></trkpt><trkpt lat="43.94978667695578" lon="4.499172578949175"><ele>47.0</ele><time>2026-04-06T16:17:13Z</time></trkpt><trkpt lat="43.94972381949965" lon="4.4992074514964555"><ele>47.0</ele><time>2026-04-06T16:17:37Z</time></trkpt><trkpt lat="43.949660316294846" lon="4.4991746507241706"><ele>47.0</ele><time>2026-04-06T16:17:57.999Z</time></trkpt><trkpt lat="43.94964083002127" lon="4.499061983225867"><ele>47.0</ele><time>2026-04-06T16:18:23.999Z</time></trkpt><trkpt lat="43.949673187515785" lon="4.498976965007184"><ele>47.0</ele><time>2026-04-06T16:18:39Z</time></trkpt><trkpt lat="43.949712798935344" lon="4.498906333498692"><ele>47.0</ele><time>2026-04-06T16:18:55Z</time></trkpt><trkpt lat="43.94975956461834" lon="4.498839167002492"><ele>47.0</ele><time>2026-04-06T16:21:16Z</time></trkpt><trkpt lat="43.949817172659536" lon="4.498802562267651"><ele>47.0</ele><time>2026-04-06T16:22:27.999Z</time></trkpt><trkpt lat="43.949880479493245" lon="4.498729309658852"><ele>47.0</ele><time>2026-04-06T16:23:02Z</time></trkpt><trkpt lat="43.94996744797801" lon="4.498718883071434"><ele>47.0</ele><time>2026-04-06T16:32:38.999Z</time></trkpt><trkpt lat="43.95001214178043" lon="4.498646985675931"><ele>47.0</ele><time>2026-04-06T16:33:04.999Z</time></trkpt><trkpt lat="43.950043436269134" lon="4.498561515745624"><ele>47.0</ele><time>2026-04-06T16:33:31Z</time></trkpt><trkpt lat="43.95009043628745" lon="4.498501827682392"><ele>44.33333333333333</ele><time>2026-04-06T16:33:58Z</time></trkpt><trkpt lat="43.95012024192137" lon="4.498422591487104"><ele>41.666666666666664</ele><time>2026-04-06T16:34:17.999Z</time></trkpt><trkpt lat="43.95012032960858" lon="4.498333247817351"><ele>39.0</ele><time>2026-04-06T16:34:42.999Z</time></trkpt><trkpt lat="43.95014822875005" lon="4.49816653040781"><ele>36.333333333333336</ele><time>2026-04-06T16:35:33Z</time></trkpt><trkpt lat="43.95019177089253" lon="4.498076306566322"><ele>33.66666666666667</ele><time>2026-04-06T16:35:35Z</time></trkpt><trkpt lat="43.95015672620797" lon="4.497995403701449"><ele>31.0</ele><time>2026-04-06T16:36:54.999Z</time></trkpt><trkpt lat="43.95012420491708" lon="4.497878112912409"><ele>31.000000000000004</ele><time>2026-04-06T16:37:24.999Z</time></trkpt><trkpt lat="43.950116372172985" lon="4.49774961425877"><ele>31.0</ele><time>2026-04-06T16:37:37Z</time></trkpt><trkpt lat="43.95013632691233" lon="4.497633040483433"><ele>31.0</ele><time>2026-04-06T16:37:39Z</time></trkpt><trkpt lat="43.95016721152667" lon="4.497522872935679"><ele>31.0</ele><time>2026-04-06T16:37:42Z</time></trkpt><trkpt lat="43.950176160738515" lon="4.497434049293241"><ele>31.000000000000004</ele><time>2026-04-06T16:37:44Z</time></trkpt><trkpt lat="43.95018127904106" lon="4.49732554916529"><ele>31.0</ele><time>2026-04-06T16:37:46Z</time></trkpt><trkpt lat="43.950236821390284" lon="4.497194280574256"><ele>31.0</ele><time>2026-04-06T16:37:49Z</time></trkpt><trkpt lat="43.95028093480334" lon="4.497112117250058"><ele>31.000000000000004</ele><time>2026-04-06T16:37:51Z</time></trkpt><trkpt lat="43.95031194489261" lon="4.497028376814295"><ele>31.0</ele><time>2026-04-06T16:37:53Z</time></trkpt><trkpt lat="43.950349017608914" lon="4.496944872300838"><ele>31.0</ele><time>2026-04-06T16:37:54.999Z</time></trkpt><trkpt lat="43.950371021200276" lon="4.496850106153978"><ele>31.000000000000004</ele><time>2026-04-06T16:37:56.999Z</time></trkpt><trkpt lat="43.950410864008276" lon="4.496761282014406"><ele>31.0</ele><time>2026-04-06T16:37:58.999Z</time></trkpt><trkpt lat="43.950454978919694" lon="4.496663997926657"><ele>31.0</ele><time>2026-04-06T16:38:00.999Z</time></trkpt><trkpt lat="43.95050933788123" lon="4.496560353215439"><ele>32.0</ele><time>2026-04-06T16:38:02.999Z</time></trkpt><trkpt lat="43.95055087149534" lon="4.496443540083078"><ele>33.0</ele><time>2026-04-06T16:38:04.999Z</time></trkpt><trkpt lat="43.950591619729096" lon="4.496353775398605"><ele>34.0</ele><time>2026-04-06T16:38:06.999Z</time></trkpt><trkpt lat="43.95064114581658" lon="4.496252966216446"><ele>35.0</ele><time>2026-04-06T16:38:08.999Z</time></trkpt><trkpt lat="43.9506863105359" lon="4.496152474532784"><ele>36.0</ele><time>2026-04-06T16:38:10.999Z</time></trkpt><trkpt lat="43.950734836399256" lon="4.49606102150334"><ele>37.0</ele><time>2026-04-06T16:38:12.999Z</time></trkpt><trkpt lat="43.950786858444175" lon="4.49596520042479"><ele>36.66666666666667</ele><time>2026-04-06T16:38:14.999Z</time></trkpt><trkpt lat="43.95081985485625" lon="4.495867774765962"><ele>36.333333333333336</ele><time>2026-04-06T16:38:16.999Z</time></trkpt><trkpt lat="43.950842114996995" lon="4.49575416640891"><ele>36.0</ele><time>2026-04-06T16:38:18.999Z</time></trkpt><trkpt lat="43.950859160691756" lon="4.4956450019959675"><ele>35.666666666666664</ele><time>2026-04-06T16:38:20.999Z</time></trkpt><trkpt lat="43.950869307836236" lon="4.49553620742141"><ele>35.33333333333333</ele><time>2026-04-06T16:38:22.999Z</time></trkpt><trkpt lat="43.95088248683107" lon="4.495418905530117"><ele>35.0</ele><time>2026-04-06T16:38:24.999Z</time></trkpt><trkpt lat="43.950890795462925" lon="4.495303632161946"><ele>35.0</ele><time>2026-04-06T16:38:26.999Z</time></trkpt><trkpt lat="43.9509172975113" lon="4.495171095033523"><ele>35.0</ele><time>2026-04-06T16:38:28.999Z</time></trkpt><trkpt lat="43.95093289688758" lon="4.495036210863249"><ele>35.0</ele><time>2026-04-06T16:38:30.999Z</time></trkpt><trkpt lat="43.95091294637575" lon="4.4949267618466"><ele>35.0</ele><time>2026-04-06T16:38:32.999Z</time></trkpt><trkpt lat="43.95090483523193" lon="4.494805909802387"><ele>35.0</ele><time>2026-04-06T16:38:34.999Z</time></trkpt><trkpt lat="43.950896283122766" lon="4.494684658888657"><ele>35.166666666666664</ele><time>2026-04-06T16:38:36.999Z</time></trkpt><trkpt lat="43.950892632220935" lon="4.494576607527368"><ele>35.33333333333333</ele><time>2026-04-06T16:38:38.999Z</time></trkpt><trkpt lat="43.95089394227951" lon="4.494474050319021"><ele>35.5</ele><time>2026-04-06T16:38:40.999Z</time></trkpt><trkpt lat="43.9509270808198" lon="4.494368477103556"><ele>35.666666666666664</ele><time>2026-04-06T16:38:42.999Z</time></trkpt><trkpt lat="43.9509559397298" lon="4.49426266485098"><ele>35.833333333333336</ele><time>2026-04-06T16:38:44.999Z</time></trkpt><trkpt lat="43.95099951938501" lon="4.494153701856337"><ele>36.0</ele><time>2026-04-06T16:38:46.999Z</time></trkpt><trkpt lat="43.95104309475228" lon="4.494040055624384"><ele>36.0</ele><time>2026-04-06T16:38:48.999Z</time></trkpt><trkpt lat="43.951083098582245" lon="4.493919396646906"><ele>36.0</ele><time>2026-04-06T16:38:50.999Z</time></trkpt><trkpt lat="43.95110627501404" lon="4.493838047312324"><ele>36.0</ele><time>2026-04-06T16:38:51.999Z</time></trkpt><trkpt lat="43.95113425833102" lon="4.493754823254033"><ele>36.0</ele><time>2026-04-06T16:38:52.999Z</time></trkpt><trkpt lat="43.95119393100801" lon="4.493607774643104"><ele>36.0</ele><time>2026-04-06T16:38:54.999Z</time></trkpt><trkpt lat="43.95124483146735" lon="4.493469567375559"><ele>36.0</ele><time>2026-04-06T16:38:56.999Z</time></trkpt><trkpt lat="43.951289593567694" lon="4.493348538946317"><ele>36.0</ele><time>2026-04-06T16:38:58.999Z</time></trkpt><trkpt lat="43.95134549916445" lon="4.493228981645792"><ele>36.0</ele><time>2026-04-06T16:39:00.999Z</time></trkpt><trkpt lat="43.9513984339141" lon="4.493095297871332"><ele>36.0</ele><time>2026-04-06T16:39:02.999Z</time></trkpt><trkpt lat="43.951439965455016" lon="4.492948002212271"><ele>36.0</ele><time>2026-04-06T16:39:04.999Z</time></trkpt><trkpt lat="43.95144876177231" lon="4.492788097040487"><ele>36.0</ele><time>2026-04-06T16:39:06.999Z</time></trkpt><trkpt lat="43.95145710305029" lon="4.492634862062604"><ele>36.0</ele><time>2026-04-06T16:39:08.999Z</time></trkpt><trkpt lat="43.95148375605482" lon="4.49248794065768"><ele>36.0</ele><time>2026-04-06T16:39:10.999Z</time></trkpt><trkpt lat="43.95155834574867" lon="4.4923603429454175"><ele>36.0</ele><time>2026-04-06T16:39:12.999Z</time></trkpt><trkpt lat="43.95161298937539" lon="4.492308155250346"><ele>36.0</ele><time>2026-04-06T16:39:13.999Z</time></trkpt><trkpt lat="43.95171053991113" lon="4.492238280989172"><ele>35.85714285714286</ele><time>2026-04-06T16:39:15.999Z</time></trkpt><trkpt lat="43.951761778361664" lon="4.4921852860304226"><ele>35.714285714285715</ele><time>2026-04-06T16:39:16.999Z</time></trkpt><trkpt lat="43.951806918861735" lon="4.492122768326152"><ele>35.57142857142857</ele><time>2026-04-06T16:39:17.999Z</time></trkpt><trkpt lat="43.95188175336367" lon="4.491985753272881"><ele>35.42857142857143</ele><time>2026-04-06T16:39:19.999Z</time></trkpt><trkpt lat="43.951918333951674" lon="4.491914086164335"><ele>35.285714285714285</ele><time>2026-04-06T16:39:20.999Z</time></trkpt><trkpt lat="43.95195457821737" lon="4.491838209423433"><ele>35.142857142857146</ele><time>2026-04-06T16:39:21.999Z</time></trkpt><trkpt lat="43.951992351067375" lon="4.491767019666526"><ele>35.0</ele><time>2026-04-06T16:39:22.999Z</time></trkpt><trkpt lat="43.952031898522065" lon="4.491696191184586"><ele>35.0</ele><time>2026-04-06T16:39:23.999Z</time></trkpt><trkpt lat="43.952101954007006" lon="4.4915479308235735"><ele>35.0</ele><time>2026-04-06T16:39:25.999Z</time></trkpt><trkpt lat="43.952180507045824" lon="4.491412343847304"><ele>35.0</ele><time>2026-04-06T16:39:27.999Z</time></trkpt><trkpt lat="43.95225136684484" lon="4.49127312148964"><ele>35.0</ele><time>2026-04-06T16:39:29.999Z</time></trkpt><trkpt lat="43.952329328479856" lon="4.4911364238161395"><ele>35.6</ele><time>2026-04-06T16:39:31.999Z</time></trkpt><trkpt lat="43.95236726951097" lon="4.491062374129787"><ele>36.2</ele><time>2026-04-06T16:39:32.999Z</time></trkpt><trkpt lat="43.95243690668595" lon="4.490922929451199"><ele>36.8</ele><time>2026-04-06T16:39:34.999Z</time></trkpt><trkpt lat="43.95251529640965" lon="4.490781356446382"><ele>37.4</ele><time>2026-04-06T16:39:36.999Z</time></trkpt><trkpt lat="43.95257098635844" lon="4.490721847620264"><ele>38.0</ele><time>2026-04-06T16:39:37.999Z</time></trkpt><trkpt lat="43.952610839325274" lon="4.490652719580816"><ele>37.0</ele><time>2026-04-06T16:39:38.999Z</time></trkpt><trkpt lat="43.9526490494991" lon="4.490582522880071"><ele>36.0</ele><time>2026-04-06T16:39:39.999Z</time></trkpt><trkpt lat="43.95267583871398" lon="4.490502462019153"><ele>35.0</ele><time>2026-04-06T16:39:40.999Z</time></trkpt><trkpt lat="43.952716390909764" lon="4.490434270601882"><ele>34.0</ele><time>2026-04-06T16:39:41.999Z</time></trkpt><trkpt lat="43.95274633739283" lon="4.490356689581814"><ele>33.0</ele><time>2026-04-06T16:39:42.999Z</time></trkpt><trkpt lat="43.952774362754276" lon="4.490272223509263"><ele>32.0</ele><time>2026-04-06T16:39:43.999Z</time></trkpt><trkpt lat="43.95280266617802" lon="4.490186662487422"><ele>31.0</ele><time>2026-04-06T16:39:44.999Z</time></trkpt><trkpt lat="43.95285037156245" lon="4.490114688372236"><ele>31.0</ele><time>2026-04-06T16:39:45.999Z</time></trkpt><trkpt lat="43.952887863671585" lon="4.490032241619147"><ele>31.000000000000004</ele><time>2026-04-06T16:39:46.999Z</time></trkpt><trkpt lat="43.95292476318327" lon="4.489957906691498"><ele>31.0</ele><time>2026-04-06T16:39:47.999Z</time></trkpt><trkpt lat="43.952962384656736" lon="4.489887181378661"><ele>31.0</ele><time>2026-04-06T16:39:48.999Z</time></trkpt><trkpt lat="43.95299711284358" lon="4.48980677653948"><ele>31.000000000000004</ele><time>2026-04-06T16:39:49.999Z</time></trkpt><trkpt lat="43.95304410582478" lon="4.489741093370225"><ele>31.0</ele><time>2026-04-06T16:39:50.999Z</time></trkpt><trkpt lat="43.953100582858234" lon="4.489697780470259"><ele>31.0</ele><time>2026-04-06T16:39:51.999Z</time></trkpt><trkpt lat="43.95316861931673" lon="4.489591002184191"><ele>30.500000000000004</ele><time>2026-04-06T16:39:53.999Z</time></trkpt><trkpt lat="43.95321303900707" lon="4.489474332012627"><ele>30.0</ele><time>2026-04-06T16:39:55.999Z</time></trkpt><trkpt lat="43.95326549109916" lon="4.489364137976054"><ele>29.5</ele><time>2026-04-06T16:39:57.999Z</time></trkpt><trkpt lat="43.95334474451056" lon="4.489254808998177"><ele>29.0</ele><time>2026-04-06T16:40:00Z</time></trkpt><trkpt lat="43.95339123413671" lon="4.489194415916925"><ele>28.500000000000004</ele><time>2026-04-06T16:40:01Z</time></trkpt><trkpt lat="43.95343837401583" lon="4.489129977483662"><ele>28.0</ele><time>2026-04-06T16:40:02Z</time></trkpt><trkpt lat="43.95348740838341" lon="4.489061196008586"><ele>28.000000000000004</ele><time>2026-04-06T16:40:03Z</time></trkpt><trkpt lat="43.95353576361457" lon="4.488992375953184"><ele>28.0</ele><time>2026-04-06T16:40:04Z</time></trkpt><trkpt lat="43.95357907289328" lon="4.488925832045305"><ele>28.0</ele><time>2026-04-06T16:40:05Z</time></trkpt><trkpt lat="43.95362365245695" lon="4.488850741195561"><ele>28.0</ele><time>2026-04-06T16:40:06Z</time></trkpt><trkpt lat="43.953663183537714" lon="4.48877371723156"><ele>28.000000000000004</ele><time>2026-04-06T16:40:06.999Z</time></trkpt><trkpt lat="43.9536980779737" lon="4.4886918543987155"><ele>28.0</ele><time>2026-04-06T16:40:07.999Z</time></trkpt><trkpt lat="43.953744396451555" lon="4.488525227591416"><ele>28.2</ele><time>2026-04-06T16:40:09.999Z</time></trkpt><trkpt lat="43.953782070838365" lon="4.488366496546636"><ele>28.4</ele><time>2026-04-06T16:40:11.999Z</time></trkpt><trkpt lat="43.95382511373048" lon="4.488221893067528"><ele>28.599999999999998</ele><time>2026-04-06T16:40:13.999Z</time></trkpt><trkpt lat="43.953864091869704" lon="4.488092487664837"><ele>28.799999999999997</ele><time>2026-04-06T16:40:15.999Z</time></trkpt><trkpt lat="43.95391512695184" lon="4.487982264341661"><ele>29.0</ele><time>2026-04-06T16:40:17.999Z</time></trkpt><trkpt lat="43.95393614692188" lon="4.4878679493036895"><ele>29.42857142857143</ele><time>2026-04-06T16:40:19.999Z</time></trkpt><trkpt lat="43.95396367680674" lon="4.487776346562367"><ele>29.857142857142858</ele><time>2026-04-06T16:40:21.999Z</time></trkpt><trkpt lat="43.95398959785141" lon="4.487681583756655"><ele>30.285714285714285</ele><time>2026-04-06T16:40:23.999Z</time></trkpt><trkpt lat="43.954021004017065" lon="4.487560973538148"><ele>30.714285714285715</ele><time>2026-04-06T16:40:26.999Z</time></trkpt><trkpt lat="43.95404844377215" lon="4.487473754737683"><ele>31.14285714285714</ele><time>2026-04-06T16:40:28.999Z</time></trkpt><trkpt lat="43.95407133361444" lon="4.487387738412477"><ele>31.57142857142857</ele><time>2026-04-06T16:40:30.999Z</time></trkpt><trkpt lat="43.95412145681264" lon="4.4873110084920445"><ele>32.0</ele><time>2026-04-06T16:40:32.999Z</time></trkpt><trkpt lat="43.954162669348854" lon="4.4872119645878"><ele>31.999999999999996</ele><time>2026-04-06T16:40:34.999Z</time></trkpt><trkpt lat="43.95419874658137" lon="4.487122567590277"><ele>32.0</ele><time>2026-04-06T16:40:36.999Z</time></trkpt><trkpt lat="43.954230595597195" lon="4.487016605885205"><ele>32.0</ele><time>2026-04-06T16:40:39.999Z</time></trkpt><trkpt lat="43.954255001079325" lon="4.4869210583584245"><ele>32.0</ele><time>2026-04-06T16:40:41.999Z</time></trkpt><trkpt lat="43.95432541742996" lon="4.486847811967957"><ele>31.999999999999996</ele><time>2026-04-06T16:40:43.999Z</time></trkpt><trkpt lat="43.95441167248613" lon="4.48673586310845"><ele>32.0</ele><time>2026-04-06T16:40:45.999Z</time></trkpt><trkpt lat="43.95444792083766" lon="4.48664670048664"><ele>31.999999999999996</ele><time>2026-04-06T16:40:46.999Z</time></trkpt><trkpt lat="43.95447015332211" lon="4.4865593727612545"><ele>32.0</ele><time>2026-04-06T16:40:47.999Z</time></trkpt><trkpt lat="43.954511600863405" lon="4.486391241650633"><ele>32.0</ele><time>2026-04-06T16:40:49.999Z</time></trkpt><trkpt lat="43.954540420348415" lon="4.486302881934495"><ele>32.0</ele><time>2026-04-06T16:40:50.999Z</time></trkpt><trkpt lat="43.95455580296676" lon="4.486189806725337"><ele>31.999999999999996</ele><time>2026-04-06T16:40:51.999Z</time></trkpt><trkpt lat="43.954566840806436" lon="4.486083497037199"><ele>32.0</ele><time>2026-04-06T16:40:52.999Z</time></trkpt><trkpt lat="43.95457807549783" lon="4.485987762377103"><ele>31.999999999999996</ele><time>2026-04-06T16:40:53.999Z</time></trkpt><trkpt lat="43.95460040625195" lon="4.4858199353939385"><ele>32.0</ele><time>2026-04-06T16:40:55.999Z</time></trkpt><trkpt lat="43.95459717966409" lon="4.48572176817452"><ele>32.0</ele><time>2026-04-06T16:40:56.999Z</time></trkpt><trkpt lat="43.954605188250504" lon="4.485620627465408"><ele>32.0</ele><time>2026-04-06T16:40:57.999Z</time></trkpt><trkpt lat="43.95461862336784" lon="4.4855253332720455"><ele>31.999999999999996</ele><time>2026-04-06T16:40:58.999Z</time></trkpt><trkpt lat="43.95463170476962" lon="4.485379159788088"><ele>32.0</ele><time>2026-04-06T16:41:00.999Z</time></trkpt><trkpt lat="43.95462821751039" lon="4.48528429773066"><ele>32.0</ele><time>2026-04-06T16:41:02.999Z</time></trkpt><trkpt lat="43.95460366348308" lon="4.485175610047853"><ele>32.0</ele><time>2026-04-06T16:41:45Z</time></trkpt><trkpt lat="43.95459134704771" lon="4.485076631808487"><ele>32.0</ele><time>2026-04-06T16:41:47Z</time></trkpt><trkpt lat="43.95459670009897" lon="4.484937966245523"><ele>32.0</ele><time>2026-04-06T16:41:49Z</time></trkpt><trkpt lat="43.95458216543671" lon="4.4847977590529995"><ele>32.0</ele><time>2026-04-06T16:41:51Z</time></trkpt><trkpt lat="43.95457727716628" lon="4.484657599600931"><ele>31.666666666666664</ele><time>2026-04-06T16:41:53Z</time></trkpt><trkpt lat="43.954521068346644" lon="4.484502944937762"><ele>31.333333333333332</ele><time>2026-04-06T16:41:55Z</time></trkpt><trkpt lat="43.95447997180649" lon="4.484421313571528"><ele>31.0</ele><time>2026-04-06T16:41:56Z</time></trkpt><trkpt lat="43.95443682659279" lon="4.4843446717216935"><ele>30.666666666666664</ele><time>2026-04-06T16:41:57Z</time></trkpt><trkpt lat="43.95437849908066" lon="4.484271214956593"><ele>30.333333333333332</ele><time>2026-04-06T16:41:58Z</time></trkpt><trkpt lat="43.95431182818532" lon="4.484214440474234"><ele>30.0</ele><time>2026-04-06T16:41:59Z</time></trkpt><trkpt lat="43.954241408028984" lon="4.484166047055767"><ele>30.857142857142858</ele><time>2026-04-06T16:42:00Z</time></trkpt><trkpt lat="43.954168936974014" lon="4.484121471616951"><ele>31.714285714285715</ele><time>2026-04-06T16:42:01Z</time></trkpt><trkpt lat="43.95410169355932" lon="4.484088070530868"><ele>32.57142857142857</ele><time>2026-04-06T16:42:02Z</time></trkpt><trkpt lat="43.95403278854582" lon="4.484057924593279"><ele>33.42857142857143</ele><time>2026-04-06T16:42:03Z</time></trkpt><trkpt lat="43.953968497440066" lon="4.484024625140756"><ele>34.285714285714285</ele><time>2026-04-06T16:42:04Z</time></trkpt><trkpt lat="43.95390127022809" lon="4.484011106667935"><ele>35.142857142857146</ele><time>2026-04-06T16:42:05Z</time></trkpt><trkpt lat="43.953860925608446" lon="4.483932028007833"><ele>36.0</ele><time>2026-04-06T16:42:06Z</time></trkpt><trkpt lat="43.953801939801565" lon="4.483883145949921"><ele>36.0</ele><time>2026-04-06T16:42:07Z</time></trkpt><trkpt lat="43.95369147567998" lon="4.483822756742927"><ele>36.0</ele><time>2026-04-06T16:42:09Z</time></trkpt><trkpt lat="43.95362265368447" lon="4.483804057596334"><ele>36.0</ele><time>2026-04-06T16:42:10Z</time></trkpt><trkpt lat="43.953508176772125" lon="4.483775039048342"><ele>36.0</ele><time>2026-04-06T16:42:12Z</time></trkpt><trkpt lat="43.953435797881276" lon="4.483753211367265"><ele>36.0</ele><time>2026-04-06T16:42:13Z</time></trkpt><trkpt lat="43.953364348579896" lon="4.483730526638395"><ele>36.666666666666664</ele><time>2026-04-06T16:42:14Z</time></trkpt><trkpt lat="43.95330474641757" lon="4.483702063492819"><ele>37.333333333333336</ele><time>2026-04-06T16:42:15Z</time></trkpt><trkpt lat="43.953205637573575" lon="4.483643388995163"><ele>38.0</ele><time>2026-04-06T16:42:17Z</time></trkpt><trkpt lat="43.953136272270804" lon="4.48357446051447"><ele>38.66666666666667</ele><time>2026-04-06T16:42:19Z</time></trkpt><trkpt lat="43.953076184796956" lon="4.483520937448027"><ele>39.333333333333336</ele><time>2026-04-06T16:42:21Z</time></trkpt><trkpt lat="43.95300299848566" lon="4.483478474268169"><ele>40.0</ele><time>2026-04-06T16:42:24Z</time></trkpt><trkpt lat="43.95293127817086" lon="4.483585517603487"><ele>40.0</ele><time>2026-04-06T16:42:29Z</time></trkpt><trkpt lat="43.95292064248252" lon="4.483693099359434"><ele>40.0</ele><time>2026-04-06T16:42:30Z</time></trkpt><trkpt lat="43.95289997452035" lon="4.483802124715545"><ele>40.0</ele><time>2026-04-06T16:42:31Z</time></trkpt><trkpt lat="43.95287273330946" lon="4.483923923539447"><ele>40.0</ele><time>2026-04-06T16:42:32Z</time></trkpt><trkpt lat="43.952848997806406" lon="4.484056493839376"><ele>40.0</ele><time>2026-04-06T16:42:33Z</time></trkpt><trkpt lat="43.95282169669611" lon="4.484198601783886"><ele>40.8</ele><time>2026-04-06T16:42:34Z</time></trkpt><trkpt lat="43.95279486004824" lon="4.484357059251444"><ele>41.6</ele><time>2026-04-06T16:42:35Z</time></trkpt><trkpt lat="43.95276443296412" lon="4.484510087083561"><ele>42.400000000000006</ele><time>2026-04-06T16:42:36Z</time></trkpt><trkpt lat="43.95273745447445" lon="4.484647796631043"><ele>43.2</ele><time>2026-04-06T16:42:37Z</time></trkpt><trkpt lat="43.952714795874854" lon="4.484783185375162"><ele>44.0</ele><time>2026-04-06T16:42:38Z</time></trkpt><trkpt lat="43.95268681263512" lon="4.484912105233347"><ele>44.0</ele><time>2026-04-06T16:42:39Z</time></trkpt><trkpt lat="43.95265519006481" lon="4.485057504735609"><ele>44.0</ele><time>2026-04-06T16:42:40Z</time></trkpt><trkpt lat="43.95262522873742" lon="4.485204432053929"><ele>44.0</ele><time>2026-04-06T16:42:41Z</time></trkpt><trkpt lat="43.95260044996306" lon="4.4853389631474405"><ele>44.0</ele><time>2026-04-06T16:42:42Z</time></trkpt><trkpt lat="43.952575518698" lon="4.48546446063049"><ele>44.0</ele><time>2026-04-06T16:42:43Z</time></trkpt><trkpt lat="43.952550033891754" lon="4.485588864837987"><ele>45.0</ele><time>2026-04-06T16:42:44Z</time></trkpt><trkpt lat="43.9525181174479" lon="4.485729599320368"><ele>46.0</ele><time>2026-04-06T16:42:45Z</time></trkpt><trkpt lat="43.95248288557585" lon="4.485879219291269"><ele>47.0</ele><time>2026-04-06T16:42:46Z</time></trkpt><trkpt lat="43.9524205748391" lon="4.48601583433728"><ele>48.0</ele><time>2026-04-06T16:42:47Z</time></trkpt><trkpt lat="43.95233405785073" lon="4.4861325027583066"><ele>48.0</ele><time>2026-04-06T16:42:48Z</time></trkpt><trkpt lat="43.952233582038716" lon="4.486213643356266"><ele>48.0</ele><time>2026-04-06T16:42:49Z</time></trkpt><trkpt lat="43.95212256788134" lon="4.486261685745859"><ele>48.0</ele><time>2026-04-06T16:42:50Z</time></trkpt><trkpt lat="43.952004708338706" lon="4.4862433489317395"><ele>48.0</ele><time>2026-04-06T16:42:51Z</time></trkpt><trkpt lat="43.95189012159647" lon="4.486226257434785"><ele>48.0</ele><time>2026-04-06T16:42:52Z</time></trkpt><trkpt lat="43.95177781046368" lon="4.486165140226076"><ele>48.0</ele><time>2026-04-06T16:42:53Z</time></trkpt><trkpt lat="43.95167754954963" lon="4.4860831224604745"><ele>48.0</ele><time>2026-04-06T16:42:54Z</time></trkpt><trkpt lat="43.95157667084086" lon="4.485996516485581"><ele>48.0</ele><time>2026-04-06T16:42:55Z</time></trkpt><trkpt lat="43.95147825825932" lon="4.4859070527255955"><ele>49.25</ele><time>2026-04-06T16:42:56Z</time></trkpt><trkpt lat="43.951378943765256" lon="4.48581573320809"><ele>50.5</ele><time>2026-04-06T16:42:57Z</time></trkpt><trkpt lat="43.951284803352806" lon="4.485728272768827"><ele>51.75</ele><time>2026-04-06T16:42:58Z</time></trkpt><trkpt lat="43.95117940330391" lon="4.485639964164266"><ele>53.0</ele><time>2026-04-06T16:42:59Z</time></trkpt><trkpt lat="43.95107968438565" lon="4.485552008660958"><ele>53.0</ele><time>2026-04-06T16:43:00Z</time></trkpt><trkpt lat="43.95097902741931" lon="4.485464714454891"><ele>53.0</ele><time>2026-04-06T16:43:01Z</time></trkpt><trkpt lat="43.95087527384442" lon="4.485387910180026"><ele>53.0</ele><time>2026-04-06T16:43:02Z</time></trkpt><trkpt lat="43.95076406125214" lon="4.4853378757208215"><ele>53.0</ele><time>2026-04-06T16:43:03Z</time></trkpt><trkpt lat="43.9506450912321" lon="4.485316114093566"><ele>55.0</ele><time>2026-04-06T16:43:04Z</time></trkpt><trkpt lat="43.95052007994032" lon="4.485308491684473"><ele>57.0</ele><time>2026-04-06T16:43:04.999Z</time></trkpt><trkpt lat="43.950405283899954" lon="4.485290357096822"><ele>59.0</ele><time>2026-04-06T16:43:05.999Z</time></trkpt><trkpt lat="43.950285258931416" lon="4.485266026734084"><ele>61.0</ele><time>2026-04-06T16:43:06.999Z</time></trkpt><trkpt lat="43.95016758579183" lon="4.485233254595723"><ele>61.0</ele><time>2026-04-06T16:43:07.999Z</time></trkpt><trkpt lat="43.95005639627354" lon="4.485198392205186"><ele>61.0</ele><time>2026-04-06T16:43:08.999Z</time></trkpt><trkpt lat="43.94994106388146" lon="4.485162546933099"><ele>61.0</ele><time>2026-04-06T16:43:09.999Z</time></trkpt><trkpt lat="43.94982342034471" lon="4.485128488685101"><ele>61.0</ele><time>2026-04-06T16:43:10.999Z</time></trkpt><trkpt lat="43.94970815106038" lon="4.485107082667103"><ele>62.0</ele><time>2026-04-06T16:43:11.999Z</time></trkpt><trkpt lat="43.94959148699977" lon="4.485082869912648"><ele>63.0</ele><time>2026-04-06T16:43:12.999Z</time></trkpt><trkpt lat="43.94947637006461" lon="4.48505356148336"><ele>64.0</ele><time>2026-04-06T16:43:13.999Z</time></trkpt><trkpt lat="43.949360901608145" lon="4.485017489274051"><ele>65.0</ele><time>2026-04-06T16:43:14.999Z</time></trkpt><trkpt lat="43.94924933412008" lon="4.484968368826307"><ele>65.0</ele><time>2026-04-06T16:43:15.999Z</time></trkpt><trkpt lat="43.949145063724295" lon="4.484905846471577"><ele>65.0</ele><time>2026-04-06T16:43:16.999Z</time></trkpt><trkpt lat="43.949039558912624" lon="4.48483783496172"><ele>65.0</ele><time>2026-04-06T16:43:17.999Z</time></trkpt><trkpt lat="43.948927041584206" lon="4.484767271919184"><ele>65.0</ele><time>2026-04-06T16:43:18.999Z</time></trkpt><trkpt lat="43.94882405338599" lon="4.484706951783941"><ele>65.0</ele><time>2026-04-06T16:43:19.999Z</time></trkpt><trkpt lat="43.948715996435475" lon="4.484647651250504"><ele>65.0</ele><time>2026-04-06T16:43:20.999Z</time></trkpt><trkpt lat="43.94860336302524" lon="4.484593501731359"><ele>65.0</ele><time>2026-04-06T16:43:21.999Z</time></trkpt><trkpt lat="43.94848581831779" lon="4.484569631612553"><ele>65.0</ele><time>2026-04-06T16:43:22.999Z</time></trkpt><trkpt lat="43.94837292409929" lon="4.484570077512103"><ele>70.5</ele><time>2026-04-06T16:43:23.999Z</time></trkpt><trkpt lat="43.94825507506512" lon="4.484573655735907"><ele>76.0</ele><time>2026-04-06T16:43:24.999Z</time></trkpt><trkpt lat="43.94813758905892" lon="4.484569338961992"><ele>81.5</ele><time>2026-04-06T16:43:25.999Z</time></trkpt><trkpt lat="43.94802586878459" lon="4.484558987615257"><ele>87.0</ele><time>2026-04-06T16:43:26.999Z</time></trkpt><trkpt lat="43.947907609676804" lon="4.484541502677112"><ele>87.0</ele><time>2026-04-06T16:43:27.999Z</time></trkpt><trkpt lat="43.94779419877985" lon="4.4844985587328265"><ele>87.0</ele><time>2026-04-06T16:43:28.999Z</time></trkpt><trkpt lat="43.947696788742576" lon="4.484411623459247"><ele>87.0</ele><time>2026-04-06T16:43:29.999Z</time></trkpt><trkpt lat="43.94764085190693" lon="4.484269254680799"><ele>87.0</ele><time>2026-04-06T16:43:30.999Z</time></trkpt><trkpt lat="43.947570146203084" lon="4.484140982144507"><ele>83.5</ele><time>2026-04-06T16:43:31.999Z</time></trkpt><trkpt lat="43.94750707709872" lon="4.484005263382647"><ele>80.0</ele><time>2026-04-06T16:43:32.999Z</time></trkpt><trkpt lat="43.9474276127574" lon="4.4838968904847185"><ele>76.5</ele><time>2026-04-06T16:43:33.999Z</time></trkpt><trkpt lat="43.94732105777636" lon="4.4838194421824955"><ele>73.0</ele><time>2026-04-06T16:43:34.999Z</time></trkpt><trkpt lat="43.94720431101708" lon="4.483775435603874"><ele>73.0</ele><time>2026-04-06T16:43:35.999Z</time></trkpt><trkpt lat="43.9470825232996" lon="4.483781439151136"><ele>73.0</ele><time>2026-04-06T16:43:36.999Z</time></trkpt><trkpt lat="43.94696104689906" lon="4.483798617566411"><ele>73.0</ele><time>2026-04-06T16:43:37.999Z</time></trkpt><trkpt lat="43.94684788058735" lon="4.483801896325976"><ele>73.0</ele><time>2026-04-06T16:43:38.999Z</time></trkpt><trkpt lat="43.94673179381159" lon="4.483773051349342"><ele>75.25</ele><time>2026-04-06T16:43:39.999Z</time></trkpt><trkpt lat="43.946625393558215" lon="4.483699864413893"><ele>77.5</ele><time>2026-04-06T16:43:41Z</time></trkpt><trkpt lat="43.94654067093034" lon="4.483586939350238"><ele>79.75</ele><time>2026-04-06T16:43:42Z</time></trkpt><trkpt lat="43.946473507255305" lon="4.483449564730459"><ele>82.0</ele><time>2026-04-06T16:43:43Z</time></trkpt><trkpt lat="43.94644538195107" lon="4.483292067921084"><ele>82.0</ele><time>2026-04-06T16:43:44Z</time></trkpt><trkpt lat="43.946438657805544" lon="4.483138189665991"><ele>82.0</ele><time>2026-04-06T16:43:45Z</time></trkpt><trkpt lat="43.94644726833969" lon="4.48297398244262"><ele>82.0</ele><time>2026-04-06T16:43:46Z</time></trkpt><trkpt lat="43.946439044906356" lon="4.482807734923026"><ele>82.0</ele><time>2026-04-06T16:43:47Z</time></trkpt><trkpt lat="43.94644036029945" lon="4.482650520528561"><ele>87.25</ele><time>2026-04-06T16:43:48Z</time></trkpt><trkpt lat="43.94640847195823" lon="4.482487487231497"><ele>92.5</ele><time>2026-04-06T16:43:49Z</time></trkpt><trkpt lat="43.94635405457228" lon="4.482348905905142"><ele>97.75</ele><time>2026-04-06T16:43:50Z</time></trkpt><trkpt lat="43.94628738160235" lon="4.48221966330681"><ele>103.0</ele><time>2026-04-06T16:43:51Z</time></trkpt><trkpt lat="43.94620938397647" lon="4.482099755916706"><ele>100.0</ele><time>2026-04-06T16:43:52Z</time></trkpt><trkpt lat="43.94611339746671" lon="4.4819973085124385"><ele>97.0</ele><time>2026-04-06T16:43:53Z</time></trkpt><trkpt lat="43.94601977726569" lon="4.481904105464107"><ele>94.0</ele><time>2026-04-06T16:43:54Z</time></trkpt><trkpt lat="43.945933088285706" lon="4.481808222340645"><ele>91.0</ele><time>2026-04-06T16:43:55Z</time></trkpt><trkpt lat="43.94584295367834" lon="4.481713505624117"><ele>91.0</ele><time>2026-04-06T16:43:56Z</time></trkpt><trkpt lat="43.945749128729226" lon="4.481620364441228"><ele>91.0</ele><time>2026-04-06T16:43:57Z</time></trkpt><trkpt lat="43.945660797587685" lon="4.481524567299827"><ele>91.0</ele><time>2026-04-06T16:43:58Z</time></trkpt><trkpt lat="43.945565904098764" lon="4.481439473132427"><ele>91.0</ele><time>2026-04-06T16:43:59Z</time></trkpt><trkpt lat="43.94546107805954" lon="4.48137447365277"><ele>91.0</ele><time>2026-04-06T16:44:00Z</time></trkpt><trkpt lat="43.945347606752925" lon="4.481355519603598"><ele>91.0</ele><time>2026-04-06T16:44:01Z</time></trkpt><trkpt lat="43.94522778900821" lon="4.481397055415615"><ele>91.0</ele><time>2026-04-06T16:44:02Z</time></trkpt><trkpt lat="43.945119250609096" lon="4.481483365976392"><ele>91.0</ele><time>2026-04-06T16:44:03Z</time></trkpt><trkpt lat="43.94503582547802" lon="4.481591447969358"><ele>89.8</ele><time>2026-04-06T16:44:04Z</time></trkpt><trkpt lat="43.94496039637084" lon="4.481693867146735"><ele>88.6</ele><time>2026-04-06T16:44:05Z</time></trkpt><trkpt lat="43.94486475609521" lon="4.4817507773029694"><ele>87.4</ele><time>2026-04-06T16:44:06Z</time></trkpt><trkpt lat="43.944754994212914" lon="4.481745522801967"><ele>86.2</ele><time>2026-04-06T16:44:07Z</time></trkpt><trkpt lat="43.944661311826174" lon="4.481676549429348"><ele>85.0</ele><time>2026-04-06T16:44:08Z</time></trkpt><trkpt lat="43.944615680251395" lon="4.481552339431848"><ele>85.0</ele><time>2026-04-06T16:44:09Z</time></trkpt><trkpt lat="43.94457133411044" lon="4.481434965955002"><ele>85.0</ele><time>2026-04-06T16:44:10Z</time></trkpt><trkpt lat="43.94456437292368" lon="4.4812872869226315"><ele>85.0</ele><time>2026-04-06T16:44:11Z</time></trkpt><trkpt lat="43.9445583121797" lon="4.481139870789736"><ele>85.0</ele><time>2026-04-06T16:44:12Z</time></trkpt><trkpt lat="43.94454051128626" lon="4.4809938379714085"><ele>85.0</ele><time>2026-04-06T16:44:13Z</time></trkpt><trkpt lat="43.94451105734168" lon="4.480847819336144"><ele>86.6</ele><time>2026-04-06T16:44:14Z</time></trkpt><trkpt lat="43.94445934349532" lon="4.480736542287217"><ele>88.2</ele><time>2026-04-06T16:44:15Z</time></trkpt><trkpt lat="43.94437970305689" lon="4.480657943716438"><ele>89.80000000000001</ele><time>2026-04-06T16:44:16Z</time></trkpt><trkpt lat="43.944278201765734" lon="4.48060083303469"><ele>91.4</ele><time>2026-04-06T16:44:17Z</time></trkpt><trkpt lat="43.944165351533975" lon="4.480585286146609"><ele>93.0</ele><time>2026-04-06T16:44:18Z</time></trkpt><trkpt lat="43.944059765084035" lon="4.480630869909763"><ele>93.0</ele><time>2026-04-06T16:44:19Z</time></trkpt><trkpt lat="43.943968669227516" lon="4.480701308002738"><ele>93.0</ele><time>2026-04-06T16:44:20Z</time></trkpt><trkpt lat="43.94386673436295" lon="4.480754299257507"><ele>93.0</ele><time>2026-04-06T16:44:21Z</time></trkpt><trkpt lat="43.94376136160313" lon="4.480763400278602"><ele>93.0</ele><time>2026-04-06T16:44:22Z</time></trkpt><trkpt lat="43.943648789913205" lon="4.4807436097635"><ele>93.0</ele><time>2026-04-06T16:44:23Z</time></trkpt><trkpt lat="43.94353648644103" lon="4.480696567668856"><ele>93.0</ele><time>2026-04-06T16:44:24Z</time></trkpt><trkpt lat="43.94342917033898" lon="4.480648349736425"><ele>93.0</ele><time>2026-04-06T16:44:25Z</time></trkpt><trkpt lat="43.94331765958998" lon="4.480597960857217"><ele>93.0</ele><time>2026-04-06T16:44:26Z</time></trkpt><trkpt lat="43.9432092061146" lon="4.480545846178187"><ele>93.0</ele><time>2026-04-06T16:44:27Z</time></trkpt><trkpt lat="43.94310129577115" lon="4.480503120504076"><ele>93.75</ele><time>2026-04-06T16:44:28Z</time></trkpt><trkpt lat="43.94298935881613" lon="4.480461353449658"><ele>94.5</ele><time>2026-04-06T16:44:29Z</time></trkpt><trkpt lat="43.94287558122542" lon="4.480417098028652"><ele>95.25</ele><time>2026-04-06T16:44:30Z</time></trkpt><trkpt lat="43.942764435991826" lon="4.480373658872619"><ele>96.0</ele><time>2026-04-06T16:44:31Z</time></trkpt><trkpt lat="43.94265137248068" lon="4.480334148847854"><ele>97.5</ele><time>2026-04-06T16:44:32Z</time></trkpt><trkpt lat="43.94253876804857" lon="4.480301227284474"><ele>99.0</ele><time>2026-04-06T16:44:33Z</time></trkpt><trkpt lat="43.942423481731964" lon="4.480258299666944"><ele>100.5</ele><time>2026-04-06T16:44:34Z</time></trkpt><trkpt lat="43.942316458542656" lon="4.480213321513493"><ele>102.0</ele><time>2026-04-06T16:44:35Z</time></trkpt><trkpt lat="43.9422099716635" lon="4.480149617632483"><ele>102.0</ele><time>2026-04-06T16:44:36Z</time></trkpt><trkpt lat="43.94211593812839" lon="4.480058309825487"><ele>102.0</ele><time>2026-04-06T16:44:37Z</time></trkpt><trkpt lat="43.942035120875936" lon="4.47993489794174"><ele>102.0</ele><time>2026-04-06T16:44:38Z</time></trkpt><trkpt lat="43.941976475181235" lon="4.47980143586811"><ele>102.0</ele><time>2026-04-06T16:44:39Z</time></trkpt><trkpt lat="43.94194023349362" lon="4.479637563446498"><ele>103.5</ele><time>2026-04-06T16:44:40Z</time></trkpt><trkpt lat="43.9419153973377" lon="4.479482189224932"><ele>105.0</ele><time>2026-04-06T16:44:41Z</time></trkpt><trkpt lat="43.941887394151266" lon="4.479320635428982"><ele>106.5</ele><time>2026-04-06T16:44:42Z</time></trkpt><trkpt lat="43.94188149104236" lon="4.479157189730921"><ele>108.0</ele><time>2026-04-06T16:44:43Z</time></trkpt><trkpt lat="43.94184965064238" lon="4.478998681464911"><ele>108.0</ele><time>2026-04-06T16:44:44Z</time></trkpt><trkpt lat="43.94180205727417" lon="4.478857196596824"><ele>108.0</ele><time>2026-04-06T16:44:45Z</time></trkpt><trkpt lat="43.941730574666245" lon="4.478730034374929"><ele>108.0</ele><time>2026-04-06T16:44:46Z</time></trkpt><trkpt lat="43.94164329963533" lon="4.4786146940591935"><ele>108.0</ele><time>2026-04-06T16:44:47Z</time></trkpt><trkpt lat="43.941539143168406" lon="4.478531689750828"><ele>108.25</ele><time>2026-04-06T16:44:48Z</time></trkpt><trkpt lat="43.94143344217187" lon="4.478475283486436"><ele>108.5</ele><time>2026-04-06T16:44:49Z</time></trkpt><trkpt lat="43.941315669973335" lon="4.478443017148083"><ele>108.75</ele><time>2026-04-06T16:44:50Z</time></trkpt><trkpt lat="43.941204005960124" lon="4.47842377187067"><ele>109.0</ele><time>2026-04-06T16:44:51Z</time></trkpt><trkpt lat="43.94108004051175" lon="4.4784127492164325"><ele>109.0</ele><time>2026-04-06T16:44:52Z</time></trkpt><trkpt lat="43.94096188519659" lon="4.47839536512476"><ele>109.0</ele><time>2026-04-06T16:44:53Z</time></trkpt><trkpt lat="43.94084684797044" lon="4.478380348239147"><ele>109.0</ele><time>2026-04-06T16:44:54Z</time></trkpt><trkpt lat="43.94073112893245" lon="4.478357921171239"><ele>109.0</ele><time>2026-04-06T16:44:55Z</time></trkpt><trkpt lat="43.940617624593365" lon="4.478334984937786"><ele>109.5</ele><time>2026-04-06T16:44:56Z</time></trkpt><trkpt lat="43.94049992328982" lon="4.47831546238866"><ele>110.0</ele><time>2026-04-06T16:44:57Z</time></trkpt><trkpt lat="43.94038516625903" lon="4.4782944639354545"><ele>110.5</ele><time>2026-04-06T16:44:58Z</time></trkpt><trkpt lat="43.94027503966898" lon="4.478273595376618"><ele>111.0</ele><time>2026-04-06T16:44:59Z</time></trkpt><trkpt lat="43.940158595867" lon="4.4782521707380045"><ele>112.0</ele><time>2026-04-06T16:45:00Z</time></trkpt><trkpt lat="43.94003866067689" lon="4.478235689287253"><ele>113.0</ele><time>2026-04-06T16:45:01Z</time></trkpt><trkpt lat="43.93992561794485" lon="4.478213221946601"><ele>114.0</ele><time>2026-04-06T16:45:02Z</time></trkpt><trkpt lat="43.93981156759096" lon="4.478189458406991"><ele>115.0</ele><time>2026-04-06T16:45:03Z</time></trkpt><trkpt lat="43.93969638963761" lon="4.478166785630692"><ele>115.0</ele><time>2026-04-06T16:45:04Z</time></trkpt><trkpt lat="43.939580945864385" lon="4.478147712564676"><ele>115.0</ele><time>2026-04-06T16:45:05Z</time></trkpt><trkpt lat="43.939468412122594" lon="4.478129843180847"><ele>115.0</ele><time>2026-04-06T16:45:05.999Z</time></trkpt><trkpt lat="43.93935068196901" lon="4.478102123361195"><ele>115.0</ele><time>2026-04-06T16:45:06.999Z</time></trkpt><trkpt lat="43.939232069834375" lon="4.47808524905527"><ele>116.0</ele><time>2026-04-06T16:45:07.999Z</time></trkpt><trkpt lat="43.93911598770433" lon="4.478066073125782"><ele>117.0</ele><time>2026-04-06T16:45:08.999Z</time></trkpt><trkpt lat="43.93900062266316" lon="4.478064115339108"><ele>118.0</ele><time>2026-04-06T16:45:09.999Z</time></trkpt><trkpt lat="43.938883955179946" lon="4.478078482085543"><ele>119.0</ele><time>2026-04-06T16:45:10.999Z</time></trkpt><trkpt lat="43.938766229867674" lon="4.4781120318836"><ele>119.0</ele><time>2026-04-06T16:45:11.999Z</time></trkpt><trkpt lat="43.9386527640617" lon="4.4781427754973535"><ele>119.0</ele><time>2026-04-06T16:45:12.999Z</time></trkpt><trkpt lat="43.93853681024934" lon="4.478173810021196"><ele>119.0</ele><time>2026-04-06T16:45:13.999Z</time></trkpt><trkpt lat="43.93842501293217" lon="4.478207029224057"><ele>119.0</ele><time>2026-04-06T16:45:14.999Z</time></trkpt><trkpt lat="43.93830763659767" lon="4.478246251570109"><ele>119.5</ele><time>2026-04-06T16:45:15.999Z</time></trkpt><trkpt lat="43.93819412020544" lon="4.478276075686097"><ele>120.0</ele><time>2026-04-06T16:45:16.999Z</time></trkpt><trkpt lat="43.938080325839415" lon="4.478285919747992"><ele>120.5</ele><time>2026-04-06T16:45:17.999Z</time></trkpt><trkpt lat="43.93796340916505" lon="4.478269662515684"><ele>121.0</ele><time>2026-04-06T16:45:18.999Z</time></trkpt><trkpt lat="43.93785399999836" lon="4.478213517945391"><ele>121.0</ele><time>2026-04-06T16:45:19.999Z</time></trkpt><trkpt lat="43.93773922852425" lon="4.478165027416239"><ele>121.0</ele><time>2026-04-06T16:45:20.999Z</time></trkpt><trkpt lat="43.93763154927308" lon="4.478112841281175"><ele>121.0</ele><time>2026-04-06T16:45:21.999Z</time></trkpt><trkpt lat="43.937526470072406" lon="4.4780486179620205"><ele>121.0</ele><time>2026-04-06T16:45:22.999Z</time></trkpt><trkpt lat="43.93743083885729" lon="4.477962310146175"><ele>121.5</ele><time>2026-04-06T16:45:23.999Z</time></trkpt><trkpt lat="43.93736238945566" lon="4.477842537285487"><ele>122.0</ele><time>2026-04-06T16:45:24.999Z</time></trkpt><trkpt lat="43.9373026081136" lon="4.477707520421919"><ele>122.5</ele><time>2026-04-06T16:45:25.999Z</time></trkpt><trkpt lat="43.9372456586119" lon="4.477562159524283"><ele>123.0</ele><time>2026-04-06T16:45:26.999Z</time></trkpt><trkpt lat="43.937208036460966" lon="4.477416374227755"><ele>123.0</ele><time>2026-04-06T16:45:27.999Z</time></trkpt><trkpt lat="43.937210849688995" lon="4.477256221615397"><ele>123.0</ele><time>2026-04-06T16:45:28.999Z</time></trkpt><trkpt lat="43.93723608090199" lon="4.477097848622377"><ele>123.0</ele><time>2026-04-06T16:45:29.999Z</time></trkpt><trkpt lat="43.9373031577187" lon="4.476962661727171"><ele>123.0</ele><time>2026-04-06T16:45:30.999Z</time></trkpt><trkpt lat="43.93733695265928" lon="4.476833047884806"><ele>124.2</ele><time>2026-04-06T16:45:31.999Z</time></trkpt><trkpt lat="43.93733831820228" lon="4.476704473382792"><ele>125.4</ele><time>2026-04-06T16:45:32.999Z</time></trkpt><trkpt lat="43.93730739965338" lon="4.476570102351278"><ele>126.60000000000001</ele><time>2026-04-06T16:45:33.999Z</time></trkpt><trkpt lat="43.93727127928511" lon="4.476427107396595"><ele>127.80000000000001</ele><time>2026-04-06T16:45:34.999Z</time></trkpt><trkpt lat="43.93722786221616" lon="4.476282670196808"><ele>129.0</ele><time>2026-04-06T16:45:35.999Z</time></trkpt><trkpt lat="43.93715751740076" lon="4.476162020065813"><ele>130.5</ele><time>2026-04-06T16:45:36.999Z</time></trkpt><trkpt lat="43.9370710186772" lon="4.476055878428576"><ele>132.0</ele><time>2026-04-06T16:45:37.999Z</time></trkpt><trkpt lat="43.936988048101284" lon="4.475937693843715"><ele>133.5</ele><time>2026-04-06T16:45:38.999Z</time></trkpt><trkpt lat="43.936932725025066" lon="4.475802711432868"><ele>135.0</ele><time>2026-04-06T16:45:39.999Z</time></trkpt><trkpt lat="43.93690663116383" lon="4.475655306007069"><ele>135.0</ele><time>2026-04-06T16:45:40.999Z</time></trkpt><trkpt lat="43.936919950320075" lon="4.475491206971358"><ele>135.0</ele><time>2026-04-06T16:45:41.999Z</time></trkpt><trkpt lat="43.93695739840341" lon="4.475338272563066"><ele>135.0</ele><time>2026-04-06T16:45:42.999Z</time></trkpt><trkpt lat="43.937005454742696" lon="4.475185294952443"><ele>135.0</ele><time>2026-04-06T16:45:43.999Z</time></trkpt><trkpt lat="43.93704395799485" lon="4.475036999762289"><ele>135.2</ele><time>2026-04-06T16:45:44.999Z</time></trkpt><trkpt lat="43.937047903218904" lon="4.474899653385325"><ele>135.4</ele><time>2026-04-06T16:45:45.999Z</time></trkpt><trkpt lat="43.93701148617537" lon="4.474772510546528"><ele>135.6</ele><time>2026-04-06T16:45:47Z</time></trkpt><trkpt lat="43.93693962420041" lon="4.474659531055876"><ele>135.8</ele><time>2026-04-06T16:45:48Z</time></trkpt><trkpt lat="43.93685542951146" lon="4.474560896408975"><ele>136.0</ele><time>2026-04-06T16:45:49Z</time></trkpt><trkpt lat="43.93676286633166" lon="4.474457242336492"><ele>136.0</ele><time>2026-04-06T16:45:50Z</time></trkpt><trkpt lat="43.93667437021214" lon="4.474347852485203"><ele>136.0</ele><time>2026-04-06T16:45:51Z</time></trkpt><trkpt lat="43.9365852031022" lon="4.474246300609557"><ele>136.0</ele><time>2026-04-06T16:45:52Z</time></trkpt><trkpt lat="43.93650317852843" lon="4.474144286348468"><ele>136.0</ele><time>2026-04-06T16:45:53Z</time></trkpt><trkpt lat="43.93641580171373" lon="4.474034261069623"><ele>136.0</ele><time>2026-04-06T16:45:54Z</time></trkpt><trkpt lat="43.93633055168783" lon="4.473925748688578"><ele>136.0</ele><time>2026-04-06T16:45:55Z</time></trkpt><trkpt lat="43.9362495125588" lon="4.473801842394744"><ele>136.0</ele><time>2026-04-06T16:45:56Z</time></trkpt><trkpt lat="43.93617315986753" lon="4.473677749160399"><ele>136.0</ele><time>2026-04-06T16:45:57Z</time></trkpt><trkpt lat="43.93612779344907" lon="4.473529124983131"><ele>140.25</ele><time>2026-04-06T16:45:58Z</time></trkpt><trkpt lat="43.93611197589877" lon="4.473366608979708"><ele>144.5</ele><time>2026-04-06T16:45:59Z</time></trkpt><trkpt lat="43.93611015970476" lon="4.473210758685333"><ele>148.75</ele><time>2026-04-06T16:46:00Z</time></trkpt><trkpt lat="43.936088839977955" lon="4.473047494400853"><ele>153.0</ele><time>2026-04-06T16:46:01Z</time></trkpt><trkpt lat="43.93604364563045" lon="4.4729076132979415"><ele>151.5</ele><time>2026-04-06T16:46:02Z</time></trkpt><trkpt lat="43.93597086279337" lon="4.472783151291955"><ele>150.0</ele><time>2026-04-06T16:46:03Z</time></trkpt><trkpt lat="43.93587101832162" lon="4.4726851289311975"><ele>148.5</ele><time>2026-04-06T16:46:04Z</time></trkpt><trkpt lat="43.93576964879284" lon="4.47260240613809"><ele>147.0</ele><time>2026-04-06T16:46:05Z</time></trkpt><trkpt lat="43.93567010506498" lon="4.472521392792106"><ele>147.0</ele><time>2026-04-06T16:46:06Z</time></trkpt><trkpt lat="43.935571543585425" lon="4.47243686485765"><ele>147.0</ele><time>2026-04-06T16:46:07Z</time></trkpt><trkpt lat="43.935470635154736" lon="4.472343129445388"><ele>147.0</ele><time>2026-04-06T16:46:08Z</time></trkpt><trkpt lat="43.935373125433806" lon="4.472258780366346"><ele>147.0</ele><time>2026-04-06T16:46:09Z</time></trkpt><trkpt lat="43.9352712241353" lon="4.472179689653318"><ele>147.0</ele><time>2026-04-06T16:46:10Z</time></trkpt><trkpt lat="43.935159373906245" lon="4.472132219422207"><ele>147.0</ele><time>2026-04-06T16:46:11Z</time></trkpt><trkpt lat="43.93504405075581" lon="4.472112294320465"><ele>147.0</ele><time>2026-04-06T16:46:12Z</time></trkpt><trkpt lat="43.93494766242846" lon="4.472142503327467"><ele>147.0</ele><time>2026-04-06T16:46:13Z</time></trkpt><trkpt lat="43.93487608173427" lon="4.472200380919237"><ele>147.0</ele><time>2026-04-06T16:46:14Z</time></trkpt><trkpt lat="43.93486002126909" lon="4.472337335182805"><ele>147.2</ele><time>2026-04-06T16:46:15Z</time></trkpt><trkpt lat="43.93487245329569" lon="4.472477942127578"><ele>147.39999999999998</ele><time>2026-04-06T16:46:16Z</time></trkpt><trkpt lat="43.934909952054916" lon="4.472615844395722"><ele>147.60000000000002</ele><time>2026-04-06T16:46:17Z</time></trkpt><trkpt lat="43.93493693124064" lon="4.4727426828014805"><ele>147.8</ele><time>2026-04-06T16:46:18Z</time></trkpt><trkpt lat="43.934966599204685" lon="4.4728821620799994"><ele>148.0</ele><time>2026-04-06T16:46:19Z</time></trkpt><trkpt lat="43.93498998202987" lon="4.472992092759061"><ele>148.0</ele><time>2026-04-06T16:46:20Z</time></trkpt><trkpt lat="43.93496569555922" lon="4.473089338775748"><ele>148.0</ele><time>2026-04-06T16:46:21Z</time></trkpt><trkpt lat="43.93487239511583" lon="4.473172189676458"><ele>148.0</ele><time>2026-04-06T16:46:22Z</time></trkpt><trkpt lat="43.934765893762595" lon="4.473228975921025"><ele>148.0</ele><time>2026-04-06T16:46:23Z</time></trkpt><trkpt lat="43.934663715616466" lon="4.473286338173212"><ele>148.0</ele><time>2026-04-06T16:46:24Z</time></trkpt><trkpt lat="43.9345648506875" lon="4.473360485893631"><ele>148.0</ele><time>2026-04-06T16:46:25Z</time></trkpt><trkpt lat="43.934470091380575" lon="4.47344187020081"><ele>148.0</ele><time>2026-04-06T16:46:26Z</time></trkpt><trkpt lat="43.93437544748422" lon="4.473527374268987"><ele>148.0</ele><time>2026-04-06T16:46:27Z</time></trkpt><trkpt lat="43.934285862542076" lon="4.473630472568238"><ele>148.0</ele><time>2026-04-06T16:46:28Z</time></trkpt><trkpt lat="43.93421055189845" lon="4.473752782695089"><ele>149.8</ele><time>2026-04-06T16:46:29Z</time></trkpt><trkpt lat="43.934141801240685" lon="4.473881728236122"><ele>151.60000000000002</ele><time>2026-04-06T16:46:30Z</time></trkpt><trkpt lat="43.93405721241753" lon="4.473991620598586"><ele>153.39999999999998</ele><time>2026-04-06T16:46:31Z</time></trkpt><trkpt lat="43.93396335664289" lon="4.474055742592599"><ele>155.2</ele><time>2026-04-06T16:46:32Z</time></trkpt><trkpt lat="43.93386658460854" lon="4.474057475172535"><ele>157.0</ele><time>2026-04-06T16:46:33Z</time></trkpt><trkpt lat="43.933770327236275" lon="4.474003564446354"><ele>157.0</ele><time>2026-04-06T16:46:34Z</time></trkpt><trkpt lat="43.93368075278571" lon="4.473910417376576"><ele>157.0</ele><time>2026-04-06T16:46:35Z</time></trkpt><trkpt lat="43.93360153190446" lon="4.473797889019086"><ele>157.0</ele><time>2026-04-06T16:46:36Z</time></trkpt><trkpt lat="43.9335306456451" lon="4.473673930742722"><ele>157.0</ele><time>2026-04-06T16:46:37Z</time></trkpt><trkpt lat="43.93346847852812" lon="4.473558124078663"><ele>157.0</ele><time>2026-04-06T16:46:38Z</time></trkpt><trkpt lat="43.93341095510633" lon="4.473474396711556"><ele>156.79999999999998</ele><time>2026-04-06T16:46:39Z</time></trkpt><trkpt lat="43.93333284901142" lon="4.473433273388072"><ele>156.6</ele><time>2026-04-06T16:46:40Z</time></trkpt><trkpt lat="43.93323499567115" lon="4.47341608164964"><ele>156.39999999999998</ele><time>2026-04-06T16:46:41Z</time></trkpt><trkpt lat="43.933135661466835" lon="4.4734188092416005"><ele>156.2</ele><time>2026-04-06T16:46:42Z</time></trkpt><trkpt lat="43.933041988010025" lon="4.473467999021736"><ele>156.0</ele><time>2026-04-06T16:46:43Z</time></trkpt><trkpt lat="43.932974578411" lon="4.473572442513755"><ele>156.0</ele><time>2026-04-06T16:46:44Z</time></trkpt><trkpt lat="43.93294685195079" lon="4.473714281605829"><ele>156.0</ele><time>2026-04-06T16:46:45Z</time></trkpt><trkpt lat="43.93295491493462" lon="4.473866677864794"><ele>156.0</ele><time>2026-04-06T16:46:46Z</time></trkpt><trkpt lat="43.93295626672205" lon="4.474014228627708"><ele>156.0</ele><time>2026-04-06T16:46:47Z</time></trkpt><trkpt lat="43.932943783369986" lon="4.474173890807835"><ele>156.0</ele><time>2026-04-06T16:46:48Z</time></trkpt><trkpt lat="43.93293881152583" lon="4.474325922288617"><ele>156.2</ele><time>2026-04-06T16:46:49Z</time></trkpt><trkpt lat="43.93293163138589" lon="4.474485751344987"><ele>156.39999999999998</ele><time>2026-04-06T16:46:50Z</time></trkpt><trkpt lat="43.93290615904752" lon="4.474626422890749"><ele>156.6</ele><time>2026-04-06T16:46:51Z</time></trkpt><trkpt lat="43.93284777043431" lon="4.474743735361041"><ele>156.79999999999998</ele><time>2026-04-06T16:46:52Z</time></trkpt><trkpt lat="43.93275870280154" lon="4.474800660549613"><ele>157.0</ele><time>2026-04-06T16:46:53Z</time></trkpt><trkpt lat="43.93265259127434" lon="4.474801573314062"><ele>157.5</ele><time>2026-04-06T16:46:54Z</time></trkpt><trkpt lat="43.93254210302967" lon="4.474764361426197"><ele>158.0</ele><time>2026-04-06T16:46:55Z</time></trkpt><trkpt lat="43.932438639929295" lon="4.474704013088172"><ele>158.5</ele><time>2026-04-06T16:46:56Z</time></trkpt><trkpt lat="43.93233724075014" lon="4.47463505668261"><ele>159.0</ele><time>2026-04-06T16:46:57Z</time></trkpt><trkpt lat="43.93223164709461" lon="4.47457338233098"><ele>159.0</ele><time>2026-04-06T16:46:58Z</time></trkpt><trkpt lat="43.93212801025745" lon="4.474528483266402"><ele>159.0</ele><time>2026-04-06T16:46:59Z</time></trkpt><trkpt lat="43.93202590988321" lon="4.474526332471585"><ele>159.0</ele><time>2026-04-06T16:47:00Z</time></trkpt><trkpt lat="43.93193831016128" lon="4.474586822531465"><ele>159.0</ele><time>2026-04-06T16:47:01Z</time></trkpt><trkpt lat="43.931867076824155" lon="4.474701886442788"><ele>159.0</ele><time>2026-04-06T16:47:02Z</time></trkpt><trkpt lat="43.93180821458119" lon="4.474838063802517"><ele>160.0</ele><time>2026-04-06T16:47:03Z</time></trkpt><trkpt lat="43.93173528286704" lon="4.474941098685646"><ele>161.0</ele><time>2026-04-06T16:47:04Z</time></trkpt><trkpt lat="43.931623771394605" lon="4.474988958163221"><ele>162.0</ele><time>2026-04-06T16:47:05Z</time></trkpt><trkpt lat="43.93151119910358" lon="4.4749708252230675"><ele>163.0</ele><time>2026-04-06T16:47:06Z</time></trkpt><trkpt lat="43.93142022776755" lon="4.474894326463284"><ele>164.0</ele><time>2026-04-06T16:47:07Z</time></trkpt><trkpt lat="43.93134018925307" lon="4.474782572607776"><ele>164.0</ele><time>2026-04-06T16:47:08Z</time></trkpt><trkpt lat="43.93127392425995" lon="4.474657318610728"><ele>164.0</ele><time>2026-04-06T16:47:09Z</time></trkpt><trkpt lat="43.931203312275706" lon="4.474533016657863"><ele>164.0</ele><time>2026-04-06T16:47:10Z</time></trkpt><trkpt lat="43.93113325357435" lon="4.474404401752545"><ele>164.0</ele><time>2026-04-06T16:47:11Z</time></trkpt><trkpt lat="43.93105754661628" lon="4.4742951478992925"><ele>164.25</ele><time>2026-04-06T16:47:12Z</time></trkpt><trkpt lat="43.93095682336222" lon="4.474219727201237"><ele>164.5</ele><time>2026-04-06T16:47:13Z</time></trkpt><trkpt lat="43.93084394020786" lon="4.474168767082033"><ele>164.75</ele><time>2026-04-06T16:47:14Z</time></trkpt><trkpt lat="43.930733046465946" lon="4.474111465299674"><ele>165.0</ele><time>2026-04-06T16:47:14.999Z</time></trkpt><trkpt lat="43.930626793181524" lon="4.474053191306494"><ele>165.75</ele><time>2026-04-06T16:47:15.999Z</time></trkpt><trkpt lat="43.930520592331604" lon="4.473990125134512"><ele>166.5</ele><time>2026-04-06T16:47:16.999Z</time></trkpt><trkpt lat="43.93041580031506" lon="4.473926682003738"><ele>167.25</ele><time>2026-04-06T16:47:17.999Z</time></trkpt><trkpt lat="43.93031222066203" lon="4.473866161138952"><ele>168.0</ele><time>2026-04-06T16:47:18.999Z</time></trkpt><trkpt lat="43.930205825542984" lon="4.473802170909231"><ele>168.75</ele><time>2026-04-06T16:47:19.999Z</time></trkpt><trkpt lat="43.93009968402741" lon="4.473741593969571"><ele>169.5</ele><time>2026-04-06T16:47:20.999Z</time></trkpt><trkpt lat="43.92999685473073" lon="4.473679849566504"><ele>170.25</ele><time>2026-04-06T16:47:21.999Z</time></trkpt><trkpt lat="43.929891570081026" lon="4.4736123251773545"><ele>171.0</ele><time>2026-04-06T16:47:22.999Z</time></trkpt><trkpt lat="43.929785193499924" lon="4.473547319611741"><ele>171.0</ele><time>2026-04-06T16:47:23.999Z</time></trkpt><trkpt lat="43.929677330126594" lon="4.473485460760301"><ele>171.0</ele><time>2026-04-06T16:47:24.999Z</time></trkpt><trkpt lat="43.92957372550324" lon="4.473419401790994"><ele>171.0</ele><time>2026-04-06T16:47:25.999Z</time></trkpt><trkpt lat="43.929468874330794" lon="4.473356390411424"><ele>171.0</ele><time>2026-04-06T16:47:26.999Z</time></trkpt><trkpt lat="43.929358340076305" lon="4.473301877637589"><ele>171.0</ele><time>2026-04-06T16:47:27.999Z</time></trkpt><trkpt lat="43.92925561594005" lon="4.47324180252229"><ele>171.0</ele><time>2026-04-06T16:47:28.999Z</time></trkpt><trkpt lat="43.929149275086075" lon="4.473174573437692"><ele>171.0</ele><time>2026-04-06T16:47:29.999Z</time></trkpt><trkpt lat="43.929048721162566" lon="4.473080619204783"><ele>171.0</ele><time>2026-04-06T16:47:30.999Z</time></trkpt><trkpt lat="43.92897875046356" lon="4.4729584304978784"><ele>172.25</ele><time>2026-04-06T16:47:31.999Z</time></trkpt><trkpt lat="43.92893318743685" lon="4.472805225252843"><ele>173.5</ele><time>2026-04-06T16:47:32.999Z</time></trkpt><trkpt lat="43.92891311809607" lon="4.47264115794815"><ele>174.75</ele><time>2026-04-06T16:47:33.999Z</time></trkpt><trkpt lat="43.9289044407686" lon="4.472477546835259"><ele>176.0</ele><time>2026-04-06T16:47:34.999Z</time></trkpt><trkpt lat="43.928877481140646" lon="4.472324946398127"><ele>176.0</ele><time>2026-04-06T16:47:35.999Z</time></trkpt><trkpt lat="43.92880614022591" lon="4.47219493757606"><ele>176.0</ele><time>2026-04-06T16:47:36.999Z</time></trkpt><trkpt lat="43.92869981684409" lon="4.472113547574729"><ele>176.0</ele><time>2026-04-06T16:47:37.999Z</time></trkpt><trkpt lat="43.92857848803309" lon="4.472084331176542"><ele>176.0</ele><time>2026-04-06T16:47:38.999Z</time></trkpt><trkpt lat="43.92846139428442" lon="4.472071352452931"><ele>177.5</ele><time>2026-04-06T16:47:39.999Z</time></trkpt><trkpt lat="43.92834297994497" lon="4.472052352933726"><ele>179.0</ele><time>2026-04-06T16:47:40.999Z</time></trkpt><trkpt lat="43.9282254836787" lon="4.472026764656113"><ele>180.5</ele><time>2026-04-06T16:47:41.999Z</time></trkpt><trkpt lat="43.92811405409786" lon="4.4719935479130415"><ele>182.0</ele><time>2026-04-06T16:47:42.999Z</time></trkpt><trkpt lat="43.92799841014456" lon="4.471969373397877"><ele>182.0</ele><time>2026-04-06T16:47:43.999Z</time></trkpt><trkpt lat="43.92788472989286" lon="4.471932401614735"><ele>182.0</ele><time>2026-04-06T16:47:44.999Z</time></trkpt><trkpt lat="43.92777542265915" lon="4.4718964446557266"><ele>182.0</ele><time>2026-04-06T16:47:45.999Z</time></trkpt><trkpt lat="43.92765784420722" lon="4.471860800617414"><ele>182.0</ele><time>2026-04-06T16:47:46.999Z</time></trkpt><trkpt lat="43.92754404567133" lon="4.47182565960613"><ele>181.25</ele><time>2026-04-06T16:47:47.999Z</time></trkpt><trkpt lat="43.9274294311481" lon="4.471787407058962"><ele>180.5</ele><time>2026-04-06T16:47:48.999Z</time></trkpt><trkpt lat="43.92731271960488" lon="4.471756392213657"><ele>179.75</ele><time>2026-04-06T16:47:49.999Z</time></trkpt><trkpt lat="43.92720153907155" lon="4.471732146717228"><ele>179.0</ele><time>2026-04-06T16:47:50.999Z</time></trkpt><trkpt lat="43.92708648219778" lon="4.471736208711323"><ele>179.0</ele><time>2026-04-06T16:47:51.999Z</time></trkpt><trkpt lat="43.92697031237282" lon="4.471736348491635"><ele>179.0</ele><time>2026-04-06T16:47:53.001Z</time></trkpt><trkpt lat="43.92685281011429" lon="4.4717418585806525"><ele>179.0</ele><time>2026-04-06T16:47:54.001Z</time></trkpt><trkpt lat="43.92673411721648" lon="4.4717380130735025"><ele>179.0</ele><time>2026-04-06T16:47:55.001Z</time></trkpt><trkpt lat="43.92661793274215" lon="4.471736080975534"><ele>179.5</ele><time>2026-04-06T16:47:56.001Z</time></trkpt><trkpt lat="43.92650053999341" lon="4.471735520344005"><ele>180.0</ele><time>2026-04-06T16:47:57.001Z</time></trkpt><trkpt lat="43.92638834311494" lon="4.471737254707316"><ele>180.5</ele><time>2026-04-06T16:47:58Z</time></trkpt><trkpt lat="43.9262671304607" lon="4.471733460864469"><ele>181.0</ele><time>2026-04-06T16:47:59Z</time></trkpt><trkpt lat="43.926149472758894" lon="4.471728257762503"><ele>181.0</ele><time>2026-04-06T16:48:00Z</time></trkpt><trkpt lat="43.92603356969818" lon="4.4717480854464515"><ele>181.0</ele><time>2026-04-06T16:48:01Z</time></trkpt><trkpt lat="43.92592594386481" lon="4.47178921090064"><ele>181.0</ele><time>2026-04-06T16:48:02Z</time></trkpt><trkpt lat="43.92581282383305" lon="4.4718498499094395"><ele>181.0</ele><time>2026-04-06T16:48:03Z</time></trkpt><trkpt lat="43.92570695096929" lon="4.471920342550178"><ele>181.5</ele><time>2026-04-06T16:48:04Z</time></trkpt><trkpt lat="43.92560214819087" lon="4.471993452510175"><ele>182.0</ele><time>2026-04-06T16:48:05Z</time></trkpt><trkpt lat="43.92549612202888" lon="4.472049276901169"><ele>182.5</ele><time>2026-04-06T16:48:06Z</time></trkpt><trkpt lat="43.925386001746" lon="4.472085398592401"><ele>183.0</ele><time>2026-04-06T16:48:07Z</time></trkpt><trkpt lat="43.92526240032305" lon="4.472094372379978"><ele>183.0</ele><time>2026-04-06T16:48:08Z</time></trkpt><trkpt lat="43.92514388328613" lon="4.472066586301061"><ele>183.0</ele><time>2026-04-06T16:48:09Z</time></trkpt><trkpt lat="43.92503090527142" lon="4.472022114446363"><ele>183.0</ele><time>2026-04-06T16:48:10Z</time></trkpt><trkpt lat="43.92492270506318" lon="4.4719711826716795"><ele>183.0</ele><time>2026-04-06T16:48:11Z</time></trkpt><trkpt lat="43.92481544233018" lon="4.471924888846744"><ele>183.0</ele><time>2026-04-06T16:48:12Z</time></trkpt><trkpt lat="43.92471078742849" lon="4.471857030926455"><ele>183.0</ele><time>2026-04-06T16:48:13Z</time></trkpt><trkpt lat="43.92461317421707" lon="4.471755540643757"><ele>183.0</ele><time>2026-04-06T16:48:14Z</time></trkpt><trkpt lat="43.92453138940317" lon="4.471637087741109"><ele>183.0</ele><time>2026-04-06T16:48:15Z</time></trkpt><trkpt lat="43.92444870864567" lon="4.471524484935351"><ele>183.0</ele><time>2026-04-06T16:48:16Z</time></trkpt><trkpt lat="43.924360428138506" lon="4.47147458508722"><ele>183.0</ele><time>2026-04-06T16:48:17Z</time></trkpt><trkpt lat="43.9242584075028" lon="4.471479204110651"><ele>183.0</ele><time>2026-04-06T16:48:18Z</time></trkpt><trkpt lat="43.92416725700943" lon="4.471549984081967"><ele>183.0</ele><time>2026-04-06T16:48:19Z</time></trkpt><trkpt lat="43.92408586224782" lon="4.471654026363781"><ele>183.0</ele><time>2026-04-06T16:48:20Z</time></trkpt><trkpt lat="43.92403846724646" lon="4.471796488889502"><ele>183.5</ele><time>2026-04-06T16:48:21Z</time></trkpt><trkpt lat="43.9240334542821" lon="4.471963338504965"><ele>184.0</ele><time>2026-04-06T16:48:22Z</time></trkpt><trkpt lat="43.924032534297574" lon="4.472128479662159"><ele>184.5</ele><time>2026-04-06T16:48:23Z</time></trkpt><trkpt lat="43.92402611860876" lon="4.472278163644542"><ele>185.0</ele><time>2026-04-06T16:48:24Z</time></trkpt><trkpt lat="43.92400932340602" lon="4.472446984709811"><ele>186.0</ele><time>2026-04-06T16:48:25Z</time></trkpt><trkpt lat="43.92399647312784" lon="4.472597237601821"><ele>187.0</ele><time>2026-04-06T16:48:26Z</time></trkpt><trkpt lat="43.92398232035547" lon="4.472757155065089"><ele>188.0</ele><time>2026-04-06T16:48:27Z</time></trkpt><trkpt lat="43.9239650421038" lon="4.472914507416824"><ele>189.0</ele><time>2026-04-06T16:48:28Z</time></trkpt><trkpt lat="43.92395150527051" lon="4.473066871395649"><ele>189.5</ele><time>2026-04-06T16:48:29Z</time></trkpt><trkpt lat="43.923932842707835" lon="4.473218762124675"><ele>190.0</ele><time>2026-04-06T16:48:30Z</time></trkpt><trkpt lat="43.923907232942256" lon="4.47337348366541"><ele>190.5</ele><time>2026-04-06T16:48:31Z</time></trkpt><trkpt lat="43.92385746463963" lon="4.473519464600626"><ele>191.0</ele><time>2026-04-06T16:48:32Z</time></trkpt><trkpt lat="43.92377976121038" lon="4.473641450400822"><ele>191.0</ele><time>2026-04-06T16:48:33Z</time></trkpt><trkpt lat="43.92368219165228" lon="4.473730044424557"><ele>191.0</ele><time>2026-04-06T16:48:34Z</time></trkpt><trkpt lat="43.923572250655994" lon="4.4737897652786325"><ele>191.0</ele><time>2026-04-06T16:48:35Z</time></trkpt><trkpt lat="43.92345744264206" lon="4.473822784400245"><ele>191.0</ele><time>2026-04-06T16:48:36Z</time></trkpt><trkpt lat="43.923347336983156" lon="4.473829875460579"><ele>191.0</ele><time>2026-04-06T16:48:37Z</time></trkpt><trkpt lat="43.92323089739627" lon="4.473815312776927"><ele>191.0</ele><time>2026-04-06T16:48:38Z</time></trkpt><trkpt lat="43.92311792645903" lon="4.473794018761995"><ele>191.0</ele><time>2026-04-06T16:48:39Z</time></trkpt><trkpt lat="43.92299985764458" lon="4.473773967722417"><ele>191.0</ele><time>2026-04-06T16:48:40Z</time></trkpt><trkpt lat="43.922883807055214" lon="4.4737603518096725"><ele>191.0</ele><time>2026-04-06T16:48:41Z</time></trkpt><trkpt lat="43.92276840416815" lon="4.473748775545332"><ele>191.0</ele><time>2026-04-06T16:48:42Z</time></trkpt><trkpt lat="43.92265628243669" lon="4.4737324193334835"><ele>191.0</ele><time>2026-04-06T16:48:43Z</time></trkpt><trkpt lat="43.92253811042312" lon="4.473719201899386"><ele>191.0</ele><time>2026-04-06T16:48:44Z</time></trkpt><trkpt lat="43.922430342964624" lon="4.473710313209187"><ele>191.25</ele><time>2026-04-06T16:48:45Z</time></trkpt><trkpt lat="43.92231283471004" lon="4.473696139033112"><ele>191.5</ele><time>2026-04-06T16:48:46Z</time></trkpt><trkpt lat="43.92219520443794" lon="4.473685416275803"><ele>191.75</ele><time>2026-04-06T16:48:47Z</time></trkpt><trkpt lat="43.92208479126526" lon="4.4736744821451815"><ele>192.0</ele><time>2026-04-06T16:48:48Z</time></trkpt><trkpt lat="43.921969520475876" lon="4.473657364462171"><ele>192.0</ele><time>2026-04-06T16:48:49Z</time></trkpt><trkpt lat="43.92185527427113" lon="4.473641691342491"><ele>192.0</ele><time>2026-04-06T16:48:50Z</time></trkpt><trkpt lat="43.92174058899371" lon="4.473629379024793"><ele>192.0</ele><time>2026-04-06T16:48:51Z</time></trkpt><trkpt lat="43.92162106330846" lon="4.473614803990573"><ele>192.0</ele><time>2026-04-06T16:48:52Z</time></trkpt><trkpt lat="43.92150765340099" lon="4.473602321016426"><ele>192.0</ele><time>2026-04-06T16:48:53Z</time></trkpt><trkpt lat="43.92139259030543" lon="4.473589507793527"><ele>192.0</ele><time>2026-04-06T16:48:54Z</time></trkpt><trkpt lat="43.92127610875842" lon="4.4735792763805495"><ele>192.0</ele><time>2026-04-06T16:48:55Z</time></trkpt><trkpt lat="43.92116048909915" lon="4.473564182250699"><ele>192.0</ele><time>2026-04-06T16:48:56Z</time></trkpt><trkpt lat="43.92104549218445" lon="4.473550644555672"><ele>192.0</ele><time>2026-04-06T16:48:57Z</time></trkpt><trkpt lat="43.92092818025801" lon="4.473535940636815"><ele>192.0</ele><time>2026-04-06T16:48:58Z</time></trkpt><trkpt lat="43.920813067262785" lon="4.47352256413954"><ele>192.0</ele><time>2026-04-06T16:48:59Z</time></trkpt><trkpt lat="43.92070071238715" lon="4.473509547535963"><ele>192.0</ele><time>2026-04-06T16:49:00Z</time></trkpt><trkpt lat="43.92058545342419" lon="4.473499267569197"><ele>192.0</ele><time>2026-04-06T16:49:01Z</time></trkpt><trkpt lat="43.92046703792772" lon="4.473480912274001"><ele>192.0</ele><time>2026-04-06T16:49:02Z</time></trkpt><trkpt lat="43.92035189419395" lon="4.473466084286148"><ele>192.0</ele><time>2026-04-06T16:49:03Z</time></trkpt><trkpt lat="43.920235740563406" lon="4.473452712502672"><ele>192.0</ele><time>2026-04-06T16:49:04Z</time></trkpt><trkpt lat="43.92012306463012" lon="4.473442118285428"><ele>192.5</ele><time>2026-04-06T16:49:05Z</time></trkpt><trkpt lat="43.92000868038717" lon="4.473440385534618"><ele>193.0</ele><time>2026-04-06T16:49:06Z</time></trkpt><trkpt lat="43.91989304035335" lon="4.473447333846314"><ele>193.5</ele><time>2026-04-06T16:49:07Z</time></trkpt><trkpt lat="43.919777294849105" lon="4.473460835450064"><ele>194.0</ele><time>2026-04-06T16:49:08Z</time></trkpt><trkpt lat="43.91966208067656" lon="4.4734860126116605"><ele>194.0</ele><time>2026-04-06T16:49:09Z</time></trkpt><trkpt lat="43.91955372611696" lon="4.473507538000951"><ele>194.0</ele><time>2026-04-06T16:49:10Z</time></trkpt><trkpt lat="43.91944298861527" lon="4.473532520198823"><ele>194.0</ele><time>2026-04-06T16:49:11Z</time></trkpt><trkpt lat="43.91932516658715" lon="4.473555764005805"><ele>194.0</ele><time>2026-04-06T16:49:12Z</time></trkpt><trkpt lat="43.919213098003205" lon="4.473580417230449"><ele>194.0</ele><time>2026-04-06T16:49:13Z</time></trkpt><trkpt lat="43.919098860047534" lon="4.473607552610002"><ele>194.0</ele><time>2026-04-06T16:49:14Z</time></trkpt><trkpt lat="43.91898500078685" lon="4.473634781605228"><ele>194.0</ele><time>2026-04-06T16:49:15Z</time></trkpt><trkpt lat="43.918873317445346" lon="4.4736605572760135"><ele>194.0</ele><time>2026-04-06T16:49:16Z</time></trkpt><trkpt lat="43.91875630311347" lon="4.4736854659757315"><ele>194.0</ele><time>2026-04-06T16:49:17Z</time></trkpt><trkpt lat="43.918651324550176" lon="4.473706155965053"><ele>194.0</ele><time>2026-04-06T16:49:17.999Z</time></trkpt><trkpt lat="43.9185350994069" lon="4.4737217596775904"><ele>194.0</ele><time>2026-04-06T16:49:18.999Z</time></trkpt><trkpt lat="43.91842692949191" lon="4.4737390161058"><ele>194.0</ele><time>2026-04-06T16:49:19.999Z</time></trkpt><trkpt lat="43.9183191037409" lon="4.473762790478463"><ele>194.0</ele><time>2026-04-06T16:49:20.999Z</time></trkpt><trkpt lat="43.918206876347696" lon="4.473785076523632"><ele>194.79999999999998</ele><time>2026-04-06T16:49:21.999Z</time></trkpt><trkpt lat="43.91809790847066" lon="4.473806920887876"><ele>195.6</ele><time>2026-04-06T16:49:22.999Z</time></trkpt><trkpt lat="43.91799144304478" lon="4.473829590656045"><ele>196.4</ele><time>2026-04-06T16:49:23.999Z</time></trkpt><trkpt lat="43.91788502736636" lon="4.473848090742671"><ele>197.2</ele><time>2026-04-06T16:49:24.999Z</time></trkpt><trkpt lat="43.91777821814961" lon="4.473871957398871"><ele>198.0</ele><time>2026-04-06T16:49:25.999Z</time></trkpt><trkpt lat="43.91767000627984" lon="4.473898858726356"><ele>198.0</ele><time>2026-04-06T16:49:26.999Z</time></trkpt><trkpt lat="43.91756162175721" lon="4.4739245163867025"><ele>198.0</ele><time>2026-04-06T16:49:27.999Z</time></trkpt><trkpt lat="43.917453476369616" lon="4.473948307917755"><ele>198.0</ele><time>2026-04-06T16:49:28.999Z</time></trkpt><trkpt lat="43.917346052000994" lon="4.473963414100201"><ele>198.0</ele><time>2026-04-06T16:49:29.999Z</time></trkpt><trkpt lat="43.91723700417568" lon="4.4739776877218755"><ele>198.0</ele><time>2026-04-06T16:49:30.999Z</time></trkpt><trkpt lat="43.91712835834452" lon="4.4739937261068645"><ele>198.0</ele><time>2026-04-06T16:49:31.999Z</time></trkpt><trkpt lat="43.91701990256633" lon="4.474005878064864"><ele>198.0</ele><time>2026-04-06T16:49:32.999Z</time></trkpt><trkpt lat="43.91691169080838" lon="4.474011521216072"><ele>198.0</ele><time>2026-04-06T16:49:33.999Z</time></trkpt><trkpt lat="43.91680310864446" lon="4.474019003495472"><ele>198.0</ele><time>2026-04-06T16:49:34.999Z</time></trkpt><trkpt lat="43.916697769829234" lon="4.4740356458125285"><ele>198.0</ele><time>2026-04-06T16:49:35.999Z</time></trkpt><trkpt lat="43.9165904653491" lon="4.474053209984547"><ele>198.2</ele><time>2026-04-06T16:49:36.999Z</time></trkpt><trkpt lat="43.91648150442954" lon="4.474065216496382"><ele>198.4</ele><time>2026-04-06T16:49:37.999Z</time></trkpt><trkpt lat="43.91637354304543" lon="4.47407667365248"><ele>198.6</ele><time>2026-04-06T16:49:38.999Z</time></trkpt><trkpt lat="43.91626383810941" lon="4.474091294117854"><ele>198.79999999999998</ele><time>2026-04-06T16:49:39.999Z</time></trkpt><trkpt lat="43.91615398798106" lon="4.47410249015802"><ele>199.0</ele><time>2026-04-06T16:49:40.999Z</time></trkpt><trkpt lat="43.916045812894104" lon="4.474106410805648"><ele>199.0</ele><time>2026-04-06T16:49:41.999Z</time></trkpt><trkpt lat="43.91594401310991" lon="4.474105199362975"><ele>199.0</ele><time>2026-04-06T16:49:42.999Z</time></trkpt><trkpt lat="43.915850638526834" lon="4.474092029179103"><ele>199.0</ele><time>2026-04-06T16:49:43.999Z</time></trkpt><trkpt lat="43.91576177780553" lon="4.474079772545747"><ele>199.0</ele><time>2026-04-06T16:49:44.999Z</time></trkpt><trkpt lat="43.915680084861506" lon="4.474057252357369"><ele>199.0</ele><time>2026-04-06T16:49:45.999Z</time></trkpt><trkpt lat="43.91559643269763" lon="4.474032329194145"><ele>199.2</ele><time>2026-04-06T16:49:46.999Z</time></trkpt><trkpt lat="43.91550606480747" lon="4.474005293549265"><ele>199.39999999999998</ele><time>2026-04-06T16:49:47.999Z</time></trkpt><trkpt lat="43.91541570529058" lon="4.473974742214616"><ele>199.6</ele><time>2026-04-06T16:49:48.999Z</time></trkpt><trkpt lat="43.91532113206545" lon="4.473946700894805"><ele>199.8</ele><time>2026-04-06T16:49:49.999Z</time></trkpt><trkpt lat="43.915222583431735" lon="4.473913978548895"><ele>200.0</ele><time>2026-04-06T16:49:50.999Z</time></trkpt><trkpt lat="43.91512250337695" lon="4.473884295447289"><ele>200.4</ele><time>2026-04-06T16:49:51.999Z</time></trkpt><trkpt lat="43.91502238056449" lon="4.473856507215555"><ele>200.8</ele><time>2026-04-06T16:49:52.999Z</time></trkpt><trkpt lat="43.91492164059539" lon="4.473825147963441"><ele>201.2</ele><time>2026-04-06T16:49:53.999Z</time></trkpt><trkpt lat="43.9148214908153" lon="4.473797773358004"><ele>201.6</ele><time>2026-04-06T16:49:54.999Z</time></trkpt><trkpt lat="43.91472911149293" lon="4.473766970400249"><ele>202.0</ele><time>2026-04-06T16:49:55.999Z</time></trkpt><trkpt lat="43.91464078040779" lon="4.473744586748403"><ele>202.0</ele><time>2026-04-06T16:49:56.999Z</time></trkpt><trkpt lat="43.914558452051864" lon="4.4737132226790655"><ele>202.0</ele><time>2026-04-06T16:49:57.999Z</time></trkpt><trkpt lat="43.914482212969126" lon="4.473694320993386"><ele>202.0</ele><time>2026-04-06T16:49:59Z</time></trkpt><trkpt lat="43.91441616936856" lon="4.473667992529743"><ele>202.0</ele><time>2026-04-06T16:50:00Z</time></trkpt><trkpt lat="43.914323346123275" lon="4.47362398233064"><ele>202.0</ele><time>2026-04-06T16:50:02Z</time></trkpt><trkpt lat="43.91427037898445" lon="4.473827279821026"><ele>201.99999999999997</ele><time>2026-04-06T16:50:05Z</time></trkpt><trkpt lat="43.914312136287286" lon="4.473998072210849"><ele>202.0</ele><time>2026-04-06T16:50:07Z</time></trkpt><trkpt lat="43.91433528936943" lon="4.474093729325332"><ele>202.0</ele><time>2026-04-06T16:50:08Z</time></trkpt><trkpt lat="43.91434733895817" lon="4.474195961911018"><ele>202.0</ele><time>2026-04-06T16:50:09Z</time></trkpt><trkpt lat="43.91433553109384" lon="4.474303303501221"><ele>201.99999999999997</ele><time>2026-04-06T16:50:10Z</time></trkpt><trkpt lat="43.91431338906642" lon="4.474417913710486"><ele>202.0</ele><time>2026-04-06T16:50:11Z</time></trkpt><trkpt lat="43.91428632721024" lon="4.474537699029286"><ele>202.39999999999998</ele><time>2026-04-06T16:50:12Z</time></trkpt><trkpt lat="43.91425278226288" lon="4.474657107603829"><ele>202.79999999999998</ele><time>2026-04-06T16:50:13Z</time></trkpt><trkpt lat="43.914218823197245" lon="4.474784202814245"><ele>203.2</ele><time>2026-04-06T16:50:14Z</time></trkpt><trkpt lat="43.91418835085577" lon="4.47490893621287"><ele>203.6</ele><time>2026-04-06T16:50:15Z</time></trkpt><trkpt lat="43.914171953118895" lon="4.475042591687327"><ele>204.0</ele><time>2026-04-06T16:50:16Z</time></trkpt><trkpt lat="43.91413292356124" lon="4.475170173600643"><ele>204.0</ele><time>2026-04-06T16:50:17Z</time></trkpt><trkpt lat="43.91410356240965" lon="4.4753001273026145"><ele>204.0</ele><time>2026-04-06T16:50:18Z</time></trkpt><trkpt lat="43.91408265466392" lon="4.4754321548087095"><ele>204.0</ele><time>2026-04-06T16:50:19Z</time></trkpt><trkpt lat="43.91405235803741" lon="4.47557186270838"><ele>204.0</ele><time>2026-04-06T16:50:20Z</time></trkpt><trkpt lat="43.914055931645485" lon="4.475724353665947"><ele>204.0</ele><time>2026-04-06T16:50:21Z</time></trkpt><trkpt lat="43.91409550489472" lon="4.475862820717713"><ele>204.0</ele><time>2026-04-06T16:50:22Z</time></trkpt><trkpt lat="43.914102226187524" lon="4.476009689367728"><ele>204.0</ele><time>2026-04-06T16:50:23Z</time></trkpt><trkpt lat="43.914128364783764" lon="4.476149603535395"><ele>204.0</ele><time>2026-04-06T16:50:24Z</time></trkpt><trkpt lat="43.914159860720936" lon="4.476296455367416"><ele>204.0</ele><time>2026-04-06T16:50:25Z</time></trkpt><trkpt lat="43.91419902633645" lon="4.4764305965857885"><ele>204.0</ele><time>2026-04-06T16:50:26Z</time></trkpt><trkpt lat="43.91422686452408" lon="4.476581569538196"><ele>204.0</ele><time>2026-04-06T16:50:27Z</time></trkpt><trkpt lat="43.91425278307124" lon="4.476729120845789"><ele>204.0</ele><time>2026-04-06T16:50:28Z</time></trkpt><trkpt lat="43.914274477773674" lon="4.476884229293516"><ele>204.0</ele><time>2026-04-06T16:50:29Z</time></trkpt><trkpt lat="43.91430813785612" lon="4.477041188066294"><ele>204.0</ele><time>2026-04-06T16:50:30Z</time></trkpt><trkpt lat="43.91433843489481" lon="4.477204637027435"><ele>204.0</ele><time>2026-04-06T16:50:31Z</time></trkpt><trkpt lat="43.914365355114214" lon="4.477360031619947"><ele>204.0</ele><time>2026-04-06T16:50:32Z</time></trkpt><trkpt lat="43.914377103260236" lon="4.477523488831626"><ele>204.0</ele><time>2026-04-06T16:50:33Z</time></trkpt><trkpt lat="43.91440304236678" lon="4.477684636902247"><ele>204.0</ele><time>2026-04-06T16:50:34Z</time></trkpt><trkpt lat="43.91443432755889" lon="4.477838141537906"><ele>203.0</ele><time>2026-04-06T16:50:35Z</time></trkpt><trkpt lat="43.91447076262537" lon="4.477998846701798"><ele>202.0</ele><time>2026-04-06T16:50:36Z</time></trkpt><trkpt lat="43.91451766930199" lon="4.47815690960378"><ele>201.0</ele><time>2026-04-06T16:50:37Z</time></trkpt><trkpt lat="43.91455922516352" lon="4.478310655840682"><ele>200.0</ele><time>2026-04-06T16:50:38Z</time></trkpt><trkpt lat="43.91462476501534" lon="4.478452368545025"><ele>200.0</ele><time>2026-04-06T16:50:39Z</time></trkpt><trkpt lat="43.91471129843346" lon="4.478557801724879"><ele>200.0</ele><time>2026-04-06T16:50:40Z</time></trkpt><trkpt lat="43.91479749057759" lon="4.47865804432627"><ele>200.0</ele><time>2026-04-06T16:50:41Z</time></trkpt><trkpt lat="43.914888022900925" lon="4.478750025061873"><ele>200.0</ele><time>2026-04-06T16:50:42Z</time></trkpt><trkpt lat="43.91496303675877" lon="4.478866813279675"><ele>200.25</ele><time>2026-04-06T16:50:43Z</time></trkpt><trkpt lat="43.91504399297483" lon="4.478990804123404"><ele>200.5</ele><time>2026-04-06T16:50:44Z</time></trkpt><trkpt lat="43.91511254967593" lon="4.479121437614557"><ele>200.75</ele><time>2026-04-06T16:50:45Z</time></trkpt><trkpt lat="43.915176462056586" lon="4.4792532416883795"><ele>201.0</ele><time>2026-04-06T16:50:46Z</time></trkpt><trkpt lat="43.91524328756267" lon="4.479394909024845"><ele>201.0</ele><time>2026-04-06T16:50:47Z</time></trkpt><trkpt lat="43.91530801983082" lon="4.479534227872075"><ele>201.0</ele><time>2026-04-06T16:50:48Z</time></trkpt><trkpt lat="43.91537327116235" lon="4.479677316976572"><ele>201.0</ele><time>2026-04-06T16:50:49Z</time></trkpt><trkpt lat="43.915452106315634" lon="4.479809845853298"><ele>201.0</ele><time>2026-04-06T16:50:50Z</time></trkpt><trkpt lat="43.915514176868584" lon="4.479959559471316"><ele>200.75</ele><time>2026-04-06T16:50:51Z</time></trkpt><trkpt lat="43.91558125603361" lon="4.480097910388622"><ele>200.5</ele><time>2026-04-06T16:50:52Z</time></trkpt><trkpt lat="43.91565026030958" lon="4.480244188378449"><ele>200.25</ele><time>2026-04-06T16:50:53Z</time></trkpt><trkpt lat="43.915707745301546" lon="4.480382280911503"><ele>200.0</ele><time>2026-04-06T16:50:54Z</time></trkpt><trkpt lat="43.915775586556585" lon="4.480526736877897"><ele>199.5</ele><time>2026-04-06T16:50:55Z</time></trkpt><trkpt lat="43.915832822160965" lon="4.480668035531079"><ele>199.0</ele><time>2026-04-06T16:50:56Z</time></trkpt><trkpt lat="43.91589470663192" lon="4.480816537218227"><ele>198.5</ele><time>2026-04-06T16:50:57Z</time></trkpt><trkpt lat="43.91591975376213" lon="4.480984125349665"><ele>198.0</ele><time>2026-04-06T16:50:58Z</time></trkpt><trkpt lat="43.91597470996291" lon="4.481137653447665"><ele>198.0</ele><time>2026-04-06T16:50:59Z</time></trkpt><trkpt lat="43.916009818620516" lon="4.481297635987226"><ele>198.0</ele><time>2026-04-06T16:51:00Z</time></trkpt><trkpt lat="43.9160481584707" lon="4.48145201775587"><ele>198.0</ele><time>2026-04-06T16:51:01Z</time></trkpt><trkpt lat="43.916088835213586" lon="4.481599257778898"><ele>198.0</ele><time>2026-04-06T16:51:02Z</time></trkpt><trkpt lat="43.91613121479206" lon="4.4817592717712245"><ele>198.0</ele><time>2026-04-06T16:51:03Z</time></trkpt><trkpt lat="43.91614094911493" lon="4.481922745145957"><ele>198.0</ele><time>2026-04-06T16:51:04Z</time></trkpt><trkpt lat="43.91616825421002" lon="4.482079872255888"><ele>198.0</ele><time>2026-04-06T16:51:05Z</time></trkpt><trkpt lat="43.916208365034066" lon="4.482225833677335"><ele>198.0</ele><time>2026-04-06T16:51:06Z</time></trkpt><trkpt lat="43.91620920452635" lon="4.482379957920923"><ele>198.2</ele><time>2026-04-06T16:51:07Z</time></trkpt><trkpt lat="43.91621845813008" lon="4.48252841982786"><ele>198.4</ele><time>2026-04-06T16:51:08Z</time></trkpt><trkpt lat="43.91622085271288" lon="4.482680365444246"><ele>198.6</ele><time>2026-04-06T16:51:09Z</time></trkpt><trkpt lat="43.91621926414636" lon="4.482829604573989"><ele>198.79999999999998</ele><time>2026-04-06T16:51:10Z</time></trkpt><trkpt lat="43.9162145486511" lon="4.4829774733947145"><ele>199.0</ele><time>2026-04-06T16:51:10.999Z</time></trkpt><trkpt lat="43.9161983882269" lon="4.483119347843497"><ele>199.0</ele><time>2026-04-06T16:51:11.999Z</time></trkpt><trkpt lat="43.91617277073453" lon="4.483264433245258"><ele>199.0</ele><time>2026-04-06T16:51:12.999Z</time></trkpt><trkpt lat="43.91614278264183" lon="4.483409317549136"><ele>199.0</ele><time>2026-04-06T16:51:13.999Z</time></trkpt><trkpt lat="43.91611248162993" lon="4.483554113192808"><ele>199.0</ele><time>2026-04-06T16:51:14.999Z</time></trkpt><trkpt lat="43.916096647904915" lon="4.4837041773747774"><ele>199.0</ele><time>2026-04-06T16:51:15.999Z</time></trkpt><trkpt lat="43.91607518192542" lon="4.4838585438775205"><ele>199.0</ele><time>2026-04-06T16:51:16.999Z</time></trkpt><trkpt lat="43.91605034937662" lon="4.484013768534977"><ele>199.0</ele><time>2026-04-06T16:51:17.999Z</time></trkpt><trkpt lat="43.91605072712037" lon="4.484180696471817"><ele>199.0</ele><time>2026-04-06T16:51:18.999Z</time></trkpt><trkpt lat="43.91605433534362" lon="4.484345459391891"><ele>199.0</ele><time>2026-04-06T16:51:19.999Z</time></trkpt><trkpt lat="43.91607683981749" lon="4.484516261921102"><ele>198.75</ele><time>2026-04-06T16:51:20.999Z</time></trkpt><trkpt lat="43.91611330365141" lon="4.484667292082719"><ele>198.5</ele><time>2026-04-06T16:51:21.999Z</time></trkpt><trkpt lat="43.916140556065805" lon="4.484820235087876"><ele>198.25</ele><time>2026-04-06T16:51:22.999Z</time></trkpt><trkpt lat="43.916157867334576" lon="4.484983775416409"><ele>198.0</ele><time>2026-04-06T16:51:23.999Z</time></trkpt><trkpt lat="43.916181232792155" lon="4.4851368082968985"><ele>198.0</ele><time>2026-04-06T16:51:24.999Z</time></trkpt><trkpt lat="43.91619805258847" lon="4.485295837137864"><ele>198.0</ele><time>2026-04-06T16:51:25.999Z</time></trkpt><trkpt lat="43.91623300004655" lon="4.48545157324949"><ele>198.0</ele><time>2026-04-06T16:51:26.999Z</time></trkpt><trkpt lat="43.91626284868974" lon="4.485602235946657"><ele>198.0</ele><time>2026-04-06T16:51:27.999Z</time></trkpt><trkpt lat="43.916295531621465" lon="4.485762286819693"><ele>198.0</ele><time>2026-04-06T16:51:28.999Z</time></trkpt><trkpt lat="43.9163276859016" lon="4.485915027072918"><ele>198.0</ele><time>2026-04-06T16:51:29.999Z</time></trkpt><trkpt lat="43.91637079280734" lon="4.486060316707993"><ele>198.0</ele><time>2026-04-06T16:51:30.999Z</time></trkpt><trkpt lat="43.91642757000268" lon="4.486197781817564"><ele>198.0</ele><time>2026-04-06T16:51:31.999Z</time></trkpt><trkpt lat="43.916502266452774" lon="4.486327113048639"><ele>198.60000000000002</ele><time>2026-04-06T16:51:32.999Z</time></trkpt><trkpt lat="43.91656687591958" lon="4.486452875081936"><ele>199.20000000000002</ele><time>2026-04-06T16:51:33.999Z</time></trkpt><trkpt lat="43.91659953966888" lon="4.486601153096109"><ele>199.8</ele><time>2026-04-06T16:51:34.999Z</time></trkpt><trkpt lat="43.91662593564914" lon="4.486753784404125"><ele>200.4</ele><time>2026-04-06T16:51:35.999Z</time></trkpt><trkpt lat="43.91664019238018" lon="4.486901378590406"><ele>201.0</ele><time>2026-04-06T16:51:36.999Z</time></trkpt><trkpt lat="43.916650120381156" lon="4.487052977297767"><ele>201.20000000000002</ele><time>2026-04-06T16:51:37.999Z</time></trkpt><trkpt lat="43.916668304530674" lon="4.487204186273989"><ele>201.4</ele><time>2026-04-06T16:51:38.999Z</time></trkpt><trkpt lat="43.91667765057499" lon="4.487354535022653"><ele>201.6</ele><time>2026-04-06T16:51:39.999Z</time></trkpt><trkpt lat="43.91668463422105" lon="4.487505463630051"><ele>201.8</ele><time>2026-04-06T16:51:40.999Z</time></trkpt><trkpt lat="43.916692888909786" lon="4.487657182429034"><ele>202.0</ele><time>2026-04-06T16:51:41.999Z</time></trkpt><trkpt lat="43.91669877054863" lon="4.487812010017918"><ele>202.0</ele><time>2026-04-06T16:51:42.999Z</time></trkpt><trkpt lat="43.91670236247369" lon="4.48796148832358"><ele>202.0</ele><time>2026-04-06T16:51:43.999Z</time></trkpt><trkpt lat="43.916731622110476" lon="4.488097152236304"><ele>202.0</ele><time>2026-04-06T16:51:44.999Z</time></trkpt><trkpt lat="43.91676178092755" lon="4.4882366657212724"><ele>202.0</ele><time>2026-04-06T16:51:45.999Z</time></trkpt><trkpt lat="43.91679556237993" lon="4.488376268825847"><ele>202.0</ele><time>2026-04-06T16:51:46.999Z</time></trkpt><trkpt lat="43.91682679002555" lon="4.488527264175205"><ele>202.2</ele><time>2026-04-06T16:51:47.999Z</time></trkpt><trkpt lat="43.91685803328601" lon="4.4886715606009275"><ele>202.39999999999998</ele><time>2026-04-06T16:51:48.999Z</time></trkpt><trkpt lat="43.91689559588359" lon="4.488813765013535"><ele>202.60000000000002</ele><time>2026-04-06T16:51:49.999Z</time></trkpt><trkpt lat="43.91692713179601" lon="4.488951860410696"><ele>202.8</ele><time>2026-04-06T16:51:50.999Z</time></trkpt><trkpt lat="43.916964252546165" lon="4.489078162510451"><ele>203.0</ele><time>2026-04-06T16:51:51.999Z</time></trkpt><trkpt lat="43.9170242445009" lon="4.489202354530437"><ele>203.0</ele><time>2026-04-06T16:51:52.999Z</time></trkpt><trkpt lat="43.91709459489509" lon="4.489316074511522"><ele>203.0</ele><time>2026-04-06T16:51:53.999Z</time></trkpt><trkpt lat="43.91717687103636" lon="4.489424903699457"><ele>203.0</ele><time>2026-04-06T16:51:54.999Z</time></trkpt><trkpt lat="43.91726645148059" lon="4.489539704623439"><ele>203.0</ele><time>2026-04-06T16:51:55.999Z</time></trkpt><trkpt lat="43.91734754390342" lon="4.4896645474667345"><ele>203.25</ele><time>2026-04-06T16:51:56.999Z</time></trkpt><trkpt lat="43.917431823586746" lon="4.48978868023875"><ele>203.5</ele><time>2026-04-06T16:51:57.999Z</time></trkpt><trkpt lat="43.91751234794233" lon="4.489915827010034"><ele>203.75</ele><time>2026-04-06T16:51:58.999Z</time></trkpt><trkpt lat="43.917561906984" lon="4.490057258009692"><ele>204.0</ele><time>2026-04-06T16:51:59.999Z</time></trkpt><trkpt lat="43.917606765984104" lon="4.4901947039775125"><ele>204.0</ele><time>2026-04-06T16:52:00.999Z</time></trkpt><trkpt lat="43.91766529208553" lon="4.490338409469954"><ele>204.0</ele><time>2026-04-06T16:52:01.999Z</time></trkpt><trkpt lat="43.91772920680663" lon="4.490463629924171"><ele>204.0</ele><time>2026-04-06T16:52:02.999Z</time></trkpt><trkpt lat="43.91779087523817" lon="4.490581703847954"><ele>204.0</ele><time>2026-04-06T16:52:03.999Z</time></trkpt><trkpt lat="43.91784662211513" lon="4.490701450861912"><ele>204.0</ele><time>2026-04-06T16:52:05Z</time></trkpt><trkpt lat="43.91789969043197" lon="4.490818339210705"><ele>203.39999999999998</ele><time>2026-04-06T16:52:06Z</time></trkpt><trkpt lat="43.91795184587378" lon="4.490932319296247"><ele>202.8</ele><time>2026-04-06T16:52:07Z</time></trkpt><trkpt lat="43.91800716015051" lon="4.491036460133618"><ele>202.2</ele><time>2026-04-06T16:52:08Z</time></trkpt><trkpt lat="43.918060372706826" lon="4.491133110030208"><ele>201.60000000000002</ele><time>2026-04-06T16:52:09Z</time></trkpt><trkpt lat="43.91811244151131" lon="4.491234142453159"><ele>201.0</ele><time>2026-04-06T16:52:10Z</time></trkpt><trkpt lat="43.918168081464174" lon="4.49133993370436"><ele>201.0</ele><time>2026-04-06T16:52:11Z</time></trkpt><trkpt lat="43.91823940327124" lon="4.491436310987186"><ele>201.0</ele><time>2026-04-06T16:52:12Z</time></trkpt><trkpt lat="43.918299364547394" lon="4.491544605058937"><ele>201.0</ele><time>2026-04-06T16:52:13Z</time></trkpt><trkpt lat="43.918385914196186" lon="4.491637507185057"><ele>201.0</ele><time>2026-04-06T16:52:14Z</time></trkpt><trkpt lat="43.9184615777775" lon="4.4917284065876615"><ele>201.0</ele><time>2026-04-06T16:52:15Z</time></trkpt><trkpt lat="43.91853416153132" lon="4.491827596654498"><ele>200.60000000000002</ele><time>2026-04-06T16:52:16Z</time></trkpt><trkpt lat="43.918609587340384" lon="4.491935271402728"><ele>200.2</ele><time>2026-04-06T16:52:17Z</time></trkpt><trkpt lat="43.918681883381474" lon="4.492038832017435"><ele>199.8</ele><time>2026-04-06T16:52:18Z</time></trkpt><trkpt lat="43.918747000675594" lon="4.492146367332422"><ele>199.39999999999998</ele><time>2026-04-06T16:52:19Z</time></trkpt><trkpt lat="43.91879870984398" lon="4.49226486235809"><ele>199.0</ele><time>2026-04-06T16:52:20Z</time></trkpt><trkpt lat="43.91882211561175" lon="4.4924018864503585"><ele>199.79999999999998</ele><time>2026-04-06T16:52:21Z</time></trkpt><trkpt lat="43.91883461296807" lon="4.492540703514076"><ele>200.6</ele><time>2026-04-06T16:52:22Z</time></trkpt><trkpt lat="43.91883500420304" lon="4.492672957193717"><ele>201.4</ele><time>2026-04-06T16:52:23Z</time></trkpt><trkpt lat="43.91885050092971" lon="4.492806431288947"><ele>202.2</ele><time>2026-04-06T16:52:24Z</time></trkpt><trkpt lat="43.91885543652003" lon="4.492938711991912"><ele>203.0</ele><time>2026-04-06T16:52:25Z</time></trkpt><trkpt lat="43.918866405472315" lon="4.493071753934078"><ele>203.4</ele><time>2026-04-06T16:52:26Z</time></trkpt><trkpt lat="43.91887410186227" lon="4.493206532277159"><ele>203.8</ele><time>2026-04-06T16:52:27Z</time></trkpt><trkpt lat="43.91887475708882" lon="4.4933399076469325"><ele>204.2</ele><time>2026-04-06T16:52:28Z</time></trkpt><trkpt lat="43.91887249449661" lon="4.493476813856966"><ele>204.6</ele><time>2026-04-06T16:52:29Z</time></trkpt><trkpt lat="43.91887106313206" lon="4.493614454279293"><ele>205.0</ele><time>2026-04-06T16:52:30Z</time></trkpt><trkpt lat="43.918873825486344" lon="4.493755469114943"><ele>205.2</ele><time>2026-04-06T16:52:31Z</time></trkpt><trkpt lat="43.91887634419085" lon="4.493894013580536"><ele>205.4</ele><time>2026-04-06T16:52:32Z</time></trkpt><trkpt lat="43.91887268669755" lon="4.494029495543353"><ele>205.60000000000002</ele><time>2026-04-06T16:52:33Z</time></trkpt><trkpt lat="43.918872178500386" lon="4.494169841865537"><ele>205.8</ele><time>2026-04-06T16:52:34Z</time></trkpt><trkpt lat="43.91886847601478" lon="4.494315168600942"><ele>206.0</ele><time>2026-04-06T16:52:35Z</time></trkpt><trkpt lat="43.91887236475035" lon="4.494459112043895"><ele>206.20000000000002</ele><time>2026-04-06T16:52:36Z</time></trkpt><trkpt lat="43.91888059358343" lon="4.494605558609256"><ele>206.4</ele><time>2026-04-06T16:52:37Z</time></trkpt><trkpt lat="43.91887006834252" lon="4.49474423714436"><ele>206.6</ele><time>2026-04-06T16:52:38Z</time></trkpt><trkpt lat="43.91889450454175" lon="4.494880009123841"><ele>206.8</ele><time>2026-04-06T16:52:39Z</time></trkpt><trkpt lat="43.91892903378948" lon="4.494998139434912"><ele>207.0</ele><time>2026-04-06T16:52:40Z</time></trkpt><trkpt lat="43.91897177750752" lon="4.495114416080651"><ele>207.0</ele><time>2026-04-06T16:52:41Z</time></trkpt><trkpt lat="43.91903071902524" lon="4.495231802573119"><ele>207.0</ele><time>2026-04-06T16:52:42Z</time></trkpt><trkpt lat="43.919084823413186" lon="4.495338966271771"><ele>207.0</ele><time>2026-04-06T16:52:43Z</time></trkpt><trkpt lat="43.9191436190409" lon="4.495451325827994"><ele>207.0</ele><time>2026-04-06T16:52:44Z</time></trkpt><trkpt lat="43.91920973390855" lon="4.49556991010569"><ele>207.0</ele><time>2026-04-06T16:52:45Z</time></trkpt><trkpt lat="43.91928796618704" lon="4.495668980539533"><ele>207.2</ele><time>2026-04-06T16:52:46Z</time></trkpt><trkpt lat="43.919355875626515" lon="4.495790962301629"><ele>207.39999999999998</ele><time>2026-04-06T16:52:47Z</time></trkpt><trkpt lat="43.91940404798317" lon="4.4959288087964095"><ele>207.60000000000002</ele><time>2026-04-06T16:52:48Z</time></trkpt><trkpt lat="43.919450002466135" lon="4.496053328169137"><ele>207.8</ele><time>2026-04-06T16:52:49Z</time></trkpt><trkpt lat="43.919488301418156" lon="4.4961862039568725"><ele>208.0</ele><time>2026-04-06T16:52:50Z</time></trkpt><trkpt lat="43.91953944045111" lon="4.496317345319857"><ele>208.0</ele><time>2026-04-06T16:52:51Z</time></trkpt><trkpt lat="43.919574351009764" lon="4.496457058392953"><ele>208.0</ele><time>2026-04-06T16:52:52Z</time></trkpt><trkpt lat="43.91963226394626" lon="4.4965691097051925"><ele>208.0</ele><time>2026-04-06T16:52:53Z</time></trkpt><trkpt lat="43.91966629378899" lon="4.496670421727307"><ele>208.0</ele><time>2026-04-06T16:52:54Z</time></trkpt><trkpt lat="43.91973415834999" lon="4.496787084777282"><ele>208.0</ele><time>2026-04-06T16:52:56Z</time></trkpt><trkpt lat="43.919774931834766" lon="4.496867194643552"><ele>207.99999999999997</ele><time>2026-04-06T16:52:58Z</time></trkpt><trkpt lat="43.919738460034196" lon="4.49676801235057"><ele>208.0</ele><time>2026-04-06T16:53:04Z</time></trkpt><trkpt lat="43.91968026503784" lon="4.496690960703417"><ele>208.0</ele><time>2026-04-06T16:53:06Z</time></trkpt><trkpt lat="43.91965015186976" lon="4.4966064672968145"><ele>208.0</ele><time>2026-04-06T16:53:08Z</time></trkpt><trkpt lat="43.91971465814564" lon="4.496730944982207"><ele>207.99999999999997</ele><time>2026-04-06T16:53:17.999Z</time></trkpt><trkpt lat="43.91976929395873" lon="4.496819147356042"><ele>208.0</ele><time>2026-04-06T16:53:18.999Z</time></trkpt><trkpt lat="43.91981842040833" lon="4.496904827031975"><ele>207.99999999999997</ele><time>2026-04-06T16:53:19.999Z</time></trkpt><trkpt lat="43.91986636428259" lon="4.49698346185369"><ele>208.0</ele><time>2026-04-06T16:53:20.999Z</time></trkpt><trkpt lat="43.91991332246084" lon="4.497082173828836"><ele>208.0</ele><time>2026-04-06T16:53:22.999Z</time></trkpt><trkpt lat="43.9199852509105" lon="4.4971287096964625"><ele>208.0</ele><time>2026-04-06T16:54:45.999Z</time></trkpt><trkpt lat="43.920043728496374" lon="4.497193875217854"><ele>207.99999999999997</ele><time>2026-04-06T16:54:47.999Z</time></trkpt><trkpt lat="43.920118597955415" lon="4.497268577631147"><ele>208.0</ele><time>2026-04-06T16:54:49.999Z</time></trkpt><trkpt lat="43.920179022997395" lon="4.49729488683868"><ele>207.33333333333331</ele><time>2026-04-06T16:54:50.999Z</time></trkpt><trkpt lat="43.9202468475889" lon="4.4973286197949305"><ele>206.66666666666666</ele><time>2026-04-06T16:54:51.999Z</time></trkpt><trkpt lat="43.920323228268636" lon="4.497384368462049"><ele>206.0</ele><time>2026-04-06T16:54:52.999Z</time></trkpt><trkpt lat="43.920401290805124" lon="4.4974179378593355"><ele>205.33333333333331</ele><time>2026-04-06T16:54:53.999Z</time></trkpt><trkpt lat="43.920472011181786" lon="4.4974522911863675"><ele>204.66666666666666</ele><time>2026-04-06T16:54:54.999Z</time></trkpt><trkpt lat="43.92054429426002" lon="4.4974912074203734"><ele>204.0</ele><time>2026-04-06T16:54:55.999Z</time></trkpt><trkpt lat="43.920624730579355" lon="4.497536709064372"><ele>204.0</ele><time>2026-04-06T16:54:56.999Z</time></trkpt><trkpt lat="43.92071365494579" lon="4.497591210568785"><ele>204.0</ele><time>2026-04-06T16:54:57.999Z</time></trkpt><trkpt lat="43.9208040849705" lon="4.497648619869809"><ele>204.0</ele><time>2026-04-06T16:54:58.999Z</time></trkpt><trkpt lat="43.92089835542634" lon="4.497708467242303"><ele>204.0</ele><time>2026-04-06T16:54:59.999Z</time></trkpt><trkpt lat="43.920989409951645" lon="4.4977662730254275"><ele>204.0</ele><time>2026-04-06T16:55:00.999Z</time></trkpt><trkpt lat="43.92107778473765" lon="4.497820959023217"><ele>203.83333333333334</ele><time>2026-04-06T16:55:01.999Z</time></trkpt><trkpt lat="43.92116023087358" lon="4.497870897246027"><ele>203.66666666666669</ele><time>2026-04-06T16:55:02.999Z</time></trkpt><trkpt lat="43.921241935219555" lon="4.497917722492729"><ele>203.5</ele><time>2026-04-06T16:55:03.999Z</time></trkpt><trkpt lat="43.9213269770048" lon="4.497948551602425"><ele>203.33333333333334</ele><time>2026-04-06T16:55:04.999Z</time></trkpt><trkpt lat="43.921411240418536" lon="4.497980057600282"><ele>203.16666666666669</ele><time>2026-04-06T16:55:05.999Z</time></trkpt><trkpt lat="43.92148861277335" lon="4.498022339833097"><ele>203.0</ele><time>2026-04-06T16:55:06.999Z</time></trkpt><trkpt lat="43.92156516388861" lon="4.4980599977211835"><ele>203.00000000000003</ele><time>2026-04-06T16:55:07.999Z</time></trkpt><trkpt lat="43.92164508451537" lon="4.498075378670418"><ele>203.0</ele><time>2026-04-06T16:55:08.999Z</time></trkpt><trkpt lat="43.92171626484879" lon="4.49809535367523"><ele>203.0</ele><time>2026-04-06T16:55:09.999Z</time></trkpt><trkpt lat="43.92179121356539" lon="4.498114022562595"><ele>203.0</ele><time>2026-04-06T16:55:10.999Z</time></trkpt><trkpt lat="43.92187886914538" lon="4.498118962760295"><ele>203.00000000000003</ele><time>2026-04-06T16:55:11.999Z</time></trkpt><trkpt lat="43.92197491434159" lon="4.498124279322058"><ele>203.0</ele><time>2026-04-06T16:55:12.999Z</time></trkpt><trkpt lat="43.922073640014204" lon="4.4981233038043875"><ele>202.4</ele><time>2026-04-06T16:55:13.999Z</time></trkpt><trkpt lat="43.92217132744195" lon="4.498110990083574"><ele>201.8</ele><time>2026-04-06T16:55:14.999Z</time></trkpt><trkpt lat="43.92227222233723" lon="4.498123858127461"><ele>201.2</ele><time>2026-04-06T16:55:15.999Z</time></trkpt><trkpt lat="43.922371967133756" lon="4.498119881179225"><ele>200.6</ele><time>2026-04-06T16:55:16.999Z</time></trkpt><trkpt lat="43.92246402165559" lon="4.498102165947927"><ele>200.0</ele><time>2026-04-06T16:55:17.999Z</time></trkpt><trkpt lat="43.92255775931217" lon="4.498099610518128"><ele>199.66666666666669</ele><time>2026-04-06T16:55:18.999Z</time></trkpt><trkpt lat="43.92265532073259" lon="4.498122499656773"><ele>199.33333333333334</ele><time>2026-04-06T16:55:19.999Z</time></trkpt><trkpt lat="43.9227243250529" lon="4.498125550590488"><ele>199.0</ele><time>2026-04-06T16:55:20.999Z</time></trkpt><trkpt lat="43.92281826232354" lon="4.498109654467057"><ele>198.66666666666669</ele><time>2026-04-06T16:55:21.999Z</time></trkpt><trkpt lat="43.922900724283906" lon="4.498135188845923"><ele>198.33333333333334</ele><time>2026-04-06T16:55:22.999Z</time></trkpt><trkpt lat="43.922976224905256" lon="4.498140473330213"><ele>198.0</ele><time>2026-04-06T16:55:23.999Z</time></trkpt><trkpt lat="43.92306067317513" lon="4.498132039142061"><ele>198.0</ele><time>2026-04-06T16:55:24.999Z</time></trkpt><trkpt lat="43.9231410394369" lon="4.498143255534043"><ele>198.0</ele><time>2026-04-06T16:55:25.999Z</time></trkpt><trkpt lat="43.923222460732" lon="4.498158959331045"><ele>198.0</ele><time>2026-04-06T16:55:26.999Z</time></trkpt><trkpt lat="43.92331065391473" lon="4.498188025913009"><ele>198.0</ele><time>2026-04-06T16:55:27.999Z</time></trkpt><trkpt lat="43.92338932498238" lon="4.498239375699313"><ele>198.0</ele><time>2026-04-06T16:55:28.999Z</time></trkpt><trkpt lat="43.923479194830854" lon="4.498288800410057"><ele>198.0</ele><time>2026-04-06T16:55:29.999Z</time></trkpt><trkpt lat="43.92357035207288" lon="4.498315612331814"><ele>198.0</ele><time>2026-04-06T16:55:30.999Z</time></trkpt><trkpt lat="43.92364692577592" lon="4.498358893090359"><ele>198.0</ele><time>2026-04-06T16:55:31.999Z</time></trkpt><trkpt lat="43.92371010438573" lon="4.498389109622979"><ele>198.0</ele><time>2026-04-06T16:55:32.999Z</time></trkpt><trkpt lat="43.92380483631718" lon="4.498425686118055"><ele>198.0</ele><time>2026-04-06T16:55:34.999Z</time></trkpt><trkpt lat="43.92387403184043" lon="4.498468086182019"><ele>198.0</ele><time>2026-04-06T16:55:36.999Z</time></trkpt><trkpt lat="43.923954496576286" lon="4.498494226878403"><ele>198.0</ele><time>2026-04-06T16:55:38.999Z</time></trkpt><trkpt lat="43.92406010213432" lon="4.498541460766682"><ele>198.0</ele><time>2026-04-06T16:55:40.999Z</time></trkpt><trkpt lat="43.92412445722672" lon="4.498586249206514"><ele>198.0</ele><time>2026-04-06T16:55:41.999Z</time></trkpt><trkpt lat="43.92419049944155" lon="4.498621481820679"><ele>198.0</ele><time>2026-04-06T16:55:42.999Z</time></trkpt><trkpt lat="43.92426089470322" lon="4.498661323412085"><ele>198.0</ele><time>2026-04-06T16:55:43.999Z</time></trkpt><trkpt lat="43.92432720552921" lon="4.498708293390843"><ele>198.0</ele><time>2026-04-06T16:55:44.999Z</time></trkpt><trkpt lat="43.92440012194228" lon="4.498754103191658"><ele>198.0</ele><time>2026-04-06T16:55:45.999Z</time></trkpt><trkpt lat="43.92448717487557" lon="4.498808955673858"><ele>198.0</ele><time>2026-04-06T16:55:46.999Z</time></trkpt><trkpt lat="43.92456865462354" lon="4.498866886196423"><ele>198.0</ele><time>2026-04-06T16:55:47.999Z</time></trkpt><trkpt lat="43.92465020204881" lon="4.49892449741003"><ele>198.0</ele><time>2026-04-06T16:55:48.999Z</time></trkpt><trkpt lat="43.92473621360699" lon="4.498974954337433"><ele>198.0</ele><time>2026-04-06T16:55:49.999Z</time></trkpt><trkpt lat="43.924817124528914" lon="4.49904908285699"><ele>198.0</ele><time>2026-04-06T16:55:50.999Z</time></trkpt><trkpt lat="43.92490277916866" lon="4.499079103235723"><ele>198.0</ele><time>2026-04-06T16:55:51.999Z</time></trkpt><trkpt lat="43.92497894765563" lon="4.499136624375619"><ele>198.0</ele><time>2026-04-06T16:55:52.999Z</time></trkpt><trkpt lat="43.9250422428377" lon="4.499197281006843"><ele>198.0</ele><time>2026-04-06T16:55:53.999Z</time></trkpt><trkpt lat="43.925084626745495" lon="4.499302498394453"><ele>198.0</ele><time>2026-04-06T16:55:54.999Z</time></trkpt><trkpt lat="43.925119330385876" lon="4.499418566447818"><ele>198.0</ele><time>2026-04-06T16:55:55.999Z</time></trkpt><trkpt lat="43.92517466053399" lon="4.499536807541846"><ele>198.0</ele><time>2026-04-06T16:55:56.999Z</time></trkpt><trkpt lat="43.92523919365203" lon="4.499628792805826"><ele>198.2</ele><time>2026-04-06T16:55:57.999Z</time></trkpt><trkpt lat="43.92530996543464" lon="4.499691908003406"><ele>198.4</ele><time>2026-04-06T16:55:58.999Z</time></trkpt><trkpt lat="43.925388153545114" lon="4.499767578684632"><ele>198.6</ele><time>2026-04-06T16:55:59.999Z</time></trkpt><trkpt lat="43.92547559999912" lon="4.499800500757168"><ele>198.79999999999998</ele><time>2026-04-06T16:56:00.999Z</time></trkpt><trkpt lat="43.925569880730606" lon="4.499873925539716"><ele>199.0</ele><time>2026-04-06T16:56:01.999Z</time></trkpt><trkpt lat="43.925666332786946" lon="4.499935270636622"><ele>199.0</ele><time>2026-04-06T16:56:02.999Z</time></trkpt><trkpt lat="43.92575610287484" lon="4.4999937509105665"><ele>199.0</ele><time>2026-04-06T16:56:03.999Z</time></trkpt><trkpt lat="43.92584607265083" lon="4.500071695744388"><ele>199.0</ele><time>2026-04-06T16:56:04.999Z</time></trkpt><trkpt lat="43.92594334870642" lon="4.500106655880062"><ele>199.0</ele><time>2026-04-06T16:56:05.999Z</time></trkpt><trkpt lat="43.926034882675076" lon="4.500161099354726"><ele>199.0</ele><time>2026-04-06T16:56:06.999Z</time></trkpt><trkpt lat="43.92612158493522" lon="4.500235360682359"><ele>199.2</ele><time>2026-04-06T16:56:07.999Z</time></trkpt><trkpt lat="43.92621027664266" lon="4.500287258720194"><ele>199.39999999999998</ele><time>2026-04-06T16:56:08.999Z</time></trkpt><trkpt lat="43.92629293975114" lon="4.500336510739659"><ele>199.6</ele><time>2026-04-06T16:56:09.999Z</time></trkpt><trkpt lat="43.92637706079413" lon="4.500386631223591"><ele>199.8</ele><time>2026-04-06T16:56:10.999Z</time></trkpt><trkpt lat="43.92646490681679" lon="4.500421827021173"><ele>200.0</ele><time>2026-04-06T16:56:11.999Z</time></trkpt><trkpt lat="43.926546219580494" lon="4.5004702263205525"><ele>200.2</ele><time>2026-04-06T16:56:12.999Z</time></trkpt><trkpt lat="43.9266175754691" lon="4.500545103217159"><ele>200.4</ele><time>2026-04-06T16:56:13.999Z</time></trkpt><trkpt lat="43.92670286372538" lon="4.50060217854911"><ele>200.60000000000002</ele><time>2026-04-06T16:56:14.999Z</time></trkpt><trkpt lat="43.926771456490265" lon="4.500697610226992"><ele>200.8</ele><time>2026-04-06T16:56:15.999Z</time></trkpt><trkpt lat="43.92685314670002" lon="4.500763744131723"><ele>201.0</ele><time>2026-04-06T16:56:16.999Z</time></trkpt><trkpt lat="43.92693493310345" lon="4.50084278817427"><ele>201.0</ele><time>2026-04-06T16:56:17.999Z</time></trkpt><trkpt lat="43.92701691519677" lon="4.5009259417051615"><ele>201.0</ele><time>2026-04-06T16:56:18.999Z</time></trkpt><trkpt lat="43.92710134788087" lon="4.5010111655021525"><ele>201.0</ele><time>2026-04-06T16:56:19.999Z</time></trkpt><trkpt lat="43.92718326033759" lon="4.501103605501835"><ele>201.0</ele><time>2026-04-06T16:56:20.999Z</time></trkpt><trkpt lat="43.92726592565629" lon="4.5011814500544185"><ele>201.0</ele><time>2026-04-06T16:56:21.999Z</time></trkpt><trkpt lat="43.92735670592888" lon="4.50124919787438"><ele>201.20000000000002</ele><time>2026-04-06T16:56:22.999Z</time></trkpt><trkpt lat="43.927435887931416" lon="4.5013425462938965"><ele>201.4</ele><time>2026-04-06T16:56:23.999Z</time></trkpt><trkpt lat="43.92751563135468" lon="4.501422476253528"><ele>201.6</ele><time>2026-04-06T16:56:24.999Z</time></trkpt><trkpt lat="43.92759864211674" lon="4.501509579292013"><ele>201.8</ele><time>2026-04-06T16:56:25.999Z</time></trkpt><trkpt lat="43.92768587583346" lon="4.501603153091725"><ele>202.0</ele><time>2026-04-06T16:56:26.999Z</time></trkpt><trkpt lat="43.927769174984135" lon="4.501699249846808"><ele>202.0</ele><time>2026-04-06T16:56:27.999Z</time></trkpt><trkpt lat="43.92786793120917" lon="4.501784955296111"><ele>202.0</ele><time>2026-04-06T16:56:28.999Z</time></trkpt><trkpt lat="43.927952988785044" lon="4.501881083246437"><ele>202.0</ele><time>2026-04-06T16:56:29.999Z</time></trkpt><trkpt lat="43.92803995253075" lon="4.501977316188375"><ele>202.0</ele><time>2026-04-06T16:56:30.999Z</time></trkpt><trkpt lat="43.92813583667503" lon="4.502067993072797"><ele>201.25</ele><time>2026-04-06T16:56:31.999Z</time></trkpt><trkpt lat="43.928234361604176" lon="4.502140902349085"><ele>200.5</ele><time>2026-04-06T16:56:32.999Z</time></trkpt><trkpt lat="43.92833018566988" lon="4.502225427333929"><ele>199.75</ele><time>2026-04-06T16:56:33.999Z</time></trkpt><trkpt lat="43.928436393649335" lon="4.502300770272027"><ele>199.0</ele><time>2026-04-06T16:56:34.999Z</time></trkpt><trkpt lat="43.928539042160466" lon="4.502380664781339"><ele>199.0</ele><time>2026-04-06T16:56:35.999Z</time></trkpt><trkpt lat="43.92864331703266" lon="4.5024627071997525"><ele>199.0</ele><time>2026-04-06T16:56:36.999Z</time></trkpt><trkpt lat="43.92874014282151" lon="4.502548342444086"><ele>199.0</ele><time>2026-04-06T16:56:37.999Z</time></trkpt><trkpt lat="43.92880804548393" lon="4.502660993607473"><ele>199.0</ele><time>2026-04-06T16:56:38.999Z</time></trkpt><trkpt lat="43.92884451179474" lon="4.502800449170689"><ele>199.0</ele><time>2026-04-06T16:56:39.999Z</time></trkpt><trkpt lat="43.9288834813145" lon="4.50293431077894"><ele>198.49999999999997</ele><time>2026-04-06T16:56:40.999Z</time></trkpt><trkpt lat="43.928928977962265" lon="4.503068624479223"><ele>198.0</ele><time>2026-04-06T16:56:41.999Z</time></trkpt><trkpt lat="43.928984194149095" lon="4.503164392872902"><ele>197.5</ele><time>2026-04-06T16:56:42.999Z</time></trkpt><trkpt lat="43.929054006258745" lon="4.503219403473375"><ele>197.0</ele><time>2026-04-06T16:56:43.999Z</time></trkpt><trkpt lat="43.92911340762852" lon="4.5032959061081215"><ele>196.49999999999997</ele><time>2026-04-06T16:56:44.999Z</time></trkpt><trkpt lat="43.92920421675605" lon="4.503307492108592"><ele>196.0</ele><time>2026-04-06T16:56:45.999Z</time></trkpt><trkpt lat="43.92928831728372" lon="4.503308985054159"><ele>195.4</ele><time>2026-04-06T16:56:46.999Z</time></trkpt><trkpt lat="43.92938065308406" lon="4.503283571860694"><ele>194.8</ele><time>2026-04-06T16:56:47.999Z</time></trkpt><trkpt lat="43.92946787258318" lon="4.503208353037897"><ele>194.20000000000002</ele><time>2026-04-06T16:56:48.999Z</time></trkpt><trkpt lat="43.92956474322484" lon="4.503205004311601"><ele>193.60000000000002</ele><time>2026-04-06T16:56:49.999Z</time></trkpt><trkpt lat="43.9296695206177" lon="4.50320528208281"><ele>193.0</ele><time>2026-04-06T16:56:50.999Z</time></trkpt><trkpt lat="43.929778183480096" lon="4.503244988661077"><ele>193.0</ele><time>2026-04-06T16:56:51.999Z</time></trkpt><trkpt lat="43.92990025530261" lon="4.5032717503787465"><ele>193.0</ele><time>2026-04-06T16:56:52.999Z</time></trkpt><trkpt lat="43.93002933819511" lon="4.503246163310763"><ele>193.0</ele><time>2026-04-06T16:56:53.999Z</time></trkpt><trkpt lat="43.930152247847026" lon="4.503267875529485"><ele>193.0</ele><time>2026-04-06T16:56:54.999Z</time></trkpt><trkpt lat="43.93027620983669" lon="4.503294715417312"><ele>192.75</ele><time>2026-04-06T16:56:55.999Z</time></trkpt><trkpt lat="43.9303969355018" lon="4.503330320670402"><ele>192.5</ele><time>2026-04-06T16:56:56.999Z</time></trkpt><trkpt lat="43.930510732582775" lon="4.503368950085286"><ele>192.25</ele><time>2026-04-06T16:56:57.999Z</time></trkpt><trkpt lat="43.93062096496819" lon="4.50341697778418"><ele>192.0</ele><time>2026-04-06T16:56:58.999Z</time></trkpt><trkpt lat="43.93072531089125" lon="4.503472727907833"><ele>192.0</ele><time>2026-04-06T16:56:59.999Z</time></trkpt><trkpt lat="43.930825016724576" lon="4.50353841859088"><ele>192.0</ele><time>2026-04-06T16:57:00.999Z</time></trkpt><trkpt lat="43.93092435939472" lon="4.503626761136645"><ele>192.0</ele><time>2026-04-06T16:57:01.999Z</time></trkpt><trkpt lat="43.93102571590854" lon="4.503728150180916"><ele>192.0</ele><time>2026-04-06T16:57:02.999Z</time></trkpt><trkpt lat="43.93112380266304" lon="4.503834995852502"><ele>191.0</ele><time>2026-04-06T16:57:03.999Z</time></trkpt><trkpt lat="43.93121071009251" lon="4.503949810877666"><ele>190.0</ele><time>2026-04-06T16:57:04.999Z</time></trkpt><trkpt lat="43.93129006059324" lon="4.504078824024418"><ele>189.0</ele><time>2026-04-06T16:57:05.999Z</time></trkpt><trkpt lat="43.93135451105973" lon="4.504220894898796"><ele>188.0</ele><time>2026-04-06T16:57:06.999Z</time></trkpt><trkpt lat="43.93140277078907" lon="4.504374445129651"><ele>188.0</ele><time>2026-04-06T16:57:07.999Z</time></trkpt><trkpt lat="43.93141499559696" lon="4.50454939856545"><ele>188.0</ele><time>2026-04-06T16:57:08.999Z</time></trkpt><trkpt lat="43.93143642593647" lon="4.504720022834395"><ele>188.0</ele><time>2026-04-06T16:57:09.999Z</time></trkpt><trkpt lat="43.93146405803582" lon="4.504878418657547"><ele>188.0</ele><time>2026-04-06T16:57:10.999Z</time></trkpt><trkpt lat="43.931474130952346" lon="4.505048391645767"><ele>186.75</ele><time>2026-04-06T16:57:11.999Z</time></trkpt><trkpt lat="43.931510800293566" lon="4.5052101039614545"><ele>185.5</ele><time>2026-04-06T16:57:12.999Z</time></trkpt><trkpt lat="43.93154752751784" lon="4.5053627512402326"><ele>184.25</ele><time>2026-04-06T16:57:13.999Z</time></trkpt><trkpt lat="43.93157583613456" lon="4.505508114835321"><ele>183.0</ele><time>2026-04-06T16:57:14.999Z</time></trkpt><trkpt lat="43.93159124158883" lon="4.505661116168366"><ele>182.60000000000002</ele><time>2026-04-06T16:57:15.999Z</time></trkpt><trkpt lat="43.931616036325316" lon="4.5058052520688925"><ele>182.20000000000002</ele><time>2026-04-06T16:57:16.999Z</time></trkpt><trkpt lat="43.93163694335888" lon="4.505939678508693"><ele>181.8</ele><time>2026-04-06T16:57:17.999Z</time></trkpt><trkpt lat="43.93166587838026" lon="4.506071212748887"><ele>181.4</ele><time>2026-04-06T16:57:18.999Z</time></trkpt><trkpt lat="43.93168039037456" lon="4.506223899467621"><ele>181.0</ele><time>2026-04-06T16:57:19.999Z</time></trkpt><trkpt lat="43.93168766076155" lon="4.506378298685811"><ele>180.25</ele><time>2026-04-06T16:57:20.999Z</time></trkpt><trkpt lat="43.93169650687311" lon="4.506537279176861"><ele>179.5</ele><time>2026-04-06T16:57:21.999Z</time></trkpt><trkpt lat="43.93168649639096" lon="4.506704403819547"><ele>178.75</ele><time>2026-04-06T16:57:22.999Z</time></trkpt><trkpt lat="43.93170292766193" lon="4.506870506470487"><ele>178.0</ele><time>2026-04-06T16:57:23.999Z</time></trkpt><trkpt lat="43.93169448100965" lon="4.5070428650012015"><ele>177.5</ele><time>2026-04-06T16:57:24.999Z</time></trkpt><trkpt lat="43.93169404708565" lon="4.50720909946595"><ele>177.0</ele><time>2026-04-06T16:57:25.999Z</time></trkpt><trkpt lat="43.93169164497698" lon="4.507374265439316"><ele>176.5</ele><time>2026-04-06T16:57:26.999Z</time></trkpt><trkpt lat="43.931674136741734" lon="4.5075337672301625"><ele>176.0</ele><time>2026-04-06T16:57:27.999Z</time></trkpt><trkpt lat="43.93168434532418" lon="4.507696896269759"><ele>176.0</ele><time>2026-04-06T16:57:28.999Z</time></trkpt><trkpt lat="43.931719896503864" lon="4.507854270395814"><ele>176.0</ele><time>2026-04-06T16:57:29.999Z</time></trkpt><trkpt lat="43.931725134782894" lon="4.508023051371201"><ele>176.0</ele><time>2026-04-06T16:57:30.999Z</time></trkpt><trkpt lat="43.93175332067353" lon="4.508185959485875"><ele>176.0</ele><time>2026-04-06T16:57:31.999Z</time></trkpt><trkpt lat="43.93175983048359" lon="4.508350234766127"><ele>176.0</ele><time>2026-04-06T16:57:32.999Z</time></trkpt><trkpt lat="43.93177301371418" lon="4.508513046189143"><ele>176.0</ele><time>2026-04-06T16:57:33.999Z</time></trkpt><trkpt lat="43.9317748523389" lon="4.508677864379366"><ele>176.0</ele><time>2026-04-06T16:57:34.999Z</time></trkpt><trkpt lat="43.931775774640684" lon="4.508837066724487"><ele>176.0</ele><time>2026-04-06T16:57:35.999Z</time></trkpt><trkpt lat="43.93177402833116" lon="4.50899437730052"><ele>175.0</ele><time>2026-04-06T16:57:36.999Z</time></trkpt><trkpt lat="43.93176325150742" lon="4.5091525870045235"><ele>174.0</ele><time>2026-04-06T16:57:37.999Z</time></trkpt><trkpt lat="43.93177255135877" lon="4.509311171307673"><ele>173.0</ele><time>2026-04-06T16:57:38.999Z</time></trkpt><trkpt lat="43.931813724467446" lon="4.509465324507658"><ele>172.0</ele><time>2026-04-06T16:57:39.999Z</time></trkpt><trkpt lat="43.93185618441041" lon="4.50961441608"><ele>171.8</ele><time>2026-04-06T16:57:40.999Z</time></trkpt><trkpt lat="43.93190673506936" lon="4.509753946607218"><ele>171.6</ele><time>2026-04-06T16:57:41.999Z</time></trkpt><trkpt lat="43.931936325433774" lon="4.50990676655812"><ele>171.4</ele><time>2026-04-06T16:57:42.999Z</time></trkpt><trkpt lat="43.93197774038828" lon="4.510042542259245"><ele>171.20000000000002</ele><time>2026-04-06T16:57:43.999Z</time></trkpt><trkpt lat="43.93200345175223" lon="4.510183137220082"><ele>171.0</ele><time>2026-04-06T16:57:44.999Z</time></trkpt><trkpt lat="43.932034050714826" lon="4.510314399691175"><ele>170.33333333333334</ele><time>2026-04-06T16:57:45.999Z</time></trkpt><trkpt lat="43.932055762245064" lon="4.510431604487828"><ele>169.66666666666666</ele><time>2026-04-06T16:57:46.999Z</time></trkpt><trkpt lat="43.93210519070748" lon="4.510503992416798"><ele>169.0</ele><time>2026-04-06T16:57:47.999Z</time></trkpt><trkpt lat="43.93216029295031" lon="4.5106328356963505"><ele>168.33333333333331</ele><time>2026-04-06T16:57:49.999Z</time></trkpt><trkpt lat="43.932232611697515" lon="4.510678231709706"><ele>167.66666666666666</ele><time>2026-04-06T16:57:51.999Z</time></trkpt><trkpt lat="43.93229390547794" lon="4.510723234103482"><ele>167.0</ele><time>2026-04-06T16:57:53.999Z</time></trkpt><trkpt lat="43.93241673871361" lon="4.510825918721397"><ele>167.0</ele><time>2026-04-06T16:57:55.999Z</time></trkpt><trkpt lat="43.93249323694049" lon="4.51087470105368"><ele>167.0</ele><time>2026-04-06T16:57:56.999Z</time></trkpt><trkpt lat="43.9325604854939" lon="4.510953528953425"><ele>167.0</ele><time>2026-04-06T16:57:57.999Z</time></trkpt><trkpt lat="43.9325967764853" lon="4.511054658390168"><ele>167.0</ele><time>2026-04-06T16:57:58.999Z</time></trkpt><trkpt lat="43.93257523251738" lon="4.511172864880971"><ele>167.0</ele><time>2026-04-06T16:57:59.999Z</time></trkpt><trkpt lat="43.93255148791751" lon="4.511268651215769"><ele>167.0</ele><time>2026-04-06T16:58:00.999Z</time></trkpt><trkpt lat="43.93251859913909" lon="4.5113887182061765"><ele>166.6</ele><time>2026-04-06T16:58:01.999Z</time></trkpt><trkpt lat="43.932529393173695" lon="4.511519980473788"><ele>166.2</ele><time>2026-04-06T16:58:02.999Z</time></trkpt><trkpt lat="43.93252023393896" lon="4.511653701793028"><ele>165.8</ele><time>2026-04-06T16:58:03.999Z</time></trkpt><trkpt lat="43.932528799535916" lon="4.511797584501545"><ele>165.4</ele><time>2026-04-06T16:58:04.999Z</time></trkpt><trkpt lat="43.932551365841455" lon="4.511943867820287"><ele>165.0</ele><time>2026-04-06T16:58:05.999Z</time></trkpt><trkpt lat="43.93258764496942" lon="4.512085515571473"><ele>163.25</ele><time>2026-04-06T16:58:06.999Z</time></trkpt><trkpt lat="43.93263548353755" lon="4.512230074602963"><ele>161.5</ele><time>2026-04-06T16:58:07.999Z</time></trkpt><trkpt lat="43.93268379174224" lon="4.512374864415649"><ele>159.75</ele><time>2026-04-06T16:58:08.999Z</time></trkpt><trkpt lat="43.93273059232837" lon="4.512521983952736"><ele>158.0</ele><time>2026-04-06T16:58:09.999Z</time></trkpt><trkpt lat="43.932773510250826" lon="4.512671755712712"><ele>158.0</ele><time>2026-04-06T16:58:10.999Z</time></trkpt><trkpt lat="43.932820509867746" lon="4.512817027449201"><ele>158.0</ele><time>2026-04-06T16:58:11.999Z</time></trkpt><trkpt lat="43.93287541512566" lon="4.512962918171027"><ele>158.0</ele><time>2026-04-06T16:58:12.999Z</time></trkpt><trkpt lat="43.9329354347262" lon="4.513102397151381"><ele>158.0</ele><time>2026-04-06T16:58:13.999Z</time></trkpt><trkpt lat="43.93300538088528" lon="4.5132361126327245"><ele>158.0</ele><time>2026-04-06T16:58:14.999Z</time></trkpt><trkpt lat="43.933078155756874" lon="4.513359420158077"><ele>158.0</ele><time>2026-04-06T16:58:15.999Z</time></trkpt><trkpt lat="43.933160906601884" lon="4.513483607092609"><ele>158.0</ele><time>2026-04-06T16:58:16.999Z</time></trkpt><trkpt lat="43.93324061417234" lon="4.513606122269134"><ele>158.0</ele><time>2026-04-06T16:58:17.999Z</time></trkpt><trkpt lat="43.933325286413805" lon="4.513719016943102"><ele>158.75</ele><time>2026-04-06T16:58:18.999Z</time></trkpt><trkpt lat="43.93341045665399" lon="4.513822282731554"><ele>159.5</ele><time>2026-04-06T16:58:19.999Z</time></trkpt><trkpt lat="43.93350008261541" lon="4.513924638123031"><ele>160.25</ele><time>2026-04-06T16:58:20.999Z</time></trkpt><trkpt lat="43.93357654477123" lon="4.514050103144627"><ele>161.0</ele><time>2026-04-06T16:58:21.999Z</time></trkpt><trkpt lat="43.93366624008304" lon="4.514148967049026"><ele>161.0</ele><time>2026-04-06T16:58:23Z</time></trkpt><trkpt lat="43.933736967566475" lon="4.5142640409191594"><ele>161.0</ele><time>2026-04-06T16:58:24Z</time></trkpt><trkpt lat="43.93381519069154" lon="4.514353259994769"><ele>161.0</ele><time>2026-04-06T16:58:25Z</time></trkpt><trkpt lat="43.93391322711236" lon="4.51442401582679"><ele>161.0</ele><time>2026-04-06T16:58:26Z</time></trkpt><trkpt lat="43.933997216960016" lon="4.514509050337458"><ele>161.0</ele><time>2026-04-06T16:58:27Z</time></trkpt><trkpt lat="43.93407632965547" lon="4.5146063288812845"><ele>161.60000000000002</ele><time>2026-04-06T16:58:28Z</time></trkpt><trkpt lat="43.93417459807305" lon="4.514674542636091"><ele>162.2</ele><time>2026-04-06T16:58:29Z</time></trkpt><trkpt lat="43.9342598803" lon="4.5147583498773285"><ele>162.8</ele><time>2026-04-06T16:58:30Z</time></trkpt><trkpt lat="43.93435204201659" lon="4.514845725446646"><ele>163.39999999999998</ele><time>2026-04-06T16:58:31Z</time></trkpt><trkpt lat="43.93444169368375" lon="4.514927164263966"><ele>164.0</ele><time>2026-04-06T16:58:32Z</time></trkpt><trkpt lat="43.93452893053678" lon="4.515008386605443"><ele>164.0</ele><time>2026-04-06T16:58:33Z</time></trkpt><trkpt lat="43.934645845480205" lon="4.515045080174756"><ele>164.0</ele><time>2026-04-06T16:58:34Z</time></trkpt><trkpt lat="43.934754133992996" lon="4.515060320588875"><ele>164.0</ele><time>2026-04-06T16:58:35Z</time></trkpt><trkpt lat="43.934860966643214" lon="4.515055545955574"><ele>164.0</ele><time>2026-04-06T16:58:36Z</time></trkpt><trkpt lat="43.9349596132788" lon="4.515057640183081"><ele>164.0</ele><time>2026-04-06T16:58:37Z</time></trkpt><trkpt lat="43.935055229910986" lon="4.515084883347592"><ele>164.2</ele><time>2026-04-06T16:58:38Z</time></trkpt><trkpt lat="43.93514955827722" lon="4.51513268110483"><ele>164.39999999999998</ele><time>2026-04-06T16:58:39Z</time></trkpt><trkpt lat="43.935239337320844" lon="4.515219024052869"><ele>164.6</ele><time>2026-04-06T16:58:40Z</time></trkpt><trkpt lat="43.93533392267887" lon="4.51530113971917"><ele>164.8</ele><time>2026-04-06T16:58:41Z</time></trkpt><trkpt lat="43.93542411972552" lon="4.515384036750568"><ele>165.0</ele><time>2026-04-06T16:58:42Z</time></trkpt><trkpt lat="43.9355229180911" lon="4.515456365170212"><ele>165.0</ele><time>2026-04-06T16:58:43Z</time></trkpt><trkpt lat="43.9356203891653" lon="4.515535854746535"><ele>165.0</ele><time>2026-04-06T16:58:44Z</time></trkpt><trkpt lat="43.93571576686706" lon="4.51561745328917"><ele>165.0</ele><time>2026-04-06T16:58:45Z</time></trkpt><trkpt lat="43.93580742916583" lon="4.515713743779901"><ele>165.0</ele><time>2026-04-06T16:58:46Z</time></trkpt><trkpt lat="43.93590315060022" lon="4.515805358235835"><ele>164.5</ele><time>2026-04-06T16:58:47Z</time></trkpt><trkpt lat="43.93600372742657" lon="4.515893022750853"><ele>164.0</ele><time>2026-04-06T16:58:48Z</time></trkpt><trkpt lat="43.93611166517634" lon="4.515937521996606"><ele>163.5</ele><time>2026-04-06T16:58:49Z</time></trkpt><trkpt lat="43.93622313921636" lon="4.515996482869132"><ele>163.0</ele><time>2026-04-06T16:58:50Z</time></trkpt><trkpt lat="43.93633076774338" lon="4.516042971283747"><ele>163.0</ele><time>2026-04-06T16:58:51Z</time></trkpt><trkpt lat="43.93643315447648" lon="4.516093051216546"><ele>163.0</ele><time>2026-04-06T16:58:52Z</time></trkpt><trkpt lat="43.93653369262722" lon="4.5161363374058325"><ele>163.0</ele><time>2026-04-06T16:58:53Z</time></trkpt><trkpt lat="43.9366129170336" lon="4.516222580321345"><ele>163.0</ele><time>2026-04-06T16:58:54Z</time></trkpt><trkpt lat="43.936682762183715" lon="4.516318787796096"><ele>163.0</ele><time>2026-04-06T16:58:55Z</time></trkpt><trkpt lat="43.93673633835752" lon="4.516410307676156"><ele>163.2</ele><time>2026-04-06T16:58:56Z</time></trkpt><trkpt lat="43.93677198151225" lon="4.516496856632639"><ele>163.4</ele><time>2026-04-06T16:58:57Z</time></trkpt><trkpt lat="43.9367704166254" lon="4.51658932328759"><ele>163.6</ele><time>2026-04-06T16:58:58Z</time></trkpt><trkpt lat="43.936732771828304" lon="4.5167379307039885"><ele>163.79999999999998</ele><time>2026-04-06T16:59:00Z</time></trkpt><trkpt lat="43.93669446913522" lon="4.516809023344646"><ele>164.0</ele><time>2026-04-06T16:59:01Z</time></trkpt><trkpt lat="43.936579375074814" lon="4.516906735159758"><ele>164.0</ele><time>2026-04-06T16:59:03Z</time></trkpt><trkpt lat="43.93651752879138" lon="4.516974231351747"><ele>164.0</ele><time>2026-04-06T16:59:04Z</time></trkpt><trkpt lat="43.93645313763208" lon="4.517057586185182"><ele>164.0</ele><time>2026-04-06T16:59:05Z</time></trkpt><trkpt lat="43.93639605648192" lon="4.517146149571399"><ele>164.0</ele><time>2026-04-06T16:59:06Z</time></trkpt><trkpt lat="43.936367553774105" lon="4.51727128437987"><ele>164.0</ele><time>2026-04-06T16:59:07Z</time></trkpt><trkpt lat="43.93640624962137" lon="4.517410776612622"><ele>163.0</ele><time>2026-04-06T16:59:08Z</time></trkpt><trkpt lat="43.93642653316196" lon="4.517532618751009"><ele>162.0</ele><time>2026-04-06T16:59:09Z</time></trkpt><trkpt lat="43.93644885757584" lon="4.517655557968914"><ele>161.0</ele><time>2026-04-06T16:59:10Z</time></trkpt><trkpt lat="43.936456734434" lon="4.517779114729313"><ele>160.0</ele><time>2026-04-06T16:59:11Z</time></trkpt><trkpt lat="43.936474548719914" lon="4.517901111207922"><ele>159.0</ele><time>2026-04-06T16:59:12Z</time></trkpt><trkpt lat="43.936492411769606" lon="4.517998492478745"><ele>158.0</ele><time>2026-04-06T16:59:13Z</time></trkpt><trkpt lat="43.93652248730805" lon="4.518078564402842"><ele>157.20000000000002</ele><time>2026-04-06T16:59:14Z</time></trkpt><trkpt lat="43.936538510086876" lon="4.5182464863126235"><ele>156.4</ele><time>2026-04-06T16:59:16Z</time></trkpt><trkpt lat="43.936456859304535" lon="4.5183697531231175"><ele>155.60000000000002</ele><time>2026-04-06T16:59:18Z</time></trkpt><trkpt lat="43.93633789117593" lon="4.5183612231461385"><ele>154.8</ele><time>2026-04-06T16:59:20Z</time></trkpt><trkpt lat="43.93627230482658" lon="4.518355717553692"><ele>154.0</ele><time>2026-04-06T16:59:21Z</time></trkpt><trkpt lat="43.93620478312568" lon="4.518328824041014"><ele>154.0</ele><time>2026-04-06T16:59:22Z</time></trkpt><trkpt lat="43.93612631889139" lon="4.518293873310022"><ele>154.0</ele><time>2026-04-06T16:59:23Z</time></trkpt><trkpt lat="43.936037779806604" lon="4.518253653219963"><ele>154.0</ele><time>2026-04-06T16:59:24Z</time></trkpt><trkpt lat="43.93594354500801" lon="4.518227417205347"><ele>154.0</ele><time>2026-04-06T16:59:25Z</time></trkpt><trkpt lat="43.935844679821614" lon="4.518185777357892"><ele>154.0</ele><time>2026-04-06T16:59:26Z</time></trkpt><trkpt lat="43.935746823220455" lon="4.518145103030438"><ele>154.2</ele><time>2026-04-06T16:59:27Z</time></trkpt><trkpt lat="43.93565334791145" lon="4.5181111883603435"><ele>154.4</ele><time>2026-04-06T16:59:28Z</time></trkpt><trkpt lat="43.93556002884483" lon="4.518086156350749"><ele>154.6</ele><time>2026-04-06T16:59:29Z</time></trkpt><trkpt lat="43.93546857678706" lon="4.5180424677265"><ele>154.8</ele><time>2026-04-06T16:59:30Z</time></trkpt><trkpt lat="43.93538032400902" lon="4.5180288674148095"><ele>155.0</ele><time>2026-04-06T16:59:31Z</time></trkpt><trkpt lat="43.9352886427829" lon="4.518042014639286"><ele>155.0</ele><time>2026-04-06T16:59:32Z</time></trkpt><trkpt lat="43.935194700931156" lon="4.518034340995783"><ele>155.0</ele><time>2026-04-06T16:59:33Z</time></trkpt><trkpt lat="43.93511293101237" lon="4.51802570581287"><ele>155.0</ele><time>2026-04-06T16:59:34Z</time></trkpt><trkpt lat="43.93502586118815" lon="4.518049963947946"><ele>155.0</ele><time>2026-04-06T16:59:35Z</time></trkpt><trkpt lat="43.93494264948231" lon="4.518037685353016"><ele>155.0</ele><time>2026-04-06T16:59:36Z</time></trkpt><trkpt lat="43.93486623285909" lon="4.518020254678604"><ele>155.0</ele><time>2026-04-06T16:59:37Z</time></trkpt><trkpt lat="43.934804529016546" lon="4.5179981191971335"><ele>153.0</ele><time>2026-04-06T16:59:38Z</time></trkpt><trkpt lat="43.934704601797826" lon="4.517961340124404"><ele>151.0</ele><time>2026-04-06T16:59:39.999Z</time></trkpt><trkpt lat="43.934639733462326" lon="4.517964543733902"><ele>149.0</ele><time>2026-04-06T16:59:41.999Z</time></trkpt><trkpt lat="43.93460181666015" lon="4.518068640780394"><ele>147.0</ele><time>2026-04-06T16:59:43.999Z</time></trkpt><trkpt lat="43.93468569442518" lon="4.518212815211107"><ele>145.0</ele><time>2026-04-06T16:59:45.999Z</time></trkpt><trkpt lat="43.934731145964626" lon="4.518275237612154"><ele>145.0</ele><time>2026-04-06T16:59:46.999Z</time></trkpt><trkpt lat="43.9347775593435" lon="4.518377682784439"><ele>145.0</ele><time>2026-04-06T16:59:47.999Z</time></trkpt><trkpt lat="43.93483558120985" lon="4.518453110791478"><ele>145.0</ele><time>2026-04-06T16:59:48.999Z</time></trkpt><trkpt lat="43.934896648489904" lon="4.518526048901358"><ele>145.0</ele><time>2026-04-06T16:59:49.999Z</time></trkpt><trkpt lat="43.934975822946186" lon="4.518559373535609"><ele>145.0</ele><time>2026-04-06T16:59:50.999Z</time></trkpt><trkpt lat="43.93504372889915" lon="4.518612039217172"><ele>145.0</ele><time>2026-04-06T16:59:51.999Z</time></trkpt><trkpt lat="43.935100538211486" lon="4.518657190415115"><ele>145.0</ele><time>2026-04-06T16:59:52.999Z</time></trkpt><trkpt lat="43.9351486615107" lon="4.518750854849126"><ele>145.0</ele><time>2026-04-06T16:59:54.999Z</time></trkpt><trkpt lat="43.93508256426891" lon="4.518807411187605"><ele>145.0</ele><time>2026-04-06T16:59:57.999Z</time></trkpt><trkpt lat="43.934956283832264" lon="4.518790351640221"><ele>145.0</ele><time>2026-04-06T16:59:59.999Z</time></trkpt><trkpt lat="43.934887806141006" lon="4.518744750016346"><ele>145.0</ele><time>2026-04-06T17:00:00.999Z</time></trkpt><trkpt lat="43.93481334369095" lon="4.518706801236529"><ele>145.0</ele><time>2026-04-06T17:00:01.999Z</time></trkpt><trkpt lat="43.934733525906736" lon="4.518672445147547"><ele>145.0</ele><time>2026-04-06T17:00:02.999Z</time></trkpt><trkpt lat="43.93464880584678" lon="4.518644819475875"><ele>145.0</ele><time>2026-04-06T17:00:03.999Z</time></trkpt><trkpt lat="43.93456047447843" lon="4.51861792993711"><ele>145.0</ele><time>2026-04-06T17:00:04.999Z</time></trkpt><trkpt lat="43.93446906382274" lon="4.518585903615418"><ele>145.0</ele><time>2026-04-06T17:00:05.999Z</time></trkpt><trkpt lat="43.93437155545711" lon="4.518557062590311"><ele>145.0</ele><time>2026-04-06T17:00:06.999Z</time></trkpt><trkpt lat="43.934268789943616" lon="4.5185395454088955"><ele>143.0</ele><time>2026-04-06T17:00:07.999Z</time></trkpt><trkpt lat="43.93417834179405" lon="4.518525244292348"><ele>141.0</ele><time>2026-04-06T17:00:08.999Z</time></trkpt><trkpt lat="43.93409359297914" lon="4.518504015659359"><ele>139.0</ele><time>2026-04-06T17:00:09.999Z</time></trkpt><trkpt lat="43.93401296573347" lon="4.518479422144162"><ele>137.0</ele><time>2026-04-06T17:00:10.999Z</time></trkpt><trkpt lat="43.93392833912394" lon="4.518453212707783"><ele>135.0</ele><time>2026-04-06T17:00:11.999Z</time></trkpt><trkpt lat="43.93385339502976" lon="4.518420617810012"><ele>133.0</ele><time>2026-04-06T17:00:12.999Z</time></trkpt><trkpt lat="43.93378624023713" lon="4.518371768258206"><ele>133.0</ele><time>2026-04-06T17:00:13.999Z</time></trkpt><trkpt lat="43.93370007353776" lon="4.518255985328118"><ele>133.0</ele><time>2026-04-06T17:00:15.999Z</time></trkpt><trkpt lat="43.93364882203912" lon="4.5181279465218775"><ele>133.0</ele><time>2026-04-06T17:00:17.999Z</time></trkpt><trkpt lat="43.933565713585075" lon="4.518092772324026"><ele>133.0</ele><time>2026-04-06T17:00:19.999Z</time></trkpt><trkpt lat="43.93348326509004" lon="4.518181931310029"><ele>133.0</ele><time>2026-04-06T17:00:21.999Z</time></trkpt><trkpt lat="43.93342194663388" lon="4.518258433272763"><ele>131.8</ele><time>2026-04-06T17:00:22.999Z</time></trkpt><trkpt lat="43.93334009933541" lon="4.518319736200558"><ele>130.60000000000002</ele><time>2026-04-06T17:00:23.999Z</time></trkpt><trkpt lat="43.93324892544833" lon="4.518344865322585"><ele>129.39999999999998</ele><time>2026-04-06T17:00:24.999Z</time></trkpt><trkpt lat="43.933155397634664" lon="4.518367927928298"><ele>128.2</ele><time>2026-04-06T17:00:25.999Z</time></trkpt><trkpt lat="43.93306634717655" lon="4.518396653905694"><ele>127.0</ele><time>2026-04-06T17:00:26.999Z</time></trkpt><trkpt lat="43.93296998181409" lon="4.51843554130279"><ele>127.0</ele><time>2026-04-06T17:00:27.999Z</time></trkpt><trkpt lat="43.93287913791546" lon="4.518470320908152"><ele>126.99999999999999</ele><time>2026-04-06T17:00:29Z</time></trkpt><trkpt lat="43.93279284611653" lon="4.518510142332244"><ele>126.99999999999999</ele><time>2026-04-06T17:00:30Z</time></trkpt><trkpt lat="43.932696430379515" lon="4.518548089571799"><ele>127.0</ele><time>2026-04-06T17:00:31Z</time></trkpt><trkpt lat="43.93259773469703" lon="4.518571812010033"><ele>127.0</ele><time>2026-04-06T17:00:32Z</time></trkpt><trkpt lat="43.932501662763485" lon="4.518601369011175"><ele>128.0</ele><time>2026-04-06T17:00:33Z</time></trkpt><trkpt lat="43.932410879016565" lon="4.518631213143743"><ele>129.0</ele><time>2026-04-06T17:00:34Z</time></trkpt><trkpt lat="43.93232352954247" lon="4.518653723549585"><ele>130.0</ele><time>2026-04-06T17:00:35Z</time></trkpt><trkpt lat="43.932223697303655" lon="4.518670217941498"><ele>131.0</ele><time>2026-04-06T17:00:36Z</time></trkpt><trkpt lat="43.93212764273623" lon="4.518686508284816"><ele>132.0</ele><time>2026-04-06T17:00:37Z</time></trkpt><trkpt lat="43.932030674602586" lon="4.51870338095772"><ele>132.0</ele><time>2026-04-06T17:00:38Z</time></trkpt><trkpt lat="43.931937777254575" lon="4.518725486047446"><ele>132.0</ele><time>2026-04-06T17:00:39Z</time></trkpt><trkpt lat="43.93183297511098" lon="4.518744111784526"><ele>132.0</ele><time>2026-04-06T17:00:40Z</time></trkpt><trkpt lat="43.93172530707378" lon="4.518770778967954"><ele>132.0</ele><time>2026-04-06T17:00:41Z</time></trkpt><trkpt lat="43.93161554340377" lon="4.51879811114961"><ele>132.0</ele><time>2026-04-06T17:00:42Z</time></trkpt><trkpt lat="43.931506163777286" lon="4.518824201055299"><ele>134.0</ele><time>2026-04-06T17:00:43Z</time></trkpt><trkpt lat="43.931401711396326" lon="4.518842811182707"><ele>136.0</ele><time>2026-04-06T17:00:44Z</time></trkpt><trkpt lat="43.93129390244718" lon="4.518851075395921"><ele>138.0</ele><time>2026-04-06T17:00:45Z</time></trkpt><trkpt lat="43.93118500712274" lon="4.518850038673507"><ele>140.0</ele><time>2026-04-06T17:00:46Z</time></trkpt><trkpt lat="43.93107356504219" lon="4.518843252224004"><ele>142.0</ele><time>2026-04-06T17:00:47Z</time></trkpt><trkpt lat="43.930967119593106" lon="4.518847774632125"><ele>142.6</ele><time>2026-04-06T17:00:48Z</time></trkpt><trkpt lat="43.930870108988735" lon="4.518858219599946"><ele>143.2</ele><time>2026-04-06T17:00:49Z</time></trkpt><trkpt lat="43.93076756306265" lon="4.518886553083185"><ele>143.8</ele><time>2026-04-06T17:00:50Z</time></trkpt><trkpt lat="43.93066530930967" lon="4.51892793007424"><ele>144.4</ele><time>2026-04-06T17:00:51Z</time></trkpt><trkpt lat="43.93057577653779" lon="4.5189649438373385"><ele>145.0</ele><time>2026-04-06T17:00:52Z</time></trkpt><trkpt lat="43.93048048328631" lon="4.519009601528313"><ele>145.0</ele><time>2026-04-06T17:00:53Z</time></trkpt><trkpt lat="43.93037916243065" lon="4.519050385889842"><ele>145.0</ele><time>2026-04-06T17:00:54Z</time></trkpt><trkpt lat="43.93028492106068" lon="4.51908438488535"><ele>145.0</ele><time>2026-04-06T17:00:55Z</time></trkpt><trkpt lat="43.93018273333957" lon="4.519122015090195"><ele>145.0</ele><time>2026-04-06T17:00:56Z</time></trkpt><trkpt lat="43.93007770571763" lon="4.519167001670724"><ele>145.0</ele><time>2026-04-06T17:00:57Z</time></trkpt><trkpt lat="43.929977747690295" lon="4.519210763761265"><ele>144.8</ele><time>2026-04-06T17:00:58Z</time></trkpt><trkpt lat="43.92987328340659" lon="4.519259396846934"><ele>144.6</ele><time>2026-04-06T17:00:59Z</time></trkpt><trkpt lat="43.92976719435016" lon="4.519309875136948"><ele>144.4</ele><time>2026-04-06T17:01:00Z</time></trkpt><trkpt lat="43.929662560032604" lon="4.519359518836347"><ele>144.2</ele><time>2026-04-06T17:01:01Z</time></trkpt><trkpt lat="43.92955626806306" lon="4.519413097265815"><ele>144.0</ele><time>2026-04-06T17:01:02Z</time></trkpt><trkpt lat="43.92945272798041" lon="4.519462307241855"><ele>144.0</ele><time>2026-04-06T17:01:03Z</time></trkpt><trkpt lat="43.92934880038622" lon="4.519509286948804"><ele>144.0</ele><time>2026-04-06T17:01:04Z</time></trkpt><trkpt lat="43.929248483076" lon="4.519558056756358"><ele>144.0</ele><time>2026-04-06T17:01:05Z</time></trkpt><trkpt lat="43.92914853497131" lon="4.519612343515638"><ele>144.0</ele><time>2026-04-06T17:01:06Z</time></trkpt><trkpt lat="43.92904614214093" lon="4.519671341125377"><ele>144.0</ele><time>2026-04-06T17:01:07Z</time></trkpt><trkpt lat="43.9289489097226" lon="4.519735296331812"><ele>145.6</ele><time>2026-04-06T17:01:08Z</time></trkpt><trkpt lat="43.92885381048528" lon="4.51980178188578"><ele>147.2</ele><time>2026-04-06T17:01:09Z</time></trkpt><trkpt lat="43.92876845355992" lon="4.519864220601119"><ele>148.79999999999998</ele><time>2026-04-06T17:01:10Z</time></trkpt><trkpt lat="43.928680424061945" lon="4.51993675005384"><ele>150.4</ele><time>2026-04-06T17:01:11Z</time></trkpt><trkpt lat="43.928591375256026" lon="4.519999121479674"><ele>152.0</ele><time>2026-04-06T17:01:12Z</time></trkpt><trkpt lat="43.92850003716725" lon="4.520061153382093"><ele>152.0</ele><time>2026-04-06T17:01:13Z</time></trkpt><trkpt lat="43.92840177053916" lon="4.520131220669391"><ele>152.0</ele><time>2026-04-06T17:01:14Z</time></trkpt><trkpt lat="43.928301116946365" lon="4.520181059484931"><ele>152.0</ele><time>2026-04-06T17:01:15Z</time></trkpt><trkpt lat="43.92820906899717" lon="4.520259634143892"><ele>152.0</ele><time>2026-04-06T17:01:16Z</time></trkpt><trkpt lat="43.92812046894628" lon="4.520354439117467"><ele>152.0</ele><time>2026-04-06T17:01:17Z</time></trkpt><trkpt lat="43.92803620628034" lon="4.520457199028088"><ele>153.0</ele><time>2026-04-06T17:01:18Z</time></trkpt><trkpt lat="43.92795612881391" lon="4.520559023898096"><ele>154.0</ele><time>2026-04-06T17:01:19Z</time></trkpt><trkpt lat="43.927886635772275" lon="4.5206585703557725"><ele>155.0</ele><time>2026-04-06T17:01:20Z</time></trkpt><trkpt lat="43.92782768002992" lon="4.520766482534868"><ele>156.0</ele><time>2026-04-06T17:01:21Z</time></trkpt><trkpt lat="43.92777577294144" lon="4.520874446798947"><ele>157.0</ele><time>2026-04-06T17:01:22Z</time></trkpt><trkpt lat="43.927708516293464" lon="4.5209837227444245"><ele>157.0</ele><time>2026-04-06T17:01:23Z</time></trkpt><trkpt lat="43.927643330389415" lon="4.521100334316478"><ele>157.0</ele><time>2026-04-06T17:01:24Z</time></trkpt><trkpt lat="43.927572604038915" lon="4.521221708245972"><ele>157.0</ele><time>2026-04-06T17:01:25Z</time></trkpt><trkpt lat="43.92749571347335" lon="4.521331865427382"><ele>157.0</ele><time>2026-04-06T17:01:26Z</time></trkpt><trkpt lat="43.92741842828012" lon="4.521425546362239"><ele>157.0</ele><time>2026-04-06T17:01:27Z</time></trkpt><trkpt lat="43.92735160255805" lon="4.5215148076272795"><ele>155.79999999999998</ele><time>2026-04-06T17:01:28Z</time></trkpt><trkpt lat="43.927298863811814" lon="4.521587794643361"><ele>154.6</ele><time>2026-04-06T17:01:29Z</time></trkpt><trkpt lat="43.92725659434451" lon="4.521656860723964"><ele>153.39999999999998</ele><time>2026-04-06T17:01:30Z</time></trkpt><trkpt lat="43.927232690726676" lon="4.521748574357177"><ele>152.2</ele><time>2026-04-06T17:01:31Z</time></trkpt><trkpt lat="43.927250645366584" lon="4.521914380198298"><ele>151.0</ele><time>2026-04-06T17:01:33Z</time></trkpt><trkpt lat="43.927330961318745" lon="4.522040496949613"><ele>151.4</ele><time>2026-04-06T17:01:35Z</time></trkpt><trkpt lat="43.927413120126324" lon="4.522135786792687"><ele>151.8</ele><time>2026-04-06T17:01:37Z</time></trkpt><trkpt lat="43.92752474834131" lon="4.5222495719605185"><ele>152.20000000000002</ele><time>2026-04-06T17:01:39Z</time></trkpt><trkpt lat="43.92759307881432" lon="4.522295584770413"><ele>152.6</ele><time>2026-04-06T17:01:40Z</time></trkpt><trkpt lat="43.927669212773736" lon="4.5223219530732575"><ele>153.0</ele><time>2026-04-06T17:01:41Z</time></trkpt><trkpt lat="43.92776213592777" lon="4.522332147646932"><ele>154.60000000000002</ele><time>2026-04-06T17:01:42Z</time></trkpt><trkpt lat="43.927856036804876" lon="4.522336986293888"><ele>156.20000000000002</ele><time>2026-04-06T17:01:43Z</time></trkpt><trkpt lat="43.92795807809231" lon="4.522343882044351"><ele>157.8</ele><time>2026-04-06T17:01:44Z</time></trkpt><trkpt lat="43.92805549077859" lon="4.522355292823101"><ele>159.4</ele><time>2026-04-06T17:01:45Z</time></trkpt><trkpt lat="43.92816048278414" lon="4.522377002149912"><ele>161.0</ele><time>2026-04-06T17:01:46Z</time></trkpt><trkpt lat="43.92826641828709" lon="4.522402294696966"><ele>161.0</ele><time>2026-04-06T17:01:47Z</time></trkpt><trkpt lat="43.92836961459106" lon="4.522427088093882"><ele>161.0</ele><time>2026-04-06T17:01:48Z</time></trkpt><trkpt lat="43.92847416357182" lon="4.522455454167931"><ele>161.0</ele><time>2026-04-06T17:01:49Z</time></trkpt><trkpt lat="43.92857617640688" lon="4.522494639515623"><ele>161.0</ele><time>2026-04-06T17:01:50Z</time></trkpt><trkpt lat="43.92867610780943" lon="4.522542432238236"><ele>161.0</ele><time>2026-04-06T17:01:51Z</time></trkpt><trkpt lat="43.92877169530889" lon="4.5225922102001075"><ele>161.20000000000002</ele><time>2026-04-06T17:01:52Z</time></trkpt><trkpt lat="43.92886315349313" lon="4.522646621091586"><ele>161.4</ele><time>2026-04-06T17:01:53Z</time></trkpt><trkpt lat="43.92896214056179" lon="4.522695009916445"><ele>161.6</ele><time>2026-04-06T17:01:54Z</time></trkpt><trkpt lat="43.929059470138625" lon="4.522736683222922"><ele>161.8</ele><time>2026-04-06T17:01:55Z</time></trkpt><trkpt lat="43.92916107715855" lon="4.522777056031867"><ele>162.0</ele><time>2026-04-06T17:01:56Z</time></trkpt><trkpt lat="43.929258853737316" lon="4.522811927055369"><ele>162.0</ele><time>2026-04-06T17:01:57Z</time></trkpt><trkpt lat="43.92936080583563" lon="4.522857083579376"><ele>162.0</ele><time>2026-04-06T17:01:58Z</time></trkpt><trkpt lat="43.92946265928015" lon="4.522907248341654"><ele>162.0</ele><time>2026-04-06T17:01:59Z</time></trkpt><trkpt lat="43.929569270845064" lon="4.5229605618121385"><ele>162.0</ele><time>2026-04-06T17:02:00Z</time></trkpt><trkpt lat="43.929671162798456" lon="4.523024520069397"><ele>162.0</ele><time>2026-04-06T17:02:01Z</time></trkpt><trkpt lat="43.929771078349766" lon="4.52309934336607"><ele>162.0</ele><time>2026-04-06T17:02:01.999Z</time></trkpt><trkpt lat="43.9298626768926" lon="4.523164628384113"><ele>162.0</ele><time>2026-04-06T17:02:02.999Z</time></trkpt><trkpt lat="43.92995436370256" lon="4.523226848225062"><ele>162.0</ele><time>2026-04-06T17:02:03.999Z</time></trkpt><trkpt lat="43.930047744091716" lon="4.523277137404802"><ele>162.0</ele><time>2026-04-06T17:02:04.999Z</time></trkpt><trkpt lat="43.930147749781995" lon="4.523310900506962"><ele>162.0</ele><time>2026-04-06T17:02:05.999Z</time></trkpt><trkpt lat="43.9302549897053" lon="4.523340172920818"><ele>161.75</ele><time>2026-04-06T17:02:06.999Z</time></trkpt><trkpt lat="43.93036908198942" lon="4.523350713635008"><ele>161.5</ele><time>2026-04-06T17:02:07.999Z</time></trkpt><trkpt lat="43.930484418492185" lon="4.523371040245401"><ele>161.25</ele><time>2026-04-06T17:02:08.999Z</time></trkpt><trkpt lat="43.93059816413528" lon="4.523407980909737"><ele>161.0</ele><time>2026-04-06T17:02:09.999Z</time></trkpt><trkpt lat="43.93070005472384" lon="4.523457884373465"><ele>161.0</ele><time>2026-04-06T17:02:10.999Z</time></trkpt><trkpt lat="43.93080347159411" lon="4.523522365951341"><ele>161.0</ele><time>2026-04-06T17:02:11.999Z</time></trkpt><trkpt lat="43.930907852159315" lon="4.523580886098936"><ele>161.0</ele><time>2026-04-06T17:02:12.999Z</time></trkpt><trkpt lat="43.93101681377696" lon="4.523631466173121"><ele>161.0</ele><time>2026-04-06T17:02:13.999Z</time></trkpt><trkpt lat="43.931132208403845" lon="4.523664228332581"><ele>160.60000000000002</ele><time>2026-04-06T17:02:14.999Z</time></trkpt><trkpt lat="43.931246412181494" lon="4.5236965189359"><ele>160.20000000000002</ele><time>2026-04-06T17:02:15.999Z</time></trkpt><trkpt lat="43.931355537696476" lon="4.523750259842576"><ele>159.8</ele><time>2026-04-06T17:02:16.999Z</time></trkpt><trkpt lat="43.93145488256821" lon="4.523802892194775"><ele>159.4</ele><time>2026-04-06T17:02:17.999Z</time></trkpt><trkpt lat="43.931543911124734" lon="4.523875161042148"><ele>159.0</ele><time>2026-04-06T17:02:18.999Z</time></trkpt><trkpt lat="43.93161442462692" lon="4.523976146391884"><ele>159.0</ele><time>2026-04-06T17:02:19.999Z</time></trkpt><trkpt lat="43.931698064610345" lon="4.52406478350451"><ele>159.0</ele><time>2026-04-06T17:02:20.999Z</time></trkpt><trkpt lat="43.93179009120212" lon="4.52413783801862"><ele>159.0</ele><time>2026-04-06T17:02:21.999Z</time></trkpt><trkpt lat="43.93187225821505" lon="4.5242214052512155"><ele>159.0</ele><time>2026-04-06T17:02:22.999Z</time></trkpt><trkpt lat="43.93196365694802" lon="4.524298292668071"><ele>159.0</ele><time>2026-04-06T17:02:23.999Z</time></trkpt><trkpt lat="43.93205168548102" lon="4.524385518826701"><ele>158.0</ele><time>2026-04-06T17:02:24.999Z</time></trkpt><trkpt lat="43.93214576880063" lon="4.524477754547384"><ele>157.0</ele><time>2026-04-06T17:02:25.999Z</time></trkpt><trkpt lat="43.932240449917096" lon="4.5245674814205605"><ele>156.0</ele><time>2026-04-06T17:02:26.999Z</time></trkpt><trkpt lat="43.932330350299466" lon="4.524657901625954"><ele>155.0</ele><time>2026-04-06T17:02:27.999Z</time></trkpt><trkpt lat="43.93241880286032" lon="4.524774054738024"><ele>154.0</ele><time>2026-04-06T17:02:28.999Z</time></trkpt><trkpt lat="43.93251172942091" lon="4.5248763572072805"><ele>153.0</ele><time>2026-04-06T17:02:29.999Z</time></trkpt><trkpt lat="43.93259023144871" lon="4.524982036269118"><ele>152.0</ele><time>2026-04-06T17:02:30.999Z</time></trkpt><trkpt lat="43.9326719983234" lon="4.525072944650664"><ele>151.0</ele><time>2026-04-06T17:02:31.999Z</time></trkpt><trkpt lat="43.9327399434176" lon="4.5251772046371945"><ele>150.0</ele><time>2026-04-06T17:02:32.999Z</time></trkpt><trkpt lat="43.932807688869445" lon="4.525265860831309"><ele>149.5</ele><time>2026-04-06T17:02:33.999Z</time></trkpt><trkpt lat="43.932867674734844" lon="4.525354412984981"><ele>149.0</ele><time>2026-04-06T17:02:35.001Z</time></trkpt><trkpt lat="43.93291568871354" lon="4.52544140916786"><ele>148.5</ele><time>2026-04-06T17:02:36.001Z</time></trkpt><trkpt lat="43.932956002968446" lon="4.525534299713373"><ele>148.0</ele><time>2026-04-06T17:02:37.001Z</time></trkpt><trkpt lat="43.932987881727676" lon="4.525627684419122"><ele>147.5</ele><time>2026-04-06T17:02:38.001Z</time></trkpt><trkpt lat="43.933002910862086" lon="4.525723158590373"><ele>147.0</ele><time>2026-04-06T17:02:39.001Z</time></trkpt><trkpt lat="43.93302785414014" lon="4.525828225782194"><ele>146.4</ele><time>2026-04-06T17:02:40.001Z</time></trkpt><trkpt lat="43.93300231930301" lon="4.525944355288229"><ele>145.79999999999998</ele><time>2026-04-06T17:02:41.001Z</time></trkpt><trkpt lat="43.93298036197307" lon="4.526055206526513"><ele>145.2</ele><time>2026-04-06T17:02:42.001Z</time></trkpt><trkpt lat="43.93292386445913" lon="4.526148862460942"><ele>144.6</ele><time>2026-04-06T17:02:43.001Z</time></trkpt><trkpt lat="43.932858511145554" lon="4.526239387541265"><ele>144.0</ele><time>2026-04-06T17:02:44.001Z</time></trkpt><trkpt lat="43.93278218659365" lon="4.526336919084852"><ele>143.0</ele><time>2026-04-06T17:02:45.001Z</time></trkpt><trkpt lat="43.93271185451234" lon="4.5264523795565"><ele>142.0</ele><time>2026-04-06T17:02:46.001Z</time></trkpt><trkpt lat="43.932626987881704" lon="4.526554719402723"><ele>141.0</ele><time>2026-04-06T17:02:47.001Z</time></trkpt><trkpt lat="43.93254757101175" lon="4.52666225349568"><ele>140.0</ele><time>2026-04-06T17:02:48.001Z</time></trkpt><trkpt lat="43.93245537410053" lon="4.526766529067815"><ele>139.8</ele><time>2026-04-06T17:02:49.001Z</time></trkpt><trkpt lat="43.93237644957917" lon="4.526882456822622"><ele>139.6</ele><time>2026-04-06T17:02:50.001Z</time></trkpt><trkpt lat="43.93229617018661" lon="4.526974979282794"><ele>139.4</ele><time>2026-04-06T17:02:51.001Z</time></trkpt><trkpt lat="43.93223953829404" lon="4.527101149378478"><ele>139.2</ele><time>2026-04-06T17:02:52.001Z</time></trkpt><trkpt lat="43.93219519038938" lon="4.527235735952241"><ele>139.0</ele><time>2026-04-06T17:02:53.001Z</time></trkpt><trkpt lat="43.93215802028348" lon="4.527364421079777"><ele>138.4</ele><time>2026-04-06T17:02:54.001Z</time></trkpt><trkpt lat="43.932118160922435" lon="4.527498977180793"><ele>137.8</ele><time>2026-04-06T17:02:55Z</time></trkpt><trkpt lat="43.932077888155284" lon="4.527640608450287"><ele>137.2</ele><time>2026-04-06T17:02:56Z</time></trkpt><trkpt lat="43.932036325564916" lon="4.52778689309158"><ele>136.6</ele><time>2026-04-06T17:02:57Z</time></trkpt><trkpt lat="43.931999421801514" lon="4.527934601062043"><ele>136.0</ele><time>2026-04-06T17:02:58Z</time></trkpt><trkpt lat="43.93198049715785" lon="4.528094460379896"><ele>136.0</ele><time>2026-04-06T17:02:59Z</time></trkpt><trkpt lat="43.93198956635338" lon="4.528246002798846"><ele>136.0</ele><time>2026-04-06T17:03:00Z</time></trkpt><trkpt lat="43.932025472242906" lon="4.528405477489016"><ele>136.0</ele><time>2026-04-06T17:03:01Z</time></trkpt><trkpt lat="43.93209082548165" lon="4.528550770859358"><ele>136.0</ele><time>2026-04-06T17:03:02Z</time></trkpt><trkpt lat="43.932168238627824" lon="4.528659957688424"><ele>136.8</ele><time>2026-04-06T17:03:03Z</time></trkpt><trkpt lat="43.93225869863697" lon="4.5287613477171025"><ele>137.6</ele><time>2026-04-06T17:03:04Z</time></trkpt><trkpt lat="43.932342208885984" lon="4.528857644401193"><ele>138.4</ele><time>2026-04-06T17:03:05Z</time></trkpt><trkpt lat="43.93241523092546" lon="4.528962563854079"><ele>139.2</ele><time>2026-04-06T17:03:06Z</time></trkpt><trkpt lat="43.93248055004882" lon="4.529068563630457"><ele>140.0</ele><time>2026-04-06T17:03:07Z</time></trkpt><trkpt lat="43.93252316326622" lon="4.529199832192237"><ele>140.4</ele><time>2026-04-06T17:03:08Z</time></trkpt><trkpt lat="43.93256508214297" lon="4.529318789178925"><ele>140.8</ele><time>2026-04-06T17:03:09Z</time></trkpt><trkpt lat="43.9326097655326" lon="4.529432324554675"><ele>141.2</ele><time>2026-04-06T17:03:10Z</time></trkpt><trkpt lat="43.93268660670769" lon="4.529516421965533"><ele>141.6</ele><time>2026-04-06T17:03:11Z</time></trkpt><trkpt lat="43.932764401932694" lon="4.5295988209559335"><ele>142.0</ele><time>2026-04-06T17:03:12Z</time></trkpt><trkpt lat="43.93285627266859" lon="4.529659354915451"><ele>143.0</ele><time>2026-04-06T17:03:13Z</time></trkpt><trkpt lat="43.93295647071651" lon="4.5297074703777485"><ele>144.0</ele><time>2026-04-06T17:03:14Z</time></trkpt><trkpt lat="43.93304745948653" lon="4.529791932294055"><ele>145.0</ele><time>2026-04-06T17:03:15Z</time></trkpt><trkpt lat="43.93314719852569" lon="4.529847986463389"><ele>146.0</ele><time>2026-04-06T17:03:16Z</time></trkpt><trkpt lat="43.93324379800543" lon="4.529942656491774"><ele>147.0</ele><time>2026-04-06T17:03:17Z</time></trkpt><trkpt lat="43.93335181443991" lon="4.529988367074753"><ele>147.0</ele><time>2026-04-06T17:03:18Z</time></trkpt><trkpt lat="43.93346519805805" lon="4.530010602291396"><ele>147.0</ele><time>2026-04-06T17:03:19Z</time></trkpt><trkpt lat="43.93357176062636" lon="4.530055861734806"><ele>147.0</ele><time>2026-04-06T17:03:20Z</time></trkpt><trkpt lat="43.93368227831886" lon="4.530083550717626"><ele>147.0</ele><time>2026-04-06T17:03:21Z</time></trkpt><trkpt lat="43.933795534347176" lon="4.5301109787022416"><ele>147.0</ele><time>2026-04-06T17:03:22Z</time></trkpt><trkpt lat="43.933908583272" lon="4.530126971518309"><ele>147.0</ele><time>2026-04-06T17:03:23Z</time></trkpt><trkpt lat="43.934028983678445" lon="4.53014066110098"><ele>147.0</ele><time>2026-04-06T17:03:24Z</time></trkpt><trkpt lat="43.934146747663824" lon="4.530127186281989"><ele>147.0</ele><time>2026-04-06T17:03:25Z</time></trkpt><trkpt lat="43.93426325940091" lon="4.5301249682524"><ele>146.4</ele><time>2026-04-06T17:03:26Z</time></trkpt><trkpt lat="43.934371680236886" lon="4.53015743520288"><ele>145.79999999999998</ele><time>2026-04-06T17:03:27Z</time></trkpt><trkpt lat="43.934476508645105" lon="4.530178172639544"><ele>145.2</ele><time>2026-04-06T17:03:28Z</time></trkpt><trkpt lat="43.93458414645795" lon="4.53018342262177"><ele>144.6</ele><time>2026-04-06T17:03:29Z</time></trkpt><trkpt lat="43.9346737761685" lon="4.530249182429406"><ele>144.0</ele><time>2026-04-06T17:03:30Z</time></trkpt><trkpt lat="43.93475750036801" lon="4.53031572137585"><ele>144.2</ele><time>2026-04-06T17:03:31Z</time></trkpt><trkpt lat="43.9348262254245" lon="4.530409577255298"><ele>144.4</ele><time>2026-04-06T17:03:32Z</time></trkpt><trkpt lat="43.93486062510199" lon="4.53051906054765"><ele>144.6</ele><time>2026-04-06T17:03:33Z</time></trkpt><trkpt lat="43.93485045917502" lon="4.530624858752559"><ele>144.8</ele><time>2026-04-06T17:03:34Z</time></trkpt><trkpt lat="43.93497917612381" lon="4.530743919065207"><ele>145.0</ele><time>2026-04-06T17:03:35Z</time></trkpt><trkpt lat="43.934917848548" lon="4.530845433232067"><ele>145.0</ele><time>2026-04-06T17:03:36Z</time></trkpt><trkpt lat="43.934958722480786" lon="4.53095311453205"><ele>145.0</ele><time>2026-04-06T17:03:37Z</time></trkpt><trkpt lat="43.93539505097996" lon="4.530854840017956"><ele>143.75</ele><time>2026-04-06T17:03:38Z</time></trkpt><trkpt lat="43.9354956737902" lon="4.530930486963601"><ele>142.5</ele><time>2026-04-06T17:03:39Z</time></trkpt><trkpt lat="43.9355989298432" lon="4.531004695595311"><ele>141.25</ele><time>2026-04-06T17:03:40Z</time></trkpt><trkpt lat="43.9356990245838" lon="4.531081397936674"><ele>140.0</ele><time>2026-04-06T17:03:41Z</time></trkpt><trkpt lat="43.93580044432212" lon="4.531154466090998"><ele>140.8</ele><time>2026-04-06T17:03:42Z</time></trkpt><trkpt lat="43.93590135674571" lon="4.531216458925668"><ele>141.6</ele><time>2026-04-06T17:03:43Z</time></trkpt><trkpt lat="43.93600624888008" lon="4.531254861846272"><ele>142.4</ele><time>2026-04-06T17:03:44Z</time></trkpt><trkpt lat="43.9361142743979" lon="4.531282862296388"><ele>143.2</ele><time>2026-04-06T17:03:45Z</time></trkpt><trkpt lat="43.93622483142791" lon="4.531321077159845"><ele>144.0</ele><time>2026-04-06T17:03:46Z</time></trkpt><trkpt lat="43.93633299629113" lon="4.531363762504661"><ele>144.0</ele><time>2026-04-06T17:03:47Z</time></trkpt><trkpt lat="43.93644559201249" lon="4.531413985654437"><ele>144.0</ele><time>2026-04-06T17:03:48Z</time></trkpt><trkpt lat="43.93655283597147" lon="4.531471343376762"><ele>144.0</ele><time>2026-04-06T17:03:49Z</time></trkpt><trkpt lat="43.93665416315864" lon="4.53153101913238"><ele>144.0</ele><time>2026-04-06T17:03:50Z</time></trkpt><trkpt lat="43.9367513894111" lon="4.531596152205905"><ele>142.4</ele><time>2026-04-06T17:03:51Z</time></trkpt><trkpt lat="43.93685263076266" lon="4.531667094874508"><ele>140.8</ele><time>2026-04-06T17:03:52Z</time></trkpt><trkpt lat="43.93694742594976" lon="4.531748365951268"><ele>139.2</ele><time>2026-04-06T17:03:53Z</time></trkpt><trkpt lat="43.937032438935184" lon="4.531832760282059"><ele>137.6</ele><time>2026-04-06T17:03:54Z</time></trkpt><trkpt lat="43.93711292261695" lon="4.531916534618463"><ele>136.0</ele><time>2026-04-06T17:03:55Z</time></trkpt><trkpt lat="43.93720268379596" lon="4.531998960336348"><ele>136.8</ele><time>2026-04-06T17:03:56Z</time></trkpt><trkpt lat="43.937274632301914" lon="4.53209309469945"><ele>137.6</ele><time>2026-04-06T17:03:57Z</time></trkpt><trkpt lat="43.937343119617076" lon="4.5321933525103315"><ele>138.4</ele><time>2026-04-06T17:03:58Z</time></trkpt><trkpt lat="43.937412551527494" lon="4.532301083550152"><ele>139.2</ele><time>2026-04-06T17:03:59Z</time></trkpt><trkpt lat="43.93748426733095" lon="4.532419318988817"><ele>140.0</ele><time>2026-04-06T17:04:00Z</time></trkpt><trkpt lat="43.937551707756924" lon="4.532547092110924"><ele>138.75</ele><time>2026-04-06T17:04:01Z</time></trkpt><trkpt lat="43.93762895095757" lon="4.532666461271353"><ele>137.5</ele><time>2026-04-06T17:04:02Z</time></trkpt><trkpt lat="43.937713841064536" lon="4.532771382037794"><ele>136.25</ele><time>2026-04-06T17:04:03Z</time></trkpt><trkpt lat="43.93780035098985" lon="4.5328682064185255"><ele>135.0</ele><time>2026-04-06T17:04:04Z</time></trkpt><trkpt lat="43.93788431813491" lon="4.53296653858271"><ele>135.0</ele><time>2026-04-06T17:04:05Z</time></trkpt><trkpt lat="43.93796137147582" lon="4.53306846720348"><ele>135.0</ele><time>2026-04-06T17:04:05.999Z</time></trkpt><trkpt lat="43.93803618373732" lon="4.533166953500074"><ele>135.0</ele><time>2026-04-06T17:04:06.999Z</time></trkpt><trkpt lat="43.938108052804765" lon="4.533269917672528"><ele>135.0</ele><time>2026-04-06T17:04:07.999Z</time></trkpt><trkpt lat="43.93816122006155" lon="4.533372404595042"><ele>135.0</ele><time>2026-04-06T17:04:08.999Z</time></trkpt><trkpt lat="43.938206907750754" lon="4.533485383186478"><ele>135.0</ele><time>2026-04-06T17:04:09.999Z</time></trkpt><trkpt lat="43.93824079803208" lon="4.533619124651173"><ele>135.0</ele><time>2026-04-06T17:04:10.999Z</time></trkpt><trkpt lat="43.93827031627404" lon="4.533756539938028"><ele>135.0</ele><time>2026-04-06T17:04:11.999Z</time></trkpt><trkpt lat="43.93830272227721" lon="4.533875473976336"><ele>135.0</ele><time>2026-04-06T17:04:12.999Z</time></trkpt><trkpt lat="43.93835003414355" lon="4.533970440110711"><ele>135.0</ele><time>2026-04-06T17:04:13.999Z</time></trkpt><trkpt lat="43.93841604659489" lon="4.534062047031547"><ele>133.4</ele><time>2026-04-06T17:04:14.999Z</time></trkpt><trkpt lat="43.938494378003604" lon="4.534130693457699"><ele>131.8</ele><time>2026-04-06T17:04:15.999Z</time></trkpt><trkpt lat="43.938575499596475" lon="4.5341957713053835"><ele>130.2</ele><time>2026-04-06T17:04:16.999Z</time></trkpt><trkpt lat="43.938652387671716" lon="4.534278686053629"><ele>128.6</ele><time>2026-04-06T17:04:17.999Z</time></trkpt><trkpt lat="43.938724707026324" lon="4.534365792463567"><ele>127.0</ele><time>2026-04-06T17:04:18.999Z</time></trkpt><trkpt lat="43.938808585332666" lon="4.534446602310848"><ele>127.0</ele><time>2026-04-06T17:04:19.999Z</time></trkpt><trkpt lat="43.938906588297364" lon="4.534517059528248"><ele>127.0</ele><time>2026-04-06T17:04:20.999Z</time></trkpt><trkpt lat="43.93901144034286" lon="4.534591642878398"><ele>127.0</ele><time>2026-04-06T17:04:21.999Z</time></trkpt><trkpt lat="43.93911310042583" lon="4.534673590906183"><ele>127.0</ele><time>2026-04-06T17:04:22.999Z</time></trkpt><trkpt lat="43.93920641047646" lon="4.534759810209453"><ele>127.19999999999999</ele><time>2026-04-06T17:04:23.999Z</time></trkpt><trkpt lat="43.93929970608891" lon="4.534846498700871"><ele>127.39999999999999</ele><time>2026-04-06T17:04:24.999Z</time></trkpt><trkpt lat="43.93939776007476" lon="4.534927849514476"><ele>127.60000000000001</ele><time>2026-04-06T17:04:25.999Z</time></trkpt><trkpt lat="43.93949000182574" lon="4.535007819695943"><ele>127.80000000000001</ele><time>2026-04-06T17:04:26.999Z</time></trkpt><trkpt lat="43.93958259555009" lon="4.535089067420951"><ele>128.0</ele><time>2026-04-06T17:04:27.999Z</time></trkpt><trkpt lat="43.93968213298235" lon="4.535173757806416"><ele>128.0</ele><time>2026-04-06T17:04:28.999Z</time></trkpt><trkpt lat="43.93978105782664" lon="4.5352493294050165"><ele>128.0</ele><time>2026-04-06T17:04:29.999Z</time></trkpt><trkpt lat="43.93988760187809" lon="4.535308044531746"><ele>128.0</ele><time>2026-04-06T17:04:30.999Z</time></trkpt><trkpt lat="43.93999055708263" lon="4.535366491648077"><ele>128.0</ele><time>2026-04-06T17:04:31.999Z</time></trkpt><trkpt lat="43.94009057878525" lon="4.535425604329024"><ele>128.0</ele><time>2026-04-06T17:04:32.999Z</time></trkpt><trkpt lat="43.94018693543579" lon="4.535477709186644"><ele>126.80000000000001</ele><time>2026-04-06T17:04:33.999Z</time></trkpt><trkpt lat="43.94028688149478" lon="4.535526033391721"><ele>125.60000000000001</ele><time>2026-04-06T17:04:34.999Z</time></trkpt><trkpt lat="43.94038153948988" lon="4.535571852544278"><ele>124.39999999999999</ele><time>2026-04-06T17:04:35.999Z</time></trkpt><trkpt lat="43.940480167927035" lon="4.535616253100457"><ele>123.19999999999999</ele><time>2026-04-06T17:04:36.999Z</time></trkpt><trkpt lat="43.9405821334066" lon="4.5356565172813195"><ele>122.0</ele><time>2026-04-06T17:04:37.999Z</time></trkpt><trkpt lat="43.94068328608823" lon="4.535699667733386"><ele>122.0</ele><time>2026-04-06T17:04:38.999Z</time></trkpt><trkpt lat="43.94078291583307" lon="4.5357395619591525"><ele>121.99999999999999</ele><time>2026-04-06T17:04:39.999Z</time></trkpt><trkpt lat="43.94088190931451" lon="4.535775573747555"><ele>121.99999999999999</ele><time>2026-04-06T17:04:41.001Z</time></trkpt><trkpt lat="43.94097709834357" lon="4.535810181259694"><ele>122.0</ele><time>2026-04-06T17:04:42.001Z</time></trkpt><trkpt lat="43.941063332250025" lon="4.535847187810254"><ele>122.0</ele><time>2026-04-06T17:04:43.001Z</time></trkpt><trkpt lat="43.94114269331432" lon="4.535884571581647"><ele>120.49999999999999</ele><time>2026-04-06T17:04:44.001Z</time></trkpt><trkpt lat="43.94121078588792" lon="4.535927261635594"><ele>119.0</ele><time>2026-04-06T17:04:45.001Z</time></trkpt><trkpt lat="43.94127964118543" lon="4.535982811139149"><ele>117.5</ele><time>2026-04-06T17:04:46.001Z</time></trkpt><trkpt lat="43.9413361914769" lon="4.536062848983765"><ele>116.0</ele><time>2026-04-06T17:04:47.001Z</time></trkpt><trkpt lat="43.9413889784869" lon="4.536156593795964"><ele>114.49999999999999</ele><time>2026-04-06T17:04:48.001Z</time></trkpt><trkpt lat="43.94143232146097" lon="4.536265408630761"><ele>113.0</ele><time>2026-04-06T17:04:49.001Z</time></trkpt><trkpt lat="43.94147222187957" lon="4.536369254290158"><ele>112.85714285714286</ele><time>2026-04-06T17:04:50.001Z</time></trkpt><trkpt lat="43.94151059022358" lon="4.536455202467406"><ele>112.71428571428571</ele><time>2026-04-06T17:04:51.001Z</time></trkpt><trkpt lat="43.9415593894186" lon="4.5365246346437464"><ele>112.57142857142857</ele><time>2026-04-06T17:04:52.001Z</time></trkpt><trkpt lat="43.9416130256036" lon="4.536581828745443"><ele>112.42857142857143</ele><time>2026-04-06T17:04:53.001Z</time></trkpt><trkpt lat="43.941670087787294" lon="4.536620109707602"><ele>112.28571428571428</ele><time>2026-04-06T17:04:54.001Z</time></trkpt><trkpt lat="43.94173479892626" lon="4.536647359005039"><ele>112.14285714285714</ele><time>2026-04-06T17:04:55.001Z</time></trkpt><trkpt lat="43.94180728758683" lon="4.536664821140435"><ele>112.0</ele><time>2026-04-06T17:04:56.001Z</time></trkpt><trkpt lat="43.94188187607497" lon="4.53667867174159"><ele>110.83333333333334</ele><time>2026-04-06T17:04:57.001Z</time></trkpt><trkpt lat="43.94195190941112" lon="4.53670429995211"><ele>109.66666666666667</ele><time>2026-04-06T17:04:58.001Z</time></trkpt><trkpt lat="43.94201687432103" lon="4.536753603542089"><ele>108.5</ele><time>2026-04-06T17:04:59.001Z</time></trkpt><trkpt lat="43.94207436386836" lon="4.5368108316410884"><ele>107.33333333333334</ele><time>2026-04-06T17:05:00.001Z</time></trkpt><trkpt lat="43.94212639824802" lon="4.536868594521913"><ele>106.16666666666667</ele><time>2026-04-06T17:05:01.001Z</time></trkpt><trkpt lat="43.94219627511772" lon="4.536994704812699"><ele>105.0</ele><time>2026-04-06T17:05:03Z</time></trkpt><trkpt lat="43.94219913038409" lon="4.537162798205991"><ele>104.4</ele><time>2026-04-06T17:05:05Z</time></trkpt><trkpt lat="43.94217836640319" lon="4.537250634294571"><ele>103.8</ele><time>2026-04-06T17:05:06Z</time></trkpt><trkpt lat="43.94215648051622" lon="4.537412379658472"><ele>103.19999999999999</ele><time>2026-04-06T17:05:08Z</time></trkpt><trkpt lat="43.942209768084" lon="4.537556677780061"><ele>102.6</ele><time>2026-04-06T17:05:10Z</time></trkpt><trkpt lat="43.94226462689409" lon="4.537619829268961"><ele>102.0</ele><time>2026-04-06T17:05:11Z</time></trkpt><trkpt lat="43.942330458855295" lon="4.537687284874624"><ele>102.0</ele><time>2026-04-06T17:05:12Z</time></trkpt><trkpt lat="43.942393105599095" lon="4.5377541356573206"><ele>102.0</ele><time>2026-04-06T17:05:13Z</time></trkpt><trkpt lat="43.94246138996623" lon="4.537817044141091"><ele>102.0</ele><time>2026-04-06T17:05:14Z</time></trkpt><trkpt lat="43.94253565371596" lon="4.537871193878011"><ele>102.0</ele><time>2026-04-06T17:05:15Z</time></trkpt><trkpt lat="43.94261526997821" lon="4.537935749286224"><ele>102.0</ele><time>2026-04-06T17:05:16Z</time></trkpt><trkpt lat="43.94268761330792" lon="4.538006727815664"><ele>102.0</ele><time>2026-04-06T17:05:17Z</time></trkpt><trkpt lat="43.942765635402594" lon="4.538062132449538"><ele>101.33333333333333</ele><time>2026-04-06T17:05:18Z</time></trkpt><trkpt lat="43.942845314478184" lon="4.538098874783473"><ele>100.66666666666666</ele><time>2026-04-06T17:05:19Z</time></trkpt><trkpt lat="43.942922543426036" lon="4.538118322862238"><ele>100.0</ele><time>2026-04-06T17:05:20Z</time></trkpt><trkpt lat="43.94300258755581" lon="4.538126995449396"><ele>99.33333333333333</ele><time>2026-04-06T17:05:21Z</time></trkpt><trkpt lat="43.94308872460429" lon="4.538136836264181"><ele>98.66666666666666</ele><time>2026-04-06T17:05:22Z</time></trkpt><trkpt lat="43.943179498813464" lon="4.5381655713892775"><ele>98.0</ele><time>2026-04-06T17:05:23Z</time></trkpt><trkpt lat="43.9432713733866" lon="4.5381988411633065"><ele>97.99999999999999</ele><time>2026-04-06T17:05:24Z</time></trkpt><trkpt lat="43.94336006957669" lon="4.538224623530717"><ele>98.0</ele><time>2026-04-06T17:05:25Z</time></trkpt><trkpt lat="43.94344360398064" lon="4.538234788410348"><ele>98.0</ele><time>2026-04-06T17:05:26Z</time></trkpt><trkpt lat="43.94352245041848" lon="4.538240273067748"><ele>98.0</ele><time>2026-04-06T17:05:27Z</time></trkpt><trkpt lat="43.94359820207537" lon="4.538266242412114"><ele>97.99999999999999</ele><time>2026-04-06T17:05:28Z</time></trkpt><trkpt lat="43.943668816781646" lon="4.53831768581112"><ele>98.0</ele><time>2026-04-06T17:05:29Z</time></trkpt><trkpt lat="43.943731562127645" lon="4.538378149399705"><ele>96.99999999999999</ele><time>2026-04-06T17:05:30Z</time></trkpt><trkpt lat="43.94380588161665" lon="4.538407244744702"><ele>96.0</ele><time>2026-04-06T17:05:31Z</time></trkpt><trkpt lat="43.94389023034186" lon="4.538427391049929"><ele>95.0</ele><time>2026-04-06T17:05:32Z</time></trkpt><trkpt lat="43.94397405403714" lon="4.538452253125671"><ele>94.0</ele><time>2026-04-06T17:05:33Z</time></trkpt><trkpt lat="43.94404528710073" lon="4.5384949888923805"><ele>93.0</ele><time>2026-04-06T17:05:34Z</time></trkpt><trkpt lat="43.9441177853881" lon="4.5385552662225"><ele>92.0</ele><time>2026-04-06T17:05:35Z</time></trkpt><trkpt lat="43.94419736006954" lon="4.5386357230173795"><ele>90.39999999999999</ele><time>2026-04-06T17:05:36Z</time></trkpt><trkpt lat="43.94427887684482" lon="4.538719912295952"><ele>88.8</ele><time>2026-04-06T17:05:37Z</time></trkpt><trkpt lat="43.944364124941586" lon="4.538799856767335"><ele>87.2</ele><time>2026-04-06T17:05:38Z</time></trkpt><trkpt lat="43.94444615075567" lon="4.538871809711937"><ele>85.6</ele><time>2026-04-06T17:05:39Z</time></trkpt><trkpt lat="43.944525509526905" lon="4.538930990530226"><ele>84.0</ele><time>2026-04-06T17:05:40Z</time></trkpt><trkpt lat="43.94459594932829" lon="4.5389736414292745"><ele>84.0</ele><time>2026-04-06T17:05:41Z</time></trkpt><trkpt lat="43.944667443829594" lon="4.538996218234664"><ele>84.0</ele><time>2026-04-06T17:05:42Z</time></trkpt><trkpt lat="43.944748144077465" lon="4.5390013759274295"><ele>84.0</ele><time>2026-04-06T17:05:43Z</time></trkpt><trkpt lat="43.94483341975197" lon="4.538979205783684"><ele>84.0</ele><time>2026-04-06T17:05:44Z</time></trkpt><trkpt lat="43.94491735978931" lon="4.538945294723935"><ele>84.0</ele><time>2026-04-06T17:05:45Z</time></trkpt><trkpt lat="43.944997742981315" lon="4.538922989861287"><ele>84.0</ele><time>2026-04-06T17:05:46Z</time></trkpt><trkpt lat="43.94508710150112" lon="4.538924308387249"><ele>83.2</ele><time>2026-04-06T17:05:47Z</time></trkpt><trkpt lat="43.9451809758249" lon="4.5389459035275195"><ele>82.4</ele><time>2026-04-06T17:05:48Z</time></trkpt><trkpt lat="43.94527419446511" lon="4.538971306519883"><ele>81.6</ele><time>2026-04-06T17:05:49Z</time></trkpt><trkpt lat="43.94537089426333" lon="4.538981822796679"><ele>80.8</ele><time>2026-04-06T17:05:50Z</time></trkpt><trkpt lat="43.945468864046866" lon="4.538986799192854"><ele>80.0</ele><time>2026-04-06T17:05:51Z</time></trkpt><trkpt lat="43.9455629092106" lon="4.538991644401512"><ele>80.0</ele><time>2026-04-06T17:05:52Z</time></trkpt><trkpt lat="43.94564970149665" lon="4.538997709387082"><ele>80.0</ele><time>2026-04-06T17:05:53Z</time></trkpt><trkpt lat="43.94572595179381" lon="4.539012773487075"><ele>80.0</ele><time>2026-04-06T17:05:54Z</time></trkpt><trkpt lat="43.94580627255945" lon="4.539041856723958"><ele>80.0</ele><time>2026-04-06T17:05:55Z</time></trkpt><trkpt lat="43.94588473252381" lon="4.5390907476193405"><ele>80.0</ele><time>2026-04-06T17:05:56Z</time></trkpt><trkpt lat="43.94595769277214" lon="4.539148833906935"><ele>80.0</ele><time>2026-04-06T17:05:57Z</time></trkpt><trkpt lat="43.94602116421479" lon="4.539188473268256"><ele>78.5</ele><time>2026-04-06T17:05:58Z</time></trkpt><trkpt lat="43.946091183197765" lon="4.539216993560327"><ele>77.0</ele><time>2026-04-06T17:05:58.999Z</time></trkpt><trkpt lat="43.946169901327366" lon="4.539223833241763"><ele>75.5</ele><time>2026-04-06T17:05:59.999Z</time></trkpt><trkpt lat="43.94625650003546" lon="4.539209126155894"><ele>74.0</ele><time>2026-04-06T17:06:00.999Z</time></trkpt><trkpt lat="43.946344777473875" lon="4.539186794398507"><ele>72.5</ele><time>2026-04-06T17:06:01.999Z</time></trkpt><trkpt lat="43.94642763390687" lon="4.5391615833753"><ele>71.0</ele><time>2026-04-06T17:06:02.999Z</time></trkpt><trkpt lat="43.94649839969675" lon="4.539156411879882"><ele>71.0</ele><time>2026-04-06T17:06:03.999Z</time></trkpt><trkpt lat="43.94656382613302" lon="4.539177897515206"><ele>71.0</ele><time>2026-04-06T17:06:04.999Z</time></trkpt><trkpt lat="43.94663388216428" lon="4.539265405792239"><ele>71.0</ele><time>2026-04-06T17:06:06.999Z</time></trkpt><trkpt lat="43.946667106323815" lon="4.539346938809412"><ele>71.0</ele><time>2026-04-06T17:06:07.999Z</time></trkpt><trkpt lat="43.94669317444392" lon="4.539433881360836"><ele>71.0</ele><time>2026-04-06T17:06:08.999Z</time></trkpt><trkpt lat="43.946775450440555" lon="4.539540917554639"><ele>71.0</ele><time>2026-04-06T17:06:10.999Z</time></trkpt><trkpt lat="43.946881323985274" lon="4.539537032030006"><ele>68.66666666666667</ele><time>2026-04-06T17:06:12.999Z</time></trkpt><trkpt lat="43.946935621659684" lon="4.5394919600763055"><ele>66.33333333333334</ele><time>2026-04-06T17:06:13.999Z</time></trkpt><trkpt lat="43.946992059277655" lon="4.539431227433556"><ele>64.0</ele><time>2026-04-06T17:06:14.999Z</time></trkpt><trkpt lat="43.94704698646931" lon="4.539376704079498"><ele>61.66666666666667</ele><time>2026-04-06T17:06:15.999Z</time></trkpt><trkpt lat="43.94714285151892" lon="4.539316729165579"><ele>59.333333333333336</ele><time>2026-04-06T17:06:17.999Z</time></trkpt><trkpt lat="43.94720438126559" lon="4.539363694257203"><ele>57.0</ele><time>2026-04-06T17:06:19.999Z</time></trkpt><trkpt lat="43.947229802734014" lon="4.539499530591903"><ele>57.2</ele><time>2026-04-06T17:06:21.999Z</time></trkpt><trkpt lat="43.947226651968755" lon="4.53964654781049"><ele>57.400000000000006</ele><time>2026-04-06T17:06:23.999Z</time></trkpt><trkpt lat="43.9472159518404" lon="4.5398082640173945"><ele>57.599999999999994</ele><time>2026-04-06T17:06:25.999Z</time></trkpt><trkpt lat="43.94720447414914" lon="4.539907487227456"><ele>57.8</ele><time>2026-04-06T17:06:26.999Z</time></trkpt><trkpt lat="43.94718563033158" lon="4.539994714887766"><ele>58.0</ele><time>2026-04-06T17:06:27.999Z</time></trkpt><trkpt lat="43.9471403814176" lon="4.540116594363426"><ele>57.99999999999999</ele><time>2026-04-06T17:06:29.999Z</time></trkpt><trkpt lat="43.94703668733095" lon="4.540210384467538"><ele>58.0</ele><time>2026-04-06T17:06:31.999Z</time></trkpt><trkpt lat="43.94697922357538" lon="4.54030864763478"><ele>58.0</ele><time>2026-04-06T17:06:33.999Z</time></trkpt><trkpt lat="43.94700964515219" lon="4.5404010353041215"><ele>58.0</ele><time>2026-04-06T17:06:35.999Z</time></trkpt><trkpt lat="43.947068549479305" lon="4.540484232666339"><ele>57.99999999999999</ele><time>2026-04-06T17:06:36.999Z</time></trkpt><trkpt lat="43.947135044890764" lon="4.540527048917386"><ele>58.0</ele><time>2026-04-06T17:06:37.999Z</time></trkpt><trkpt lat="43.947193761761135" lon="4.540581966442817"><ele>57.166666666666664</ele><time>2026-04-06T17:06:38.999Z</time></trkpt><trkpt lat="43.947241060569475" lon="4.540645994326818"><ele>56.33333333333333</ele><time>2026-04-06T17:06:39.999Z</time></trkpt><trkpt lat="43.947281456456004" lon="4.540718815364712"><ele>55.5</ele><time>2026-04-06T17:06:40.999Z</time></trkpt><trkpt lat="43.947312487447796" lon="4.5407992465387474"><ele>54.66666666666667</ele><time>2026-04-06T17:06:41.999Z</time></trkpt><trkpt lat="43.94734816144302" lon="4.540933176910428"><ele>53.833333333333336</ele><time>2026-04-06T17:06:43.999Z</time></trkpt><trkpt lat="43.9474264609665" lon="4.541002045891436"><ele>53.0</ele><time>2026-04-06T17:06:45.999Z</time></trkpt><trkpt lat="43.94749012234839" lon="4.541000982686023"><ele>50.8</ele><time>2026-04-06T17:06:47.001Z</time></trkpt><trkpt lat="43.94759838584009" lon="4.5409475929137475"><ele>48.599999999999994</ele><time>2026-04-06T17:06:49.001Z</time></trkpt><trkpt lat="43.947687951493826" lon="4.540931407347605"><ele>46.400000000000006</ele><time>2026-04-06T17:06:51.001Z</time></trkpt><trkpt lat="43.947746455697995" lon="4.540976836975885"><ele>44.2</ele><time>2026-04-06T17:06:53.001Z</time></trkpt><trkpt lat="43.94778166474656" lon="4.541122921064028"><ele>42.0</ele><time>2026-04-06T17:06:55.001Z</time></trkpt><trkpt lat="43.94774055348457" lon="4.5412339233519585"><ele>41.0</ele><time>2026-04-06T17:06:57.001Z</time></trkpt><trkpt lat="43.947668731475204" lon="4.541291089628473"><ele>40.0</ele><time>2026-04-06T17:06:59.001Z</time></trkpt><trkpt lat="43.94753318476161" lon="4.5413112056488725"><ele>39.0</ele><time>2026-04-06T17:07:01.001Z</time></trkpt><trkpt lat="43.94744308737934" lon="4.541322122869428"><ele>38.0</ele><time>2026-04-06T17:07:02.001Z</time></trkpt><trkpt lat="43.947354791636805" lon="4.541338240964615"><ele>37.0</ele><time>2026-04-06T17:07:03Z</time></trkpt><trkpt lat="43.94727215230338" lon="4.5413370090766465"><ele>38.66666666666667</ele><time>2026-04-06T17:07:04Z</time></trkpt><trkpt lat="43.947197896551984" lon="4.5413566664160925"><ele>40.333333333333336</ele><time>2026-04-06T17:07:05Z</time></trkpt><trkpt lat="43.94713559352635" lon="4.541393313779059"><ele>42.0</ele><time>2026-04-06T17:07:06Z</time></trkpt><trkpt lat="43.94707651215588" lon="4.541453367428335"><ele>43.666666666666664</ele><time>2026-04-06T17:07:07Z</time></trkpt><trkpt lat="43.9470076869483" lon="4.541531444701938"><ele>45.33333333333333</ele><time>2026-04-06T17:07:09Z</time></trkpt><trkpt lat="43.94694405604781" lon="4.541596636630174"><ele>47.0</ele><time>2026-04-06T17:07:11Z</time></trkpt><trkpt lat="43.94700548767411" lon="4.541509256486808"><ele>47.0</ele><time>2026-04-06T17:09:16Z</time></trkpt><trkpt lat="43.94707339726908" lon="4.5414402982565"><ele>47.0</ele><time>2026-04-06T17:09:18Z</time></trkpt><trkpt lat="43.94715037903196" lon="4.541381347655276"><ele>47.0</ele><time>2026-04-06T17:09:20Z</time></trkpt><trkpt lat="43.947223223042" lon="4.541337021294502"><ele>47.0</ele><time>2026-04-06T17:09:23Z</time></trkpt><trkpt lat="43.94731824858726" lon="4.541324376584701"><ele>47.0</ele><time>2026-04-06T17:09:26Z</time></trkpt><trkpt lat="43.94738997505614" lon="4.541316150677079"><ele>47.0</ele><time>2026-04-06T17:09:28Z</time></trkpt><trkpt lat="43.94745753694133" lon="4.541310848568901"><ele>47.0</ele><time>2026-04-06T17:09:30Z</time></trkpt><trkpt lat="43.94753888501581" lon="4.5412961701459675"><ele>47.0</ele><time>2026-04-06T17:09:33Z</time></trkpt><trkpt lat="43.947623231122975" lon="4.5412722676921025"><ele>47.0</ele><time>2026-04-06T17:09:35Z</time></trkpt><trkpt lat="43.94771505939019" lon="4.54123295464526"><ele>47.0</ele><time>2026-04-06T17:09:39Z</time></trkpt><trkpt lat="43.947746072391546" lon="4.541147782128446"><ele>47.0</ele><time>2026-04-06T17:09:42Z</time></trkpt><trkpt lat="43.947734588195495" lon="4.541058264260964"><ele>47.0</ele><time>2026-04-06T17:09:44Z</time></trkpt><trkpt lat="43.94771025525642" lon="4.54096591837711"><ele>46.285714285714285</ele><time>2026-04-06T17:09:47Z</time></trkpt><trkpt lat="43.94765481340747" lon="4.540923399493895"><ele>45.57142857142857</ele><time>2026-04-06T17:09:49.999Z</time></trkpt><trkpt lat="43.94757520315144" lon="4.540948957910379"><ele>44.85714285714286</ele><time>2026-04-06T17:10:10.999Z</time></trkpt><trkpt lat="43.94751047617112" lon="4.540965969505505"><ele>44.14285714285714</ele><time>2026-04-06T17:10:12.999Z</time></trkpt><trkpt lat="43.9474430255145" lon="4.54098764774184"><ele>43.42857142857143</ele><time>2026-04-06T17:10:14.999Z</time></trkpt><trkpt lat="43.94737851355235" lon="4.540972348291638"><ele>42.714285714285715</ele><time>2026-04-06T17:10:16.999Z</time></trkpt><trkpt lat="43.94731733216908" lon="4.540892403256822"><ele>42.0</ele><time>2026-04-06T17:10:19.999Z</time></trkpt><trkpt lat="43.94730389499077" lon="4.540805131999454"><ele>43.833333333333336</ele><time>2026-04-06T17:10:21.999Z</time></trkpt><trkpt lat="43.9472808457929" lon="4.5407118710947705"><ele>45.66666666666667</ele><time>2026-04-06T17:10:23.999Z</time></trkpt><trkpt lat="43.94722294765507" lon="4.540626702824931"><ele>47.5</ele><time>2026-04-06T17:10:25.999Z</time></trkpt><trkpt lat="43.94715331172551" lon="4.540555936059695"><ele>49.333333333333336</ele><time>2026-04-06T17:10:27.999Z</time></trkpt><trkpt lat="43.94707232886444" lon="4.5404759751763"><ele>51.16666666666667</ele><time>2026-04-06T17:10:29.999Z</time></trkpt><trkpt lat="43.94700856936305" lon="4.540399686911047"><ele>53.0</ele><time>2026-04-06T17:10:31.999Z</time></trkpt><trkpt lat="43.946983426141564" lon="4.540318362695692"><ele>53.833333333333336</ele><time>2026-04-06T17:10:33.999Z</time></trkpt><trkpt lat="43.947025223880914" lon="4.540208033738721"><ele>54.66666666666667</ele><time>2026-04-06T17:10:36.999Z</time></trkpt><trkpt lat="43.947087701841554" lon="4.540156481584041"><ele>55.5</ele><time>2026-04-06T17:10:38.999Z</time></trkpt><trkpt lat="43.947134804948114" lon="4.540089415211274"><ele>56.33333333333333</ele><time>2026-04-06T17:10:40.999Z</time></trkpt><trkpt lat="43.947171485634875" lon="4.539984184664438"><ele>57.166666666666664</ele><time>2026-04-06T17:10:43.999Z</time></trkpt><trkpt lat="43.94719358352835" lon="4.539876915961009"><ele>58.0</ele><time>2026-04-06T17:10:45.999Z</time></trkpt><trkpt lat="43.94720718805975" lon="4.539756727788495"><ele>57.99999999999999</ele><time>2026-04-06T17:10:47.999Z</time></trkpt><trkpt lat="43.94721049002508" lon="4.5396518976277225"><ele>58.0</ele><time>2026-04-06T17:10:49.998Z</time></trkpt><trkpt lat="43.947212932818225" lon="4.5395227373169"><ele>58.0</ele><time>2026-04-06T17:10:51.998Z</time></trkpt><trkpt lat="43.947208827824404" lon="4.539411811782113"><ele>58.0</ele><time>2026-04-06T17:10:53.998Z</time></trkpt><trkpt lat="43.947174533024196" lon="4.5393310677918315"><ele>57.99999999999999</ele><time>2026-04-06T17:10:55.998Z</time></trkpt><trkpt lat="43.947097332982736" lon="4.539326609086258"><ele>58.0</ele><time>2026-04-06T17:10:59Z</time></trkpt><trkpt lat="43.94702827875547" lon="4.539384406656694"><ele>57.83333333333333</ele><time>2026-04-06T17:11:01Z</time></trkpt><trkpt lat="43.946950034010634" lon="4.539463504284024"><ele>57.666666666666664</ele><time>2026-04-06T17:11:03Z</time></trkpt><trkpt lat="43.94685252798329" lon="4.539539507396354"><ele>57.5</ele><time>2026-04-06T17:11:05Z</time></trkpt><trkpt lat="43.946772948611205" lon="4.53955017301891"><ele>57.33333333333333</ele><time>2026-04-06T17:11:07Z</time></trkpt><trkpt lat="43.94671737552974" lon="4.539490326148615"><ele>57.166666666666664</ele><time>2026-04-06T17:11:09Z</time></trkpt><trkpt lat="43.946676516939355" lon="4.539395495847346"><ele>57.0</ele><time>2026-04-06T17:11:11Z</time></trkpt><trkpt lat="43.94662799883185" lon="4.539289075289355"><ele>59.8</ele><time>2026-04-06T17:11:13Z</time></trkpt><trkpt lat="43.946575804239195" lon="4.539198030106284"><ele>62.6</ele><time>2026-04-06T17:11:15Z</time></trkpt><trkpt lat="43.946494865223436" lon="4.539151727181212"><ele>65.39999999999999</ele><time>2026-04-06T17:11:17Z</time></trkpt><trkpt lat="43.94640588141946" lon="4.539167903000173"><ele>68.2</ele><time>2026-04-06T17:11:19Z</time></trkpt><trkpt lat="43.946317865399955" lon="4.5391989042138245"><ele>71.0</ele><time>2026-04-06T17:11:21Z</time></trkpt><trkpt lat="43.94620643714948" lon="4.539221811213903"><ele>71.0</ele><time>2026-04-06T17:11:23Z</time></trkpt><trkpt lat="43.94609144679542" lon="4.539222835365593"><ele>71.0</ele><time>2026-04-06T17:11:25Z</time></trkpt><trkpt lat="43.94597742685002" lon="4.539182585992644"><ele>71.0</ele><time>2026-04-06T17:11:27Z</time></trkpt><trkpt lat="43.94588227444945" lon="4.53909342580341"><ele>71.0</ele><time>2026-04-06T17:11:29Z</time></trkpt><trkpt lat="43.945772251526236" lon="4.539012871126093"><ele>72.5</ele><time>2026-04-06T17:11:31Z</time></trkpt><trkpt lat="43.94565055469871" lon="4.5389845259301"><ele>74.0</ele><time>2026-04-06T17:11:33Z</time></trkpt><trkpt lat="43.945585969344144" lon="4.53897666946475"><ele>75.5</ele><time>2026-04-06T17:11:34Z</time></trkpt><trkpt lat="43.94552180834603" lon="4.538973313876039"><ele>77.0</ele><time>2026-04-06T17:11:35Z</time></trkpt><trkpt lat="43.94544770368697" lon="4.538967460839107"><ele>78.5</ele><time>2026-04-06T17:11:36Z</time></trkpt><trkpt lat="43.94537375989511" lon="4.538966426069744"><ele>80.0</ele><time>2026-04-06T17:11:37Z</time></trkpt><trkpt lat="43.94530131224904" lon="4.538964443112513"><ele>80.0</ele><time>2026-04-06T17:11:38Z</time></trkpt><trkpt lat="43.94523829407767" lon="4.538960353109663"><ele>80.0</ele><time>2026-04-06T17:11:39Z</time></trkpt><trkpt lat="43.94517608908797" lon="4.5389446522266255"><ele>80.0</ele><time>2026-04-06T17:11:40Z</time></trkpt><trkpt lat="43.94510989614689" lon="4.53892363479984"><ele>80.0</ele><time>2026-04-06T17:11:41Z</time></trkpt><trkpt lat="43.9450393207934" lon="4.538907057620686"><ele>80.0</ele><time>2026-04-06T17:11:42Z</time></trkpt><trkpt lat="43.94491421934485" lon="4.538927156208061"><ele>80.0</ele><time>2026-04-06T17:11:44Z</time></trkpt><trkpt lat="43.9447929439002" lon="4.538982015741706"><ele>80.57142857142857</ele><time>2026-04-06T17:11:46Z</time></trkpt><trkpt lat="43.94472156174644" lon="4.538992910514313"><ele>81.14285714285714</ele><time>2026-04-06T17:11:47Z</time></trkpt><trkpt lat="43.94465224886432" lon="4.5389853378753315"><ele>81.71428571428572</ele><time>2026-04-06T17:11:48Z</time></trkpt><trkpt lat="43.94458376206704" lon="4.538964384939056"><ele>82.28571428571428</ele><time>2026-04-06T17:11:49Z</time></trkpt><trkpt lat="43.944517838918216" lon="4.538923774991735"><ele>82.85714285714286</ele><time>2026-04-06T17:11:49.999Z</time></trkpt><trkpt lat="43.9444537346632" lon="4.538875105763144"><ele>83.42857142857143</ele><time>2026-04-06T17:11:50.999Z</time></trkpt><trkpt lat="43.94438632633577" lon="4.538819846739141"><ele>84.0</ele><time>2026-04-06T17:11:51.999Z</time></trkpt><trkpt lat="43.944326249244476" lon="4.5387671771568"><ele>83.66666666666667</ele><time>2026-04-06T17:11:52.999Z</time></trkpt><trkpt lat="43.94426032279392" lon="4.538708764336894"><ele>83.33333333333333</ele><time>2026-04-06T17:11:53.999Z</time></trkpt><trkpt lat="43.94419962583344" lon="4.5386424925745565"><ele>83.0</ele><time>2026-04-06T17:11:54.999Z</time></trkpt><trkpt lat="43.94413658283849" lon="4.5385792318372316"><ele>82.66666666666666</ele><time>2026-04-06T17:11:55.999Z</time></trkpt><trkpt lat="43.9440840789724" lon="4.538515882008638"><ele>82.33333333333333</ele><time>2026-04-06T17:11:56.999Z</time></trkpt><trkpt lat="43.944028895608014" lon="4.538470605217792"><ele>82.0</ele><time>2026-04-06T17:11:57.999Z</time></trkpt><trkpt lat="43.943929550956305" lon="4.53842642296911"><ele>84.0</ele><time>2026-04-06T17:11:59.999Z</time></trkpt><trkpt lat="43.943840011758766" lon="4.538416840525263"><ele>86.0</ele><time>2026-04-06T17:12:01.999Z</time></trkpt><trkpt lat="43.94376355842083" lon="4.538396021151188"><ele>88.0</ele><time>2026-04-06T17:12:03.999Z</time></trkpt><trkpt lat="43.94367974336783" lon="4.538345850718016"><ele>90.0</ele><time>2026-04-06T17:12:05.999Z</time></trkpt><trkpt lat="43.943589856874674" lon="4.538271513575271"><ele>92.0</ele><time>2026-04-06T17:12:07.999Z</time></trkpt><trkpt lat="43.943498961893816" lon="4.538231276237612"><ele>93.0</ele><time>2026-04-06T17:12:09.999Z</time></trkpt><trkpt lat="43.94337405062257" lon="4.5382194701182845"><ele>94.0</ele><time>2026-04-06T17:12:11.999Z</time></trkpt><trkpt lat="43.9433021646702" lon="4.53821365565194"><ele>95.0</ele><time>2026-04-06T17:12:12.999Z</time></trkpt><trkpt lat="43.94322959878754" lon="4.538192091838428"><ele>96.0</ele><time>2026-04-06T17:12:13.999Z</time></trkpt><trkpt lat="43.9431543885537" lon="4.538164045535309"><ele>96.99999999999999</ele><time>2026-04-06T17:12:14.999Z</time></trkpt><trkpt lat="43.94308213614357" lon="4.538133243174041"><ele>98.0</ele><time>2026-04-06T17:12:15.999Z</time></trkpt><trkpt lat="43.943001708157155" lon="4.5381218327973905"><ele>97.99999999999999</ele><time>2026-04-06T17:12:16.999Z</time></trkpt><trkpt lat="43.94291930773195" lon="4.538110951330826"><ele>98.0</ele><time>2026-04-06T17:12:17.999Z</time></trkpt><trkpt lat="43.9428387505085" lon="4.538093428860792"><ele>98.0</ele><time>2026-04-06T17:12:18.999Z</time></trkpt><trkpt lat="43.94276180299727" lon="4.538050850745335"><ele>98.0</ele><time>2026-04-06T17:12:19.999Z</time></trkpt><trkpt lat="43.94268809948371" lon="4.537998075689173"><ele>97.99999999999999</ele><time>2026-04-06T17:12:20.999Z</time></trkpt><trkpt lat="43.94262038602115" lon="4.537943289102684"><ele>98.0</ele><time>2026-04-06T17:12:21.999Z</time></trkpt><trkpt lat="43.94254813830494" lon="4.537884978692055"><ele>98.57142857142857</ele><time>2026-04-06T17:12:22.999Z</time></trkpt><trkpt lat="43.94248051619555" lon="4.537835043779625"><ele>99.14285714285714</ele><time>2026-04-06T17:12:23.999Z</time></trkpt><trkpt lat="43.94241913878184" lon="4.537782182045113"><ele>99.71428571428572</ele><time>2026-04-06T17:12:24.999Z</time></trkpt><trkpt lat="43.942358053433736" lon="4.5377218148404355"><ele>100.28571428571428</ele><time>2026-04-06T17:12:25.999Z</time></trkpt><trkpt lat="43.94230494819622" lon="4.537658304850643"><ele>100.85714285714286</ele><time>2026-04-06T17:12:26.999Z</time></trkpt><trkpt lat="43.94224913054453" lon="4.5375912281196635"><ele>101.42857142857143</ele><time>2026-04-06T17:12:27.999Z</time></trkpt><trkpt lat="43.94219923003636" lon="4.537528954867339"><ele>102.0</ele><time>2026-04-06T17:12:28.999Z</time></trkpt><trkpt lat="43.942157883643276" lon="4.5374320180742025"><ele>102.0</ele><time>2026-04-06T17:12:30.999Z</time></trkpt><trkpt lat="43.942157584086566" lon="4.537320215890777"><ele>102.0</ele><time>2026-04-06T17:12:32.999Z</time></trkpt><trkpt lat="43.94218719636628" lon="4.537219187879599"><ele>102.0</ele><time>2026-04-06T17:12:34.999Z</time></trkpt><trkpt lat="43.94220542041667" lon="4.537095549936876"><ele>102.0</ele><time>2026-04-06T17:12:36.999Z</time></trkpt><trkpt lat="43.9421967351104" lon="4.5369614269457745"><ele>102.0</ele><time>2026-04-06T17:12:38.999Z</time></trkpt><trkpt lat="43.94213385792078" lon="4.5368603278483945"><ele>102.0</ele><time>2026-04-06T17:12:40.999Z</time></trkpt><trkpt lat="43.94205561696766" lon="4.53678999506672"><ele>102.6</ele><time>2026-04-06T17:12:42.999Z</time></trkpt><trkpt lat="43.941966648330904" lon="4.5367142331468955"><ele>103.19999999999999</ele><time>2026-04-06T17:12:44.999Z</time></trkpt><trkpt lat="43.941861494611864" lon="4.536659612480639"><ele>103.8</ele><time>2026-04-06T17:12:46.999Z</time></trkpt><trkpt lat="43.94173528455763" lon="4.5366414946499996"><ele>104.4</ele><time>2026-04-06T17:12:48.998Z</time></trkpt><trkpt lat="43.941671616869" lon="4.536616212198172"><ele>105.0</ele><time>2026-04-06T17:12:49.998Z</time></trkpt><trkpt lat="43.94160722587408" lon="4.536579266208849"><ele>106.16666666666667</ele><time>2026-04-06T17:12:50.998Z</time></trkpt><trkpt lat="43.941507791935976" lon="4.536465963667558"><ele>107.33333333333334</ele><time>2026-04-06T17:12:52.998Z</time></trkpt><trkpt lat="43.94146813177018" lon="4.53639367982809"><ele>108.5</ele><time>2026-04-06T17:12:53.998Z</time></trkpt><trkpt lat="43.9414347721883" lon="4.536315315152381"><ele>109.66666666666667</ele><time>2026-04-06T17:12:54.998Z</time></trkpt><trkpt lat="43.94140633042991" lon="4.536231455437576"><ele>110.83333333333334</ele><time>2026-04-06T17:12:55.998Z</time></trkpt><trkpt lat="43.94137863492083" lon="4.536142375537878"><ele>112.0</ele><time>2026-04-06T17:12:56.998Z</time></trkpt><trkpt lat="43.94134149980872" lon="4.536057402847842"><ele>112.25</ele><time>2026-04-06T17:12:57.998Z</time></trkpt><trkpt lat="43.941258343485295" lon="4.535944078507228"><ele>112.5</ele><time>2026-04-06T17:12:59.998Z</time></trkpt><trkpt lat="43.941156645923165" lon="4.535885030370892"><ele>112.75</ele><time>2026-04-06T17:13:01.998Z</time></trkpt><trkpt lat="43.941033189085616" lon="4.5358362996809545"><ele>113.0</ele><time>2026-04-06T17:13:03.998Z</time></trkpt><trkpt lat="43.94090634210274" lon="4.5357922168944595"><ele>114.28571428571429</ele><time>2026-04-06T17:13:06Z</time></trkpt><trkpt lat="43.94084430884052" lon="4.535763449719796"><ele>115.57142857142856</ele><time>2026-04-06T17:13:07Z</time></trkpt><trkpt lat="43.94077987221956" lon="4.535736248721788"><ele>116.85714285714285</ele><time>2026-04-06T17:13:08Z</time></trkpt><trkpt lat="43.94070966503185" lon="4.535709865416468"><ele>118.14285714285714</ele><time>2026-04-06T17:13:09Z</time></trkpt><trkpt lat="43.94063887256951" lon="4.535677571339459"><ele>119.42857142857142</ele><time>2026-04-06T17:13:10Z</time></trkpt><trkpt lat="43.940567074931145" lon="4.53564899013464"><ele>120.7142857142857</ele><time>2026-04-06T17:13:11Z</time></trkpt><trkpt lat="43.94049613252937" lon="4.535620676397617"><ele>121.99999999999999</ele><time>2026-04-06T17:13:12Z</time></trkpt><trkpt lat="43.94042557716203" lon="4.5355899285172105"><ele>121.99999999999999</ele><time>2026-04-06T17:13:13Z</time></trkpt><trkpt lat="43.94034759304153" lon="4.5355572538170374"><ele>122.0</ele><time>2026-04-06T17:13:14Z</time></trkpt><trkpt lat="43.94026882321125" lon="4.535517596195844"><ele>122.0</ele><time>2026-04-06T17:13:15Z</time></trkpt><trkpt lat="43.940189529469976" lon="4.535477146658225"><ele>122.0</ele><time>2026-04-06T17:13:16Z</time></trkpt><trkpt lat="43.940111625499306" lon="4.535433364158586"><ele>121.99999999999999</ele><time>2026-04-06T17:13:17Z</time></trkpt><trkpt lat="43.9400254364379" lon="4.535383367827309"><ele>122.0</ele><time>2026-04-06T17:13:18Z</time></trkpt><trkpt lat="43.93993918283669" lon="4.535338365793284"><ele>122.99999999999999</ele><time>2026-04-06T17:13:19Z</time></trkpt><trkpt lat="43.9398629606531" lon="4.5352902517817"><ele>124.0</ele><time>2026-04-06T17:13:20Z</time></trkpt><trkpt lat="43.939793956229465" lon="4.535244031027853"><ele>125.0</ele><time>2026-04-06T17:13:21Z</time></trkpt><trkpt lat="43.93973381155571" lon="4.535202189546285"><ele>126.0</ele><time>2026-04-06T17:13:22Z</time></trkpt><trkpt lat="43.93962234566891" lon="4.535124544494575"><ele>126.99999999999999</ele><time>2026-04-06T17:13:24Z</time></trkpt><trkpt lat="43.93956084477905" lon="4.535073756156567"><ele>128.0</ele><time>2026-04-06T17:13:25Z</time></trkpt><trkpt lat="43.93950076272832" lon="4.5350193908364"><ele>127.99999999999999</ele><time>2026-04-06T17:13:26Z</time></trkpt><trkpt lat="43.939436725411056" lon="4.53496354657482"><ele>128.0</ele><time>2026-04-06T17:13:27Z</time></trkpt><trkpt lat="43.93937408219604" lon="4.534902201855532"><ele>128.0</ele><time>2026-04-06T17:13:28Z</time></trkpt><trkpt lat="43.93931122697902" lon="4.534836518327635"><ele>128.0</ele><time>2026-04-06T17:13:29Z</time></trkpt><trkpt lat="43.93924181906999" lon="4.53477213322992"><ele>127.99999999999999</ele><time>2026-04-06T17:13:30Z</time></trkpt><trkpt lat="43.93916850439475" lon="4.5347084089584975"><ele>128.0</ele><time>2026-04-06T17:13:31Z</time></trkpt><trkpt lat="43.93909036242358" lon="4.5346421496445375"><ele>127.83333333333333</ele><time>2026-04-06T17:13:32Z</time></trkpt><trkpt lat="43.93901161808204" lon="4.534585543795948"><ele>127.66666666666666</ele><time>2026-04-06T17:13:33Z</time></trkpt><trkpt lat="43.93893006268227" lon="4.534527756845765"><ele>127.5</ele><time>2026-04-06T17:13:34Z</time></trkpt><trkpt lat="43.93885043538661" lon="4.534469190155403"><ele>127.33333333333334</ele><time>2026-04-06T17:13:35Z</time></trkpt><trkpt lat="43.93877899723678" lon="4.534414330625985"><ele>127.16666666666667</ele><time>2026-04-06T17:13:36Z</time></trkpt><trkpt lat="43.93871913739092" lon="4.534355409586225"><ele>127.0</ele><time>2026-04-06T17:13:37Z</time></trkpt><trkpt lat="43.93867167051645" lon="4.534291336540594"><ele>127.00000000000001</ele><time>2026-04-06T17:13:38Z</time></trkpt><trkpt lat="43.938620622914726" lon="4.534223846813307"><ele>127.0</ele><time>2026-04-06T17:13:39Z</time></trkpt><trkpt lat="43.938564234056734" lon="4.5341667718976835"><ele>127.0</ele><time>2026-04-06T17:13:40Z</time></trkpt><trkpt lat="43.93850570073709" lon="4.534116650670195"><ele>127.0</ele><time>2026-04-06T17:13:41Z</time></trkpt><trkpt lat="43.938399885867724" lon="4.534024306623759"><ele>127.00000000000001</ele><time>2026-04-06T17:13:43Z</time></trkpt><trkpt lat="43.93835366997366" lon="4.5339543972064025"><ele>127.0</ele><time>2026-04-06T17:13:44Z</time></trkpt><trkpt lat="43.93831573041819" lon="4.533878153447726"><ele>127.8</ele><time>2026-04-06T17:13:45Z</time></trkpt><trkpt lat="43.93828611259333" lon="4.533798206689381"><ele>128.6</ele><time>2026-04-06T17:13:46Z</time></trkpt><trkpt lat="43.938268833214295" lon="4.533709411221721"><ele>129.39999999999998</ele><time>2026-04-06T17:13:47Z</time></trkpt><trkpt lat="43.9382351995725" lon="4.53354836377106"><ele>130.2</ele><time>2026-04-06T17:13:49Z</time></trkpt><trkpt lat="43.93818738140223" lon="4.5333981518293"><ele>131.0</ele><time>2026-04-06T17:13:50.999Z</time></trkpt><trkpt lat="43.93811927067634" lon="4.533266635593187"><ele>130.6</ele><time>2026-04-06T17:13:52.999Z</time></trkpt><trkpt lat="43.93803890703607" lon="4.5331522543627845"><ele>130.2</ele><time>2026-04-06T17:13:54.999Z</time></trkpt><trkpt lat="43.93796178158661" lon="4.5330433037913185"><ele>129.8</ele><time>2026-04-06T17:13:56.999Z</time></trkpt><trkpt lat="43.93787483770182" lon="4.532944052240105"><ele>129.4</ele><time>2026-04-06T17:13:58.999Z</time></trkpt><trkpt lat="43.93782355140312" lon="4.532869234754151"><ele>129.0</ele><time>2026-04-06T17:13:59.999Z</time></trkpt><trkpt lat="43.93776791230945" lon="4.532798353460824"><ele>129.0</ele><time>2026-04-06T17:14:00.999Z</time></trkpt><trkpt lat="43.937705950201085" lon="4.532729076803141"><ele>129.0</ele><time>2026-04-06T17:14:01.999Z</time></trkpt><trkpt lat="43.937641466335755" lon="4.53265613460954"><ele>129.0</ele><time>2026-04-06T17:14:02.999Z</time></trkpt><trkpt lat="43.93757777784526" lon="4.5325697947247665"><ele>129.0</ele><time>2026-04-06T17:14:03.999Z</time></trkpt><trkpt lat="43.937520665717095" lon="4.532473864713825"><ele>129.0</ele><time>2026-04-06T17:14:04.999Z</time></trkpt><trkpt lat="43.93746137164543" lon="4.532370289878559"><ele>129.0</ele><time>2026-04-06T17:14:05.999Z</time></trkpt><trkpt lat="43.937399700788795" lon="4.532265219550718"><ele>130.16666666666666</ele><time>2026-04-06T17:14:06.999Z</time></trkpt><trkpt lat="43.93733657440277" lon="4.532170187941693"><ele>131.33333333333334</ele><time>2026-04-06T17:14:07.999Z</time></trkpt><trkpt lat="43.9372819703518" lon="4.532084225755349"><ele>132.5</ele><time>2026-04-06T17:14:08.999Z</time></trkpt><trkpt lat="43.93722548445449" lon="4.5320166617615065"><ele>133.66666666666669</ele><time>2026-04-06T17:14:09.999Z</time></trkpt><trkpt lat="43.937172154029504" lon="4.531953408652545"><ele>134.83333333333334</ele><time>2026-04-06T17:14:10.999Z</time></trkpt><trkpt lat="43.93711342420192" lon="4.531889808454373"><ele>136.0</ele><time>2026-04-06T17:14:11.999Z</time></trkpt><trkpt lat="43.93704063059778" lon="4.531828794608184"><ele>136.0</ele><time>2026-04-06T17:14:12.999Z</time></trkpt><trkpt lat="43.93696406306615" lon="4.531758557244241"><ele>136.0</ele><time>2026-04-06T17:14:13.999Z</time></trkpt><trkpt lat="43.93688665924099" lon="4.531694957379319"><ele>136.0</ele><time>2026-04-06T17:14:14.999Z</time></trkpt><trkpt lat="43.93680059884627" lon="4.531630416115635"><ele>136.0</ele><time>2026-04-06T17:14:15.999Z</time></trkpt><trkpt lat="43.93671538857193" lon="4.531574664108337"><ele>136.0</ele><time>2026-04-06T17:14:16.999Z</time></trkpt><trkpt lat="43.93663631692137" lon="4.531527425560704"><ele>137.33333333333334</ele><time>2026-04-06T17:14:17.999Z</time></trkpt><trkpt lat="43.936562640253726" lon="4.5314838211935875"><ele>138.66666666666669</ele><time>2026-04-06T17:14:18.999Z</time></trkpt><trkpt lat="43.936493252757174" lon="4.531448850933812"><ele>140.0</ele><time>2026-04-06T17:14:19.999Z</time></trkpt><trkpt lat="43.93642335666235" lon="4.531412054003935"><ele>141.33333333333334</ele><time>2026-04-06T17:14:20.999Z</time></trkpt><trkpt lat="43.9363496544539" lon="4.531371620281164"><ele>142.66666666666666</ele><time>2026-04-06T17:14:21.999Z</time></trkpt><trkpt lat="43.93627013099316" lon="4.531338024268245"><ele>144.0</ele><time>2026-04-06T17:14:22.999Z</time></trkpt><trkpt lat="43.93619192023884" lon="4.531311091753638"><ele>144.0</ele><time>2026-04-06T17:14:23.999Z</time></trkpt><trkpt lat="43.93611063947357" lon="4.5312869897083345"><ele>144.0</ele><time>2026-04-06T17:14:24.999Z</time></trkpt><trkpt lat="43.9360228298432" lon="4.531263970730977"><ele>144.0</ele><time>2026-04-06T17:14:25.999Z</time></trkpt><trkpt lat="43.935937080877316" lon="4.531233474232058"><ele>144.0</ele><time>2026-04-06T17:14:26.999Z</time></trkpt><trkpt lat="43.93584794610729" lon="4.531190389930039"><ele>144.0</ele><time>2026-04-06T17:14:27.999Z</time></trkpt><trkpt lat="43.935760645112154" lon="4.531139006199922"><ele>143.2</ele><time>2026-04-06T17:14:28.999Z</time></trkpt><trkpt lat="43.93567427269091" lon="4.531083016723077"><ele>142.4</ele><time>2026-04-06T17:14:29.999Z</time></trkpt><trkpt lat="43.93561088826217" lon="4.531019567559598"><ele>141.6</ele><time>2026-04-06T17:14:30.999Z</time></trkpt><trkpt lat="43.935507551501814" lon="4.5309477235947675"><ele>140.8</ele><time>2026-04-06T17:14:31.999Z</time></trkpt><trkpt lat="43.93541647944186" lon="4.5308829302118"><ele>140.0</ele><time>2026-04-06T17:14:32.999Z</time></trkpt><trkpt lat="43.93532793577274" lon="4.530809688685079"><ele>140.0</ele><time>2026-04-06T17:14:33.999Z</time></trkpt><trkpt lat="43.9352359710173" lon="4.53074318479754"><ele>140.0</ele><time>2026-04-06T17:14:34.999Z</time></trkpt><trkpt lat="43.935156151399276" lon="4.530677659957471"><ele>140.0</ele><time>2026-04-06T17:14:35.999Z</time></trkpt><trkpt lat="43.93507693879798" lon="4.530617776016077"><ele>140.0</ele><time>2026-04-06T17:14:36.999Z</time></trkpt><trkpt lat="43.93500561745991" lon="4.530556925589962"><ele>140.0</ele><time>2026-04-06T17:14:37.999Z</time></trkpt><trkpt lat="43.934942423603886" lon="4.530498340001139"><ele>140.0</ele><time>2026-04-06T17:14:38.999Z</time></trkpt><trkpt lat="43.93488366078201" lon="4.530444026373702"><ele>140.66666666666666</ele><time>2026-04-06T17:14:39.999Z</time></trkpt><trkpt lat="43.93483062535062" lon="4.530384568239694"><ele>141.33333333333331</ele><time>2026-04-06T17:14:40.999Z</time></trkpt><trkpt lat="43.93474578768313" lon="4.53026913382347"><ele>142.0</ele><time>2026-04-06T17:14:42.999Z</time></trkpt><trkpt lat="43.93464587191313" lon="4.530188448338455"><ele>142.66666666666666</ele><time>2026-04-06T17:14:44.999Z</time></trkpt><trkpt lat="43.934580006151975" lon="4.530168758474311"><ele>143.33333333333334</ele><time>2026-04-06T17:14:45.999Z</time></trkpt><trkpt lat="43.93450630115602" lon="4.530154384307749"><ele>144.0</ele><time>2026-04-06T17:14:46.999Z</time></trkpt><trkpt lat="43.93442972328244" lon="4.5301452362198065"><ele>144.0</ele><time>2026-04-06T17:14:47.998Z</time></trkpt><trkpt lat="43.93434833106095" lon="4.530125107473312"><ele>144.0</ele><time>2026-04-06T17:14:48.998Z</time></trkpt><trkpt lat="43.93427326598828" lon="4.53011098688402"><ele>144.0</ele><time>2026-04-06T17:14:49.998Z</time></trkpt><trkpt lat="43.93418890739889" lon="4.530110105016017"><ele>144.0</ele><time>2026-04-06T17:14:50.998Z</time></trkpt><trkpt lat="43.93409843573545" lon="4.530115499555939"><ele>144.0</ele><time>2026-04-06T17:14:51.998Z</time></trkpt><trkpt lat="43.93400508606147" lon="4.530122196835905"><ele>144.0</ele><time>2026-04-06T17:14:52.998Z</time></trkpt><trkpt lat="43.93390562255761" lon="4.530127212359914"><ele>144.6</ele><time>2026-04-06T17:14:53.998Z</time></trkpt><trkpt lat="43.93380906044009" lon="4.530118042146541"><ele>145.2</ele><time>2026-04-06T17:14:54.998Z</time></trkpt><trkpt lat="43.93370727134182" lon="4.530095814345095"><ele>145.79999999999998</ele><time>2026-04-06T17:14:55.998Z</time></trkpt><trkpt lat="43.9336032166197" lon="4.530063445397268"><ele>146.4</ele><time>2026-04-06T17:14:56.998Z</time></trkpt><trkpt lat="43.9334985682213" lon="4.530022906579591"><ele>147.0</ele><time>2026-04-06T17:14:57.998Z</time></trkpt><trkpt lat="43.93340097167324" lon="4.529989516245386"><ele>147.0</ele><time>2026-04-06T17:14:58.998Z</time></trkpt><trkpt lat="43.93331388663994" lon="4.529954244921803"><ele>147.0</ele><time>2026-04-06T17:14:59.998Z</time></trkpt><trkpt lat="43.93323320138651" lon="4.529912704705893"><ele>147.0</ele><time>2026-04-06T17:15:00.998Z</time></trkpt><trkpt lat="43.93315470787205" lon="4.5298590332232"><ele>147.0</ele><time>2026-04-06T17:15:01.998Z</time></trkpt><trkpt lat="43.93307591680132" lon="4.529797989977715"><ele>147.0</ele><time>2026-04-06T17:15:02.998Z</time></trkpt><trkpt lat="43.9330069621196" lon="4.529739649985033"><ele>147.0</ele><time>2026-04-06T17:15:03.998Z</time></trkpt><trkpt lat="43.93293422015669" lon="4.529681574848507"><ele>147.0</ele><time>2026-04-06T17:15:04.998Z</time></trkpt><trkpt lat="43.93285840063021" lon="4.529630842576873"><ele>147.0</ele><time>2026-04-06T17:15:05.998Z</time></trkpt><trkpt lat="43.93278537323841" lon="4.5295833069898945"><ele>147.0</ele><time>2026-04-06T17:15:06.998Z</time></trkpt><trkpt lat="43.932726945298" lon="4.529545447542672"><ele>147.0</ele><time>2026-04-06T17:15:07.998Z</time></trkpt><trkpt lat="43.93262759327116" lon="4.529441025061447"><ele>147.0</ele><time>2026-04-06T17:15:09.998Z</time></trkpt><trkpt lat="43.93258918687685" lon="4.5293629132344515"><ele>147.0</ele><time>2026-04-06T17:15:11Z</time></trkpt><trkpt lat="43.932560603175205" lon="4.5292736246628165"><ele>145.83333333333334</ele><time>2026-04-06T17:15:12Z</time></trkpt><trkpt lat="43.9325306522152" lon="4.529180970750007"><ele>144.66666666666666</ele><time>2026-04-06T17:15:13Z</time></trkpt><trkpt lat="43.932492213498776" lon="4.529091583832018"><ele>143.5</ele><time>2026-04-06T17:15:14Z</time></trkpt><trkpt lat="43.932446172382136" lon="4.529002936044882"><ele>142.33333333333331</ele><time>2026-04-06T17:15:15Z</time></trkpt><trkpt lat="43.93239464291596" lon="4.5289187268973015"><ele>141.16666666666666</ele><time>2026-04-06T17:15:16Z</time></trkpt><trkpt lat="43.93233573557181" lon="4.52883825986418"><ele>140.0</ele><time>2026-04-06T17:15:17Z</time></trkpt><trkpt lat="43.932274472412765" lon="4.528758635582732"><ele>139.33333333333331</ele><time>2026-04-06T17:15:18Z</time></trkpt><trkpt lat="43.93221380502884" lon="4.528685280843611"><ele>138.66666666666666</ele><time>2026-04-06T17:15:19Z</time></trkpt><trkpt lat="43.932150325383745" lon="4.528604880450312"><ele>138.0</ele><time>2026-04-06T17:15:20Z</time></trkpt><trkpt lat="43.93209584728354" lon="4.528517290854239"><ele>137.33333333333334</ele><time>2026-04-06T17:15:21Z</time></trkpt><trkpt lat="43.93204867767686" lon="4.528429403809095"><ele>136.66666666666669</ele><time>2026-04-06T17:15:22Z</time></trkpt><trkpt lat="43.932012313146146" lon="4.528325035051545"><ele>136.0</ele><time>2026-04-06T17:15:23Z</time></trkpt><trkpt lat="43.93198984907434" lon="4.528207810474033"><ele>136.0</ele><time>2026-04-06T17:15:24Z</time></trkpt><trkpt lat="43.931986178677356" lon="4.5280937642652725"><ele>136.0</ele><time>2026-04-06T17:15:25Z</time></trkpt><trkpt lat="43.93200211204973" lon="4.527979267847806"><ele>136.0</ele><time>2026-04-06T17:15:26Z</time></trkpt><trkpt lat="43.932032160253975" lon="4.527862053212056"><ele>136.0</ele><time>2026-04-06T17:15:27Z</time></trkpt><trkpt lat="43.93206554583823" lon="4.527741125119726"><ele>136.0</ele><time>2026-04-06T17:15:28Z</time></trkpt><trkpt lat="43.93210579741476" lon="4.527615027783776"><ele>136.0</ele><time>2026-04-06T17:15:29Z</time></trkpt><trkpt lat="43.93214028707969" lon="4.52748282033686"><ele>135.83333333333334</ele><time>2026-04-06T17:15:30Z</time></trkpt><trkpt lat="43.93217918500078" lon="4.5273472816214015"><ele>135.66666666666669</ele><time>2026-04-06T17:15:31Z</time></trkpt><trkpt lat="43.93221530696247" lon="4.527230588255594"><ele>135.5</ele><time>2026-04-06T17:15:32Z</time></trkpt><trkpt lat="43.93224798996408" lon="4.527117516787824"><ele>135.33333333333334</ele><time>2026-04-06T17:15:33Z</time></trkpt><trkpt lat="43.932283274156326" lon="4.527023959784244"><ele>135.16666666666666</ele><time>2026-04-06T17:15:34Z</time></trkpt><trkpt lat="43.93233525346975" lon="4.526941721225709"><ele>135.0</ele><time>2026-04-06T17:15:35Z</time></trkpt><trkpt lat="43.932393648931914" lon="4.526872248313976"><ele>135.66666666666666</ele><time>2026-04-06T17:15:36Z</time></trkpt><trkpt lat="43.932458939479375" lon="4.526796600289909"><ele>136.33333333333334</ele><time>2026-04-06T17:15:37Z</time></trkpt><trkpt lat="43.93252226694101" lon="4.52671886605366"><ele>137.0</ele><time>2026-04-06T17:15:38Z</time></trkpt><trkpt lat="43.93256989521835" lon="4.5266540281091885"><ele>137.66666666666669</ele><time>2026-04-06T17:15:39Z</time></trkpt><trkpt lat="43.932617890177134" lon="4.526580868889052"><ele>138.33333333333334</ele><time>2026-04-06T17:15:40Z</time></trkpt><trkpt lat="43.932667187526086" lon="4.526507275216167"><ele>139.0</ele><time>2026-04-06T17:15:41Z</time></trkpt><trkpt lat="43.932725336793155" lon="4.52643584706601"><ele>139.14285714285714</ele><time>2026-04-06T17:15:42Z</time></trkpt><trkpt lat="43.93278420256303" lon="4.526355712390439"><ele>139.28571428571428</ele><time>2026-04-06T17:15:43Z</time></trkpt><trkpt lat="43.932844468032506" lon="4.526279627764136"><ele>139.42857142857144</ele><time>2026-04-06T17:15:44Z</time></trkpt><trkpt lat="43.93289968634641" lon="4.526207153755031"><ele>139.57142857142856</ele><time>2026-04-06T17:15:45Z</time></trkpt><trkpt lat="43.932945929138945" lon="4.526136194350998"><ele>139.71428571428572</ele><time>2026-04-06T17:15:46Z</time></trkpt><trkpt lat="43.932984401081534" lon="4.526061401205068"><ele>139.85714285714286</ele><time>2026-04-06T17:15:47Z</time></trkpt><trkpt lat="43.93301288112269" lon="4.525967874729845"><ele>140.0</ele><time>2026-04-06T17:15:48Z</time></trkpt><trkpt lat="43.933023640426796" lon="4.525876938567544"><ele>140.57142857142858</ele><time>2026-04-06T17:15:49Z</time></trkpt><trkpt lat="43.933022026150994" lon="4.525785147238836"><ele>141.14285714285714</ele><time>2026-04-06T17:15:50Z</time></trkpt><trkpt lat="43.93300978899921" lon="4.525690445231968"><ele>141.71428571428572</ele><time>2026-04-06T17:15:51Z</time></trkpt><trkpt lat="43.93298491617941" lon="4.525596179663898"><ele>142.28571428571428</ele><time>2026-04-06T17:15:51.999Z</time></trkpt><trkpt lat="43.93295208128659" lon="4.52550835178459"><ele>142.85714285714286</ele><time>2026-04-06T17:15:52.999Z</time></trkpt><trkpt lat="43.932914285933784" lon="4.525422098508431"><ele>143.42857142857144</ele><time>2026-04-06T17:15:53.999Z</time></trkpt><trkpt lat="43.93287303388959" lon="4.52534138552846"><ele>144.0</ele><time>2026-04-06T17:15:54.999Z</time></trkpt><trkpt lat="43.93282556379884" lon="4.525273746810397"><ele>144.5</ele><time>2026-04-06T17:15:55.999Z</time></trkpt><trkpt lat="43.932769208302744" lon="4.525202053512398"><ele>145.0</ele><time>2026-04-06T17:15:56.999Z</time></trkpt><trkpt lat="43.93271421904024" lon="4.525121110559958"><ele>145.5</ele><time>2026-04-06T17:15:57.999Z</time></trkpt><trkpt lat="43.93265843471563" lon="4.52505024493109"><ele>146.0</ele><time>2026-04-06T17:15:58.999Z</time></trkpt><trkpt lat="43.93259983808939" lon="4.5249808235153415"><ele>146.5</ele><time>2026-04-06T17:15:59.999Z</time></trkpt><trkpt lat="43.93254349119243" lon="4.524906292485488"><ele>147.0</ele><time>2026-04-06T17:16:00.999Z</time></trkpt><trkpt lat="43.93248792278938" lon="4.524827218356411"><ele>147.5</ele><time>2026-04-06T17:16:01.999Z</time></trkpt><trkpt lat="43.932427046036906" lon="4.524750440194314"><ele>148.0</ele><time>2026-04-06T17:16:02.999Z</time></trkpt><trkpt lat="43.932359820878915" lon="4.524682333249967"><ele>148.5</ele><time>2026-04-06T17:16:03.999Z</time></trkpt><trkpt lat="43.93229286537786" lon="4.524620320112215"><ele>149.0</ele><time>2026-04-06T17:16:04.999Z</time></trkpt><trkpt lat="43.93222053951484" lon="4.524552024207316"><ele>149.5</ele><time>2026-04-06T17:16:05.999Z</time></trkpt><trkpt lat="43.932155639983854" lon="4.52449088029904"><ele>150.0</ele><time>2026-04-06T17:16:06.999Z</time></trkpt><trkpt lat="43.93208823678127" lon="4.524423109738954"><ele>150.83333333333334</ele><time>2026-04-06T17:16:07.999Z</time></trkpt><trkpt lat="43.932023406653066" lon="4.52435982536536"><ele>151.66666666666666</ele><time>2026-04-06T17:16:08.999Z</time></trkpt><trkpt lat="43.93195509625051" lon="4.524296631919805"><ele>152.5</ele><time>2026-04-06T17:16:09.999Z</time></trkpt><trkpt lat="43.93188990488134" lon="4.5242327624540595"><ele>153.33333333333331</ele><time>2026-04-06T17:16:10.999Z</time></trkpt><trkpt lat="43.931825239934625" lon="4.5241671606296885"><ele>154.16666666666666</ele><time>2026-04-06T17:16:11.999Z</time></trkpt><trkpt lat="43.93176208040435" lon="4.524096363492131"><ele>155.0</ele><time>2026-04-06T17:16:12.999Z</time></trkpt><trkpt lat="43.93170080982496" lon="4.524026238973773"><ele>155.16666666666666</ele><time>2026-04-06T17:16:13.999Z</time></trkpt><trkpt lat="43.93163234463494" lon="4.523955897005772"><ele>155.33333333333331</ele><time>2026-04-06T17:16:14.999Z</time></trkpt><trkpt lat="43.93156233278329" lon="4.523883920548821"><ele>155.5</ele><time>2026-04-06T17:16:15.999Z</time></trkpt><trkpt lat="43.93148960404052" lon="4.5238137309452835"><ele>155.66666666666666</ele><time>2026-04-06T17:16:16.999Z</time></trkpt><trkpt lat="43.931414113254945" lon="4.523760253438219"><ele>155.83333333333334</ele><time>2026-04-06T17:16:17.999Z</time></trkpt><trkpt lat="43.9313450443536" lon="4.52372548638216"><ele>156.0</ele><time>2026-04-06T17:16:18.999Z</time></trkpt><trkpt lat="43.93127397426767" lon="4.523699797706822"><ele>156.0</ele><time>2026-04-06T17:16:19.999Z</time></trkpt><trkpt lat="43.93119791391839" lon="4.523675409229434"><ele>156.0</ele><time>2026-04-06T17:16:20.999Z</time></trkpt><trkpt lat="43.93111179942369" lon="4.523650659270487"><ele>156.0</ele><time>2026-04-06T17:16:21.999Z</time></trkpt><trkpt lat="43.931019396484544" lon="4.52362250955591"><ele>156.0</ele><time>2026-04-06T17:16:22.999Z</time></trkpt><trkpt lat="43.93092896206549" lon="4.523589160604211"><ele>156.0</ele><time>2026-04-06T17:16:23.999Z</time></trkpt><trkpt lat="43.93083583359322" lon="4.523545018039852"><ele>157.0</ele><time>2026-04-06T17:16:24.999Z</time></trkpt><trkpt lat="43.9307395037177" lon="4.52348487321913"><ele>158.0</ele><time>2026-04-06T17:16:25.999Z</time></trkpt><trkpt lat="43.93064776306027" lon="4.523426175045101"><ele>159.0</ele><time>2026-04-06T17:16:26.999Z</time></trkpt><trkpt lat="43.93055565865914" lon="4.523385763200856"><ele>160.0</ele><time>2026-04-06T17:16:27.999Z</time></trkpt><trkpt lat="43.930474726350305" lon="4.5233576612061235"><ele>161.0</ele><time>2026-04-06T17:16:28.999Z</time></trkpt><trkpt lat="43.93039712656503" lon="4.523349558478478"><ele>161.0</ele><time>2026-04-06T17:16:29.999Z</time></trkpt><trkpt lat="43.93031942814812" lon="4.5233455107274505"><ele>161.0</ele><time>2026-04-06T17:16:30.999Z</time></trkpt><trkpt lat="43.93023912370367" lon="4.523334807928209"><ele>161.0</ele><time>2026-04-06T17:16:31.999Z</time></trkpt><trkpt lat="43.930151316309804" lon="4.523310466457061"><ele>161.0</ele><time>2026-04-06T17:16:32.999Z</time></trkpt><trkpt lat="43.93006091962315" lon="4.523280643492673"><ele>161.0</ele><time>2026-04-06T17:16:33.999Z</time></trkpt><trkpt lat="43.929971881784816" lon="4.523240036506829"><ele>161.0</ele><time>2026-04-06T17:16:34.999Z</time></trkpt><trkpt lat="43.92988755296494" lon="4.523185652508412"><ele>161.20000000000002</ele><time>2026-04-06T17:16:35.999Z</time></trkpt><trkpt lat="43.929804300813466" lon="4.5231283623943614"><ele>161.4</ele><time>2026-04-06T17:16:36.999Z</time></trkpt><trkpt lat="43.929722263408934" lon="4.523063097627209"><ele>161.6</ele><time>2026-04-06T17:16:37.999Z</time></trkpt><trkpt lat="43.92964289965288" lon="4.522999891377306"><ele>161.8</ele><time>2026-04-06T17:16:38.999Z</time></trkpt><trkpt lat="43.92956270444321" lon="4.522940442461114"><ele>162.0</ele><time>2026-04-06T17:16:39.999Z</time></trkpt><trkpt lat="43.92948298696143" lon="4.52289387249297"><ele>162.0</ele><time>2026-04-06T17:16:40.999Z</time></trkpt><trkpt lat="43.92940333236395" lon="4.522865309325835"><ele>162.0</ele><time>2026-04-06T17:16:41.999Z</time></trkpt><trkpt lat="43.929329451558324" lon="4.522809840306172"><ele>162.0</ele><time>2026-04-06T17:16:42.999Z</time></trkpt><trkpt lat="43.929251492512485" lon="4.522781539489422"><ele>162.0</ele><time>2026-04-06T17:16:43.999Z</time></trkpt><trkpt lat="43.92917122513085" lon="4.522774830417341"><ele>162.0</ele><time>2026-04-06T17:16:44.999Z</time></trkpt><trkpt lat="43.929083202650936" lon="4.52274212435721"><ele>162.0</ele><time>2026-04-06T17:16:45.999Z</time></trkpt><trkpt lat="43.928999051305475" lon="4.522701273234205"><ele>162.6</ele><time>2026-04-06T17:16:46.999Z</time></trkpt><trkpt lat="43.92891123793872" lon="4.5226587715385955"><ele>163.2</ele><time>2026-04-06T17:16:47.999Z</time></trkpt><trkpt lat="43.928825514005084" lon="4.522614916872473"><ele>163.8</ele><time>2026-04-06T17:16:48.999Z</time></trkpt><trkpt lat="43.92873651467999" lon="4.522571809116343"><ele>164.4</ele><time>2026-04-06T17:16:49.999Z</time></trkpt><trkpt lat="43.9286530513054" lon="4.522528235714124"><ele>165.0</ele><time>2026-04-06T17:16:50.998Z</time></trkpt><trkpt lat="43.92856943533411" lon="4.522485762498527"><ele>165.0</ele><time>2026-04-06T17:16:51.998Z</time></trkpt><trkpt lat="43.92849400987119" lon="4.522451634788663"><ele>165.0</ele><time>2026-04-06T17:16:52.998Z</time></trkpt><trkpt lat="43.92841811980886" lon="4.5224251093391805"><ele>165.0</ele><time>2026-04-06T17:16:53.998Z</time></trkpt><trkpt lat="43.928339087601465" lon="4.522404961278631"><ele>165.0</ele><time>2026-04-06T17:16:54.998Z</time></trkpt><trkpt lat="43.92825580429609" lon="4.522378681342843"><ele>165.0</ele><time>2026-04-06T17:16:55.998Z</time></trkpt><trkpt lat="43.92817593675387" lon="4.522346322911048"><ele>165.0</ele><time>2026-04-06T17:16:56.998Z</time></trkpt><trkpt lat="43.92808764909424" lon="4.522349864647619"><ele>164.33333333333334</ele><time>2026-04-06T17:16:57.998Z</time></trkpt><trkpt lat="43.92800141242541" lon="4.522337818588258"><ele>163.66666666666666</ele><time>2026-04-06T17:16:58.998Z</time></trkpt><trkpt lat="43.92791779705946" lon="4.522328387581496"><ele>163.0</ele><time>2026-04-06T17:16:59.998Z</time></trkpt><trkpt lat="43.927831538815155" lon="4.522319152396172"><ele>162.33333333333331</ele><time>2026-04-06T17:17:00.998Z</time></trkpt><trkpt lat="43.927747520284846" lon="4.522295432805663"><ele>161.66666666666666</ele><time>2026-04-06T17:17:01.998Z</time></trkpt><trkpt lat="43.92766982869568" lon="4.522285420461606"><ele>161.0</ele><time>2026-04-06T17:17:02.998Z</time></trkpt><trkpt lat="43.92760094230512" lon="4.522287256075796"><ele>159.66666666666666</ele><time>2026-04-06T17:17:03.998Z</time></trkpt><trkpt lat="43.927551927776655" lon="4.522228478906866"><ele>158.33333333333331</ele><time>2026-04-06T17:17:04.998Z</time></trkpt><trkpt lat="43.92749627453183" lon="4.522178927262562"><ele>157.0</ele><time>2026-04-06T17:17:05.998Z</time></trkpt><trkpt lat="43.92741433576574" lon="4.52208976487224"><ele>155.66666666666666</ele><time>2026-04-06T17:17:07.998Z</time></trkpt><trkpt lat="43.92735378106485" lon="4.522006997089614"><ele>154.33333333333334</ele><time>2026-04-06T17:17:09.998Z</time></trkpt><trkpt lat="43.927293143483354" lon="4.521941844085386"><ele>153.0</ele><time>2026-04-06T17:17:11.998Z</time></trkpt><trkpt lat="43.92727049043339" lon="4.5218396483078385"><ele>152.66666666666666</ele><time>2026-04-06T17:17:13.998Z</time></trkpt><trkpt lat="43.927263776825484" lon="4.521730356838331"><ele>152.33333333333334</ele><time>2026-04-06T17:17:15.998Z</time></trkpt><trkpt lat="43.927285279714596" lon="4.521641682063128"><ele>152.0</ele><time>2026-04-06T17:17:18Z</time></trkpt><trkpt lat="43.927343342976386" lon="4.521554529638564"><ele>151.66666666666669</ele><time>2026-04-06T17:17:20Z</time></trkpt><trkpt lat="43.9274185244024" lon="4.521478316009989"><ele>151.33333333333334</ele><time>2026-04-06T17:17:22Z</time></trkpt><trkpt lat="43.92746710046617" lon="4.521422392936383"><ele>151.0</ele><time>2026-04-06T17:17:23Z</time></trkpt><trkpt lat="43.92752609035152" lon="4.521356350732961"><ele>152.0</ele><time>2026-04-06T17:17:24Z</time></trkpt><trkpt lat="43.92758545285909" lon="4.521265410364261"><ele>153.0</ele><time>2026-04-06T17:17:25Z</time></trkpt><trkpt lat="43.92764024096465" lon="4.52117557394141"><ele>154.0</ele><time>2026-04-06T17:17:26Z</time></trkpt><trkpt lat="43.927686890062304" lon="4.5210745568610955"><ele>155.0</ele><time>2026-04-06T17:17:27Z</time></trkpt><trkpt lat="43.92772510971482" lon="4.520978731085193"><ele>156.0</ele><time>2026-04-06T17:17:28Z</time></trkpt><trkpt lat="43.92776757899211" lon="4.520896234720136"><ele>157.0</ele><time>2026-04-06T17:17:29Z</time></trkpt><trkpt lat="43.92780275370432" lon="4.52081883425791"><ele>157.0</ele><time>2026-04-06T17:17:30Z</time></trkpt><trkpt lat="43.92784854952187" lon="4.520736410772987"><ele>157.0</ele><time>2026-04-06T17:17:31Z</time></trkpt><trkpt lat="43.927902181860375" lon="4.520661968184602"><ele>157.0</ele><time>2026-04-06T17:17:32Z</time></trkpt><trkpt lat="43.92796368483619" lon="4.520590622806829"><ele>157.0</ele><time>2026-04-06T17:17:33Z</time></trkpt><trkpt lat="43.92803026910656" lon="4.520507546522197"><ele>157.0</ele><time>2026-04-06T17:17:34Z</time></trkpt><trkpt lat="43.928103428864894" lon="4.520426889419511"><ele>157.0</ele><time>2026-04-06T17:17:35Z</time></trkpt><trkpt lat="43.928169404247136" lon="4.520351632309417"><ele>156.16666666666669</ele><time>2026-04-06T17:17:36Z</time></trkpt><trkpt lat="43.92823420176219" lon="4.520276104839496"><ele>155.33333333333334</ele><time>2026-04-06T17:17:37Z</time></trkpt><trkpt lat="43.92830402745313" lon="4.520210281660884"><ele>154.5</ele><time>2026-04-06T17:17:38Z</time></trkpt><trkpt lat="43.92837529749379" lon="4.520155448180391"><ele>153.66666666666666</ele><time>2026-04-06T17:17:39Z</time></trkpt><trkpt lat="43.92845009074034" lon="4.520105304488435"><ele>152.83333333333331</ele><time>2026-04-06T17:17:40Z</time></trkpt><trkpt lat="43.92853382570159" lon="4.520055133721223"><ele>152.0</ele><time>2026-04-06T17:17:41Z</time></trkpt><trkpt lat="43.928617669642016" lon="4.519996747283712"><ele>152.0</ele><time>2026-04-06T17:17:42Z</time></trkpt><trkpt lat="43.928700955407585" lon="4.519935527926824"><ele>152.0</ele><time>2026-04-06T17:17:43Z</time></trkpt><trkpt lat="43.9287851361991" lon="4.51987976999196"><ele>152.0</ele><time>2026-04-06T17:17:44Z</time></trkpt><trkpt lat="43.928865099829636" lon="4.519822053375712"><ele>152.0</ele><time>2026-04-06T17:17:45Z</time></trkpt><trkpt lat="43.92893696763617" lon="4.519753528141173"><ele>152.0</ele><time>2026-04-06T17:17:46Z</time></trkpt><trkpt lat="43.9290164554045" lon="4.519696032926342"><ele>152.0</ele><time>2026-04-06T17:17:47Z</time></trkpt><trkpt lat="43.92910388321435" lon="4.519641993946803"><ele>152.0</ele><time>2026-04-06T17:17:48Z</time></trkpt><trkpt lat="43.92918247141307" lon="4.519602839463055"><ele>152.0</ele><time>2026-04-06T17:17:49Z</time></trkpt><trkpt lat="43.929264665134276" lon="4.519562384090829"><ele>152.0</ele><time>2026-04-06T17:17:50Z</time></trkpt><trkpt lat="43.9293426232622" lon="4.519520345450136"><ele>152.0</ele><time>2026-04-06T17:17:51Z</time></trkpt><trkpt lat="43.92942026506594" lon="4.5194821785829085"><ele>152.0</ele><time>2026-04-06T17:17:52Z</time></trkpt><trkpt lat="43.92950209767421" lon="4.519443272377366"><ele>150.66666666666666</ele><time>2026-04-06T17:17:53Z</time></trkpt><trkpt lat="43.929581063139345" lon="4.51941146216112"><ele>149.33333333333331</ele><time>2026-04-06T17:17:54Z</time></trkpt><trkpt lat="43.92966040132852" lon="4.5193814588723775"><ele>148.0</ele><time>2026-04-06T17:17:55Z</time></trkpt><trkpt lat="43.92973505469184" lon="4.519344384968891"><ele>146.66666666666666</ele><time>2026-04-06T17:17:56Z</time></trkpt><trkpt lat="43.92981512085147" lon="4.519305251557064"><ele>145.33333333333334</ele><time>2026-04-06T17:17:56.999Z</time></trkpt><trkpt lat="43.92989250946149" lon="4.5192722346396765"><ele>144.0</ele><time>2026-04-06T17:17:57.999Z</time></trkpt><trkpt lat="43.92996898596683" lon="4.519239241995229"><ele>144.0</ele><time>2026-04-06T17:17:58.999Z</time></trkpt><trkpt lat="43.93004640623906" lon="4.519204231319398"><ele>144.0</ele><time>2026-04-06T17:17:59.999Z</time></trkpt><trkpt lat="43.93012924892112" lon="4.519168395762358"><ele>144.0</ele><time>2026-04-06T17:18:00.999Z</time></trkpt><trkpt lat="43.930216081257704" lon="4.51912476666619"><ele>144.0</ele><time>2026-04-06T17:18:01.999Z</time></trkpt><trkpt lat="43.93029795238047" lon="4.519082931247036"><ele>144.0</ele><time>2026-04-06T17:18:02.999Z</time></trkpt><trkpt lat="43.93038704001181" lon="4.519071248321543"><ele>144.0</ele><time>2026-04-06T17:18:03.999Z</time></trkpt><trkpt lat="43.93045752887027" lon="4.519015927983794"><ele>144.0</ele><time>2026-04-06T17:18:04.999Z</time></trkpt><trkpt lat="43.93052527989277" lon="4.519007504171802"><ele>144.0</ele><time>2026-04-06T17:18:05.999Z</time></trkpt><trkpt lat="43.93062441991518" lon="4.518949001350715"><ele>144.0</ele><time>2026-04-06T17:18:07.999Z</time></trkpt><trkpt lat="43.93068992094324" lon="4.518934465743719"><ele>144.0</ele><time>2026-04-06T17:18:09.999Z</time></trkpt><trkpt lat="43.9306319016217" lon="4.518846665750071"><ele>144.0</ele><time>2026-04-06T17:18:51.999Z</time></trkpt><trkpt lat="43.93054336549543" lon="4.518759318687706"><ele>144.0</ele><time>2026-04-06T17:18:54.999Z</time></trkpt><trkpt lat="43.930465174210084" lon="4.518706884673972"><ele>144.0</ele><time>2026-04-06T17:18:56.998Z</time></trkpt><trkpt lat="43.930393100328494" lon="4.518716845990204"><ele>144.0</ele><time>2026-04-06T17:18:58.998Z</time></trkpt><trkpt lat="43.930332954103676" lon="4.518754803704231"><ele>144.0</ele><time>2026-04-06T17:19:00.998Z</time></trkpt><trkpt lat="43.93025127466908" lon="4.518725393318724"><ele>144.0</ele><time>2026-04-06T17:19:02.998Z</time></trkpt><trkpt lat="43.93014515230553" lon="4.518761107314224"><ele>144.0</ele><time>2026-04-06T17:19:04.998Z</time></trkpt><trkpt lat="43.93008170541523" lon="4.518757817021083"><ele>144.0</ele><time>2026-04-06T17:19:05.998Z</time></trkpt><trkpt lat="43.92995041435" lon="4.518765948547652"><ele>144.0</ele><time>2026-04-06T17:19:07.998Z</time></trkpt><trkpt lat="43.92988392208043" lon="4.518779510770742"><ele>144.0</ele><time>2026-04-06T17:19:08.998Z</time></trkpt><trkpt lat="43.929772569715205" lon="4.518795331499002"><ele>144.0</ele><time>2026-04-06T17:19:10.998Z</time></trkpt><trkpt lat="43.92967266844971" lon="4.5188655128570385"><ele>144.0</ele><time>2026-04-06T17:19:12.998Z</time></trkpt><trkpt lat="43.92958570496979" lon="4.518923083952102"><ele>144.0</ele><time>2026-04-06T17:19:14.998Z</time></trkpt><trkpt lat="43.929502220843496" lon="4.518899702732078"><ele>144.0</ele><time>2026-04-06T17:19:16.998Z</time></trkpt><trkpt lat="43.929391361775615" lon="4.518877123840178"><ele>144.0</ele><time>2026-04-06T17:19:18.998Z</time></trkpt><trkpt lat="43.92932820030834" lon="4.518870121861185"><ele>144.0</ele><time>2026-04-06T17:19:19.998Z</time></trkpt><trkpt lat="43.929210024290185" lon="4.5188580455313225"><ele>144.0</ele><time>2026-04-06T17:19:21.998Z</time></trkpt><trkpt lat="43.92913538031466" lon="4.5188508875422135"><ele>144.0</ele><time>2026-04-06T17:19:23Z</time></trkpt><trkpt lat="43.92906121237723" lon="4.518849527360087"><ele>144.0</ele><time>2026-04-06T17:19:24Z</time></trkpt><trkpt lat="43.928987268662645" lon="4.518848009892727"><ele>143.5</ele><time>2026-04-06T17:19:25Z</time></trkpt><trkpt lat="43.92891236376828" lon="4.518836771129117"><ele>143.0</ele><time>2026-04-06T17:19:26Z</time></trkpt><trkpt lat="43.92883940536918" lon="4.518823821728551"><ele>142.5</ele><time>2026-04-06T17:19:27Z</time></trkpt><trkpt lat="43.92877060194711" lon="4.518808544449369"><ele>142.0</ele><time>2026-04-06T17:19:28Z</time></trkpt><trkpt lat="43.92865079741814" lon="4.518778468746043"><ele>141.5</ele><time>2026-04-06T17:19:30Z</time></trkpt><trkpt lat="43.928552500798126" lon="4.518739186335384"><ele>141.0</ele><time>2026-04-06T17:19:32Z</time></trkpt><trkpt lat="43.9284533460568" lon="4.5187085593998075"><ele>139.5</ele><time>2026-04-06T17:19:34Z</time></trkpt><trkpt lat="43.92836158351773" lon="4.518676037497139"><ele>138.0</ele><time>2026-04-06T17:19:36Z</time></trkpt><trkpt lat="43.92827258592436" lon="4.518650489063937"><ele>136.5</ele><time>2026-04-06T17:19:38Z</time></trkpt><trkpt lat="43.9281780470664" lon="4.518621431416842"><ele>135.0</ele><time>2026-04-06T17:19:40Z</time></trkpt><trkpt lat="43.928094649625926" lon="4.518610126625394"><ele>133.5</ele><time>2026-04-06T17:19:42Z</time></trkpt><trkpt lat="43.928021765071726" lon="4.518606769838689"><ele>132.0</ele><time>2026-04-06T17:19:44Z</time></trkpt><trkpt lat="43.92794181720893" lon="4.518585529316198"><ele>132.0</ele><time>2026-04-06T17:19:46Z</time></trkpt><trkpt lat="43.927850083779326" lon="4.518570698025842"><ele>132.0</ele><time>2026-04-06T17:19:48Z</time></trkpt><trkpt lat="43.92778706892599" lon="4.518573688264958"><ele>132.0</ele><time>2026-04-06T17:19:50Z</time></trkpt><trkpt lat="43.92770127812783" lon="4.518561174417834"><ele>132.0</ele><time>2026-04-06T17:19:53Z</time></trkpt><trkpt lat="43.927613940345" lon="4.518547163690494"><ele>132.0</ele><time>2026-04-06T17:19:56Z</time></trkpt><trkpt lat="43.92753965934083" lon="4.518543606053296"><ele>132.0</ele><time>2026-04-06T17:19:58Z</time></trkpt><trkpt lat="43.927458604377975" lon="4.518553740286473"><ele>131.66666666666666</ele><time>2026-04-06T17:20:00Z</time></trkpt><trkpt lat="43.92738364936491" lon="4.518582414857484"><ele>131.33333333333334</ele><time>2026-04-06T17:20:01.999Z</time></trkpt><trkpt lat="43.92730891224571" lon="4.5186283366902416"><ele>131.0</ele><time>2026-04-06T17:20:03.999Z</time></trkpt><trkpt lat="43.92722999263124" lon="4.518671685077349"><ele>130.66666666666669</ele><time>2026-04-06T17:20:05.999Z</time></trkpt><trkpt lat="43.92714766626676" lon="4.518698886856297"><ele>130.33333333333334</ele><time>2026-04-06T17:20:07.999Z</time></trkpt><trkpt lat="43.92707102668139" lon="4.518662306255591"><ele>130.0</ele><time>2026-04-06T17:20:09.999Z</time></trkpt><trkpt lat="43.92700838200389" lon="4.518592328743027"><ele>130.00000000000003</ele><time>2026-04-06T17:20:12.999Z</time></trkpt><trkpt lat="43.92694453129299" lon="4.5185963690862785"><ele>130.0</ele><time>2026-04-06T17:20:14.999Z</time></trkpt><trkpt lat="43.92687147081697" lon="4.518581879536643"><ele>130.0</ele><time>2026-04-06T17:20:17.999Z</time></trkpt><trkpt lat="43.92679685411814" lon="4.518577458896214"><ele>130.0</ele><time>2026-04-06T17:20:19.999Z</time></trkpt><trkpt lat="43.92671397906083" lon="4.518575831445851"><ele>130.0</ele><time>2026-04-06T17:20:21.999Z</time></trkpt><trkpt lat="43.92664249340792" lon="4.518589708277145"><ele>130.00000000000003</ele><time>2026-04-06T17:20:23.999Z</time></trkpt><trkpt lat="43.9265772548157" lon="4.518590789426864"><ele>130.0</ele><time>2026-04-06T17:20:25.999Z</time></trkpt><trkpt lat="43.926488555584825" lon="4.518584956089976"><ele>129.16666666666669</ele><time>2026-04-06T17:20:27.999Z</time></trkpt><trkpt lat="43.92641184016781" lon="4.518575063504316"><ele>128.33333333333334</ele><time>2026-04-06T17:20:29.999Z</time></trkpt><trkpt lat="43.92634965358415" lon="4.518555617181923"><ele>127.5</ele><time>2026-04-06T17:20:31.999Z</time></trkpt><trkpt lat="43.92627860629001" lon="4.51853730638489"><ele>126.66666666666666</ele><time>2026-04-06T17:20:34.999Z</time></trkpt><trkpt lat="43.926203556204236" lon="4.518537328041218"><ele>125.83333333333333</ele><time>2026-04-06T17:20:37.999Z</time></trkpt><trkpt lat="43.926116033367606" lon="4.518548451125256"><ele>125.0</ele><time>2026-04-06T17:20:39.999Z</time></trkpt><trkpt lat="43.92602035491504" lon="4.51862400778913"><ele>125.0</ele><time>2026-04-06T17:20:41.999Z</time></trkpt><trkpt lat="43.92594482009068" lon="4.518730004988514"><ele>125.0</ele><time>2026-04-06T17:20:43.999Z</time></trkpt><trkpt lat="43.9259052639395" lon="4.518810106571674"><ele>125.0</ele><time>2026-04-06T17:20:46.999Z</time></trkpt><trkpt lat="43.92581844657065" lon="4.518886445385549"><ele>125.0</ele><time>2026-04-06T17:20:49.999Z</time></trkpt><trkpt lat="43.925750647812045" lon="4.518963336377195"><ele>125.0</ele><time>2026-04-06T17:20:51.999Z</time></trkpt><trkpt lat="43.925664073276636" lon="4.519012201808543"><ele>124.8</ele><time>2026-04-06T17:20:53.999Z</time></trkpt><trkpt lat="43.92557464083414" lon="4.519047387755295"><ele>124.6</ele><time>2026-04-06T17:20:55.999Z</time></trkpt><trkpt lat="43.92548406293717" lon="4.5190572176116515"><ele>124.4</ele><time>2026-04-06T17:20:57.999Z</time></trkpt><trkpt lat="43.92538751238947" lon="4.519050015459779"><ele>124.2</ele><time>2026-04-06T17:20:59.999Z</time></trkpt><trkpt lat="43.92527602393638" lon="4.5190059773844595"><ele>124.0</ele><time>2026-04-06T17:21:01.998Z</time></trkpt><trkpt lat="43.92516733303169" lon="4.518972198068894"><ele>124.00000000000001</ele><time>2026-04-06T17:21:03.998Z</time></trkpt><trkpt lat="43.92506755522109" lon="4.518970905338251"><ele>124.0</ele><time>2026-04-06T17:21:05.998Z</time></trkpt><trkpt lat="43.92498112272698" lon="4.518976732581372"><ele>124.0</ele><time>2026-04-06T17:21:07.998Z</time></trkpt><trkpt lat="43.924887736446664" lon="4.518987863866219"><ele>124.0</ele><time>2026-04-06T17:21:09.998Z</time></trkpt><trkpt lat="43.92481034329424" lon="4.518966085887259"><ele>124.00000000000001</ele><time>2026-04-06T17:21:11.998Z</time></trkpt><trkpt lat="43.92473146487021" lon="4.51893978821118"><ele>124.0</ele><time>2026-04-06T17:21:13.998Z</time></trkpt><trkpt lat="43.92464129094122" lon="4.518906926969316"><ele>125.5</ele><time>2026-04-06T17:21:15.998Z</time></trkpt><trkpt lat="43.92453762312477" lon="4.5188728747959805"><ele>127.0</ele><time>2026-04-06T17:21:17.998Z</time></trkpt><trkpt lat="43.92442002803305" lon="4.518845479738952"><ele>128.5</ele><time>2026-04-06T17:21:19.998Z</time></trkpt><trkpt lat="43.92431125690354" lon="4.518802981094875"><ele>130.0</ele><time>2026-04-06T17:21:21.998Z</time></trkpt><trkpt lat="43.924203694095695" lon="4.518763867540894"><ele>132.25</ele><time>2026-04-06T17:21:23.998Z</time></trkpt><trkpt lat="43.92409549273663" lon="4.5187196053286645"><ele>134.5</ele><time>2026-04-06T17:21:25.998Z</time></trkpt><trkpt lat="43.92398153120916" lon="4.518673249577062"><ele>136.75</ele><time>2026-04-06T17:21:27.998Z</time></trkpt><trkpt lat="43.923872667649064" lon="4.518627173544104"><ele>139.0</ele><time>2026-04-06T17:21:30Z</time></trkpt><trkpt lat="43.9237534321307" lon="4.51863975084095"><ele>139.0</ele><time>2026-04-06T17:21:32Z</time></trkpt><trkpt lat="43.923690752699315" lon="4.5186553440019"><ele>139.0</ele><time>2026-04-06T17:21:33Z</time></trkpt><trkpt lat="43.92362306702006" lon="4.5186629839638845"><ele>139.0</ele><time>2026-04-06T17:21:34Z</time></trkpt><trkpt lat="43.92351914425107" lon="4.518646478623657"><ele>139.0</ele><time>2026-04-06T17:21:36Z</time></trkpt><trkpt lat="43.923453613785604" lon="4.518615781411633"><ele>139.0</ele><time>2026-04-06T17:21:37Z</time></trkpt><trkpt lat="43.92339841951255" lon="4.518571763986575"><ele>139.0</ele><time>2026-04-06T17:21:38Z</time></trkpt><trkpt lat="43.92334088150725" lon="4.518517085711517"><ele>139.0</ele><time>2026-04-06T17:21:39Z</time></trkpt><trkpt lat="43.92328345145946" lon="4.5184568170101675"><ele>138.8</ele><time>2026-04-06T17:21:40Z</time></trkpt><trkpt lat="43.923203936079496" lon="4.5183698255236395"><ele>138.60000000000002</ele><time>2026-04-06T17:21:42Z</time></trkpt><trkpt lat="43.9231481739084" lon="4.518267449586585"><ele>138.4</ele><time>2026-04-06T17:21:44Z</time></trkpt><trkpt lat="43.92311627827509" lon="4.518114337380267"><ele>138.20000000000002</ele><time>2026-04-06T17:21:46Z</time></trkpt><trkpt lat="43.923070210676315" lon="4.517969072536945"><ele>138.0</ele><time>2026-04-06T17:21:48Z</time></trkpt><trkpt lat="43.923022938040475" lon="4.517899410439155"><ele>138.0</ele><time>2026-04-06T17:21:49Z</time></trkpt><trkpt lat="43.92291777758343" lon="4.517810815398122"><ele>138.0</ele><time>2026-04-06T17:21:51Z</time></trkpt><trkpt lat="43.922853492683664" lon="4.517779537122864"><ele>138.0</ele><time>2026-04-06T17:21:52Z</time></trkpt><trkpt lat="43.92274112555723" lon="4.517732347371144"><ele>138.0</ele><time>2026-04-06T17:21:54Z</time></trkpt><trkpt lat="43.92267477076288" lon="4.517712268527758"><ele>138.0</ele><time>2026-04-06T17:21:55Z</time></trkpt><trkpt lat="43.922608792620544" lon="4.517698504677718"><ele>138.0</ele><time>2026-04-06T17:21:56Z</time></trkpt><trkpt lat="43.92253440062627" lon="4.517684360056741"><ele>136.71428571428572</ele><time>2026-04-06T17:21:57Z</time></trkpt><trkpt lat="43.92245911728821" lon="4.517682178910352"><ele>135.42857142857144</ele><time>2026-04-06T17:21:58Z</time></trkpt><trkpt lat="43.922385783429014" lon="4.517681839666637"><ele>134.14285714285714</ele><time>2026-04-06T17:21:59Z</time></trkpt><trkpt lat="43.92231615534871" lon="4.517671623432746"><ele>132.85714285714286</ele><time>2026-04-06T17:22:00Z</time></trkpt><trkpt lat="43.9222403592652" lon="4.51765725097907"><ele>131.57142857142856</ele><time>2026-04-06T17:22:01Z</time></trkpt><trkpt lat="43.92216984784347" lon="4.517635412910739"><ele>130.28571428571428</ele><time>2026-04-06T17:22:02Z</time></trkpt><trkpt lat="43.9221035144611" lon="4.517594010733359"><ele>129.0</ele><time>2026-04-06T17:22:03Z</time></trkpt><trkpt lat="43.92202939464598" lon="4.517550377019233"><ele>128.99999999999997</ele><time>2026-04-06T17:22:04Z</time></trkpt><trkpt lat="43.92196063816543" lon="4.517506888885129"><ele>129.0</ele><time>2026-04-06T17:22:05Z</time></trkpt><trkpt lat="43.92189385319493" lon="4.517471777601352"><ele>129.0</ele><time>2026-04-06T17:22:06Z</time></trkpt><trkpt lat="43.921830833428444" lon="4.517426481039012"><ele>129.0</ele><time>2026-04-06T17:22:07Z</time></trkpt><trkpt lat="43.921769836085026" lon="4.517373315525275"><ele>129.0</ele><time>2026-04-06T17:22:08Z</time></trkpt><trkpt lat="43.92170664201408" lon="4.517315098014266"><ele>128.99999999999997</ele><time>2026-04-06T17:22:09Z</time></trkpt><trkpt lat="43.9216455768164" lon="4.517247819161829"><ele>129.0</ele><time>2026-04-06T17:22:10Z</time></trkpt><trkpt lat="43.921583247272864" lon="4.517178450535143"><ele>129.0</ele><time>2026-04-06T17:22:11Z</time></trkpt><trkpt lat="43.921520902017505" lon="4.517102368865716"><ele>129.0</ele><time>2026-04-06T17:22:12Z</time></trkpt><trkpt lat="43.9214574828066" lon="4.5170219306921755"><ele>129.0</ele><time>2026-04-06T17:22:13Z</time></trkpt><trkpt lat="43.92139679236316" lon="4.516938324539737"><ele>129.0</ele><time>2026-04-06T17:22:14Z</time></trkpt><trkpt lat="43.921342864292" lon="4.516851742838465"><ele>129.0</ele><time>2026-04-06T17:22:14.999Z</time></trkpt><trkpt lat="43.921282316590755" lon="4.516761556916564"><ele>129.0</ele><time>2026-04-06T17:22:15.999Z</time></trkpt><trkpt lat="43.92122844578657" lon="4.516667646986723"><ele>129.0</ele><time>2026-04-06T17:22:16.999Z</time></trkpt><trkpt lat="43.92117671552879" lon="4.5165755996083945"><ele>129.0</ele><time>2026-04-06T17:22:17.999Z</time></trkpt><trkpt lat="43.92113063089034" lon="4.516490164826535"><ele>129.0</ele><time>2026-04-06T17:22:18.999Z</time></trkpt><trkpt lat="43.92108670728658" lon="4.516412184665806"><ele>129.0</ele><time>2026-04-06T17:22:19.999Z</time></trkpt><trkpt lat="43.9210348737341" lon="4.516340741162727"><ele>129.0</ele><time>2026-04-06T17:22:20.999Z</time></trkpt><trkpt lat="43.92094281006081" lon="4.516234022806721"><ele>129.0</ele><time>2026-04-06T17:22:22.999Z</time></trkpt><trkpt lat="43.920892260503436" lon="4.516178048224787"><ele>128.4</ele><time>2026-04-06T17:22:23.999Z</time></trkpt><trkpt lat="43.92079604038965" lon="4.516075426484094"><ele>127.80000000000001</ele><time>2026-04-06T17:22:25.999Z</time></trkpt><trkpt lat="43.920686510291205" lon="4.5159746543958805"><ele>127.19999999999999</ele><time>2026-04-06T17:22:27.999Z</time></trkpt><trkpt lat="43.92063256711871" lon="4.51591228993994"><ele>126.6</ele><time>2026-04-06T17:22:28.999Z</time></trkpt><trkpt lat="43.920576302259946" lon="4.515844644730257"><ele>126.0</ele><time>2026-04-06T17:22:29.999Z</time></trkpt><trkpt lat="43.920519124708186" lon="4.515774873880649"><ele>126.0</ele><time>2026-04-06T17:22:30.999Z</time></trkpt><trkpt lat="43.92045757974281" lon="4.515705304300921"><ele>126.0</ele><time>2026-04-06T17:22:31.999Z</time></trkpt><trkpt lat="43.9203940861719" lon="4.515635608665203"><ele>126.0</ele><time>2026-04-06T17:22:32.999Z</time></trkpt><trkpt lat="43.920329893969786" lon="4.515564180567458"><ele>126.0</ele><time>2026-04-06T17:22:33.999Z</time></trkpt><trkpt lat="43.92026373675752" lon="4.515491685340944"><ele>126.0</ele><time>2026-04-06T17:22:34.999Z</time></trkpt><trkpt lat="43.92020157937471" lon="4.515409899106209"><ele>126.0</ele><time>2026-04-06T17:22:35.999Z</time></trkpt><trkpt lat="43.92014104793956" lon="4.5153288630630115"><ele>126.16666666666667</ele><time>2026-04-06T17:22:36.999Z</time></trkpt><trkpt lat="43.920085438732606" lon="4.515236325753888"><ele>126.33333333333334</ele><time>2026-04-06T17:22:37.999Z</time></trkpt><trkpt lat="43.92003054287272" lon="4.515149661559627"><ele>126.5</ele><time>2026-04-06T17:22:38.999Z</time></trkpt><trkpt lat="43.9199750616564" lon="4.515060210760622"><ele>126.66666666666667</ele><time>2026-04-06T17:22:39.999Z</time></trkpt><trkpt lat="43.91992043377079" lon="4.5149681100624015"><ele>126.83333333333334</ele><time>2026-04-06T17:22:40.999Z</time></trkpt><trkpt lat="43.91986489612301" lon="4.514878906078297"><ele>127.0</ele><time>2026-04-06T17:22:41.999Z</time></trkpt><trkpt lat="43.91980695627248" lon="4.514787703279764"><ele>127.00000000000001</ele><time>2026-04-06T17:22:42.999Z</time></trkpt><trkpt lat="43.91975318208668" lon="4.514697003428416"><ele>127.0</ele><time>2026-04-06T17:22:43.999Z</time></trkpt><trkpt lat="43.91970001538259" lon="4.514604333460069"><ele>127.0</ele><time>2026-04-06T17:22:44.999Z</time></trkpt><trkpt lat="43.91964552612617" lon="4.5145092828679365"><ele>127.0</ele><time>2026-04-06T17:22:45.999Z</time></trkpt><trkpt lat="43.91959605089041" lon="4.5144084153436514"><ele>127.00000000000001</ele><time>2026-04-06T17:22:46.999Z</time></trkpt><trkpt lat="43.91954510376589" lon="4.514312326731851"><ele>127.0</ele><time>2026-04-06T17:22:47.999Z</time></trkpt><trkpt lat="43.919496973357326" lon="4.514216795475231"><ele>126.83333333333334</ele><time>2026-04-06T17:22:48.999Z</time></trkpt><trkpt lat="43.919439589773624" lon="4.514122136550141"><ele>126.66666666666667</ele><time>2026-04-06T17:22:49.999Z</time></trkpt><trkpt lat="43.91938066477387" lon="4.514029436349154"><ele>126.5</ele><time>2026-04-06T17:22:50.999Z</time></trkpt><trkpt lat="43.919317419538594" lon="4.5139419665948735"><ele>126.33333333333334</ele><time>2026-04-06T17:22:51.999Z</time></trkpt><trkpt lat="43.91926195146517" lon="4.513845758965974"><ele>126.16666666666667</ele><time>2026-04-06T17:22:52.999Z</time></trkpt><trkpt lat="43.91920213092283" lon="4.51375478382313"><ele>126.0</ele><time>2026-04-06T17:22:53.999Z</time></trkpt><trkpt lat="43.91914470677159" lon="4.513657932019937"><ele>127.0</ele><time>2026-04-06T17:22:54.999Z</time></trkpt><trkpt lat="43.919094992435724" lon="4.51355601386456"><ele>128.0</ele><time>2026-04-06T17:22:55.999Z</time></trkpt><trkpt lat="43.919039985870796" lon="4.513455563920188"><ele>129.0</ele><time>2026-04-06T17:22:56.999Z</time></trkpt><trkpt lat="43.918984755013156" lon="4.513355389362833"><ele>130.0</ele><time>2026-04-06T17:22:57.999Z</time></trkpt><trkpt lat="43.91893959394765" lon="4.513257963419844"><ele>131.0</ele><time>2026-04-06T17:22:58.999Z</time></trkpt><trkpt lat="43.91889580068452" lon="4.5131707378704204"><ele>132.0</ele><time>2026-04-06T17:22:59.999Z</time></trkpt><trkpt lat="43.918843117091605" lon="4.513037736479995"><ele>132.0</ele><time>2026-04-06T17:23:01.999Z</time></trkpt><trkpt lat="43.91879327983602" lon="4.512932373529429"><ele>132.0</ele><time>2026-04-06T17:23:03.999Z</time></trkpt><trkpt lat="43.91874643610439" lon="4.512847587612311"><ele>132.0</ele><time>2026-04-06T17:23:05.999Z</time></trkpt><trkpt lat="43.91870951768822" lon="4.512764511680606"><ele>132.0</ele><time>2026-04-06T17:23:07.999Z</time></trkpt><trkpt lat="43.9186600273968" lon="4.512676435163118"><ele>132.0</ele><time>2026-04-06T17:23:09.999Z</time></trkpt><trkpt lat="43.918612286513905" lon="4.512573959432239"><ele>132.0</ele><time>2026-04-06T17:23:11.999Z</time></trkpt><trkpt lat="43.918559206729725" lon="4.512465697052353"><ele>131.83333333333334</ele><time>2026-04-06T17:23:13.999Z</time></trkpt><trkpt lat="43.918519240386644" lon="4.512367497490447"><ele>131.66666666666666</ele><time>2026-04-06T17:23:15.998Z</time></trkpt><trkpt lat="43.918480973743485" lon="4.5122496929241125"><ele>131.5</ele><time>2026-04-06T17:23:18.998Z</time></trkpt><trkpt lat="43.9184485758144" lon="4.5121699155348765"><ele>131.33333333333331</ele><time>2026-04-06T17:23:44Z</time></trkpt><trkpt lat="43.9183791303939" lon="4.512136609707781"><ele>131.16666666666666</ele><time>2026-04-06T17:23:47Z</time></trkpt><trkpt lat="43.918295328631416" lon="4.512252509152862"><ele>131.0</ele><time>2026-04-06T17:23:49Z</time></trkpt><trkpt lat="43.91826390864301" lon="4.512356580388056"><ele>131.0</ele><time>2026-04-06T17:23:50Z</time></trkpt><trkpt lat="43.9182443380847" lon="4.512455338286266"><ele>131.0</ele><time>2026-04-06T17:23:51Z</time></trkpt><trkpt lat="43.91822159233592" lon="4.512546773988121"><ele>131.0</ele><time>2026-04-06T17:23:52Z</time></trkpt><trkpt lat="43.91817605153952" lon="4.512675778421778"><ele>131.0</ele><time>2026-04-06T17:23:54Z</time></trkpt><trkpt lat="43.91813635822901" lon="4.512832126112233"><ele>131.0</ele><time>2026-04-06T17:23:56Z</time></trkpt><trkpt lat="43.91809261337374" lon="4.512979682058077"><ele>130.2</ele><time>2026-04-06T17:23:58Z</time></trkpt><trkpt lat="43.91804662909799" lon="4.513121257998341"><ele>129.39999999999998</ele><time>2026-04-06T17:24:00Z</time></trkpt><trkpt lat="43.917992559477696" lon="4.513263033524307"><ele>128.6</ele><time>2026-04-06T17:24:02Z</time></trkpt><trkpt lat="43.91795949080699" lon="4.513353830478666"><ele>127.8</ele><time>2026-04-06T17:24:03Z</time></trkpt><trkpt lat="43.91791506977411" lon="4.513466649703039"><ele>127.0</ele><time>2026-04-06T17:24:04Z</time></trkpt><trkpt lat="43.91786409896291" lon="4.513589516095305"><ele>127.0</ele><time>2026-04-06T17:24:05Z</time></trkpt><trkpt lat="43.91781092815386" lon="4.5137017920853655"><ele>126.99999999999999</ele><time>2026-04-06T17:24:06Z</time></trkpt><trkpt lat="43.91775810145557" lon="4.513810078676231"><ele>126.99999999999999</ele><time>2026-04-06T17:24:07Z</time></trkpt><trkpt lat="43.91769981586951" lon="4.5139142650789905"><ele>127.0</ele><time>2026-04-06T17:24:08Z</time></trkpt><trkpt lat="43.917630982011666" lon="4.514002684502705"><ele>127.0</ele><time>2026-04-06T17:24:09Z</time></trkpt><trkpt lat="43.917554395962135" lon="4.514084116451471"><ele>126.00000000000001</ele><time>2026-04-06T17:24:10Z</time></trkpt><trkpt lat="43.91747671357849" lon="4.514155723856674"><ele>125.0</ele><time>2026-04-06T17:24:11Z</time></trkpt><trkpt lat="43.91740151161338" lon="4.514223751297904"><ele>124.0</ele><time>2026-04-06T17:24:12Z</time></trkpt><trkpt lat="43.91734245588937" lon="4.514274339270301"><ele>123.0</ele><time>2026-04-06T17:24:13Z</time></trkpt><trkpt lat="43.9172480822792" lon="4.514356796900499"><ele>122.00000000000001</ele><time>2026-04-06T17:24:15Z</time></trkpt><trkpt lat="43.91719873398689" lon="4.51441175004281"><ele>121.0</ele><time>2026-04-06T17:24:16Z</time></trkpt><trkpt lat="43.91714834925344" lon="4.514469001054495"><ele>121.0</ele><time>2026-04-06T17:24:17Z</time></trkpt><trkpt lat="43.91704904845064" lon="4.514544207889702"><ele>121.0</ele><time>2026-04-06T17:24:19Z</time></trkpt><trkpt lat="43.91698242634196" lon="4.51460056424239"><ele>121.0</ele><time>2026-04-06T17:24:20.999Z</time></trkpt><trkpt lat="43.91683031400146" lon="4.514517911605926"><ele>121.0</ele><time>2026-04-06T17:24:23.999Z</time></trkpt><trkpt lat="43.916791011455516" lon="4.51443859253177"><ele>121.0</ele><time>2026-04-06T17:24:24.999Z</time></trkpt><trkpt lat="43.91673928233785" lon="4.514363642266294"><ele>120.85714285714285</ele><time>2026-04-06T17:24:25.999Z</time></trkpt><trkpt lat="43.9166835911254" lon="4.514302662404047"><ele>120.7142857142857</ele><time>2026-04-06T17:24:26.999Z</time></trkpt><trkpt lat="43.91664711156013" lon="4.514226098298489"><ele>120.57142857142857</ele><time>2026-04-06T17:24:27.999Z</time></trkpt><trkpt lat="43.916608722781646" lon="4.514144163023445"><ele>120.42857142857142</ele><time>2026-04-06T17:24:28.999Z</time></trkpt><trkpt lat="43.91656252108754" lon="4.514067637251882"><ele>120.28571428571428</ele><time>2026-04-06T17:24:29.999Z</time></trkpt><trkpt lat="43.91651357926174" lon="4.513990534301426"><ele>120.14285714285714</ele><time>2026-04-06T17:24:30.999Z</time></trkpt><trkpt lat="43.916466235701556" lon="4.513927462702685"><ele>120.0</ele><time>2026-04-06T17:24:31.999Z</time></trkpt><trkpt lat="43.91642989247017" lon="4.513837607600329"><ele>120.0</ele><time>2026-04-06T17:24:32.999Z</time></trkpt><trkpt lat="43.9163847564609" lon="4.513750358896233"><ele>120.0</ele><time>2026-04-06T17:24:33.999Z</time></trkpt><trkpt lat="43.916341907469295" lon="4.513667531041249"><ele>120.0</ele><time>2026-04-06T17:24:34.999Z</time></trkpt><trkpt lat="43.91629102587451" lon="4.5135709950447405"><ele>120.0</ele><time>2026-04-06T17:24:35.999Z</time></trkpt><trkpt lat="43.916235621610774" lon="4.513464848486977"><ele>120.0</ele><time>2026-04-06T17:24:36.999Z</time></trkpt><trkpt lat="43.91617911530736" lon="4.51334750658659"><ele>120.0</ele><time>2026-04-06T17:24:37.999Z</time></trkpt><trkpt lat="43.91611858283286" lon="4.513218208747925"><ele>120.0</ele><time>2026-04-06T17:24:38.999Z</time></trkpt><trkpt lat="43.9160585037907" lon="4.513097099018499"><ele>120.0</ele><time>2026-04-06T17:24:39.999Z</time></trkpt><trkpt lat="43.9159970022437" lon="4.512986741761849"><ele>120.0</ele><time>2026-04-06T17:24:40.999Z</time></trkpt><trkpt lat="43.91593851926344" lon="4.512872846516328"><ele>120.0</ele><time>2026-04-06T17:24:41.999Z</time></trkpt><trkpt lat="43.91588434902327" lon="4.512761523467877"><ele>120.0</ele><time>2026-04-06T17:24:42.999Z</time></trkpt><trkpt lat="43.915827478690574" lon="4.512644195658185"><ele>119.0</ele><time>2026-04-06T17:24:43.999Z</time></trkpt><trkpt lat="43.915768482112455" lon="4.512519587822182"><ele>118.0</ele><time>2026-04-06T17:24:44.999Z</time></trkpt><trkpt lat="43.91571142456322" lon="4.51239495676198"><ele>117.0</ele><time>2026-04-06T17:24:45.999Z</time></trkpt><trkpt lat="43.91565853124239" lon="4.512281207861861"><ele>116.0</ele><time>2026-04-06T17:24:46.999Z</time></trkpt><trkpt lat="43.91560849544602" lon="4.512177939335249"><ele>115.0</ele><time>2026-04-06T17:24:47.999Z</time></trkpt><trkpt lat="43.91556127110927" lon="4.512080870868079"><ele>115.4</ele><time>2026-04-06T17:24:48.999Z</time></trkpt><trkpt lat="43.91552345777487" lon="4.512004963503001"><ele>115.8</ele><time>2026-04-06T17:24:49.999Z</time></trkpt><trkpt lat="43.91547489063126" lon="4.511947806263363"><ele>116.19999999999999</ele><time>2026-04-06T17:24:50.999Z</time></trkpt><trkpt lat="43.91542384247399" lon="4.511812336834524"><ele>116.6</ele><time>2026-04-06T17:24:52.999Z</time></trkpt><trkpt lat="43.915385984642626" lon="4.511739992731288"><ele>117.0</ele><time>2026-04-06T17:24:54.999Z</time></trkpt><trkpt lat="43.91525590611367" lon="4.511839614341428"><ele>117.0</ele><time>2026-04-06T17:24:56.999Z</time></trkpt><trkpt lat="43.91516430062604" lon="4.511964884552509"><ele>117.0</ele><time>2026-04-06T17:24:58.999Z</time></trkpt><trkpt lat="43.915098879406884" lon="4.512012686327019"><ele>117.0</ele><time>2026-04-06T17:24:59.999Z</time></trkpt><trkpt lat="43.91504051957457" lon="4.51208296612791"><ele>117.0</ele><time>2026-04-06T17:25:00.999Z</time></trkpt><trkpt lat="43.914985383581865" lon="4.512148835289418"><ele>117.0</ele><time>2026-04-06T17:25:01.999Z</time></trkpt><trkpt lat="43.914927673318964" lon="4.512216003619553"><ele>117.0</ele><time>2026-04-06T17:25:02.999Z</time></trkpt><trkpt lat="43.914881861564" lon="4.512299259351446"><ele>116.16666666666667</ele><time>2026-04-06T17:25:03.999Z</time></trkpt><trkpt lat="43.914828722298225" lon="4.512362305124788"><ele>115.33333333333334</ele><time>2026-04-06T17:25:04.999Z</time></trkpt><trkpt lat="43.91474096372385" lon="4.512469255345701"><ele>114.5</ele><time>2026-04-06T17:25:06.999Z</time></trkpt><trkpt lat="43.91467286689788" lon="4.512540554869486"><ele>113.66666666666667</ele><time>2026-04-06T17:25:08.999Z</time></trkpt><trkpt lat="43.914600737914135" lon="4.512526071229749"><ele>112.83333333333334</ele><time>2026-04-06T17:25:10.999Z</time></trkpt><trkpt lat="43.91452377779238" lon="4.51250897316017"><ele>112.0</ele><time>2026-04-06T17:25:12.999Z</time></trkpt><trkpt lat="43.91445900475718" lon="4.512445370718846"><ele>112.0</ele><time>2026-04-06T17:25:14.999Z</time></trkpt><trkpt lat="43.914381012160376" lon="4.5123788978338055"><ele>112.0</ele><time>2026-04-06T17:25:17.999Z</time></trkpt><trkpt lat="43.914318982828895" lon="4.512407515516526"><ele>112.0</ele><time>2026-04-06T17:25:20.998Z</time></trkpt><trkpt lat="43.91433332676001" lon="4.512493174558593"><ele>112.0</ele><time>2026-04-06T17:25:29.998Z</time></trkpt></trkseg></trk></gpx>